<?xml version="1.0" encoding="UTF-8" standalone="no" ?>
<gpx xmlns="http://www.topografix.com/GPX/1/1" xmlns:xsi="http://www.w3.org/2001/XMLSchema-instance" xsi:schemaLocation="http://www.topografix.com/GPX/1/1 http://www.topografix.com/GPX/1/1/gpx.xsd" version="1.1" creator="VisuGPX - https://www.visugpx.com">
  <metadata>
    <name>Champagnat Cyclisme sur route</name>
  </metadata>
  <trk>
    <name><![CDATA[Champagnat Cyclisme sur route_1]]></name>
    <trkseg>
      <trkpt lat="46.48274" lon="5.36834">
        <ele>261.8</ele>
        <time>2022-07-21T04:25:41Z</time>
      </trkpt>
      <trkpt lat="46.48264" lon="5.36821">
        <ele>261.2</ele>
        <time>2022-07-21T04:25:42Z</time>
      </trkpt>
      <trkpt lat="46.48254" lon="5.3681">
        <ele>260.2</ele>
        <time>2022-07-21T04:25:43Z</time>
      </trkpt>
      <trkpt lat="46.48243" lon="5.368">
        <ele>259</ele>
        <time>2022-07-21T04:25:44Z</time>
      </trkpt>
      <trkpt lat="46.48232" lon="5.36792">
        <ele>258.4</ele>
        <time>2022-07-21T04:25:45Z</time>
      </trkpt>
      <trkpt lat="46.48221" lon="5.36783">
        <ele>257.6</ele>
        <time>2022-07-21T04:25:46Z</time>
      </trkpt>
      <trkpt lat="46.48199" lon="5.36765">
        <ele>255.4</ele>
        <time>2022-07-21T04:25:48Z</time>
      </trkpt>
      <trkpt lat="46.48167" lon="5.36739">
        <ele>253.4</ele>
        <time>2022-07-21T04:25:51Z</time>
      </trkpt>
      <trkpt lat="46.48147" lon="5.36723">
        <ele>251.6</ele>
        <time>2022-07-21T04:25:53Z</time>
      </trkpt>
      <trkpt lat="46.48128" lon="5.3671">
        <ele>250.6</ele>
        <time>2022-07-21T04:25:55Z</time>
      </trkpt>
      <trkpt lat="46.48115" lon="5.36699">
        <ele>249.4</ele>
        <time>2022-07-21T04:25:57Z</time>
      </trkpt>
      <trkpt lat="46.48111" lon="5.36683">
        <ele>249</ele>
        <time>2022-07-21T04:25:59Z</time>
      </trkpt>
      <trkpt lat="46.48119" lon="5.36669">
        <ele>248.8</ele>
        <time>2022-07-21T04:26:01Z</time>
      </trkpt>
      <trkpt lat="46.48126" lon="5.36663">
        <ele>248.4</ele>
        <time>2022-07-21T04:26:02Z</time>
      </trkpt>
      <trkpt lat="46.48138" lon="5.3665">
        <ele>248.2</ele>
        <time>2022-07-21T04:26:04Z</time>
      </trkpt>
      <trkpt lat="46.48155" lon="5.36632">
        <ele>247.4</ele>
        <time>2022-07-21T04:26:07Z</time>
      </trkpt>
      <trkpt lat="46.48162" lon="5.36624">
        <ele>247.2</ele>
        <time>2022-07-21T04:26:08Z</time>
      </trkpt>
      <trkpt lat="46.48177" lon="5.36609">
        <ele>246.6</ele>
        <time>2022-07-21T04:26:10Z</time>
      </trkpt>
      <trkpt lat="46.48193" lon="5.36602">
        <ele>246</ele>
        <time>2022-07-21T04:26:12Z</time>
      </trkpt>
      <trkpt lat="46.48209" lon="5.36597">
        <ele>245.6</ele>
        <time>2022-07-21T04:26:14Z</time>
      </trkpt>
      <trkpt lat="46.48221" lon="5.36584">
        <ele>245.4</ele>
        <time>2022-07-21T04:26:16Z</time>
      </trkpt>
      <trkpt lat="46.48234" lon="5.36556">
        <ele>245.2</ele>
        <time>2022-07-21T04:26:19Z</time>
      </trkpt>
      <trkpt lat="46.48245" lon="5.36541">
        <ele>244.8</ele>
        <time>2022-07-21T04:26:21Z</time>
      </trkpt>
      <trkpt lat="46.48258" lon="5.36526">
        <ele>244.8</ele>
        <time>2022-07-21T04:26:23Z</time>
      </trkpt>
      <trkpt lat="46.48285" lon="5.36498">
        <ele>243.8</ele>
        <time>2022-07-21T04:26:27Z</time>
      </trkpt>
      <trkpt lat="46.48311" lon="5.36469">
        <ele>243</ele>
        <time>2022-07-21T04:26:31Z</time>
      </trkpt>
      <trkpt lat="46.48317" lon="5.36461">
        <ele>242.6</ele>
        <time>2022-07-21T04:26:32Z</time>
      </trkpt>
      <trkpt lat="46.48338" lon="5.36439">
        <ele>242</ele>
        <time>2022-07-21T04:26:35Z</time>
      </trkpt>
      <trkpt lat="46.48359" lon="5.36416">
        <ele>241.6</ele>
        <time>2022-07-21T04:26:38Z</time>
      </trkpt>
      <trkpt lat="46.4838" lon="5.36393">
        <ele>240.4</ele>
        <time>2022-07-21T04:26:41Z</time>
      </trkpt>
      <trkpt lat="46.48416" lon="5.36359">
        <ele>239.4</ele>
        <time>2022-07-21T04:26:46Z</time>
      </trkpt>
      <trkpt lat="46.48456" lon="5.36346">
        <ele>238.6</ele>
        <time>2022-07-21T04:26:51Z</time>
      </trkpt>
      <trkpt lat="46.4851" lon="5.36337">
        <ele>238.2</ele>
        <time>2022-07-21T04:26:58Z</time>
      </trkpt>
      <trkpt lat="46.4857" lon="5.36327">
        <ele>238</ele>
        <time>2022-07-21T04:27:06Z</time>
      </trkpt>
      <trkpt lat="46.48578" lon="5.36326">
        <ele>238</ele>
        <time>2022-07-21T04:27:07Z</time>
      </trkpt>
      <trkpt lat="46.48594" lon="5.36324">
        <ele>238</ele>
        <time>2022-07-21T04:27:09Z</time>
      </trkpt>
      <trkpt lat="46.4861" lon="5.3632">
        <ele>237.6</ele>
        <time>2022-07-21T04:27:11Z</time>
      </trkpt>
      <trkpt lat="46.48619" lon="5.36316">
        <ele>237.2</ele>
        <time>2022-07-21T04:27:12Z</time>
      </trkpt>
      <trkpt lat="46.48626" lon="5.36309">
        <ele>237</ele>
        <time>2022-07-21T04:27:13Z</time>
      </trkpt>
      <trkpt lat="46.48635" lon="5.36286">
        <ele>236.4</ele>
        <time>2022-07-21T04:27:15Z</time>
      </trkpt>
      <trkpt lat="46.48637" lon="5.36272">
        <ele>235.8</ele>
        <time>2022-07-21T04:27:16Z</time>
      </trkpt>
      <trkpt lat="46.4864" lon="5.36245">
        <ele>234.6</ele>
        <time>2022-07-21T04:27:18Z</time>
      </trkpt>
      <trkpt lat="46.48642" lon="5.36231">
        <ele>233.8</ele>
        <time>2022-07-21T04:27:19Z</time>
      </trkpt>
      <trkpt lat="46.48643" lon="5.36217">
        <ele>233.6</ele>
        <time>2022-07-21T04:27:20Z</time>
      </trkpt>
      <trkpt lat="46.48646" lon="5.36175">
        <ele>232.2</ele>
        <time>2022-07-21T04:27:23Z</time>
      </trkpt>
      <trkpt lat="46.48653" lon="5.36122">
        <ele>231.2</ele>
        <time>2022-07-21T04:27:27Z</time>
      </trkpt>
      <trkpt lat="46.48669" lon="5.36051">
        <ele>230.6</ele>
        <time>2022-07-21T04:27:33Z</time>
      </trkpt>
      <trkpt lat="46.48678" lon="5.36003">
        <ele>230.8</ele>
        <time>2022-07-21T04:27:38Z</time>
      </trkpt>
      <trkpt lat="46.48685" lon="5.35964">
        <ele>232.2</ele>
        <time>2022-07-21T04:27:42Z</time>
      </trkpt>
      <trkpt lat="46.48689" lon="5.35931">
        <ele>232.8</ele>
        <time>2022-07-21T04:27:45Z</time>
      </trkpt>
      <trkpt lat="46.4869" lon="5.3592">
        <ele>232.8</ele>
        <time>2022-07-21T04:27:46Z</time>
      </trkpt>
      <trkpt lat="46.487" lon="5.3589">
        <ele>233</ele>
        <time>2022-07-21T04:27:49Z</time>
      </trkpt>
      <trkpt lat="46.48729" lon="5.35819">
        <ele>231.8</ele>
        <time>2022-07-21T04:27:56Z</time>
      </trkpt>
      <trkpt lat="46.48733" lon="5.35809">
        <ele>231.4</ele>
        <time>2022-07-21T04:27:57Z</time>
      </trkpt>
      <trkpt lat="46.48737" lon="5.358">
        <ele>231.2</ele>
        <time>2022-07-21T04:27:58Z</time>
      </trkpt>
      <trkpt lat="46.48762" lon="5.35743">
        <ele>230</ele>
        <time>2022-07-21T04:28:04Z</time>
      </trkpt>
      <trkpt lat="46.48766" lon="5.35734">
        <ele>229.8</ele>
        <time>2022-07-21T04:28:05Z</time>
      </trkpt>
      <trkpt lat="46.48798" lon="5.35665">
        <ele>229.2</ele>
        <time>2022-07-21T04:28:13Z</time>
      </trkpt>
      <trkpt lat="46.48821" lon="5.35618">
        <ele>229.4</ele>
        <time>2022-07-21T04:28:19Z</time>
      </trkpt>
      <trkpt lat="46.48828" lon="5.35601">
        <ele>229.6</ele>
        <time>2022-07-21T04:28:21Z</time>
      </trkpt>
      <trkpt lat="46.48838" lon="5.35577">
        <ele>230</ele>
        <time>2022-07-21T04:28:24Z</time>
      </trkpt>
      <trkpt lat="46.48858" lon="5.35528">
        <ele>230.2</ele>
        <time>2022-07-21T04:28:30Z</time>
      </trkpt>
      <trkpt lat="46.48869" lon="5.35503">
        <ele>230.2</ele>
        <time>2022-07-21T04:28:33Z</time>
      </trkpt>
      <trkpt lat="46.48887" lon="5.3546">
        <ele>229.8</ele>
        <time>2022-07-21T04:28:38Z</time>
      </trkpt>
      <trkpt lat="46.48916" lon="5.35391">
        <ele>229.4</ele>
        <time>2022-07-21T04:28:46Z</time>
      </trkpt>
      <trkpt lat="46.48944" lon="5.35329">
        <ele>228.8</ele>
        <time>2022-07-21T04:28:53Z</time>
      </trkpt>
      <trkpt lat="46.48972" lon="5.35263">
        <ele>228.2</ele>
        <time>2022-07-21T04:29:01Z</time>
      </trkpt>
      <trkpt lat="46.48996" lon="5.3521">
        <ele>228.6</ele>
        <time>2022-07-21T04:29:08Z</time>
      </trkpt>
      <trkpt lat="46.49014" lon="5.3517">
        <ele>229.8</ele>
        <time>2022-07-21T04:29:14Z</time>
      </trkpt>
      <trkpt lat="46.49016" lon="5.35163">
        <ele>230</ele>
        <time>2022-07-21T04:29:15Z</time>
      </trkpt>
      <trkpt lat="46.49035" lon="5.35119">
        <ele>230.6</ele>
        <time>2022-07-21T04:29:21Z</time>
      </trkpt>
      <trkpt lat="46.49049" lon="5.35068">
        <ele>230.8</ele>
        <time>2022-07-21T04:29:27Z</time>
      </trkpt>
      <trkpt lat="46.49051" lon="5.35058">
        <ele>230.8</ele>
        <time>2022-07-21T04:29:28Z</time>
      </trkpt>
      <trkpt lat="46.49064" lon="5.35008">
        <ele>230.4</ele>
        <time>2022-07-21T04:29:33Z</time>
      </trkpt>
      <trkpt lat="46.49075" lon="5.34942">
        <ele>228.8</ele>
        <time>2022-07-21T04:29:39Z</time>
      </trkpt>
      <trkpt lat="46.49077" lon="5.34931">
        <ele>228.6</ele>
        <time>2022-07-21T04:29:40Z</time>
      </trkpt>
      <trkpt lat="46.49086" lon="5.34885">
        <ele>227.8</ele>
        <time>2022-07-21T04:29:44Z</time>
      </trkpt>
      <trkpt lat="46.49096" lon="5.34827">
        <ele>226.6</ele>
        <time>2022-07-21T04:29:49Z</time>
      </trkpt>
      <trkpt lat="46.49108" lon="5.3477">
        <ele>225.6</ele>
        <time>2022-07-21T04:29:54Z</time>
      </trkpt>
      <trkpt lat="46.49111" lon="5.34759">
        <ele>225.4</ele>
        <time>2022-07-21T04:29:55Z</time>
      </trkpt>
      <trkpt lat="46.49123" lon="5.34702">
        <ele>224.4</ele>
        <time>2022-07-21T04:30:00Z</time>
      </trkpt>
      <trkpt lat="46.49126" lon="5.34692">
        <ele>224.4</ele>
        <time>2022-07-21T04:30:01Z</time>
      </trkpt>
      <trkpt lat="46.49138" lon="5.3464">
        <ele>223.6</ele>
        <time>2022-07-21T04:30:06Z</time>
      </trkpt>
      <trkpt lat="46.4914" lon="5.3462">
        <ele>223.6</ele>
        <time>2022-07-21T04:30:08Z</time>
      </trkpt>
      <trkpt lat="46.49145" lon="5.34591">
        <ele>223.6</ele>
        <time>2022-07-21T04:30:11Z</time>
      </trkpt>
      <trkpt lat="46.49156" lon="5.34529">
        <ele>224.6</ele>
        <time>2022-07-21T04:30:17Z</time>
      </trkpt>
      <trkpt lat="46.49158" lon="5.34518">
        <ele>224.6</ele>
        <time>2022-07-21T04:30:18Z</time>
      </trkpt>
      <trkpt lat="46.49165" lon="5.34472">
        <ele>224</ele>
        <time>2022-07-21T04:30:22Z</time>
      </trkpt>
      <trkpt lat="46.49181" lon="5.3439">
        <ele>223.8</ele>
        <time>2022-07-21T04:30:30Z</time>
      </trkpt>
      <trkpt lat="46.4919" lon="5.34338">
        <ele>224.8</ele>
        <time>2022-07-21T04:30:36Z</time>
      </trkpt>
      <trkpt lat="46.49192" lon="5.3433">
        <ele>224.8</ele>
        <time>2022-07-21T04:30:37Z</time>
      </trkpt>
      <trkpt lat="46.49202" lon="5.34282">
        <ele>225.2</ele>
        <time>2022-07-21T04:30:42Z</time>
      </trkpt>
      <trkpt lat="46.49215" lon="5.34204">
        <ele>224.8</ele>
        <time>2022-07-21T04:30:49Z</time>
      </trkpt>
      <trkpt lat="46.49228" lon="5.34141">
        <ele>224.2</ele>
        <time>2022-07-21T04:30:55Z</time>
      </trkpt>
      <trkpt lat="46.49236" lon="5.34096">
        <ele>224.4</ele>
        <time>2022-07-21T04:31:00Z</time>
      </trkpt>
      <trkpt lat="46.49243" lon="5.34065">
        <ele>225.4</ele>
        <time>2022-07-21T04:31:04Z</time>
      </trkpt>
      <trkpt lat="46.49247" lon="5.34049">
        <ele>226</ele>
        <time>2022-07-21T04:31:06Z</time>
      </trkpt>
      <trkpt lat="46.49252" lon="5.34026">
        <ele>226.6</ele>
        <time>2022-07-21T04:31:09Z</time>
      </trkpt>
      <trkpt lat="46.49259" lon="5.33992">
        <ele>227.2</ele>
        <time>2022-07-21T04:31:13Z</time>
      </trkpt>
      <trkpt lat="46.49272" lon="5.3392">
        <ele>227.4</ele>
        <time>2022-07-21T04:31:21Z</time>
      </trkpt>
      <trkpt lat="46.49286" lon="5.33862">
        <ele>227.4</ele>
        <time>2022-07-21T04:31:28Z</time>
      </trkpt>
      <trkpt lat="46.49295" lon="5.33819">
        <ele>227.4</ele>
        <time>2022-07-21T04:31:33Z</time>
      </trkpt>
      <trkpt lat="46.49306" lon="5.33754">
        <ele>227.4</ele>
        <time>2022-07-21T04:31:40Z</time>
      </trkpt>
      <trkpt lat="46.49308" lon="5.33684">
        <ele>226.8</ele>
        <time>2022-07-21T04:31:47Z</time>
      </trkpt>
      <trkpt lat="46.4931" lon="5.33622">
        <ele>225.8</ele>
        <time>2022-07-21T04:31:53Z</time>
      </trkpt>
      <trkpt lat="46.49313" lon="5.33602">
        <ele>225.6</ele>
        <time>2022-07-21T04:31:55Z</time>
      </trkpt>
      <trkpt lat="46.49322" lon="5.33565">
        <ele>225.2</ele>
        <time>2022-07-21T04:31:59Z</time>
      </trkpt>
      <trkpt lat="46.49324" lon="5.33536">
        <ele>225.2</ele>
        <time>2022-07-21T04:32:02Z</time>
      </trkpt>
      <trkpt lat="46.49322" lon="5.33517">
        <ele>225.2</ele>
        <time>2022-07-21T04:32:04Z</time>
      </trkpt>
      <trkpt lat="46.49321" lon="5.33508">
        <ele>225.2</ele>
        <time>2022-07-21T04:32:05Z</time>
      </trkpt>
      <trkpt lat="46.49312" lon="5.33445">
        <ele>225.2</ele>
        <time>2022-07-21T04:32:12Z</time>
      </trkpt>
      <trkpt lat="46.49296" lon="5.33363">
        <ele>225</ele>
        <time>2022-07-21T04:32:21Z</time>
      </trkpt>
      <trkpt lat="46.49295" lon="5.33354">
        <ele>225</ele>
        <time>2022-07-21T04:32:22Z</time>
      </trkpt>
      <trkpt lat="46.49286" lon="5.33313">
        <ele>224.2</ele>
        <time>2022-07-21T04:32:26Z</time>
      </trkpt>
      <trkpt lat="46.49279" lon="5.33272">
        <ele>223.8</ele>
        <time>2022-07-21T04:32:30Z</time>
      </trkpt>
      <trkpt lat="46.49269" lon="5.33231">
        <ele>223</ele>
        <time>2022-07-21T04:32:34Z</time>
      </trkpt>
      <trkpt lat="46.49262" lon="5.33212">
        <ele>223.2</ele>
        <time>2022-07-21T04:32:36Z</time>
      </trkpt>
      <trkpt lat="46.49257" lon="5.33203">
        <ele>223</ele>
        <time>2022-07-21T04:32:37Z</time>
      </trkpt>
      <trkpt lat="46.49245" lon="5.33188">
        <ele>222.8</ele>
        <time>2022-07-21T04:32:39Z</time>
      </trkpt>
      <trkpt lat="46.49225" lon="5.33172">
        <ele>222.2</ele>
        <time>2022-07-21T04:32:42Z</time>
      </trkpt>
      <trkpt lat="46.49211" lon="5.33162">
        <ele>221.8</ele>
        <time>2022-07-21T04:32:44Z</time>
      </trkpt>
      <trkpt lat="46.49172" lon="5.33124">
        <ele>220.8</ele>
        <time>2022-07-21T04:32:50Z</time>
      </trkpt>
      <trkpt lat="46.49166" lon="5.33117">
        <ele>220.6</ele>
        <time>2022-07-21T04:32:51Z</time>
      </trkpt>
      <trkpt lat="46.49157" lon="5.331">
        <ele>220.2</ele>
        <time>2022-07-21T04:32:53Z</time>
      </trkpt>
      <trkpt lat="46.49151" lon="5.33081">
        <ele>220</ele>
        <time>2022-07-21T04:32:55Z</time>
      </trkpt>
      <trkpt lat="46.49144" lon="5.33054">
        <ele>220.4</ele>
        <time>2022-07-21T04:32:58Z</time>
      </trkpt>
      <trkpt lat="46.4914" lon="5.33036">
        <ele>220.4</ele>
        <time>2022-07-21T04:33:00Z</time>
      </trkpt>
      <trkpt lat="46.49135" lon="5.33005">
        <ele>220.6</ele>
        <time>2022-07-21T04:33:03Z</time>
      </trkpt>
      <trkpt lat="46.49133" lon="5.32977">
        <ele>220.2</ele>
        <time>2022-07-21T04:33:06Z</time>
      </trkpt>
      <trkpt lat="46.49131" lon="5.32944">
        <ele>219.8</ele>
        <time>2022-07-21T04:33:09Z</time>
      </trkpt>
      <trkpt lat="46.4913" lon="5.32898">
        <ele>218.8</ele>
        <time>2022-07-21T04:33:13Z</time>
      </trkpt>
      <trkpt lat="46.49131" lon="5.32888">
        <ele>218.6</ele>
        <time>2022-07-21T04:33:14Z</time>
      </trkpt>
      <trkpt lat="46.49136" lon="5.32868">
        <ele>218.4</ele>
        <time>2022-07-21T04:33:16Z</time>
      </trkpt>
      <trkpt lat="46.49145" lon="5.32816">
        <ele>218.4</ele>
        <time>2022-07-21T04:33:21Z</time>
      </trkpt>
      <trkpt lat="46.49146" lon="5.32795">
        <ele>218.4</ele>
        <time>2022-07-21T04:33:23Z</time>
      </trkpt>
      <trkpt lat="46.49144" lon="5.32777">
        <ele>218.4</ele>
        <time>2022-07-21T04:33:25Z</time>
      </trkpt>
      <trkpt lat="46.49134" lon="5.32725">
        <ele>219.2</ele>
        <time>2022-07-21T04:33:31Z</time>
      </trkpt>
      <trkpt lat="46.49131" lon="5.32716">
        <ele>219.4</ele>
        <time>2022-07-21T04:33:32Z</time>
      </trkpt>
      <trkpt lat="46.49127" lon="5.32708">
        <ele>219.4</ele>
        <time>2022-07-21T04:33:33Z</time>
      </trkpt>
      <trkpt lat="46.49116" lon="5.32695">
        <ele>219.6</ele>
        <time>2022-07-21T04:33:35Z</time>
      </trkpt>
      <trkpt lat="46.49103" lon="5.32688">
        <ele>219.6</ele>
        <time>2022-07-21T04:33:37Z</time>
      </trkpt>
      <trkpt lat="46.49095" lon="5.32688">
        <ele>219.6</ele>
        <time>2022-07-21T04:33:38Z</time>
      </trkpt>
      <trkpt lat="46.49053" lon="5.32697">
        <ele>218.2</ele>
        <time>2022-07-21T04:33:43Z</time>
      </trkpt>
      <trkpt lat="46.49044" lon="5.32699">
        <ele>217.8</ele>
        <time>2022-07-21T04:33:44Z</time>
      </trkpt>
      <trkpt lat="46.49028" lon="5.32702">
        <ele>216.8</ele>
        <time>2022-07-21T04:33:46Z</time>
      </trkpt>
      <trkpt lat="46.4901" lon="5.32705">
        <ele>216.2</ele>
        <time>2022-07-21T04:33:48Z</time>
      </trkpt>
      <trkpt lat="46.49" lon="5.32706">
        <ele>215.6</ele>
        <time>2022-07-21T04:33:49Z</time>
      </trkpt>
      <trkpt lat="46.4899" lon="5.32706">
        <ele>214.6</ele>
        <time>2022-07-21T04:33:50Z</time>
      </trkpt>
      <trkpt lat="46.48981" lon="5.32705">
        <ele>214.2</ele>
        <time>2022-07-21T04:33:51Z</time>
      </trkpt>
      <trkpt lat="46.4897" lon="5.32703">
        <ele>213.6</ele>
        <time>2022-07-21T04:33:52Z</time>
      </trkpt>
      <trkpt lat="46.48961" lon="5.32698">
        <ele>213.4</ele>
        <time>2022-07-21T04:33:53Z</time>
      </trkpt>
      <trkpt lat="46.48941" lon="5.32683">
        <ele>212.2</ele>
        <time>2022-07-21T04:33:55Z</time>
      </trkpt>
      <trkpt lat="46.48926" lon="5.32662">
        <ele>210.8</ele>
        <time>2022-07-21T04:33:57Z</time>
      </trkpt>
      <trkpt lat="46.48921" lon="5.32648">
        <ele>210.4</ele>
        <time>2022-07-21T04:33:58Z</time>
      </trkpt>
      <trkpt lat="46.48918" lon="5.32633">
        <ele>209.2</ele>
        <time>2022-07-21T04:33:59Z</time>
      </trkpt>
      <trkpt lat="46.48918" lon="5.32618">
        <ele>208.8</ele>
        <time>2022-07-21T04:34:00Z</time>
      </trkpt>
      <trkpt lat="46.48922" lon="5.32603">
        <ele>207.6</ele>
        <time>2022-07-21T04:34:01Z</time>
      </trkpt>
      <trkpt lat="46.48928" lon="5.32589">
        <ele>206.6</ele>
        <time>2022-07-21T04:34:02Z</time>
      </trkpt>
      <trkpt lat="46.48945" lon="5.32564">
        <ele>205.6</ele>
        <time>2022-07-21T04:34:04Z</time>
      </trkpt>
      <trkpt lat="46.48951" lon="5.32554">
        <ele>205.4</ele>
        <time>2022-07-21T04:34:05Z</time>
      </trkpt>
      <trkpt lat="46.48956" lon="5.32541">
        <ele>204</ele>
        <time>2022-07-21T04:34:06Z</time>
      </trkpt>
      <trkpt lat="46.48957" lon="5.32525">
        <ele>203.8</ele>
        <time>2022-07-21T04:34:07Z</time>
      </trkpt>
      <trkpt lat="46.48955" lon="5.32511">
        <ele>202.8</ele>
        <time>2022-07-21T04:34:08Z</time>
      </trkpt>
      <trkpt lat="46.48952" lon="5.325">
        <ele>202.6</ele>
        <time>2022-07-21T04:34:09Z</time>
      </trkpt>
      <trkpt lat="46.48941" lon="5.32463">
        <ele>201.6</ele>
        <time>2022-07-21T04:34:12Z</time>
      </trkpt>
      <trkpt lat="46.48922" lon="5.32405">
        <ele>200.8</ele>
        <time>2022-07-21T04:34:17Z</time>
      </trkpt>
      <trkpt lat="46.48907" lon="5.32353">
        <ele>201</ele>
        <time>2022-07-21T04:34:22Z</time>
      </trkpt>
      <trkpt lat="46.48904" lon="5.32343">
        <ele>201</ele>
        <time>2022-07-21T04:34:23Z</time>
      </trkpt>
      <trkpt lat="46.48891" lon="5.3232">
        <ele>201.6</ele>
        <time>2022-07-21T04:34:26Z</time>
      </trkpt>
      <trkpt lat="46.48872" lon="5.32291">
        <ele>203.2</ele>
        <time>2022-07-21T04:34:31Z</time>
      </trkpt>
      <trkpt lat="46.48862" lon="5.32278">
        <ele>204.4</ele>
        <time>2022-07-21T04:34:34Z</time>
      </trkpt>
      <trkpt lat="46.48856" lon="5.32269">
        <ele>206.2</ele>
        <time>2022-07-21T04:34:36Z</time>
      </trkpt>
      <trkpt lat="46.48848" lon="5.32255">
        <ele>207.4</ele>
        <time>2022-07-21T04:34:39Z</time>
      </trkpt>
      <trkpt lat="46.48841" lon="5.32241">
        <ele>208.6</ele>
        <time>2022-07-21T04:34:42Z</time>
      </trkpt>
      <trkpt lat="46.48838" lon="5.32235">
        <ele>209</ele>
        <time>2022-07-21T04:34:43Z</time>
      </trkpt>
      <trkpt lat="46.48836" lon="5.3223">
        <ele>209.2</ele>
        <time>2022-07-21T04:34:44Z</time>
      </trkpt>
      <trkpt lat="46.48834" lon="5.32226">
        <ele>209.6</ele>
        <time>2022-07-21T04:34:45Z</time>
      </trkpt>
      <trkpt lat="46.48833" lon="5.32219">
        <ele>209.8</ele>
        <time>2022-07-21T04:34:46Z</time>
      </trkpt>
      <trkpt lat="46.48829" lon="5.32203">
        <ele>210.2</ele>
        <time>2022-07-21T04:34:48Z</time>
      </trkpt>
      <trkpt lat="46.48824" lon="5.32151">
        <ele>210</ele>
        <time>2022-07-21T04:34:54Z</time>
      </trkpt>
      <trkpt lat="46.48825" lon="5.32143">
        <ele>209.8</ele>
        <time>2022-07-21T04:34:55Z</time>
      </trkpt>
      <trkpt lat="46.48829" lon="5.321">
        <ele>208.4</ele>
        <time>2022-07-21T04:34:59Z</time>
      </trkpt>
      <trkpt lat="46.48838" lon="5.3205">
        <ele>207.4</ele>
        <time>2022-07-21T04:35:04Z</time>
      </trkpt>
      <trkpt lat="46.48842" lon="5.32028">
        <ele>207</ele>
        <time>2022-07-21T04:35:06Z</time>
      </trkpt>
      <trkpt lat="46.48848" lon="5.31984">
        <ele>206.2</ele>
        <time>2022-07-21T04:35:10Z</time>
      </trkpt>
      <trkpt lat="46.48848" lon="5.31973">
        <ele>206.2</ele>
        <time>2022-07-21T04:35:11Z</time>
      </trkpt>
      <trkpt lat="46.48844" lon="5.31908">
        <ele>205.2</ele>
        <time>2022-07-21T04:35:17Z</time>
      </trkpt>
      <trkpt lat="46.48843" lon="5.31897">
        <ele>205</ele>
        <time>2022-07-21T04:35:18Z</time>
      </trkpt>
      <trkpt lat="46.48838" lon="5.31875">
        <ele>204.6</ele>
        <time>2022-07-21T04:35:20Z</time>
      </trkpt>
      <trkpt lat="46.48829" lon="5.31857">
        <ele>204.4</ele>
        <time>2022-07-21T04:35:22Z</time>
      </trkpt>
      <trkpt lat="46.48816" lon="5.31848">
        <ele>203.8</ele>
        <time>2022-07-21T04:35:24Z</time>
      </trkpt>
      <trkpt lat="46.48808" lon="5.31845">
        <ele>203.6</ele>
        <time>2022-07-21T04:35:25Z</time>
      </trkpt>
      <trkpt lat="46.48801" lon="5.31842">
        <ele>203.4</ele>
        <time>2022-07-21T04:35:26Z</time>
      </trkpt>
      <trkpt lat="46.48788" lon="5.31831">
        <ele>203.2</ele>
        <time>2022-07-21T04:35:28Z</time>
      </trkpt>
      <trkpt lat="46.48782" lon="5.31812">
        <ele>203.2</ele>
        <time>2022-07-21T04:35:30Z</time>
      </trkpt>
      <trkpt lat="46.48779" lon="5.31773">
        <ele>203.2</ele>
        <time>2022-07-21T04:35:34Z</time>
      </trkpt>
      <trkpt lat="46.48777" lon="5.31754">
        <ele>203.4</ele>
        <time>2022-07-21T04:35:36Z</time>
      </trkpt>
      <trkpt lat="46.48776" lon="5.31732">
        <ele>203.4</ele>
        <time>2022-07-21T04:35:38Z</time>
      </trkpt>
      <trkpt lat="46.48774" lon="5.31723">
        <ele>203.4</ele>
        <time>2022-07-21T04:35:39Z</time>
      </trkpt>
      <trkpt lat="46.48771" lon="5.31716">
        <ele>203.4</ele>
        <time>2022-07-21T04:35:40Z</time>
      </trkpt>
      <trkpt lat="46.48759" lon="5.31696">
        <ele>203.8</ele>
        <time>2022-07-21T04:35:43Z</time>
      </trkpt>
      <trkpt lat="46.48737" lon="5.31669">
        <ele>204.2</ele>
        <time>2022-07-21T04:35:48Z</time>
      </trkpt>
      <trkpt lat="46.48733" lon="5.31663">
        <ele>204.4</ele>
        <time>2022-07-21T04:35:49Z</time>
      </trkpt>
      <trkpt lat="46.48724" lon="5.31652">
        <ele>204.6</ele>
        <time>2022-07-21T04:35:51Z</time>
      </trkpt>
      <trkpt lat="46.48719" lon="5.31646">
        <ele>204.4</ele>
        <time>2022-07-21T04:35:52Z</time>
      </trkpt>
      <trkpt lat="46.48688" lon="5.31606">
        <ele>204.6</ele>
        <time>2022-07-21T04:35:59Z</time>
      </trkpt>
      <trkpt lat="46.48658" lon="5.31567">
        <ele>204.4</ele>
        <time>2022-07-21T04:36:05Z</time>
      </trkpt>
      <trkpt lat="46.48636" lon="5.3154">
        <ele>204.4</ele>
        <time>2022-07-21T04:36:10Z</time>
      </trkpt>
      <trkpt lat="46.48632" lon="5.31533">
        <ele>204.4</ele>
        <time>2022-07-21T04:36:11Z</time>
      </trkpt>
      <trkpt lat="46.4862" lon="5.31515">
        <ele>204.4</ele>
        <time>2022-07-21T04:36:14Z</time>
      </trkpt>
      <trkpt lat="46.48617" lon="5.31508">
        <ele>204.4</ele>
        <time>2022-07-21T04:36:15Z</time>
      </trkpt>
      <trkpt lat="46.48611" lon="5.3149">
        <ele>204.4</ele>
        <time>2022-07-21T04:36:17Z</time>
      </trkpt>
      <trkpt lat="46.48609" lon="5.31479">
        <ele>204.4</ele>
        <time>2022-07-21T04:36:18Z</time>
      </trkpt>
      <trkpt lat="46.48608" lon="5.31457">
        <ele>204.4</ele>
        <time>2022-07-21T04:36:20Z</time>
      </trkpt>
      <trkpt lat="46.48607" lon="5.31437">
        <ele>204.2</ele>
        <time>2022-07-21T04:36:22Z</time>
      </trkpt>
      <trkpt lat="46.48604" lon="5.3142">
        <ele>204.2</ele>
        <time>2022-07-21T04:36:24Z</time>
      </trkpt>
      <trkpt lat="46.48599" lon="5.31407">
        <ele>204.4</ele>
        <time>2022-07-21T04:36:26Z</time>
      </trkpt>
      <trkpt lat="46.48591" lon="5.31396">
        <ele>204.6</ele>
        <time>2022-07-21T04:36:28Z</time>
      </trkpt>
      <trkpt lat="46.48587" lon="5.31392">
        <ele>204.8</ele>
        <time>2022-07-21T04:36:29Z</time>
      </trkpt>
      <trkpt lat="46.48569" lon="5.31369">
        <ele>205.8</ele>
        <time>2022-07-21T04:36:34Z</time>
      </trkpt>
      <trkpt lat="46.48566" lon="5.31365">
        <ele>206.2</ele>
        <time>2022-07-21T04:36:35Z</time>
      </trkpt>
      <trkpt lat="46.48564" lon="5.31361">
        <ele>206.8</ele>
        <time>2022-07-21T04:36:36Z</time>
      </trkpt>
      <trkpt lat="46.48562" lon="5.31355">
        <ele>207</ele>
        <time>2022-07-21T04:36:37Z</time>
      </trkpt>
      <trkpt lat="46.48559" lon="5.31346">
        <ele>207.4</ele>
        <time>2022-07-21T04:36:39Z</time>
      </trkpt>
      <trkpt lat="46.48557" lon="5.3133">
        <ele>208.2</ele>
        <time>2022-07-21T04:36:42Z</time>
      </trkpt>
      <trkpt lat="46.48556" lon="5.31313">
        <ele>209.4</ele>
        <time>2022-07-21T04:36:45Z</time>
      </trkpt>
      <trkpt lat="46.48554" lon="5.3128">
        <ele>210.4</ele>
        <time>2022-07-21T04:36:50Z</time>
      </trkpt>
      <trkpt lat="46.48553" lon="5.31266">
        <ele>210.6</ele>
        <time>2022-07-21T04:36:52Z</time>
      </trkpt>
      <trkpt lat="46.48553" lon="5.31251">
        <ele>210.8</ele>
        <time>2022-07-21T04:36:54Z</time>
      </trkpt>
      <trkpt lat="46.48555" lon="5.31236">
        <ele>210.8</ele>
        <time>2022-07-21T04:36:56Z</time>
      </trkpt>
      <trkpt lat="46.48557" lon="5.3123">
        <ele>211</ele>
        <time>2022-07-21T04:36:57Z</time>
      </trkpt>
      <trkpt lat="46.48564" lon="5.31211">
        <ele>211.4</ele>
        <time>2022-07-21T04:37:00Z</time>
      </trkpt>
      <trkpt lat="46.48572" lon="5.31195">
        <ele>211.8</ele>
        <time>2022-07-21T04:37:03Z</time>
      </trkpt>
      <trkpt lat="46.48583" lon="5.31173">
        <ele>212.6</ele>
        <time>2022-07-21T04:37:07Z</time>
      </trkpt>
      <trkpt lat="46.48599" lon="5.31141">
        <ele>213.2</ele>
        <time>2022-07-21T04:37:13Z</time>
      </trkpt>
      <trkpt lat="46.4861" lon="5.3112">
        <ele>213.8</ele>
        <time>2022-07-21T04:37:17Z</time>
      </trkpt>
      <trkpt lat="46.48626" lon="5.31086">
        <ele>214.4</ele>
        <time>2022-07-21T04:37:23Z</time>
      </trkpt>
      <trkpt lat="46.48628" lon="5.3108">
        <ele>214.8</ele>
        <time>2022-07-21T04:37:24Z</time>
      </trkpt>
      <trkpt lat="46.48641" lon="5.31053">
        <ele>215.8</ele>
        <time>2022-07-21T04:37:29Z</time>
      </trkpt>
      <trkpt lat="46.48649" lon="5.31037">
        <ele>216.2</ele>
        <time>2022-07-21T04:37:32Z</time>
      </trkpt>
      <trkpt lat="46.4866" lon="5.31016">
        <ele>217</ele>
        <time>2022-07-21T04:37:36Z</time>
      </trkpt>
      <trkpt lat="46.48676" lon="5.30982">
        <ele>217.6</ele>
        <time>2022-07-21T04:37:42Z</time>
      </trkpt>
      <trkpt lat="46.48696" lon="5.30942">
        <ele>217.8</ele>
        <time>2022-07-21T04:37:48Z</time>
      </trkpt>
      <trkpt lat="46.48704" lon="5.30927">
        <ele>217.6</ele>
        <time>2022-07-21T04:37:50Z</time>
      </trkpt>
      <trkpt lat="46.48719" lon="5.30905">
        <ele>217.2</ele>
        <time>2022-07-21T04:37:53Z</time>
      </trkpt>
      <trkpt lat="46.48724" lon="5.30896">
        <ele>217</ele>
        <time>2022-07-21T04:37:54Z</time>
      </trkpt>
      <trkpt lat="46.48724" lon="5.30884">
        <ele>216.8</ele>
        <time>2022-07-21T04:37:55Z</time>
      </trkpt>
      <trkpt lat="46.48719" lon="5.30862">
        <ele>216</ele>
        <time>2022-07-21T04:37:57Z</time>
      </trkpt>
      <trkpt lat="46.48715" lon="5.30853">
        <ele>215</ele>
        <time>2022-07-21T04:37:58Z</time>
      </trkpt>
      <trkpt lat="46.48709" lon="5.30846">
        <ele>214.4</ele>
        <time>2022-07-21T04:37:59Z</time>
      </trkpt>
      <trkpt lat="46.48695" lon="5.30833">
        <ele>213.8</ele>
        <time>2022-07-21T04:38:01Z</time>
      </trkpt>
      <trkpt lat="46.48682" lon="5.30825">
        <ele>213.4</ele>
        <time>2022-07-21T04:38:03Z</time>
      </trkpt>
      <trkpt lat="46.48659" lon="5.3081">
        <ele>212.2</ele>
        <time>2022-07-21T04:38:06Z</time>
      </trkpt>
      <trkpt lat="46.48653" lon="5.30807">
        <ele>212</ele>
        <time>2022-07-21T04:38:07Z</time>
      </trkpt>
      <trkpt lat="46.48608" lon="5.30776">
        <ele>211.2</ele>
        <time>2022-07-21T04:38:13Z</time>
      </trkpt>
      <trkpt lat="46.48601" lon="5.3077">
        <ele>211.2</ele>
        <time>2022-07-21T04:38:14Z</time>
      </trkpt>
      <trkpt lat="46.48577" lon="5.3075">
        <ele>211</ele>
        <time>2022-07-21T04:38:18Z</time>
      </trkpt>
      <trkpt lat="46.48567" lon="5.3074">
        <ele>211.4</ele>
        <time>2022-07-21T04:38:20Z</time>
      </trkpt>
      <trkpt lat="46.48559" lon="5.30727">
        <ele>212.2</ele>
        <time>2022-07-21T04:38:22Z</time>
      </trkpt>
      <trkpt lat="46.48556" lon="5.3072">
        <ele>212.4</ele>
        <time>2022-07-21T04:38:23Z</time>
      </trkpt>
      <trkpt lat="46.48548" lon="5.307">
        <ele>213.6</ele>
        <time>2022-07-21T04:38:26Z</time>
      </trkpt>
      <trkpt lat="46.48544" lon="5.30687">
        <ele>214</ele>
        <time>2022-07-21T04:38:28Z</time>
      </trkpt>
      <trkpt lat="46.48541" lon="5.30674">
        <ele>214.6</ele>
        <time>2022-07-21T04:38:30Z</time>
      </trkpt>
      <trkpt lat="46.48541" lon="5.30667">
        <ele>214.6</ele>
        <time>2022-07-21T04:38:31Z</time>
      </trkpt>
      <trkpt lat="46.48541" lon="5.30659">
        <ele>214.6</ele>
        <time>2022-07-21T04:38:32Z</time>
      </trkpt>
      <trkpt lat="46.48544" lon="5.30625">
        <ele>215.6</ele>
        <time>2022-07-21T04:38:37Z</time>
      </trkpt>
      <trkpt lat="46.48546" lon="5.30612">
        <ele>216.2</ele>
        <time>2022-07-21T04:38:39Z</time>
      </trkpt>
      <trkpt lat="46.48546" lon="5.30606">
        <ele>216.8</ele>
        <time>2022-07-21T04:38:40Z</time>
      </trkpt>
      <trkpt lat="46.4855" lon="5.30578">
        <ele>217.8</ele>
        <time>2022-07-21T04:38:44Z</time>
      </trkpt>
      <trkpt lat="46.48552" lon="5.30557">
        <ele>218.2</ele>
        <time>2022-07-21T04:38:47Z</time>
      </trkpt>
      <trkpt lat="46.48553" lon="5.30543">
        <ele>218.2</ele>
        <time>2022-07-21T04:38:49Z</time>
      </trkpt>
      <trkpt lat="46.48555" lon="5.30528">
        <ele>218.8</ele>
        <time>2022-07-21T04:38:51Z</time>
      </trkpt>
      <trkpt lat="46.48558" lon="5.30509">
        <ele>219.2</ele>
        <time>2022-07-21T04:38:54Z</time>
      </trkpt>
      <trkpt lat="46.48556" lon="5.30492">
        <ele>220</ele>
        <time>2022-07-21T04:38:58Z</time>
      </trkpt>
      <trkpt lat="46.4855" lon="5.30486">
        <ele>220.2</ele>
        <time>2022-07-21T04:39:00Z</time>
      </trkpt>
      <trkpt lat="46.48542" lon="5.30488">
        <ele>220.2</ele>
        <time>2022-07-21T04:39:02Z</time>
      </trkpt>
      <trkpt lat="46.48519" lon="5.30505">
        <ele>220.4</ele>
        <time>2022-07-21T04:39:07Z</time>
      </trkpt>
      <trkpt lat="46.485" lon="5.30521">
        <ele>220.4</ele>
        <time>2022-07-21T04:39:11Z</time>
      </trkpt>
      <trkpt lat="46.48485" lon="5.30536">
        <ele>220.2</ele>
        <time>2022-07-21T04:39:14Z</time>
      </trkpt>
      <trkpt lat="46.48459" lon="5.30562">
        <ele>220.2</ele>
        <time>2022-07-21T04:39:19Z</time>
      </trkpt>
      <trkpt lat="46.48426" lon="5.30595">
        <ele>219.4</ele>
        <time>2022-07-21T04:39:25Z</time>
      </trkpt>
      <trkpt lat="46.4838" lon="5.30639">
        <ele>218.8</ele>
        <time>2022-07-21T04:39:33Z</time>
      </trkpt>
      <trkpt lat="46.48373" lon="5.30646">
        <ele>218.8</ele>
        <time>2022-07-21T04:39:34Z</time>
      </trkpt>
      <trkpt lat="46.48322" lon="5.30687">
        <ele>218.2</ele>
        <time>2022-07-21T04:39:42Z</time>
      </trkpt>
      <trkpt lat="46.48308" lon="5.30692">
        <ele>217.8</ele>
        <time>2022-07-21T04:39:44Z</time>
      </trkpt>
      <trkpt lat="46.48301" lon="5.30694">
        <ele>217.8</ele>
        <time>2022-07-21T04:39:45Z</time>
      </trkpt>
      <trkpt lat="46.48288" lon="5.30695">
        <ele>217.8</ele>
        <time>2022-07-21T04:39:47Z</time>
      </trkpt>
      <trkpt lat="46.4825" lon="5.30685">
        <ele>217.6</ele>
        <time>2022-07-21T04:39:53Z</time>
      </trkpt>
      <trkpt lat="46.48214" lon="5.30681">
        <ele>218.2</ele>
        <time>2022-07-21T04:39:59Z</time>
      </trkpt>
      <trkpt lat="46.48192" lon="5.30689">
        <ele>219</ele>
        <time>2022-07-21T04:40:03Z</time>
      </trkpt>
      <trkpt lat="46.48187" lon="5.30692">
        <ele>219.4</ele>
        <time>2022-07-21T04:40:04Z</time>
      </trkpt>
      <trkpt lat="46.48162" lon="5.30707">
        <ele>220</ele>
        <time>2022-07-21T04:40:09Z</time>
      </trkpt>
      <trkpt lat="46.48152" lon="5.30713">
        <ele>220.4</ele>
        <time>2022-07-21T04:40:11Z</time>
      </trkpt>
      <trkpt lat="46.48127" lon="5.30729">
        <ele>221</ele>
        <time>2022-07-21T04:40:16Z</time>
      </trkpt>
      <trkpt lat="46.48106" lon="5.3074">
        <ele>221.6</ele>
        <time>2022-07-21T04:40:20Z</time>
      </trkpt>
      <trkpt lat="46.48067" lon="5.30761">
        <ele>222</ele>
        <time>2022-07-21T04:40:27Z</time>
      </trkpt>
      <trkpt lat="46.4805" lon="5.3077">
        <ele>222.2</ele>
        <time>2022-07-21T04:40:30Z</time>
      </trkpt>
      <trkpt lat="46.48" lon="5.30797">
        <ele>221.6</ele>
        <time>2022-07-21T04:40:38Z</time>
      </trkpt>
      <trkpt lat="46.47979" lon="5.30808">
        <ele>221</ele>
        <time>2022-07-21T04:40:41Z</time>
      </trkpt>
      <trkpt lat="46.47951" lon="5.30817">
        <ele>220.2</ele>
        <time>2022-07-21T04:40:45Z</time>
      </trkpt>
      <trkpt lat="46.47938" lon="5.30817">
        <ele>220</ele>
        <time>2022-07-21T04:40:47Z</time>
      </trkpt>
      <trkpt lat="46.47919" lon="5.30815">
        <ele>219.8</ele>
        <time>2022-07-21T04:40:50Z</time>
      </trkpt>
      <trkpt lat="46.47895" lon="5.30807">
        <ele>220.6</ele>
        <time>2022-07-21T04:40:55Z</time>
      </trkpt>
      <trkpt lat="46.47891" lon="5.30805">
        <ele>221.2</ele>
        <time>2022-07-21T04:40:56Z</time>
      </trkpt>
      <trkpt lat="46.47877" lon="5.30802">
        <ele>222.2</ele>
        <time>2022-07-21T04:40:59Z</time>
      </trkpt>
      <trkpt lat="46.47864" lon="5.308">
        <ele>223.4</ele>
        <time>2022-07-21T04:41:02Z</time>
      </trkpt>
      <trkpt lat="46.47852" lon="5.30799">
        <ele>224.4</ele>
        <time>2022-07-21T04:41:05Z</time>
      </trkpt>
      <trkpt lat="46.47839" lon="5.30803">
        <ele>225.4</ele>
        <time>2022-07-21T04:41:08Z</time>
      </trkpt>
      <trkpt lat="46.47825" lon="5.30813">
        <ele>226.6</ele>
        <time>2022-07-21T04:41:12Z</time>
      </trkpt>
      <trkpt lat="46.47818" lon="5.3082">
        <ele>227.2</ele>
        <time>2022-07-21T04:41:14Z</time>
      </trkpt>
      <trkpt lat="46.47812" lon="5.3083">
        <ele>227.4</ele>
        <time>2022-07-21T04:41:16Z</time>
      </trkpt>
      <trkpt lat="46.47799" lon="5.3085">
        <ele>227.6</ele>
        <time>2022-07-21T04:41:20Z</time>
      </trkpt>
      <trkpt lat="46.47792" lon="5.3086">
        <ele>227.8</ele>
        <time>2022-07-21T04:41:22Z</time>
      </trkpt>
      <trkpt lat="46.47777" lon="5.30882">
        <ele>228.4</ele>
        <time>2022-07-21T04:41:26Z</time>
      </trkpt>
      <trkpt lat="46.47773" lon="5.30887">
        <ele>228.4</ele>
        <time>2022-07-21T04:41:27Z</time>
      </trkpt>
      <trkpt lat="46.4775" lon="5.30903">
        <ele>228.2</ele>
        <time>2022-07-21T04:41:31Z</time>
      </trkpt>
      <trkpt lat="46.47736" lon="5.30907">
        <ele>227.8</ele>
        <time>2022-07-21T04:41:33Z</time>
      </trkpt>
      <trkpt lat="46.47719" lon="5.30906">
        <ele>227.2</ele>
        <time>2022-07-21T04:41:35Z</time>
      </trkpt>
      <trkpt lat="46.47696" lon="5.30898">
        <ele>226.6</ele>
        <time>2022-07-21T04:41:38Z</time>
      </trkpt>
      <trkpt lat="46.47678" lon="5.30891">
        <ele>225</ele>
        <time>2022-07-21T04:41:40Z</time>
      </trkpt>
      <trkpt lat="46.47661" lon="5.30889">
        <ele>224.2</ele>
        <time>2022-07-21T04:41:42Z</time>
      </trkpt>
      <trkpt lat="46.47653" lon="5.30889">
        <ele>223.8</ele>
        <time>2022-07-21T04:41:43Z</time>
      </trkpt>
      <trkpt lat="46.47646" lon="5.30891">
        <ele>223.2</ele>
        <time>2022-07-21T04:41:44Z</time>
      </trkpt>
      <trkpt lat="46.47622" lon="5.30899">
        <ele>222.2</ele>
        <time>2022-07-21T04:41:47Z</time>
      </trkpt>
      <trkpt lat="46.47606" lon="5.30907">
        <ele>221.8</ele>
        <time>2022-07-21T04:41:49Z</time>
      </trkpt>
      <trkpt lat="46.47589" lon="5.30914">
        <ele>221.2</ele>
        <time>2022-07-21T04:41:51Z</time>
      </trkpt>
      <trkpt lat="46.47556" lon="5.30929">
        <ele>220.2</ele>
        <time>2022-07-21T04:41:55Z</time>
      </trkpt>
      <trkpt lat="46.47524" lon="5.30948">
        <ele>219.6</ele>
        <time>2022-07-21T04:41:59Z</time>
      </trkpt>
      <trkpt lat="46.47516" lon="5.30953">
        <ele>219.2</ele>
        <time>2022-07-21T04:42:00Z</time>
      </trkpt>
      <trkpt lat="46.47464" lon="5.30987">
        <ele>218.2</ele>
        <time>2022-07-21T04:42:07Z</time>
      </trkpt>
      <trkpt lat="46.47437" lon="5.31005">
        <ele>218.2</ele>
        <time>2022-07-21T04:42:11Z</time>
      </trkpt>
      <trkpt lat="46.47409" lon="5.31023">
        <ele>219</ele>
        <time>2022-07-21T04:42:16Z</time>
      </trkpt>
      <trkpt lat="46.47385" lon="5.31042">
        <ele>220.4</ele>
        <time>2022-07-21T04:42:21Z</time>
      </trkpt>
      <trkpt lat="46.47371" lon="5.31052">
        <ele>221</ele>
        <time>2022-07-21T04:42:24Z</time>
      </trkpt>
      <trkpt lat="46.47362" lon="5.31058">
        <ele>221.4</ele>
        <time>2022-07-21T04:42:26Z</time>
      </trkpt>
      <trkpt lat="46.47345" lon="5.31071">
        <ele>222.4</ele>
        <time>2022-07-21T04:42:30Z</time>
      </trkpt>
      <trkpt lat="46.4734" lon="5.31075">
        <ele>222.6</ele>
        <time>2022-07-21T04:42:31Z</time>
      </trkpt>
      <trkpt lat="46.47318" lon="5.31098">
        <ele>223.6</ele>
        <time>2022-07-21T04:42:36Z</time>
      </trkpt>
      <trkpt lat="46.47314" lon="5.31104">
        <ele>223.8</ele>
        <time>2022-07-21T04:42:37Z</time>
      </trkpt>
      <trkpt lat="46.47311" lon="5.31109">
        <ele>223.8</ele>
        <time>2022-07-21T04:42:38Z</time>
      </trkpt>
      <trkpt lat="46.47293" lon="5.31134">
        <ele>224.2</ele>
        <time>2022-07-21T04:42:42Z</time>
      </trkpt>
      <trkpt lat="46.4728" lon="5.31153">
        <ele>224.2</ele>
        <time>2022-07-21T04:42:45Z</time>
      </trkpt>
      <trkpt lat="46.47266" lon="5.31171">
        <ele>224.4</ele>
        <time>2022-07-21T04:42:48Z</time>
      </trkpt>
      <trkpt lat="46.47259" lon="5.31184">
        <ele>224.8</ele>
        <time>2022-07-21T04:42:50Z</time>
      </trkpt>
      <trkpt lat="46.47244" lon="5.31203">
        <ele>225.2</ele>
        <time>2022-07-21T04:42:53Z</time>
      </trkpt>
      <trkpt lat="46.47241" lon="5.31208">
        <ele>225.2</ele>
        <time>2022-07-21T04:42:54Z</time>
      </trkpt>
      <trkpt lat="46.47215" lon="5.31247">
        <ele>225.4</ele>
        <time>2022-07-21T04:43:01Z</time>
      </trkpt>
      <trkpt lat="46.47211" lon="5.31252">
        <ele>225.4</ele>
        <time>2022-07-21T04:43:02Z</time>
      </trkpt>
      <trkpt lat="46.47195" lon="5.31275">
        <ele>225.6</ele>
        <time>2022-07-21T04:43:06Z</time>
      </trkpt>
      <trkpt lat="46.47191" lon="5.31281">
        <ele>225.6</ele>
        <time>2022-07-21T04:43:07Z</time>
      </trkpt>
      <trkpt lat="46.47183" lon="5.31292">
        <ele>225.8</ele>
        <time>2022-07-21T04:43:09Z</time>
      </trkpt>
      <trkpt lat="46.47167" lon="5.31313">
        <ele>226.2</ele>
        <time>2022-07-21T04:43:13Z</time>
      </trkpt>
      <trkpt lat="46.47156" lon="5.3133">
        <ele>226.6</ele>
        <time>2022-07-21T04:43:16Z</time>
      </trkpt>
      <trkpt lat="46.47147" lon="5.31339">
        <ele>226.6</ele>
        <time>2022-07-21T04:43:18Z</time>
      </trkpt>
      <trkpt lat="46.47141" lon="5.31348">
        <ele>226.6</ele>
        <time>2022-07-21T04:43:20Z</time>
      </trkpt>
      <trkpt lat="46.47119" lon="5.3138">
        <ele>226.4</ele>
        <time>2022-07-21T04:43:25Z</time>
      </trkpt>
      <trkpt lat="46.47093" lon="5.31424">
        <ele>226.6</ele>
        <time>2022-07-21T04:43:32Z</time>
      </trkpt>
      <trkpt lat="46.47089" lon="5.31429">
        <ele>226.6</ele>
        <time>2022-07-21T04:43:33Z</time>
      </trkpt>
      <trkpt lat="46.4708" lon="5.3144">
        <ele>226.4</ele>
        <time>2022-07-21T04:43:35Z</time>
      </trkpt>
      <trkpt lat="46.47074" lon="5.31448">
        <ele>226.6</ele>
        <time>2022-07-21T04:43:36Z</time>
      </trkpt>
      <trkpt lat="46.47049" lon="5.31479">
        <ele>226.6</ele>
        <time>2022-07-21T04:43:41Z</time>
      </trkpt>
      <trkpt lat="46.47034" lon="5.31497">
        <ele>226.6</ele>
        <time>2022-07-21T04:43:44Z</time>
      </trkpt>
      <trkpt lat="46.47007" lon="5.3153">
        <ele>227.2</ele>
        <time>2022-07-21T04:43:50Z</time>
      </trkpt>
      <trkpt lat="46.47003" lon="5.31536">
        <ele>227.4</ele>
        <time>2022-07-21T04:43:51Z</time>
      </trkpt>
      <trkpt lat="46.46999" lon="5.3154">
        <ele>227.4</ele>
        <time>2022-07-21T04:43:52Z</time>
      </trkpt>
      <trkpt lat="46.46992" lon="5.3155">
        <ele>227.6</ele>
        <time>2022-07-21T04:43:54Z</time>
      </trkpt>
      <trkpt lat="46.46985" lon="5.3156">
        <ele>227.8</ele>
        <time>2022-07-21T04:43:56Z</time>
      </trkpt>
      <trkpt lat="46.4696" lon="5.31595">
        <ele>228.4</ele>
        <time>2022-07-21T04:44:02Z</time>
      </trkpt>
      <trkpt lat="46.46938" lon="5.31618">
        <ele>228.6</ele>
        <time>2022-07-21T04:44:06Z</time>
      </trkpt>
      <trkpt lat="46.46934" lon="5.31623">
        <ele>228.6</ele>
        <time>2022-07-21T04:44:07Z</time>
      </trkpt>
      <trkpt lat="46.4693" lon="5.31629">
        <ele>228.6</ele>
        <time>2022-07-21T04:44:08Z</time>
      </trkpt>
      <trkpt lat="46.46901" lon="5.31666">
        <ele>228.4</ele>
        <time>2022-07-21T04:44:14Z</time>
      </trkpt>
      <trkpt lat="46.46895" lon="5.31673">
        <ele>228.6</ele>
        <time>2022-07-21T04:44:15Z</time>
      </trkpt>
      <trkpt lat="46.46874" lon="5.31695">
        <ele>228.8</ele>
        <time>2022-07-21T04:44:19Z</time>
      </trkpt>
      <trkpt lat="46.46839" lon="5.31736">
        <ele>228.2</ele>
        <time>2022-07-21T04:44:25Z</time>
      </trkpt>
      <trkpt lat="46.46814" lon="5.31768">
        <ele>227.4</ele>
        <time>2022-07-21T04:44:30Z</time>
      </trkpt>
      <trkpt lat="46.46803" lon="5.31781">
        <ele>227.2</ele>
        <time>2022-07-21T04:44:32Z</time>
      </trkpt>
      <trkpt lat="46.46761" lon="5.31833">
        <ele>227</ele>
        <time>2022-07-21T04:44:40Z</time>
      </trkpt>
      <trkpt lat="46.46727" lon="5.31868">
        <ele>227</ele>
        <time>2022-07-21T04:44:46Z</time>
      </trkpt>
      <trkpt lat="46.46677" lon="5.31907">
        <ele>226.4</ele>
        <time>2022-07-21T04:44:54Z</time>
      </trkpt>
      <trkpt lat="46.46639" lon="5.31946">
        <ele>226.8</ele>
        <time>2022-07-21T04:45:01Z</time>
      </trkpt>
      <trkpt lat="46.46604" lon="5.32004">
        <ele>227.8</ele>
        <time>2022-07-21T04:45:09Z</time>
      </trkpt>
      <trkpt lat="46.46583" lon="5.32041">
        <ele>228.4</ele>
        <time>2022-07-21T04:45:14Z</time>
      </trkpt>
      <trkpt lat="46.46562" lon="5.32079">
        <ele>228.6</ele>
        <time>2022-07-21T04:45:19Z</time>
      </trkpt>
      <trkpt lat="46.46526" lon="5.32145">
        <ele>228.6</ele>
        <time>2022-07-21T04:45:28Z</time>
      </trkpt>
      <trkpt lat="46.46522" lon="5.32152">
        <ele>228.6</ele>
        <time>2022-07-21T04:45:29Z</time>
      </trkpt>
      <trkpt lat="46.46505" lon="5.32185">
        <ele>228.8</ele>
        <time>2022-07-21T04:45:34Z</time>
      </trkpt>
      <trkpt lat="46.46485" lon="5.32219">
        <ele>229.2</ele>
        <time>2022-07-21T04:45:39Z</time>
      </trkpt>
      <trkpt lat="46.4645" lon="5.32283">
        <ele>229</ele>
        <time>2022-07-21T04:45:48Z</time>
      </trkpt>
      <trkpt lat="46.46414" lon="5.32347">
        <ele>229.4</ele>
        <time>2022-07-21T04:45:57Z</time>
      </trkpt>
      <trkpt lat="46.4641" lon="5.32354">
        <ele>229.4</ele>
        <time>2022-07-21T04:45:58Z</time>
      </trkpt>
      <trkpt lat="46.46395" lon="5.32382">
        <ele>229.6</ele>
        <time>2022-07-21T04:46:02Z</time>
      </trkpt>
      <trkpt lat="46.46382" lon="5.32413">
        <ele>229.8</ele>
        <time>2022-07-21T04:46:06Z</time>
      </trkpt>
      <trkpt lat="46.46354" lon="5.32488">
        <ele>229.6</ele>
        <time>2022-07-21T04:46:15Z</time>
      </trkpt>
      <trkpt lat="46.46326" lon="5.32565">
        <ele>229.4</ele>
        <time>2022-07-21T04:46:24Z</time>
      </trkpt>
      <trkpt lat="46.46318" lon="5.32623">
        <ele>229.2</ele>
        <time>2022-07-21T04:46:30Z</time>
      </trkpt>
      <trkpt lat="46.46318" lon="5.32682">
        <ele>229</ele>
        <time>2022-07-21T04:46:36Z</time>
      </trkpt>
      <trkpt lat="46.46317" lon="5.32747">
        <ele>229.2</ele>
        <time>2022-07-21T04:46:43Z</time>
      </trkpt>
      <trkpt lat="46.46316" lon="5.32756">
        <ele>229.2</ele>
        <time>2022-07-21T04:46:44Z</time>
      </trkpt>
      <trkpt lat="46.46307" lon="5.32789">
        <ele>229.2</ele>
        <time>2022-07-21T04:46:48Z</time>
      </trkpt>
      <trkpt lat="46.46303" lon="5.32797">
        <ele>229.2</ele>
        <time>2022-07-21T04:46:49Z</time>
      </trkpt>
      <trkpt lat="46.46287" lon="5.32824">
        <ele>229.4</ele>
        <time>2022-07-21T04:46:53Z</time>
      </trkpt>
      <trkpt lat="46.46278" lon="5.32835">
        <ele>229.4</ele>
        <time>2022-07-21T04:46:55Z</time>
      </trkpt>
      <trkpt lat="46.46239" lon="5.32889">
        <ele>229.6</ele>
        <time>2022-07-21T04:47:03Z</time>
      </trkpt>
      <trkpt lat="46.46205" lon="5.32939">
        <ele>229.2</ele>
        <time>2022-07-21T04:47:10Z</time>
      </trkpt>
      <trkpt lat="46.4618" lon="5.32963">
        <ele>228.8</ele>
        <time>2022-07-21T04:47:15Z</time>
      </trkpt>
      <trkpt lat="46.46164" lon="5.32974">
        <ele>228.6</ele>
        <time>2022-07-21T04:47:18Z</time>
      </trkpt>
      <trkpt lat="46.46152" lon="5.3298">
        <ele>228.6</ele>
        <time>2022-07-21T04:47:20Z</time>
      </trkpt>
      <trkpt lat="46.46125" lon="5.32995">
        <ele>229</ele>
        <time>2022-07-21T04:47:25Z</time>
      </trkpt>
      <trkpt lat="46.4612" lon="5.32999">
        <ele>229.2</ele>
        <time>2022-07-21T04:47:26Z</time>
      </trkpt>
      <trkpt lat="46.46109" lon="5.33006">
        <ele>229.4</ele>
        <time>2022-07-21T04:47:28Z</time>
      </trkpt>
      <trkpt lat="46.46099" lon="5.33013">
        <ele>229.6</ele>
        <time>2022-07-21T04:47:30Z</time>
      </trkpt>
      <trkpt lat="46.46093" lon="5.33017">
        <ele>229.6</ele>
        <time>2022-07-21T04:47:31Z</time>
      </trkpt>
      <trkpt lat="46.46058" lon="5.33043">
        <ele>230</ele>
        <time>2022-07-21T04:47:37Z</time>
      </trkpt>
      <trkpt lat="46.46024" lon="5.33075">
        <ele>230.2</ele>
        <time>2022-07-21T04:47:43Z</time>
      </trkpt>
      <trkpt lat="46.45982" lon="5.33116">
        <ele>230.4</ele>
        <time>2022-07-21T04:47:51Z</time>
      </trkpt>
      <trkpt lat="46.45939" lon="5.33163">
        <ele>230.6</ele>
        <time>2022-07-21T04:48:00Z</time>
      </trkpt>
      <trkpt lat="46.45934" lon="5.33169">
        <ele>230.8</ele>
        <time>2022-07-21T04:48:01Z</time>
      </trkpt>
      <trkpt lat="46.45891" lon="5.33215">
        <ele>231.2</ele>
        <time>2022-07-21T04:48:10Z</time>
      </trkpt>
      <trkpt lat="46.4586" lon="5.33254">
        <ele>231.6</ele>
        <time>2022-07-21T04:48:17Z</time>
      </trkpt>
      <trkpt lat="46.4583" lon="5.33307">
        <ele>232.2</ele>
        <time>2022-07-21T04:48:25Z</time>
      </trkpt>
      <trkpt lat="46.45798" lon="5.33372">
        <ele>232.6</ele>
        <time>2022-07-21T04:48:34Z</time>
      </trkpt>
      <trkpt lat="46.45791" lon="5.33386">
        <ele>232.6</ele>
        <time>2022-07-21T04:48:36Z</time>
      </trkpt>
      <trkpt lat="46.45781" lon="5.33413">
        <ele>232.8</ele>
        <time>2022-07-21T04:48:40Z</time>
      </trkpt>
      <trkpt lat="46.45767" lon="5.33443">
        <ele>233</ele>
        <time>2022-07-21T04:48:44Z</time>
      </trkpt>
      <trkpt lat="46.45754" lon="5.33474">
        <ele>232.8</ele>
        <time>2022-07-21T04:48:48Z</time>
      </trkpt>
      <trkpt lat="46.45748" lon="5.33488">
        <ele>233.4</ele>
        <time>2022-07-21T04:48:50Z</time>
      </trkpt>
      <trkpt lat="46.4574" lon="5.33504">
        <ele>233.6</ele>
        <time>2022-07-21T04:48:52Z</time>
      </trkpt>
      <trkpt lat="46.45732" lon="5.33527">
        <ele>233.6</ele>
        <time>2022-07-21T04:48:55Z</time>
      </trkpt>
      <trkpt lat="46.45723" lon="5.3355">
        <ele>233.8</ele>
        <time>2022-07-21T04:48:58Z</time>
      </trkpt>
      <trkpt lat="46.45721" lon="5.33557">
        <ele>233.8</ele>
        <time>2022-07-21T04:48:59Z</time>
      </trkpt>
      <trkpt lat="46.45711" lon="5.33577">
        <ele>234</ele>
        <time>2022-07-21T04:49:02Z</time>
      </trkpt>
      <trkpt lat="46.4569" lon="5.33621">
        <ele>235</ele>
        <time>2022-07-21T04:49:09Z</time>
      </trkpt>
      <trkpt lat="46.45686" lon="5.33629">
        <ele>235.2</ele>
        <time>2022-07-21T04:49:10Z</time>
      </trkpt>
      <trkpt lat="46.45681" lon="5.33643">
        <ele>235.2</ele>
        <time>2022-07-21T04:49:12Z</time>
      </trkpt>
      <trkpt lat="46.45676" lon="5.33657">
        <ele>235.4</ele>
        <time>2022-07-21T04:49:14Z</time>
      </trkpt>
      <trkpt lat="46.45664" lon="5.33691">
        <ele>236</ele>
        <time>2022-07-21T04:49:19Z</time>
      </trkpt>
      <trkpt lat="46.45657" lon="5.33711">
        <ele>236.2</ele>
        <time>2022-07-21T04:49:22Z</time>
      </trkpt>
      <trkpt lat="46.45649" lon="5.33731">
        <ele>236.6</ele>
        <time>2022-07-21T04:49:25Z</time>
      </trkpt>
      <trkpt lat="46.45641" lon="5.3375">
        <ele>236.8</ele>
        <time>2022-07-21T04:49:28Z</time>
      </trkpt>
      <trkpt lat="46.45636" lon="5.33763">
        <ele>237.2</ele>
        <time>2022-07-21T04:49:30Z</time>
      </trkpt>
      <trkpt lat="46.45633" lon="5.33768">
        <ele>237.4</ele>
        <time>2022-07-21T04:49:31Z</time>
      </trkpt>
      <trkpt lat="46.45626" lon="5.33781">
        <ele>237.6</ele>
        <time>2022-07-21T04:49:33Z</time>
      </trkpt>
      <trkpt lat="46.45624" lon="5.33787">
        <ele>237.6</ele>
        <time>2022-07-21T04:49:34Z</time>
      </trkpt>
      <trkpt lat="46.45618" lon="5.33801">
        <ele>237.8</ele>
        <time>2022-07-21T04:49:36Z</time>
      </trkpt>
      <trkpt lat="46.45611" lon="5.33818">
        <ele>238.4</ele>
        <time>2022-07-21T04:49:39Z</time>
      </trkpt>
      <trkpt lat="46.45606" lon="5.33824">
        <ele>238.4</ele>
        <time>2022-07-21T04:49:40Z</time>
      </trkpt>
      <trkpt lat="46.45603" lon="5.3383">
        <ele>238.8</ele>
        <time>2022-07-21T04:49:41Z</time>
      </trkpt>
      <trkpt lat="46.45595" lon="5.33841">
        <ele>239</ele>
        <time>2022-07-21T04:49:43Z</time>
      </trkpt>
      <trkpt lat="46.45584" lon="5.33864">
        <ele>239.2</ele>
        <time>2022-07-21T04:49:47Z</time>
      </trkpt>
      <trkpt lat="46.45583" lon="5.3387">
        <ele>239.4</ele>
        <time>2022-07-21T04:49:48Z</time>
      </trkpt>
      <trkpt lat="46.4558" lon="5.3388">
        <ele>239.6</ele>
        <time>2022-07-21T04:49:50Z</time>
      </trkpt>
      <trkpt lat="46.45577" lon="5.33891">
        <ele>240</ele>
        <time>2022-07-21T04:49:52Z</time>
      </trkpt>
      <trkpt lat="46.4557" lon="5.33908">
        <ele>240.4</ele>
        <time>2022-07-21T04:49:55Z</time>
      </trkpt>
      <trkpt lat="46.45567" lon="5.3392">
        <ele>240.8</ele>
        <time>2022-07-21T04:49:57Z</time>
      </trkpt>
      <trkpt lat="46.45557" lon="5.33936">
        <ele>241.2</ele>
        <time>2022-07-21T04:50:00Z</time>
      </trkpt>
      <trkpt lat="46.45553" lon="5.33946">
        <ele>241.6</ele>
        <time>2022-07-21T04:50:02Z</time>
      </trkpt>
      <trkpt lat="46.45548" lon="5.33957">
        <ele>242.2</ele>
        <time>2022-07-21T04:50:04Z</time>
      </trkpt>
      <trkpt lat="46.45541" lon="5.33968">
        <ele>242.6</ele>
        <time>2022-07-21T04:50:06Z</time>
      </trkpt>
      <trkpt lat="46.45539" lon="5.33972">
        <ele>242.8</ele>
        <time>2022-07-21T04:50:07Z</time>
      </trkpt>
      <trkpt lat="46.45533" lon="5.33981">
        <ele>243.4</ele>
        <time>2022-07-21T04:50:09Z</time>
      </trkpt>
      <trkpt lat="46.45529" lon="5.33985">
        <ele>243.4</ele>
        <time>2022-07-21T04:50:10Z</time>
      </trkpt>
      <trkpt lat="46.45518" lon="5.33994">
        <ele>243.8</ele>
        <time>2022-07-21T04:50:13Z</time>
      </trkpt>
      <trkpt lat="46.45509" lon="5.34">
        <ele>244.4</ele>
        <time>2022-07-21T04:50:15Z</time>
      </trkpt>
      <trkpt lat="46.45501" lon="5.34006">
        <ele>245</ele>
        <time>2022-07-21T04:50:17Z</time>
      </trkpt>
      <trkpt lat="46.45492" lon="5.34012">
        <ele>245.2</ele>
        <time>2022-07-21T04:50:19Z</time>
      </trkpt>
      <trkpt lat="46.45485" lon="5.34017">
        <ele>246</ele>
        <time>2022-07-21T04:50:21Z</time>
      </trkpt>
      <trkpt lat="46.4547" lon="5.34025">
        <ele>246.4</ele>
        <time>2022-07-21T04:50:25Z</time>
      </trkpt>
      <trkpt lat="46.45463" lon="5.34028">
        <ele>246.6</ele>
        <time>2022-07-21T04:50:27Z</time>
      </trkpt>
      <trkpt lat="46.45455" lon="5.34031">
        <ele>246.4</ele>
        <time>2022-07-21T04:50:29Z</time>
      </trkpt>
      <trkpt lat="46.45452" lon="5.34032">
        <ele>247.2</ele>
        <time>2022-07-21T04:50:30Z</time>
      </trkpt>
      <trkpt lat="46.4543" lon="5.34039">
        <ele>248.2</ele>
        <time>2022-07-21T04:50:36Z</time>
      </trkpt>
      <trkpt lat="46.45404" lon="5.34043">
        <ele>248.8</ele>
        <time>2022-07-21T04:50:41Z</time>
      </trkpt>
      <trkpt lat="46.45394" lon="5.34045">
        <ele>249.4</ele>
        <time>2022-07-21T04:50:43Z</time>
      </trkpt>
      <trkpt lat="46.45371" lon="5.3405">
        <ele>250.2</ele>
        <time>2022-07-21T04:50:48Z</time>
      </trkpt>
      <trkpt lat="46.45361" lon="5.3405">
        <ele>250.4</ele>
        <time>2022-07-21T04:50:50Z</time>
      </trkpt>
      <trkpt lat="46.45336" lon="5.34053">
        <ele>251.2</ele>
        <time>2022-07-21T04:50:55Z</time>
      </trkpt>
      <trkpt lat="46.45321" lon="5.34056">
        <ele>251.4</ele>
        <time>2022-07-21T04:50:58Z</time>
      </trkpt>
      <trkpt lat="46.45316" lon="5.34057">
        <ele>251.4</ele>
        <time>2022-07-21T04:50:59Z</time>
      </trkpt>
      <trkpt lat="46.45306" lon="5.34058">
        <ele>251.6</ele>
        <time>2022-07-21T04:51:01Z</time>
      </trkpt>
      <trkpt lat="46.45282" lon="5.34066">
        <ele>252.2</ele>
        <time>2022-07-21T04:51:06Z</time>
      </trkpt>
      <trkpt lat="46.45272" lon="5.34068">
        <ele>252.4</ele>
        <time>2022-07-21T04:51:08Z</time>
      </trkpt>
      <trkpt lat="46.45247" lon="5.34074">
        <ele>252.6</ele>
        <time>2022-07-21T04:51:13Z</time>
      </trkpt>
      <trkpt lat="46.45206" lon="5.34083">
        <ele>253.4</ele>
        <time>2022-07-21T04:51:21Z</time>
      </trkpt>
      <trkpt lat="46.45196" lon="5.34085">
        <ele>253.6</ele>
        <time>2022-07-21T04:51:23Z</time>
      </trkpt>
      <trkpt lat="46.45156" lon="5.34094">
        <ele>254.4</ele>
        <time>2022-07-21T04:51:31Z</time>
      </trkpt>
      <trkpt lat="46.45142" lon="5.34098">
        <ele>254.8</ele>
        <time>2022-07-21T04:51:34Z</time>
      </trkpt>
      <trkpt lat="46.45097" lon="5.34107">
        <ele>255.4</ele>
        <time>2022-07-21T04:51:42Z</time>
      </trkpt>
      <trkpt lat="46.45051" lon="5.34116">
        <ele>255.2</ele>
        <time>2022-07-21T04:51:49Z</time>
      </trkpt>
      <trkpt lat="46.45014" lon="5.34115">
        <ele>253.8</ele>
        <time>2022-07-21T04:51:54Z</time>
      </trkpt>
      <trkpt lat="46.44998" lon="5.34113">
        <ele>252.6</ele>
        <time>2022-07-21T04:51:56Z</time>
      </trkpt>
      <trkpt lat="46.44964" lon="5.34105">
        <ele>251.8</ele>
        <time>2022-07-21T04:52:00Z</time>
      </trkpt>
      <trkpt lat="46.44956" lon="5.34102">
        <ele>251.4</ele>
        <time>2022-07-21T04:52:01Z</time>
      </trkpt>
      <trkpt lat="46.44921" lon="5.34091">
        <ele>250</ele>
        <time>2022-07-21T04:52:05Z</time>
      </trkpt>
      <trkpt lat="46.44903" lon="5.34086">
        <ele>249.6</ele>
        <time>2022-07-21T04:52:07Z</time>
      </trkpt>
      <trkpt lat="46.44884" lon="5.34083">
        <ele>248.6</ele>
        <time>2022-07-21T04:52:09Z</time>
      </trkpt>
      <trkpt lat="46.44865" lon="5.34085">
        <ele>247.6</ele>
        <time>2022-07-21T04:52:11Z</time>
      </trkpt>
      <trkpt lat="46.44856" lon="5.34087">
        <ele>247</ele>
        <time>2022-07-21T04:52:12Z</time>
      </trkpt>
      <trkpt lat="46.44846" lon="5.34092">
        <ele>246.8</ele>
        <time>2022-07-21T04:52:13Z</time>
      </trkpt>
      <trkpt lat="46.44837" lon="5.34098">
        <ele>246.6</ele>
        <time>2022-07-21T04:52:14Z</time>
      </trkpt>
      <trkpt lat="46.44829" lon="5.34106">
        <ele>246</ele>
        <time>2022-07-21T04:52:15Z</time>
      </trkpt>
      <trkpt lat="46.44817" lon="5.34122">
        <ele>245.2</ele>
        <time>2022-07-21T04:52:17Z</time>
      </trkpt>
      <trkpt lat="46.44811" lon="5.34128">
        <ele>244.8</ele>
        <time>2022-07-21T04:52:18Z</time>
      </trkpt>
      <trkpt lat="46.44804" lon="5.3413">
        <ele>244</ele>
        <time>2022-07-21T04:52:19Z</time>
      </trkpt>
      <trkpt lat="46.44799" lon="5.34128">
        <ele>243.8</ele>
        <time>2022-07-21T04:52:20Z</time>
      </trkpt>
      <trkpt lat="46.44796" lon="5.34122">
        <ele>243.6</ele>
        <time>2022-07-21T04:52:21Z</time>
      </trkpt>
      <trkpt lat="46.44795" lon="5.34116">
        <ele>243.4</ele>
        <time>2022-07-21T04:52:22Z</time>
      </trkpt>
      <trkpt lat="46.44794" lon="5.341">
        <ele>243.6</ele>
        <time>2022-07-21T04:52:24Z</time>
      </trkpt>
      <trkpt lat="46.44794" lon="5.34092">
        <ele>243.8</ele>
        <time>2022-07-21T04:52:25Z</time>
      </trkpt>
      <trkpt lat="46.44792" lon="5.34077">
        <ele>244</ele>
        <time>2022-07-21T04:52:27Z</time>
      </trkpt>
      <trkpt lat="46.44791" lon="5.3407">
        <ele>244.2</ele>
        <time>2022-07-21T04:52:28Z</time>
      </trkpt>
      <trkpt lat="46.44787" lon="5.34042">
        <ele>244.8</ele>
        <time>2022-07-21T04:52:32Z</time>
      </trkpt>
      <trkpt lat="46.44785" lon="5.34022">
        <ele>246.2</ele>
        <time>2022-07-21T04:52:35Z</time>
      </trkpt>
      <trkpt lat="46.44781" lon="5.33992">
        <ele>247.6</ele>
        <time>2022-07-21T04:52:40Z</time>
      </trkpt>
      <trkpt lat="46.44779" lon="5.33981">
        <ele>248.4</ele>
        <time>2022-07-21T04:52:42Z</time>
      </trkpt>
      <trkpt lat="46.44777" lon="5.33969">
        <ele>248.8</ele>
        <time>2022-07-21T04:52:44Z</time>
      </trkpt>
      <trkpt lat="46.44775" lon="5.33947">
        <ele>249.8</ele>
        <time>2022-07-21T04:52:48Z</time>
      </trkpt>
      <trkpt lat="46.44775" lon="5.33934">
        <ele>250.4</ele>
        <time>2022-07-21T04:52:50Z</time>
      </trkpt>
      <trkpt lat="46.44772" lon="5.33912">
        <ele>250.8</ele>
        <time>2022-07-21T04:52:53Z</time>
      </trkpt>
      <trkpt lat="46.44771" lon="5.33904">
        <ele>250.8</ele>
        <time>2022-07-21T04:52:54Z</time>
      </trkpt>
      <trkpt lat="46.44763" lon="5.3389">
        <ele>250.8</ele>
        <time>2022-07-21T04:52:56Z</time>
      </trkpt>
      <trkpt lat="46.44735" lon="5.33875">
        <ele>250.4</ele>
        <time>2022-07-21T04:53:00Z</time>
      </trkpt>
      <trkpt lat="46.44689" lon="5.33853">
        <ele>248.8</ele>
        <time>2022-07-21T04:53:06Z</time>
      </trkpt>
      <trkpt lat="46.44676" lon="5.33844">
        <ele>248.4</ele>
        <time>2022-07-21T04:53:08Z</time>
      </trkpt>
      <trkpt lat="46.44669" lon="5.33838">
        <ele>248.2</ele>
        <time>2022-07-21T04:53:09Z</time>
      </trkpt>
      <trkpt lat="46.44658" lon="5.33823">
        <ele>248.2</ele>
        <time>2022-07-21T04:53:11Z</time>
      </trkpt>
      <trkpt lat="46.44638" lon="5.33771">
        <ele>247.8</ele>
        <time>2022-07-21T04:53:16Z</time>
      </trkpt>
      <trkpt lat="46.44635" lon="5.33762">
        <ele>247.8</ele>
        <time>2022-07-21T04:53:17Z</time>
      </trkpt>
      <trkpt lat="46.44622" lon="5.33727">
        <ele>246.6</ele>
        <time>2022-07-21T04:53:20Z</time>
      </trkpt>
      <trkpt lat="46.44612" lon="5.33701">
        <ele>245.8</ele>
        <time>2022-07-21T04:53:22Z</time>
      </trkpt>
      <trkpt lat="46.44607" lon="5.33688">
        <ele>245.4</ele>
        <time>2022-07-21T04:53:23Z</time>
      </trkpt>
      <trkpt lat="46.44597" lon="5.33661">
        <ele>244.2</ele>
        <time>2022-07-21T04:53:25Z</time>
      </trkpt>
      <trkpt lat="46.44587" lon="5.33633">
        <ele>243</ele>
        <time>2022-07-21T04:53:27Z</time>
      </trkpt>
      <trkpt lat="46.44576" lon="5.33604">
        <ele>241.8</ele>
        <time>2022-07-21T04:53:29Z</time>
      </trkpt>
      <trkpt lat="46.44571" lon="5.33591">
        <ele>240.6</ele>
        <time>2022-07-21T04:53:30Z</time>
      </trkpt>
      <trkpt lat="46.44561" lon="5.33564">
        <ele>239</ele>
        <time>2022-07-21T04:53:32Z</time>
      </trkpt>
      <trkpt lat="46.44547" lon="5.33526">
        <ele>237.8</ele>
        <time>2022-07-21T04:53:35Z</time>
      </trkpt>
      <trkpt lat="46.44542" lon="5.33514">
        <ele>237.8</ele>
        <time>2022-07-21T04:53:36Z</time>
      </trkpt>
      <trkpt lat="46.44516" lon="5.33445">
        <ele>237.4</ele>
        <time>2022-07-21T04:53:42Z</time>
      </trkpt>
      <trkpt lat="46.44512" lon="5.33434">
        <ele>237.4</ele>
        <time>2022-07-21T04:53:43Z</time>
      </trkpt>
      <trkpt lat="46.44481" lon="5.33361">
        <ele>237.4</ele>
        <time>2022-07-21T04:53:50Z</time>
      </trkpt>
      <trkpt lat="46.44476" lon="5.33352">
        <ele>237.4</ele>
        <time>2022-07-21T04:53:51Z</time>
      </trkpt>
      <trkpt lat="46.44452" lon="5.33324">
        <ele>237.4</ele>
        <time>2022-07-21T04:53:55Z</time>
      </trkpt>
      <trkpt lat="46.44439" lon="5.33311">
        <ele>237.4</ele>
        <time>2022-07-21T04:53:57Z</time>
      </trkpt>
      <trkpt lat="46.44414" lon="5.33283">
        <ele>237.4</ele>
        <time>2022-07-21T04:54:01Z</time>
      </trkpt>
      <trkpt lat="46.4437" lon="5.33235">
        <ele>236.8</ele>
        <time>2022-07-21T04:54:08Z</time>
      </trkpt>
      <trkpt lat="46.44364" lon="5.33229">
        <ele>236.6</ele>
        <time>2022-07-21T04:54:09Z</time>
      </trkpt>
      <trkpt lat="46.44358" lon="5.33222">
        <ele>236.6</ele>
        <time>2022-07-21T04:54:10Z</time>
      </trkpt>
      <trkpt lat="46.44323" lon="5.33189">
        <ele>235.8</ele>
        <time>2022-07-21T04:54:15Z</time>
      </trkpt>
      <trkpt lat="46.44315" lon="5.33184">
        <ele>235.6</ele>
        <time>2022-07-21T04:54:16Z</time>
      </trkpt>
      <trkpt lat="46.44307" lon="5.33181">
        <ele>235.4</ele>
        <time>2022-07-21T04:54:17Z</time>
      </trkpt>
      <trkpt lat="46.44281" lon="5.33177">
        <ele>233.8</ele>
        <time>2022-07-21T04:54:20Z</time>
      </trkpt>
      <trkpt lat="46.44239" lon="5.3318">
        <ele>232.6</ele>
        <time>2022-07-21T04:54:25Z</time>
      </trkpt>
      <trkpt lat="46.44223" lon="5.33183">
        <ele>232.2</ele>
        <time>2022-07-21T04:54:27Z</time>
      </trkpt>
      <trkpt lat="46.44215" lon="5.33186">
        <ele>232.4</ele>
        <time>2022-07-21T04:54:28Z</time>
      </trkpt>
      <trkpt lat="46.44194" lon="5.332">
        <ele>232</ele>
        <time>2022-07-21T04:54:31Z</time>
      </trkpt>
      <trkpt lat="46.44166" lon="5.33223">
        <ele>232.8</ele>
        <time>2022-07-21T04:54:36Z</time>
      </trkpt>
      <trkpt lat="46.44152" lon="5.33232">
        <ele>233.2</ele>
        <time>2022-07-21T04:54:39Z</time>
      </trkpt>
      <trkpt lat="46.44147" lon="5.33232">
        <ele>233.4</ele>
        <time>2022-07-21T04:54:40Z</time>
      </trkpt>
      <trkpt lat="46.44143" lon="5.33231">
        <ele>233.8</ele>
        <time>2022-07-21T04:54:41Z</time>
      </trkpt>
      <trkpt lat="46.44136" lon="5.33221">
        <ele>234.4</ele>
        <time>2022-07-21T04:54:43Z</time>
      </trkpt>
      <trkpt lat="46.44126" lon="5.33199">
        <ele>235.6</ele>
        <time>2022-07-21T04:54:46Z</time>
      </trkpt>
      <trkpt lat="46.44121" lon="5.33193">
        <ele>234.8</ele>
        <time>2022-07-21T04:54:47Z</time>
      </trkpt>
      <trkpt lat="46.44114" lon="5.3319">
        <ele>234.8</ele>
        <time>2022-07-21T04:54:48Z</time>
      </trkpt>
      <trkpt lat="46.44101" lon="5.33191">
        <ele>234.4</ele>
        <time>2022-07-21T04:54:50Z</time>
      </trkpt>
      <trkpt lat="46.44072" lon="5.33211">
        <ele>234.2</ele>
        <time>2022-07-21T04:54:55Z</time>
      </trkpt>
      <trkpt lat="46.44028" lon="5.33239">
        <ele>234.8</ele>
        <time>2022-07-21T04:55:02Z</time>
      </trkpt>
      <trkpt lat="46.43998" lon="5.3325">
        <ele>234.6</ele>
        <time>2022-07-21T04:55:06Z</time>
      </trkpt>
      <trkpt lat="46.43959" lon="5.33251">
        <ele>233.6</ele>
        <time>2022-07-21T04:55:11Z</time>
      </trkpt>
      <trkpt lat="46.43909" lon="5.33241">
        <ele>233.2</ele>
        <time>2022-07-21T04:55:18Z</time>
      </trkpt>
      <trkpt lat="46.43861" lon="5.33237">
        <ele>234.2</ele>
        <time>2022-07-21T04:55:25Z</time>
      </trkpt>
      <trkpt lat="46.43805" lon="5.33238">
        <ele>234.8</ele>
        <time>2022-07-21T04:55:34Z</time>
      </trkpt>
      <trkpt lat="46.43799" lon="5.33239">
        <ele>234.8</ele>
        <time>2022-07-21T04:55:35Z</time>
      </trkpt>
      <trkpt lat="46.43794" lon="5.33239">
        <ele>234.8</ele>
        <time>2022-07-21T04:55:36Z</time>
      </trkpt>
      <trkpt lat="46.43759" lon="5.33242">
        <ele>235.4</ele>
        <time>2022-07-21T04:55:42Z</time>
      </trkpt>
      <trkpt lat="46.43747" lon="5.33247">
        <ele>235.4</ele>
        <time>2022-07-21T04:55:44Z</time>
      </trkpt>
      <trkpt lat="46.43735" lon="5.33256">
        <ele>235.2</ele>
        <time>2022-07-21T04:55:46Z</time>
      </trkpt>
      <trkpt lat="46.43705" lon="5.33287">
        <ele>234.6</ele>
        <time>2022-07-21T04:55:51Z</time>
      </trkpt>
      <trkpt lat="46.43691" lon="5.333">
        <ele>233.8</ele>
        <time>2022-07-21T04:55:53Z</time>
      </trkpt>
      <trkpt lat="46.43668" lon="5.33315">
        <ele>232.6</ele>
        <time>2022-07-21T04:55:56Z</time>
      </trkpt>
      <trkpt lat="46.43642" lon="5.33324">
        <ele>231.4</ele>
        <time>2022-07-21T04:55:59Z</time>
      </trkpt>
      <trkpt lat="46.43633" lon="5.33325">
        <ele>230.2</ele>
        <time>2022-07-21T04:56:00Z</time>
      </trkpt>
      <trkpt lat="46.43624" lon="5.33324">
        <ele>229.6</ele>
        <time>2022-07-21T04:56:01Z</time>
      </trkpt>
      <trkpt lat="46.43615" lon="5.33321">
        <ele>229.4</ele>
        <time>2022-07-21T04:56:02Z</time>
      </trkpt>
      <trkpt lat="46.43608" lon="5.33314">
        <ele>228.4</ele>
        <time>2022-07-21T04:56:03Z</time>
      </trkpt>
      <trkpt lat="46.43602" lon="5.33305">
        <ele>228.2</ele>
        <time>2022-07-21T04:56:04Z</time>
      </trkpt>
      <trkpt lat="46.4359" lon="5.33273">
        <ele>227.2</ele>
        <time>2022-07-21T04:56:07Z</time>
      </trkpt>
      <trkpt lat="46.43582" lon="5.33239">
        <ele>226.6</ele>
        <time>2022-07-21T04:56:10Z</time>
      </trkpt>
      <trkpt lat="46.43581" lon="5.33228">
        <ele>226.4</ele>
        <time>2022-07-21T04:56:11Z</time>
      </trkpt>
      <trkpt lat="46.43583" lon="5.33218">
        <ele>226.4</ele>
        <time>2022-07-21T04:56:12Z</time>
      </trkpt>
      <trkpt lat="46.43585" lon="5.33209">
        <ele>226.6</ele>
        <time>2022-07-21T04:56:13Z</time>
      </trkpt>
      <trkpt lat="46.43586" lon="5.33199">
        <ele>226.8</ele>
        <time>2022-07-21T04:56:14Z</time>
      </trkpt>
      <trkpt lat="46.43589" lon="5.33174">
        <ele>227.8</ele>
        <time>2022-07-21T04:56:17Z</time>
      </trkpt>
      <trkpt lat="46.43589" lon="5.33166">
        <ele>228</ele>
        <time>2022-07-21T04:56:18Z</time>
      </trkpt>
      <trkpt lat="46.43591" lon="5.33159">
        <ele>228.2</ele>
        <time>2022-07-21T04:56:19Z</time>
      </trkpt>
      <trkpt lat="46.43592" lon="5.33153">
        <ele>228.4</ele>
        <time>2022-07-21T04:56:20Z</time>
      </trkpt>
      <trkpt lat="46.43593" lon="5.33146">
        <ele>228.8</ele>
        <time>2022-07-21T04:56:21Z</time>
      </trkpt>
      <trkpt lat="46.43593" lon="5.33139">
        <ele>229</ele>
        <time>2022-07-21T04:56:22Z</time>
      </trkpt>
      <trkpt lat="46.43593" lon="5.33131">
        <ele>229.6</ele>
        <time>2022-07-21T04:56:23Z</time>
      </trkpt>
      <trkpt lat="46.43592" lon="5.33124">
        <ele>230.4</ele>
        <time>2022-07-21T04:56:24Z</time>
      </trkpt>
      <trkpt lat="46.43592" lon="5.33116">
        <ele>230.8</ele>
        <time>2022-07-21T04:56:25Z</time>
      </trkpt>
      <trkpt lat="46.4359" lon="5.33099">
        <ele>231.4</ele>
        <time>2022-07-21T04:56:27Z</time>
      </trkpt>
      <trkpt lat="46.43585" lon="5.33075">
        <ele>232</ele>
        <time>2022-07-21T04:56:30Z</time>
      </trkpt>
      <trkpt lat="46.43578" lon="5.3305">
        <ele>232.2</ele>
        <time>2022-07-21T04:56:33Z</time>
      </trkpt>
      <trkpt lat="46.43562" lon="5.33001">
        <ele>232.6</ele>
        <time>2022-07-21T04:56:39Z</time>
      </trkpt>
      <trkpt lat="46.43545" lon="5.32941">
        <ele>232.6</ele>
        <time>2022-07-21T04:56:46Z</time>
      </trkpt>
      <trkpt lat="46.43529" lon="5.32866">
        <ele>232.2</ele>
        <time>2022-07-21T04:56:54Z</time>
      </trkpt>
      <trkpt lat="46.43513" lon="5.32788">
        <ele>231.6</ele>
        <time>2022-07-21T04:57:02Z</time>
      </trkpt>
      <trkpt lat="46.43499" lon="5.32716">
        <ele>230.8</ele>
        <time>2022-07-21T04:57:09Z</time>
      </trkpt>
      <trkpt lat="46.43491" lon="5.32682">
        <ele>230.2</ele>
        <time>2022-07-21T04:57:12Z</time>
      </trkpt>
      <trkpt lat="46.43486" lon="5.32659">
        <ele>229.8</ele>
        <time>2022-07-21T04:57:14Z</time>
      </trkpt>
      <trkpt lat="46.43474" lon="5.32602">
        <ele>228.8</ele>
        <time>2022-07-21T04:57:19Z</time>
      </trkpt>
      <trkpt lat="46.43473" lon="5.32591">
        <ele>228.4</ele>
        <time>2022-07-21T04:57:20Z</time>
      </trkpt>
      <trkpt lat="46.43464" lon="5.32506">
        <ele>227.4</ele>
        <time>2022-07-21T04:57:27Z</time>
      </trkpt>
      <trkpt lat="46.43463" lon="5.32425">
        <ele>226.6</ele>
        <time>2022-07-21T04:57:34Z</time>
      </trkpt>
      <trkpt lat="46.43473" lon="5.32372">
        <ele>226.6</ele>
        <time>2022-07-21T04:57:39Z</time>
      </trkpt>
      <trkpt lat="46.43488" lon="5.32317">
        <ele>226.2</ele>
        <time>2022-07-21T04:57:44Z</time>
      </trkpt>
      <trkpt lat="46.43495" lon="5.32294">
        <ele>225.8</ele>
        <time>2022-07-21T04:57:46Z</time>
      </trkpt>
      <trkpt lat="46.43503" lon="5.3227">
        <ele>225</ele>
        <time>2022-07-21T04:57:48Z</time>
      </trkpt>
      <trkpt lat="46.43511" lon="5.32245">
        <ele>223.8</ele>
        <time>2022-07-21T04:57:50Z</time>
      </trkpt>
      <trkpt lat="46.4352" lon="5.32218">
        <ele>222.6</ele>
        <time>2022-07-21T04:57:52Z</time>
      </trkpt>
      <trkpt lat="46.43528" lon="5.32191">
        <ele>221.4</ele>
        <time>2022-07-21T04:57:54Z</time>
      </trkpt>
      <trkpt lat="46.43536" lon="5.32162">
        <ele>220.4</ele>
        <time>2022-07-21T04:57:56Z</time>
      </trkpt>
      <trkpt lat="46.43542" lon="5.32132">
        <ele>219.2</ele>
        <time>2022-07-21T04:57:58Z</time>
      </trkpt>
      <trkpt lat="46.43545" lon="5.32117">
        <ele>218</ele>
        <time>2022-07-21T04:57:59Z</time>
      </trkpt>
      <trkpt lat="46.43548" lon="5.32101">
        <ele>217</ele>
        <time>2022-07-21T04:58:00Z</time>
      </trkpt>
      <trkpt lat="46.43554" lon="5.3207">
        <ele>215.8</ele>
        <time>2022-07-21T04:58:02Z</time>
      </trkpt>
      <trkpt lat="46.4356" lon="5.32038">
        <ele>214.8</ele>
        <time>2022-07-21T04:58:04Z</time>
      </trkpt>
      <trkpt lat="46.43566" lon="5.32006">
        <ele>213.2</ele>
        <time>2022-07-21T04:58:06Z</time>
      </trkpt>
      <trkpt lat="46.43573" lon="5.31975">
        <ele>211</ele>
        <time>2022-07-21T04:58:08Z</time>
      </trkpt>
      <trkpt lat="46.43576" lon="5.31959">
        <ele>210</ele>
        <time>2022-07-21T04:58:09Z</time>
      </trkpt>
      <trkpt lat="46.4358" lon="5.31944">
        <ele>209.6</ele>
        <time>2022-07-21T04:58:10Z</time>
      </trkpt>
      <trkpt lat="46.43583" lon="5.31928">
        <ele>209</ele>
        <time>2022-07-21T04:58:11Z</time>
      </trkpt>
      <trkpt lat="46.43592" lon="5.31884">
        <ele>207.6</ele>
        <time>2022-07-21T04:58:14Z</time>
      </trkpt>
      <trkpt lat="46.43597" lon="5.31856">
        <ele>206.8</ele>
        <time>2022-07-21T04:58:16Z</time>
      </trkpt>
      <trkpt lat="46.43601" lon="5.31828">
        <ele>206.6</ele>
        <time>2022-07-21T04:58:18Z</time>
      </trkpt>
      <trkpt lat="46.43605" lon="5.31775">
        <ele>206.6</ele>
        <time>2022-07-21T04:58:22Z</time>
      </trkpt>
      <trkpt lat="46.43606" lon="5.31724">
        <ele>206.8</ele>
        <time>2022-07-21T04:58:26Z</time>
      </trkpt>
      <trkpt lat="46.43607" lon="5.3169">
        <ele>207.2</ele>
        <time>2022-07-21T04:58:29Z</time>
      </trkpt>
      <trkpt lat="46.43606" lon="5.31668">
        <ele>207.4</ele>
        <time>2022-07-21T04:58:31Z</time>
      </trkpt>
      <trkpt lat="46.43604" lon="5.31658">
        <ele>207.6</ele>
        <time>2022-07-21T04:58:32Z</time>
      </trkpt>
      <trkpt lat="46.43598" lon="5.3164">
        <ele>208</ele>
        <time>2022-07-21T04:58:34Z</time>
      </trkpt>
      <trkpt lat="46.43589" lon="5.3162">
        <ele>208.6</ele>
        <time>2022-07-21T04:58:37Z</time>
      </trkpt>
      <trkpt lat="46.43586" lon="5.31613">
        <ele>209</ele>
        <time>2022-07-21T04:58:38Z</time>
      </trkpt>
      <trkpt lat="46.43583" lon="5.31608">
        <ele>209.8</ele>
        <time>2022-07-21T04:58:39Z</time>
      </trkpt>
      <trkpt lat="46.43576" lon="5.31599">
        <ele>211</ele>
        <time>2022-07-21T04:58:41Z</time>
      </trkpt>
      <trkpt lat="46.43571" lon="5.31591">
        <ele>212.2</ele>
        <time>2022-07-21T04:58:43Z</time>
      </trkpt>
      <trkpt lat="46.43561" lon="5.31579">
        <ele>213.2</ele>
        <time>2022-07-21T04:58:46Z</time>
      </trkpt>
      <trkpt lat="46.43552" lon="5.31568">
        <ele>214.2</ele>
        <time>2022-07-21T04:58:49Z</time>
      </trkpt>
      <trkpt lat="46.43549" lon="5.31564">
        <ele>214.8</ele>
        <time>2022-07-21T04:58:50Z</time>
      </trkpt>
      <trkpt lat="46.43543" lon="5.31558">
        <ele>215.4</ele>
        <time>2022-07-21T04:58:52Z</time>
      </trkpt>
      <trkpt lat="46.43528" lon="5.31538">
        <ele>216.4</ele>
        <time>2022-07-21T04:58:57Z</time>
      </trkpt>
      <trkpt lat="46.43522" lon="5.3153">
        <ele>216.8</ele>
        <time>2022-07-21T04:58:59Z</time>
      </trkpt>
      <trkpt lat="46.43512" lon="5.31518">
        <ele>217.6</ele>
        <time>2022-07-21T04:59:02Z</time>
      </trkpt>
      <trkpt lat="46.43493" lon="5.31495">
        <ele>218.8</ele>
        <time>2022-07-21T04:59:08Z</time>
      </trkpt>
      <trkpt lat="46.4349" lon="5.31492">
        <ele>219</ele>
        <time>2022-07-21T04:59:09Z</time>
      </trkpt>
      <trkpt lat="46.43474" lon="5.31476">
        <ele>220</ele>
        <time>2022-07-21T04:59:14Z</time>
      </trkpt>
      <trkpt lat="46.43466" lon="5.31466">
        <ele>221.2</ele>
        <time>2022-07-21T04:59:17Z</time>
      </trkpt>
      <trkpt lat="46.43451" lon="5.31449">
        <ele>222.4</ele>
        <time>2022-07-21T04:59:22Z</time>
      </trkpt>
      <trkpt lat="46.43439" lon="5.31436">
        <ele>223</ele>
        <time>2022-07-21T04:59:26Z</time>
      </trkpt>
      <trkpt lat="46.43434" lon="5.31429">
        <ele>223.6</ele>
        <time>2022-07-21T04:59:28Z</time>
      </trkpt>
      <trkpt lat="46.43419" lon="5.31414">
        <ele>224.6</ele>
        <time>2022-07-21T04:59:33Z</time>
      </trkpt>
      <trkpt lat="46.43411" lon="5.31405">
        <ele>225.2</ele>
        <time>2022-07-21T04:59:36Z</time>
      </trkpt>
      <trkpt lat="46.43396" lon="5.31389">
        <ele>225.6</ele>
        <time>2022-07-21T04:59:41Z</time>
      </trkpt>
      <trkpt lat="46.43389" lon="5.31382">
        <ele>226</ele>
        <time>2022-07-21T04:59:43Z</time>
      </trkpt>
      <trkpt lat="46.4337" lon="5.31362">
        <ele>226.6</ele>
        <time>2022-07-21T04:59:49Z</time>
      </trkpt>
      <trkpt lat="46.43363" lon="5.31355">
        <ele>226.8</ele>
        <time>2022-07-21T04:59:51Z</time>
      </trkpt>
      <trkpt lat="46.43353" lon="5.31343">
        <ele>227</ele>
        <time>2022-07-21T04:59:54Z</time>
      </trkpt>
      <trkpt lat="46.43339" lon="5.31328">
        <ele>227.6</ele>
        <time>2022-07-21T04:59:58Z</time>
      </trkpt>
      <trkpt lat="46.43335" lon="5.31324">
        <ele>227.8</ele>
        <time>2022-07-21T04:59:59Z</time>
      </trkpt>
      <trkpt lat="46.43307" lon="5.31291">
        <ele>228.4</ele>
        <time>2022-07-21T05:00:07Z</time>
      </trkpt>
      <trkpt lat="46.43272" lon="5.31252">
        <ele>228.6</ele>
        <time>2022-07-21T05:00:15Z</time>
      </trkpt>
      <trkpt lat="46.4324" lon="5.31217">
        <ele>228.4</ele>
        <time>2022-07-21T05:00:21Z</time>
      </trkpt>
      <trkpt lat="46.43206" lon="5.31181">
        <ele>226.6</ele>
        <time>2022-07-21T05:00:26Z</time>
      </trkpt>
      <trkpt lat="46.43178" lon="5.31151">
        <ele>225.4</ele>
        <time>2022-07-21T05:00:30Z</time>
      </trkpt>
      <trkpt lat="46.43158" lon="5.31128">
        <ele>224.2</ele>
        <time>2022-07-21T05:00:33Z</time>
      </trkpt>
      <trkpt lat="46.43129" lon="5.31095">
        <ele>223.8</ele>
        <time>2022-07-21T05:00:38Z</time>
      </trkpt>
      <trkpt lat="46.43097" lon="5.31061">
        <ele>224.6</ele>
        <time>2022-07-21T05:00:44Z</time>
      </trkpt>
      <trkpt lat="46.4307" lon="5.31031">
        <ele>225.2</ele>
        <time>2022-07-21T05:00:49Z</time>
      </trkpt>
      <trkpt lat="46.43064" lon="5.31025">
        <ele>225.2</ele>
        <time>2022-07-21T05:00:50Z</time>
      </trkpt>
      <trkpt lat="46.4302" lon="5.30977">
        <ele>225.8</ele>
        <time>2022-07-21T05:00:58Z</time>
      </trkpt>
      <trkpt lat="46.42995" lon="5.30949">
        <ele>226.2</ele>
        <time>2022-07-21T05:01:03Z</time>
      </trkpt>
      <trkpt lat="46.42974" lon="5.30927">
        <ele>226.6</ele>
        <time>2022-07-21T05:01:07Z</time>
      </trkpt>
      <trkpt lat="46.42931" lon="5.30877">
        <ele>227</ele>
        <time>2022-07-21T05:01:16Z</time>
      </trkpt>
      <trkpt lat="46.42896" lon="5.30822">
        <ele>226.6</ele>
        <time>2022-07-21T05:01:24Z</time>
      </trkpt>
      <trkpt lat="46.42863" lon="5.30765">
        <ele>226</ele>
        <time>2022-07-21T05:01:31Z</time>
      </trkpt>
      <trkpt lat="46.42843" lon="5.30729">
        <ele>225</ele>
        <time>2022-07-21T05:01:35Z</time>
      </trkpt>
      <trkpt lat="46.42827" lon="5.30702">
        <ele>224.4</ele>
        <time>2022-07-21T05:01:38Z</time>
      </trkpt>
      <trkpt lat="46.42822" lon="5.30693">
        <ele>223.8</ele>
        <time>2022-07-21T05:01:39Z</time>
      </trkpt>
      <trkpt lat="46.42792" lon="5.30642">
        <ele>222.8</ele>
        <time>2022-07-21T05:01:45Z</time>
      </trkpt>
      <trkpt lat="46.42788" lon="5.30634">
        <ele>222.8</ele>
        <time>2022-07-21T05:01:46Z</time>
      </trkpt>
      <trkpt lat="46.42763" lon="5.30591">
        <ele>223.2</ele>
        <time>2022-07-21T05:01:52Z</time>
      </trkpt>
      <trkpt lat="46.42742" lon="5.30556">
        <ele>224</ele>
        <time>2022-07-21T05:01:57Z</time>
      </trkpt>
      <trkpt lat="46.42725" lon="5.30527">
        <ele>224.2</ele>
        <time>2022-07-21T05:02:01Z</time>
      </trkpt>
      <trkpt lat="46.42688" lon="5.30463">
        <ele>224.2</ele>
        <time>2022-07-21T05:02:10Z</time>
      </trkpt>
      <trkpt lat="46.42669" lon="5.30433">
        <ele>224.6</ele>
        <time>2022-07-21T05:02:15Z</time>
      </trkpt>
      <trkpt lat="46.42666" lon="5.30427">
        <ele>225</ele>
        <time>2022-07-21T05:02:16Z</time>
      </trkpt>
      <trkpt lat="46.42663" lon="5.3042">
        <ele>225</ele>
        <time>2022-07-21T05:02:17Z</time>
      </trkpt>
      <trkpt lat="46.42652" lon="5.30402">
        <ele>225.4</ele>
        <time>2022-07-21T05:02:20Z</time>
      </trkpt>
      <trkpt lat="46.42621" lon="5.30351">
        <ele>226</ele>
        <time>2022-07-21T05:02:28Z</time>
      </trkpt>
      <trkpt lat="46.4261" lon="5.30333">
        <ele>226</ele>
        <time>2022-07-21T05:02:31Z</time>
      </trkpt>
      <trkpt lat="46.42587" lon="5.30294">
        <ele>226.4</ele>
        <time>2022-07-21T05:02:37Z</time>
      </trkpt>
      <trkpt lat="46.42548" lon="5.30229">
        <ele>226.4</ele>
        <time>2022-07-21T05:02:46Z</time>
      </trkpt>
      <trkpt lat="46.42509" lon="5.30167">
        <ele>225</ele>
        <time>2022-07-21T05:02:54Z</time>
      </trkpt>
      <trkpt lat="46.42476" lon="5.30116">
        <ele>224.4</ele>
        <time>2022-07-21T05:03:01Z</time>
      </trkpt>
      <trkpt lat="46.42442" lon="5.30069">
        <ele>224</ele>
        <time>2022-07-21T05:03:07Z</time>
      </trkpt>
      <trkpt lat="46.42429" lon="5.30053">
        <ele>223.6</ele>
        <time>2022-07-21T05:03:09Z</time>
      </trkpt>
      <trkpt lat="46.42414" lon="5.30038">
        <ele>222</ele>
        <time>2022-07-21T05:03:11Z</time>
      </trkpt>
      <trkpt lat="46.42398" lon="5.30022">
        <ele>221.4</ele>
        <time>2022-07-21T05:03:13Z</time>
      </trkpt>
      <trkpt lat="46.4239" lon="5.30015">
        <ele>221</ele>
        <time>2022-07-21T05:03:14Z</time>
      </trkpt>
      <trkpt lat="46.42372" lon="5.3">
        <ele>219.8</ele>
        <time>2022-07-21T05:03:16Z</time>
      </trkpt>
      <trkpt lat="46.42353" lon="5.29984">
        <ele>218.2</ele>
        <time>2022-07-21T05:03:18Z</time>
      </trkpt>
      <trkpt lat="46.42333" lon="5.29968">
        <ele>216.2</ele>
        <time>2022-07-21T05:03:20Z</time>
      </trkpt>
      <trkpt lat="46.42313" lon="5.29953">
        <ele>215</ele>
        <time>2022-07-21T05:03:22Z</time>
      </trkpt>
      <trkpt lat="46.42292" lon="5.29937">
        <ele>213.8</ele>
        <time>2022-07-21T05:03:24Z</time>
      </trkpt>
      <trkpt lat="46.42282" lon="5.29929">
        <ele>213.4</ele>
        <time>2022-07-21T05:03:25Z</time>
      </trkpt>
      <trkpt lat="46.42271" lon="5.29921">
        <ele>212.6</ele>
        <time>2022-07-21T05:03:26Z</time>
      </trkpt>
      <trkpt lat="46.42248" lon="5.29902">
        <ele>210.6</ele>
        <time>2022-07-21T05:03:28Z</time>
      </trkpt>
      <trkpt lat="46.42228" lon="5.29887">
        <ele>209.2</ele>
        <time>2022-07-21T05:03:30Z</time>
      </trkpt>
      <trkpt lat="46.42206" lon="5.29868">
        <ele>208</ele>
        <time>2022-07-21T05:03:32Z</time>
      </trkpt>
      <trkpt lat="46.42184" lon="5.29849">
        <ele>206</ele>
        <time>2022-07-21T05:03:34Z</time>
      </trkpt>
      <trkpt lat="46.42173" lon="5.29839">
        <ele>204.6</ele>
        <time>2022-07-21T05:03:35Z</time>
      </trkpt>
      <trkpt lat="46.42152" lon="5.29819">
        <ele>203.4</ele>
        <time>2022-07-21T05:03:37Z</time>
      </trkpt>
      <trkpt lat="46.42143" lon="5.29809">
        <ele>203</ele>
        <time>2022-07-21T05:03:38Z</time>
      </trkpt>
      <trkpt lat="46.42135" lon="5.29798">
        <ele>202.4</ele>
        <time>2022-07-21T05:03:39Z</time>
      </trkpt>
      <trkpt lat="46.42113" lon="5.29768">
        <ele>201.4</ele>
        <time>2022-07-21T05:03:42Z</time>
      </trkpt>
      <trkpt lat="46.42091" lon="5.29735">
        <ele>202.2</ele>
        <time>2022-07-21T05:03:46Z</time>
      </trkpt>
      <trkpt lat="46.42076" lon="5.29713">
        <ele>204.2</ele>
        <time>2022-07-21T05:03:49Z</time>
      </trkpt>
      <trkpt lat="46.42067" lon="5.297">
        <ele>205</ele>
        <time>2022-07-21T05:03:51Z</time>
      </trkpt>
      <trkpt lat="46.42063" lon="5.29694">
        <ele>205.8</ele>
        <time>2022-07-21T05:03:52Z</time>
      </trkpt>
      <trkpt lat="46.42055" lon="5.29681">
        <ele>207</ele>
        <time>2022-07-21T05:03:54Z</time>
      </trkpt>
      <trkpt lat="46.42047" lon="5.2967">
        <ele>208.4</ele>
        <time>2022-07-21T05:03:56Z</time>
      </trkpt>
      <trkpt lat="46.42039" lon="5.2966">
        <ele>209.6</ele>
        <time>2022-07-21T05:03:58Z</time>
      </trkpt>
      <trkpt lat="46.42027" lon="5.29642">
        <ele>210.8</ele>
        <time>2022-07-21T05:04:02Z</time>
      </trkpt>
      <trkpt lat="46.42019" lon="5.29631">
        <ele>212</ele>
        <time>2022-07-21T05:04:05Z</time>
      </trkpt>
      <trkpt lat="46.42017" lon="5.29627">
        <ele>212.2</ele>
        <time>2022-07-21T05:04:06Z</time>
      </trkpt>
      <trkpt lat="46.42012" lon="5.29619">
        <ele>213</ele>
        <time>2022-07-21T05:04:08Z</time>
      </trkpt>
      <trkpt lat="46.42009" lon="5.29616">
        <ele>213.2</ele>
        <time>2022-07-21T05:04:09Z</time>
      </trkpt>
      <trkpt lat="46.42002" lon="5.29605">
        <ele>214.2</ele>
        <time>2022-07-21T05:04:12Z</time>
      </trkpt>
      <trkpt lat="46.41997" lon="5.29598">
        <ele>214.6</ele>
        <time>2022-07-21T05:04:14Z</time>
      </trkpt>
      <trkpt lat="46.41988" lon="5.29584">
        <ele>215.4</ele>
        <time>2022-07-21T05:04:18Z</time>
      </trkpt>
      <trkpt lat="46.41984" lon="5.29577">
        <ele>216.2</ele>
        <time>2022-07-21T05:04:20Z</time>
      </trkpt>
      <trkpt lat="46.41982" lon="5.29574">
        <ele>216.4</ele>
        <time>2022-07-21T05:04:21Z</time>
      </trkpt>
      <trkpt lat="46.4197" lon="5.29557">
        <ele>217.6</ele>
        <time>2022-07-21T05:04:26Z</time>
      </trkpt>
      <trkpt lat="46.41958" lon="5.29534">
        <ele>218.8</ele>
        <time>2022-07-21T05:04:32Z</time>
      </trkpt>
      <trkpt lat="46.4195" lon="5.29513">
        <ele>220</ele>
        <time>2022-07-21T05:04:37Z</time>
      </trkpt>
      <trkpt lat="46.41947" lon="5.29505">
        <ele>220.4</ele>
        <time>2022-07-21T05:04:39Z</time>
      </trkpt>
      <trkpt lat="46.41943" lon="5.29493">
        <ele>221.2</ele>
        <time>2022-07-21T05:04:42Z</time>
      </trkpt>
      <trkpt lat="46.41937" lon="5.29472">
        <ele>222.2</ele>
        <time>2022-07-21T05:04:47Z</time>
      </trkpt>
      <trkpt lat="46.41932" lon="5.29459">
        <ele>222.8</ele>
        <time>2022-07-21T05:04:50Z</time>
      </trkpt>
      <trkpt lat="46.41928" lon="5.29445">
        <ele>223.4</ele>
        <time>2022-07-21T05:04:53Z</time>
      </trkpt>
      <trkpt lat="46.41917" lon="5.29412">
        <ele>224.4</ele>
        <time>2022-07-21T05:04:59Z</time>
      </trkpt>
      <trkpt lat="46.41915" lon="5.29406">
        <ele>224.6</ele>
        <time>2022-07-21T05:05:00Z</time>
      </trkpt>
      <trkpt lat="46.41899" lon="5.29361">
        <ele>224.8</ele>
        <time>2022-07-21T05:05:07Z</time>
      </trkpt>
      <trkpt lat="46.41879" lon="5.29303">
        <ele>224.6</ele>
        <time>2022-07-21T05:05:15Z</time>
      </trkpt>
      <trkpt lat="46.41855" lon="5.29237">
        <ele>224</ele>
        <time>2022-07-21T05:05:23Z</time>
      </trkpt>
      <trkpt lat="46.41835" lon="5.29184">
        <ele>223.2</ele>
        <time>2022-07-21T05:05:29Z</time>
      </trkpt>
      <trkpt lat="46.41829" lon="5.29166">
        <ele>223</ele>
        <time>2022-07-21T05:05:31Z</time>
      </trkpt>
      <trkpt lat="46.41808" lon="5.29113">
        <ele>222.8</ele>
        <time>2022-07-21T05:05:37Z</time>
      </trkpt>
      <trkpt lat="46.41785" lon="5.29064">
        <ele>222.2</ele>
        <time>2022-07-21T05:05:43Z</time>
      </trkpt>
      <trkpt lat="46.41781" lon="5.29057">
        <ele>222.2</ele>
        <time>2022-07-21T05:05:44Z</time>
      </trkpt>
      <trkpt lat="46.41752" lon="5.29022">
        <ele>221.4</ele>
        <time>2022-07-21T05:05:49Z</time>
      </trkpt>
      <trkpt lat="46.41738" lon="5.29009">
        <ele>221</ele>
        <time>2022-07-21T05:05:51Z</time>
      </trkpt>
      <trkpt lat="46.41715" lon="5.2899">
        <ele>220</ele>
        <time>2022-07-21T05:05:54Z</time>
      </trkpt>
      <trkpt lat="46.41707" lon="5.28983">
        <ele>219</ele>
        <time>2022-07-21T05:05:55Z</time>
      </trkpt>
      <trkpt lat="46.41684" lon="5.2896">
        <ele>217.8</ele>
        <time>2022-07-21T05:05:58Z</time>
      </trkpt>
      <trkpt lat="46.41669" lon="5.2894">
        <ele>216.6</ele>
        <time>2022-07-21T05:06:00Z</time>
      </trkpt>
      <trkpt lat="46.41656" lon="5.28916">
        <ele>215</ele>
        <time>2022-07-21T05:06:02Z</time>
      </trkpt>
      <trkpt lat="46.41647" lon="5.28889">
        <ele>213.8</ele>
        <time>2022-07-21T05:06:04Z</time>
      </trkpt>
      <trkpt lat="46.41641" lon="5.28859">
        <ele>212.6</ele>
        <time>2022-07-21T05:06:06Z</time>
      </trkpt>
      <trkpt lat="46.41636" lon="5.28829">
        <ele>211.2</ele>
        <time>2022-07-21T05:06:08Z</time>
      </trkpt>
      <trkpt lat="46.41634" lon="5.28813">
        <ele>210.2</ele>
        <time>2022-07-21T05:06:09Z</time>
      </trkpt>
      <trkpt lat="46.41633" lon="5.28797">
        <ele>209.8</ele>
        <time>2022-07-21T05:06:10Z</time>
      </trkpt>
      <trkpt lat="46.41634" lon="5.28748">
        <ele>208.2</ele>
        <time>2022-07-21T05:06:13Z</time>
      </trkpt>
      <trkpt lat="46.41638" lon="5.28715">
        <ele>207.2</ele>
        <time>2022-07-21T05:06:15Z</time>
      </trkpt>
      <trkpt lat="46.41643" lon="5.28682">
        <ele>206</ele>
        <time>2022-07-21T05:06:17Z</time>
      </trkpt>
      <trkpt lat="46.41644" lon="5.28666">
        <ele>205</ele>
        <time>2022-07-21T05:06:18Z</time>
      </trkpt>
      <trkpt lat="46.41644" lon="5.28649">
        <ele>204.8</ele>
        <time>2022-07-21T05:06:19Z</time>
      </trkpt>
      <trkpt lat="46.41642" lon="5.28632">
        <ele>204</ele>
        <time>2022-07-21T05:06:20Z</time>
      </trkpt>
      <trkpt lat="46.41639" lon="5.28616">
        <ele>203.6</ele>
        <time>2022-07-21T05:06:21Z</time>
      </trkpt>
      <trkpt lat="46.41629" lon="5.28586">
        <ele>202.2</ele>
        <time>2022-07-21T05:06:23Z</time>
      </trkpt>
      <trkpt lat="46.41618" lon="5.28557">
        <ele>200.4</ele>
        <time>2022-07-21T05:06:25Z</time>
      </trkpt>
      <trkpt lat="46.41612" lon="5.28543">
        <ele>199.8</ele>
        <time>2022-07-21T05:06:26Z</time>
      </trkpt>
      <trkpt lat="46.41607" lon="5.2853">
        <ele>198.8</ele>
        <time>2022-07-21T05:06:27Z</time>
      </trkpt>
      <trkpt lat="46.41593" lon="5.2849">
        <ele>197.8</ele>
        <time>2022-07-21T05:06:30Z</time>
      </trkpt>
      <trkpt lat="46.41583" lon="5.28465">
        <ele>197.2</ele>
        <time>2022-07-21T05:06:32Z</time>
      </trkpt>
      <trkpt lat="46.4157" lon="5.28428">
        <ele>196.6</ele>
        <time>2022-07-21T05:06:35Z</time>
      </trkpt>
      <trkpt lat="46.41552" lon="5.28378">
        <ele>196.2</ele>
        <time>2022-07-21T05:06:39Z</time>
      </trkpt>
      <trkpt lat="46.41543" lon="5.28353">
        <ele>195.6</ele>
        <time>2022-07-21T05:06:41Z</time>
      </trkpt>
      <trkpt lat="46.41521" lon="5.28292">
        <ele>194.6</ele>
        <time>2022-07-21T05:06:46Z</time>
      </trkpt>
      <trkpt lat="46.41509" lon="5.28258">
        <ele>194.4</ele>
        <time>2022-07-21T05:06:49Z</time>
      </trkpt>
      <trkpt lat="46.41483" lon="5.28186">
        <ele>195</ele>
        <time>2022-07-21T05:06:56Z</time>
      </trkpt>
      <trkpt lat="46.41458" lon="5.28115">
        <ele>195</ele>
        <time>2022-07-21T05:07:03Z</time>
      </trkpt>
      <trkpt lat="46.41444" lon="5.28076">
        <ele>194.8</ele>
        <time>2022-07-21T05:07:07Z</time>
      </trkpt>
      <trkpt lat="46.41419" lon="5.28005">
        <ele>195.4</ele>
        <time>2022-07-21T05:07:15Z</time>
      </trkpt>
      <trkpt lat="46.41416" lon="5.27996">
        <ele>195.6</ele>
        <time>2022-07-21T05:07:16Z</time>
      </trkpt>
      <trkpt lat="46.41413" lon="5.27987">
        <ele>195.8</ele>
        <time>2022-07-21T05:07:17Z</time>
      </trkpt>
      <trkpt lat="46.4139" lon="5.27923">
        <ele>196.8</ele>
        <time>2022-07-21T05:07:25Z</time>
      </trkpt>
      <trkpt lat="46.41388" lon="5.27917">
        <ele>197</ele>
        <time>2022-07-21T05:07:26Z</time>
      </trkpt>
      <trkpt lat="46.4138" lon="5.27894">
        <ele>198</ele>
        <time>2022-07-21T05:07:30Z</time>
      </trkpt>
      <trkpt lat="46.41378" lon="5.27888">
        <ele>198.8</ele>
        <time>2022-07-21T05:07:31Z</time>
      </trkpt>
      <trkpt lat="46.41374" lon="5.27877">
        <ele>199.4</ele>
        <time>2022-07-21T05:07:33Z</time>
      </trkpt>
      <trkpt lat="46.41368" lon="5.27857">
        <ele>200.4</ele>
        <time>2022-07-21T05:07:37Z</time>
      </trkpt>
      <trkpt lat="46.41365" lon="5.27847">
        <ele>200.8</ele>
        <time>2022-07-21T05:07:39Z</time>
      </trkpt>
      <trkpt lat="46.41357" lon="5.27826">
        <ele>201.4</ele>
        <time>2022-07-21T05:07:43Z</time>
      </trkpt>
      <trkpt lat="46.41354" lon="5.27817">
        <ele>202.6</ele>
        <time>2022-07-21T05:07:45Z</time>
      </trkpt>
      <trkpt lat="46.41352" lon="5.27812">
        <ele>202.6</ele>
        <time>2022-07-21T05:07:46Z</time>
      </trkpt>
      <trkpt lat="46.41346" lon="5.27799">
        <ele>203.6</ele>
        <time>2022-07-21T05:07:49Z</time>
      </trkpt>
      <trkpt lat="46.41341" lon="5.27786">
        <ele>204.8</ele>
        <time>2022-07-21T05:07:52Z</time>
      </trkpt>
      <trkpt lat="46.41338" lon="5.27777">
        <ele>205.2</ele>
        <time>2022-07-21T05:07:54Z</time>
      </trkpt>
      <trkpt lat="46.41334" lon="5.27763">
        <ele>205.8</ele>
        <time>2022-07-21T05:07:57Z</time>
      </trkpt>
      <trkpt lat="46.41327" lon="5.27745">
        <ele>206.6</ele>
        <time>2022-07-21T05:08:01Z</time>
      </trkpt>
      <trkpt lat="46.41323" lon="5.27737">
        <ele>207</ele>
        <time>2022-07-21T05:08:03Z</time>
      </trkpt>
      <trkpt lat="46.41317" lon="5.27719">
        <ele>208.2</ele>
        <time>2022-07-21T05:08:07Z</time>
      </trkpt>
      <trkpt lat="46.4131" lon="5.27702">
        <ele>208.8</ele>
        <time>2022-07-21T05:08:11Z</time>
      </trkpt>
      <trkpt lat="46.41307" lon="5.27693">
        <ele>209.4</ele>
        <time>2022-07-21T05:08:13Z</time>
      </trkpt>
      <trkpt lat="46.41302" lon="5.27676">
        <ele>210.6</ele>
        <time>2022-07-21T05:08:17Z</time>
      </trkpt>
      <trkpt lat="46.413" lon="5.27671">
        <ele>210.8</ele>
        <time>2022-07-21T05:08:18Z</time>
      </trkpt>
      <trkpt lat="46.41292" lon="5.27646">
        <ele>211.8</ele>
        <time>2022-07-21T05:08:24Z</time>
      </trkpt>
      <trkpt lat="46.41289" lon="5.27636">
        <ele>212.6</ele>
        <time>2022-07-21T05:08:26Z</time>
      </trkpt>
      <trkpt lat="46.41287" lon="5.27627">
        <ele>213</ele>
        <time>2022-07-21T05:08:28Z</time>
      </trkpt>
      <trkpt lat="46.4128" lon="5.27596">
        <ele>214.2</ele>
        <time>2022-07-21T05:08:34Z</time>
      </trkpt>
      <trkpt lat="46.41275" lon="5.27558">
        <ele>214.8</ele>
        <time>2022-07-21T05:08:40Z</time>
      </trkpt>
      <trkpt lat="46.41269" lon="5.27501">
        <ele>214.6</ele>
        <time>2022-07-21T05:08:47Z</time>
      </trkpt>
      <trkpt lat="46.41262" lon="5.27437">
        <ele>213.6</ele>
        <time>2022-07-21T05:08:54Z</time>
      </trkpt>
      <trkpt lat="46.41255" lon="5.2738">
        <ele>213.6</ele>
        <time>2022-07-21T05:09:01Z</time>
      </trkpt>
      <trkpt lat="46.41249" lon="5.27332">
        <ele>215.2</ele>
        <time>2022-07-21T05:09:08Z</time>
      </trkpt>
      <trkpt lat="46.41248" lon="5.27326">
        <ele>215.4</ele>
        <time>2022-07-21T05:09:09Z</time>
      </trkpt>
      <trkpt lat="46.41246" lon="5.27299">
        <ele>216</ele>
        <time>2022-07-21T05:09:13Z</time>
      </trkpt>
      <trkpt lat="46.41245" lon="5.27293">
        <ele>216.4</ele>
        <time>2022-07-21T05:09:14Z</time>
      </trkpt>
      <trkpt lat="46.41242" lon="5.2726">
        <ele>218</ele>
        <time>2022-07-21T05:09:19Z</time>
      </trkpt>
      <trkpt lat="46.41241" lon="5.27246">
        <ele>218.6</ele>
        <time>2022-07-21T05:09:21Z</time>
      </trkpt>
      <trkpt lat="46.4124" lon="5.27234">
        <ele>219</ele>
        <time>2022-07-21T05:09:23Z</time>
      </trkpt>
      <trkpt lat="46.41236" lon="5.27202">
        <ele>220.2</ele>
        <time>2022-07-21T05:09:28Z</time>
      </trkpt>
      <trkpt lat="46.41236" lon="5.27196">
        <ele>220.2</ele>
        <time>2022-07-21T05:09:29Z</time>
      </trkpt>
      <trkpt lat="46.41233" lon="5.27163">
        <ele>221.2</ele>
        <time>2022-07-21T05:09:34Z</time>
      </trkpt>
      <trkpt lat="46.4123" lon="5.27143">
        <ele>222</ele>
        <time>2022-07-21T05:09:37Z</time>
      </trkpt>
      <trkpt lat="46.41228" lon="5.27128">
        <ele>222.2</ele>
        <time>2022-07-21T05:09:39Z</time>
      </trkpt>
      <trkpt lat="46.41221" lon="5.2709">
        <ele>222.8</ele>
        <time>2022-07-21T05:09:44Z</time>
      </trkpt>
      <trkpt lat="46.41207" lon="5.27037">
        <ele>223.2</ele>
        <time>2022-07-21T05:09:51Z</time>
      </trkpt>
      <trkpt lat="46.41195" lon="5.26973">
        <ele>223</ele>
        <time>2022-07-21T05:09:59Z</time>
      </trkpt>
      <trkpt lat="46.41195" lon="5.26937">
        <ele>222.8</ele>
        <time>2022-07-21T05:10:03Z</time>
      </trkpt>
      <trkpt lat="46.41197" lon="5.26919">
        <ele>222.8</ele>
        <time>2022-07-21T05:10:05Z</time>
      </trkpt>
      <trkpt lat="46.41203" lon="5.26902">
        <ele>222.6</ele>
        <time>2022-07-21T05:10:07Z</time>
      </trkpt>
      <trkpt lat="46.41209" lon="5.26886">
        <ele>222.2</ele>
        <time>2022-07-21T05:10:09Z</time>
      </trkpt>
      <trkpt lat="46.4121" lon="5.26869">
        <ele>222</ele>
        <time>2022-07-21T05:10:11Z</time>
      </trkpt>
      <trkpt lat="46.41208" lon="5.26861">
        <ele>222</ele>
        <time>2022-07-21T05:10:12Z</time>
      </trkpt>
      <trkpt lat="46.41204" lon="5.26855">
        <ele>221.8</ele>
        <time>2022-07-21T05:10:13Z</time>
      </trkpt>
      <trkpt lat="46.41198" lon="5.26852">
        <ele>221.8</ele>
        <time>2022-07-21T05:10:14Z</time>
      </trkpt>
      <trkpt lat="46.41185" lon="5.26856">
        <ele>221.6</ele>
        <time>2022-07-21T05:10:16Z</time>
      </trkpt>
      <trkpt lat="46.41179" lon="5.26862">
        <ele>221.6</ele>
        <time>2022-07-21T05:10:17Z</time>
      </trkpt>
      <trkpt lat="46.41163" lon="5.26878">
        <ele>221.6</ele>
        <time>2022-07-21T05:10:20Z</time>
      </trkpt>
      <trkpt lat="46.41152" lon="5.26886">
        <ele>221.6</ele>
        <time>2022-07-21T05:10:22Z</time>
      </trkpt>
      <trkpt lat="46.41123" lon="5.26897">
        <ele>222</ele>
        <time>2022-07-21T05:10:27Z</time>
      </trkpt>
      <trkpt lat="46.41117" lon="5.26898">
        <ele>222</ele>
        <time>2022-07-21T05:10:28Z</time>
      </trkpt>
      <trkpt lat="46.41097" lon="5.26903">
        <ele>222.2</ele>
        <time>2022-07-21T05:10:33Z</time>
      </trkpt>
      <trkpt lat="46.41096" lon="5.26905">
        <ele>222.2</ele>
        <time>2022-07-21T05:10:34Z</time>
      </trkpt>
      <trkpt lat="46.41096" lon="5.26907">
        <ele>222.2</ele>
        <time>2022-07-21T05:10:35Z</time>
      </trkpt>
      <trkpt lat="46.41098" lon="5.26906">
        <ele>222.4</ele>
        <time>2022-07-21T05:10:36Z</time>
      </trkpt>
      <trkpt lat="46.41101" lon="5.26906">
        <ele>222.4</ele>
        <time>2022-07-21T05:10:37Z</time>
      </trkpt>
      <trkpt lat="46.41122" lon="5.269">
        <ele>222.2</ele>
        <time>2022-07-21T05:10:42Z</time>
      </trkpt>
      <trkpt lat="46.41154" lon="5.26894">
        <ele>222</ele>
        <time>2022-07-21T05:10:48Z</time>
      </trkpt>
      <trkpt lat="46.41158" lon="5.26894">
        <ele>222</ele>
        <time>2022-07-21T05:10:49Z</time>
      </trkpt>
      <trkpt lat="46.41169" lon="5.26897">
        <ele>222.2</ele>
        <time>2022-07-21T05:10:53Z</time>
      </trkpt>
      <trkpt lat="46.41187" lon="5.26901">
        <ele>222.2</ele>
        <time>2022-07-21T05:10:57Z</time>
      </trkpt>
      <trkpt lat="46.41198" lon="5.26895">
        <ele>222.2</ele>
        <time>2022-07-21T05:10:59Z</time>
      </trkpt>
      <trkpt lat="46.41202" lon="5.26889">
        <ele>222.2</ele>
        <time>2022-07-21T05:11:00Z</time>
      </trkpt>
      <trkpt lat="46.41206" lon="5.26883">
        <ele>222.2</ele>
        <time>2022-07-21T05:11:01Z</time>
      </trkpt>
      <trkpt lat="46.41206" lon="5.26875">
        <ele>222.2</ele>
        <time>2022-07-21T05:11:02Z</time>
      </trkpt>
      <trkpt lat="46.41205" lon="5.26867">
        <ele>222.2</ele>
        <time>2022-07-21T05:11:03Z</time>
      </trkpt>
      <trkpt lat="46.41201" lon="5.26859">
        <ele>222</ele>
        <time>2022-07-21T05:11:04Z</time>
      </trkpt>
      <trkpt lat="46.41196" lon="5.26853">
        <ele>222</ele>
        <time>2022-07-21T05:11:05Z</time>
      </trkpt>
      <trkpt lat="46.41165" lon="5.26829">
        <ele>221.2</ele>
        <time>2022-07-21T05:11:10Z</time>
      </trkpt>
      <trkpt lat="46.4116" lon="5.26823">
        <ele>221</ele>
        <time>2022-07-21T05:11:11Z</time>
      </trkpt>
      <trkpt lat="46.41148" lon="5.2681">
        <ele>220.8</ele>
        <time>2022-07-21T05:11:13Z</time>
      </trkpt>
      <trkpt lat="46.41138" lon="5.2679">
        <ele>220.4</ele>
        <time>2022-07-21T05:11:15Z</time>
      </trkpt>
      <trkpt lat="46.41127" lon="5.26756">
        <ele>219.6</ele>
        <time>2022-07-21T05:11:18Z</time>
      </trkpt>
      <trkpt lat="46.4112" lon="5.26731">
        <ele>218.6</ele>
        <time>2022-07-21T05:11:20Z</time>
      </trkpt>
      <trkpt lat="46.41117" lon="5.26718">
        <ele>218.4</ele>
        <time>2022-07-21T05:11:21Z</time>
      </trkpt>
      <trkpt lat="46.41105" lon="5.26674">
        <ele>217</ele>
        <time>2022-07-21T05:11:24Z</time>
      </trkpt>
      <trkpt lat="46.41098" lon="5.26648">
        <ele>215.6</ele>
        <time>2022-07-21T05:11:26Z</time>
      </trkpt>
      <trkpt lat="46.4109" lon="5.26619">
        <ele>214</ele>
        <time>2022-07-21T05:11:28Z</time>
      </trkpt>
      <trkpt lat="46.41083" lon="5.26589">
        <ele>212.8</ele>
        <time>2022-07-21T05:11:30Z</time>
      </trkpt>
      <trkpt lat="46.41079" lon="5.26574">
        <ele>211.6</ele>
        <time>2022-07-21T05:11:31Z</time>
      </trkpt>
      <trkpt lat="46.4107" lon="5.26543">
        <ele>209.8</ele>
        <time>2022-07-21T05:11:33Z</time>
      </trkpt>
      <trkpt lat="46.41059" lon="5.26501">
        <ele>208.2</ele>
        <time>2022-07-21T05:11:36Z</time>
      </trkpt>
      <trkpt lat="46.41051" lon="5.26475">
        <ele>207.2</ele>
        <time>2022-07-21T05:11:38Z</time>
      </trkpt>
      <trkpt lat="46.41035" lon="5.26415">
        <ele>206.4</ele>
        <time>2022-07-21T05:11:43Z</time>
      </trkpt>
      <trkpt lat="46.41018" lon="5.26355">
        <ele>206.2</ele>
        <time>2022-07-21T05:11:48Z</time>
      </trkpt>
      <trkpt lat="46.41014" lon="5.26344">
        <ele>206</ele>
        <time>2022-07-21T05:11:49Z</time>
      </trkpt>
      <trkpt lat="46.41004" lon="5.26308">
        <ele>205</ele>
        <time>2022-07-21T05:11:52Z</time>
      </trkpt>
      <trkpt lat="46.40991" lon="5.26258">
        <ele>203.8</ele>
        <time>2022-07-21T05:11:56Z</time>
      </trkpt>
      <trkpt lat="46.40987" lon="5.26244">
        <ele>203.6</ele>
        <time>2022-07-21T05:11:57Z</time>
      </trkpt>
      <trkpt lat="46.40981" lon="5.26218">
        <ele>202.8</ele>
        <time>2022-07-21T05:11:59Z</time>
      </trkpt>
      <trkpt lat="46.40971" lon="5.26178">
        <ele>201.8</ele>
        <time>2022-07-21T05:12:02Z</time>
      </trkpt>
      <trkpt lat="46.40964" lon="5.26153">
        <ele>200.8</ele>
        <time>2022-07-21T05:12:04Z</time>
      </trkpt>
      <trkpt lat="46.40961" lon="5.26141">
        <ele>200.4</ele>
        <time>2022-07-21T05:12:05Z</time>
      </trkpt>
      <trkpt lat="46.40947" lon="5.26094">
        <ele>199.4</ele>
        <time>2022-07-21T05:12:09Z</time>
      </trkpt>
      <trkpt lat="46.40941" lon="5.2607">
        <ele>199.2</ele>
        <time>2022-07-21T05:12:11Z</time>
      </trkpt>
      <trkpt lat="46.40919" lon="5.25991">
        <ele>198.6</ele>
        <time>2022-07-21T05:12:18Z</time>
      </trkpt>
      <trkpt lat="46.40905" lon="5.25931">
        <ele>199</ele>
        <time>2022-07-21T05:12:24Z</time>
      </trkpt>
      <trkpt lat="46.4089" lon="5.25878">
        <ele>199.8</ele>
        <time>2022-07-21T05:12:30Z</time>
      </trkpt>
      <trkpt lat="46.40883" lon="5.25851">
        <ele>200.4</ele>
        <time>2022-07-21T05:12:33Z</time>
      </trkpt>
      <trkpt lat="46.40869" lon="5.25798">
        <ele>201</ele>
        <time>2022-07-21T05:12:39Z</time>
      </trkpt>
      <trkpt lat="46.40849" lon="5.25724">
        <ele>201</ele>
        <time>2022-07-21T05:12:47Z</time>
      </trkpt>
      <trkpt lat="46.40846" lon="5.25714">
        <ele>201</ele>
        <time>2022-07-21T05:12:48Z</time>
      </trkpt>
      <trkpt lat="46.40828" lon="5.2565">
        <ele>200</ele>
        <time>2022-07-21T05:12:54Z</time>
      </trkpt>
      <trkpt lat="46.40822" lon="5.25627">
        <ele>199.2</ele>
        <time>2022-07-21T05:12:56Z</time>
      </trkpt>
      <trkpt lat="46.40808" lon="5.25578">
        <ele>198</ele>
        <time>2022-07-21T05:13:00Z</time>
      </trkpt>
      <trkpt lat="46.40801" lon="5.25553">
        <ele>197</ele>
        <time>2022-07-21T05:13:02Z</time>
      </trkpt>
      <trkpt lat="46.40797" lon="5.2554">
        <ele>196.4</ele>
        <time>2022-07-21T05:13:03Z</time>
      </trkpt>
      <trkpt lat="46.40787" lon="5.25503">
        <ele>195.4</ele>
        <time>2022-07-21T05:13:06Z</time>
      </trkpt>
      <trkpt lat="46.40774" lon="5.25456">
        <ele>194.4</ele>
        <time>2022-07-21T05:13:10Z</time>
      </trkpt>
      <trkpt lat="46.40759" lon="5.25397">
        <ele>194.4</ele>
        <time>2022-07-21T05:13:16Z</time>
      </trkpt>
      <trkpt lat="46.40738" lon="5.25314">
        <ele>194.6</ele>
        <time>2022-07-21T05:13:24Z</time>
      </trkpt>
      <trkpt lat="46.40728" lon="5.25274">
        <ele>194.4</ele>
        <time>2022-07-21T05:13:28Z</time>
      </trkpt>
      <trkpt lat="46.4071" lon="5.25198">
        <ele>194.2</ele>
        <time>2022-07-21T05:13:36Z</time>
      </trkpt>
      <trkpt lat="46.40698" lon="5.25146">
        <ele>194.8</ele>
        <time>2022-07-21T05:13:42Z</time>
      </trkpt>
      <trkpt lat="46.40692" lon="5.25119">
        <ele>195.4</ele>
        <time>2022-07-21T05:13:46Z</time>
      </trkpt>
      <trkpt lat="46.40688" lon="5.25107">
        <ele>196</ele>
        <time>2022-07-21T05:13:48Z</time>
      </trkpt>
      <trkpt lat="46.40686" lon="5.25096">
        <ele>196.4</ele>
        <time>2022-07-21T05:13:50Z</time>
      </trkpt>
      <trkpt lat="46.4068" lon="5.2507">
        <ele>197.6</ele>
        <time>2022-07-21T05:13:55Z</time>
      </trkpt>
      <trkpt lat="46.40678" lon="5.25065">
        <ele>197.8</ele>
        <time>2022-07-21T05:13:56Z</time>
      </trkpt>
      <trkpt lat="46.40675" lon="5.2505">
        <ele>199</ele>
        <time>2022-07-21T05:13:59Z</time>
      </trkpt>
      <trkpt lat="46.40669" lon="5.25026">
        <ele>200.2</ele>
        <time>2022-07-21T05:14:04Z</time>
      </trkpt>
      <trkpt lat="46.40668" lon="5.25022">
        <ele>200.4</ele>
        <time>2022-07-21T05:14:05Z</time>
      </trkpt>
      <trkpt lat="46.40665" lon="5.25007">
        <ele>201.2</ele>
        <time>2022-07-21T05:14:08Z</time>
      </trkpt>
      <trkpt lat="46.40659" lon="5.2498">
        <ele>202.4</ele>
        <time>2022-07-21T05:14:14Z</time>
      </trkpt>
      <trkpt lat="46.40652" lon="5.24957">
        <ele>203.4</ele>
        <time>2022-07-21T05:14:19Z</time>
      </trkpt>
      <trkpt lat="46.40651" lon="5.24953">
        <ele>203.8</ele>
        <time>2022-07-21T05:14:20Z</time>
      </trkpt>
      <trkpt lat="46.40648" lon="5.2494">
        <ele>204.6</ele>
        <time>2022-07-21T05:14:23Z</time>
      </trkpt>
      <trkpt lat="46.40643" lon="5.24917">
        <ele>205.4</ele>
        <time>2022-07-21T05:14:28Z</time>
      </trkpt>
      <trkpt lat="46.40642" lon="5.24913">
        <ele>205.8</ele>
        <time>2022-07-21T05:14:29Z</time>
      </trkpt>
      <trkpt lat="46.40637" lon="5.2489">
        <ele>207</ele>
        <time>2022-07-21T05:14:34Z</time>
      </trkpt>
      <trkpt lat="46.40633" lon="5.24872">
        <ele>207.8</ele>
        <time>2022-07-21T05:14:38Z</time>
      </trkpt>
      <trkpt lat="46.40632" lon="5.24868">
        <ele>208.2</ele>
        <time>2022-07-21T05:14:39Z</time>
      </trkpt>
      <trkpt lat="46.40627" lon="5.2485">
        <ele>209.2</ele>
        <time>2022-07-21T05:14:43Z</time>
      </trkpt>
      <trkpt lat="46.40622" lon="5.24826">
        <ele>210.4</ele>
        <time>2022-07-21T05:14:48Z</time>
      </trkpt>
      <trkpt lat="46.40621" lon="5.24822">
        <ele>210.6</ele>
        <time>2022-07-21T05:14:49Z</time>
      </trkpt>
      <trkpt lat="46.40616" lon="5.24803">
        <ele>211.4</ele>
        <time>2022-07-21T05:14:53Z</time>
      </trkpt>
      <trkpt lat="46.40612" lon="5.24786">
        <ele>212.4</ele>
        <time>2022-07-21T05:14:57Z</time>
      </trkpt>
      <trkpt lat="46.40611" lon="5.24781">
        <ele>212.4</ele>
        <time>2022-07-21T05:14:58Z</time>
      </trkpt>
      <trkpt lat="46.40608" lon="5.24767">
        <ele>213.4</ele>
        <time>2022-07-21T05:15:01Z</time>
      </trkpt>
      <trkpt lat="46.40602" lon="5.24744">
        <ele>214.4</ele>
        <time>2022-07-21T05:15:06Z</time>
      </trkpt>
      <trkpt lat="46.406" lon="5.24735">
        <ele>214.8</ele>
        <time>2022-07-21T05:15:08Z</time>
      </trkpt>
      <trkpt lat="46.40597" lon="5.24722">
        <ele>215.2</ele>
        <time>2022-07-21T05:15:11Z</time>
      </trkpt>
      <trkpt lat="46.40592" lon="5.24703">
        <ele>216.6</ele>
        <time>2022-07-21T05:15:15Z</time>
      </trkpt>
      <trkpt lat="46.40589" lon="5.24689">
        <ele>217</ele>
        <time>2022-07-21T05:15:18Z</time>
      </trkpt>
      <trkpt lat="46.40584" lon="5.2467">
        <ele>217.8</ele>
        <time>2022-07-21T05:15:22Z</time>
      </trkpt>
      <trkpt lat="46.40579" lon="5.24647">
        <ele>218.6</ele>
        <time>2022-07-21T05:15:27Z</time>
      </trkpt>
      <trkpt lat="46.40576" lon="5.24638">
        <ele>219</ele>
        <time>2022-07-21T05:15:29Z</time>
      </trkpt>
      <trkpt lat="46.40571" lon="5.24613">
        <ele>220</ele>
        <time>2022-07-21T05:15:34Z</time>
      </trkpt>
      <trkpt lat="46.40568" lon="5.24601">
        <ele>220</ele>
        <time>2022-07-21T05:15:36Z</time>
      </trkpt>
      <trkpt lat="46.40558" lon="5.24559">
        <ele>220.2</ele>
        <time>2022-07-21T05:15:42Z</time>
      </trkpt>
      <trkpt lat="46.40548" lon="5.24513">
        <ele>218.6</ele>
        <time>2022-07-21T05:15:47Z</time>
      </trkpt>
      <trkpt lat="46.40535" lon="5.24457">
        <ele>217.2</ele>
        <time>2022-07-21T05:15:52Z</time>
      </trkpt>
      <trkpt lat="46.40533" lon="5.24446">
        <ele>217</ele>
        <time>2022-07-21T05:15:53Z</time>
      </trkpt>
      <trkpt lat="46.40527" lon="5.2442">
        <ele>216.2</ele>
        <time>2022-07-21T05:15:55Z</time>
      </trkpt>
      <trkpt lat="46.4052" lon="5.24394">
        <ele>215</ele>
        <time>2022-07-21T05:15:57Z</time>
      </trkpt>
      <trkpt lat="46.40514" lon="5.24366">
        <ele>213.8</ele>
        <time>2022-07-21T05:15:59Z</time>
      </trkpt>
      <trkpt lat="46.40507" lon="5.24337">
        <ele>212.2</ele>
        <time>2022-07-21T05:16:01Z</time>
      </trkpt>
      <trkpt lat="46.405" lon="5.24307">
        <ele>211.2</ele>
        <time>2022-07-21T05:16:03Z</time>
      </trkpt>
      <trkpt lat="46.40492" lon="5.24278">
        <ele>209.6</ele>
        <time>2022-07-21T05:16:05Z</time>
      </trkpt>
      <trkpt lat="46.40485" lon="5.24248">
        <ele>208.6</ele>
        <time>2022-07-21T05:16:07Z</time>
      </trkpt>
      <trkpt lat="46.40479" lon="5.2422">
        <ele>207.4</ele>
        <time>2022-07-21T05:16:09Z</time>
      </trkpt>
      <trkpt lat="46.40471" lon="5.2418">
        <ele>206.8</ele>
        <time>2022-07-21T05:16:12Z</time>
      </trkpt>
      <trkpt lat="46.40466" lon="5.24155">
        <ele>206</ele>
        <time>2022-07-21T05:16:14Z</time>
      </trkpt>
      <trkpt lat="46.40463" lon="5.24122">
        <ele>205.6</ele>
        <time>2022-07-21T05:16:17Z</time>
      </trkpt>
      <trkpt lat="46.40462" lon="5.24114">
        <ele>205.6</ele>
        <time>2022-07-21T05:16:18Z</time>
      </trkpt>
      <trkpt lat="46.40463" lon="5.24104">
        <ele>206</ele>
        <time>2022-07-21T05:16:20Z</time>
      </trkpt>
      <trkpt lat="46.40464" lon="5.241">
        <ele>206.2</ele>
        <time>2022-07-21T05:16:21Z</time>
      </trkpt>
      <trkpt lat="46.4046" lon="5.24091">
        <ele>206.4</ele>
        <time>2022-07-21T05:16:23Z</time>
      </trkpt>
      <trkpt lat="46.40454" lon="5.24082">
        <ele>206.8</ele>
        <time>2022-07-21T05:16:25Z</time>
      </trkpt>
      <trkpt lat="46.40449" lon="5.24067">
        <ele>206.8</ele>
        <time>2022-07-21T05:16:27Z</time>
      </trkpt>
      <trkpt lat="46.4044" lon="5.24043">
        <ele>207</ele>
        <time>2022-07-21T05:16:30Z</time>
      </trkpt>
      <trkpt lat="46.40432" lon="5.24029">
        <ele>206.8</ele>
        <time>2022-07-21T05:16:32Z</time>
      </trkpt>
      <trkpt lat="46.40424" lon="5.24016">
        <ele>206.8</ele>
        <time>2022-07-21T05:16:34Z</time>
      </trkpt>
      <trkpt lat="46.40406" lon="5.23993">
        <ele>206.8</ele>
        <time>2022-07-21T05:16:38Z</time>
      </trkpt>
      <trkpt lat="46.40378" lon="5.23945">
        <ele>207.4</ele>
        <time>2022-07-21T05:16:45Z</time>
      </trkpt>
      <trkpt lat="46.4036" lon="5.23911">
        <ele>207.8</ele>
        <time>2022-07-21T05:16:50Z</time>
      </trkpt>
      <trkpt lat="46.40354" lon="5.23897">
        <ele>207.8</ele>
        <time>2022-07-21T05:16:52Z</time>
      </trkpt>
      <trkpt lat="46.40351" lon="5.2389">
        <ele>208</ele>
        <time>2022-07-21T05:16:53Z</time>
      </trkpt>
      <trkpt lat="46.40334" lon="5.23855">
        <ele>208.2</ele>
        <time>2022-07-21T05:16:58Z</time>
      </trkpt>
      <trkpt lat="46.40311" lon="5.23804">
        <ele>208</ele>
        <time>2022-07-21T05:17:04Z</time>
      </trkpt>
      <trkpt lat="46.40295" lon="5.23747">
        <ele>207</ele>
        <time>2022-07-21T05:17:09Z</time>
      </trkpt>
      <trkpt lat="46.40291" lon="5.23707">
        <ele>205.4</ele>
        <time>2022-07-21T05:17:12Z</time>
      </trkpt>
      <trkpt lat="46.40291" lon="5.23693">
        <ele>204.8</ele>
        <time>2022-07-21T05:17:13Z</time>
      </trkpt>
      <trkpt lat="46.40291" lon="5.23678">
        <ele>203.6</ele>
        <time>2022-07-21T05:17:14Z</time>
      </trkpt>
      <trkpt lat="46.40294" lon="5.23649">
        <ele>202.2</ele>
        <time>2022-07-21T05:17:16Z</time>
      </trkpt>
      <trkpt lat="46.40296" lon="5.23619">
        <ele>201</ele>
        <time>2022-07-21T05:17:18Z</time>
      </trkpt>
      <trkpt lat="46.40299" lon="5.23589">
        <ele>199.8</ele>
        <time>2022-07-21T05:17:20Z</time>
      </trkpt>
      <trkpt lat="46.40304" lon="5.23543">
        <ele>198.2</ele>
        <time>2022-07-21T05:17:23Z</time>
      </trkpt>
      <trkpt lat="46.40308" lon="5.23497">
        <ele>196.6</ele>
        <time>2022-07-21T05:17:26Z</time>
      </trkpt>
      <trkpt lat="46.40312" lon="5.23453">
        <ele>195.6</ele>
        <time>2022-07-21T05:17:29Z</time>
      </trkpt>
      <trkpt lat="46.40314" lon="5.23439">
        <ele>195.4</ele>
        <time>2022-07-21T05:17:30Z</time>
      </trkpt>
      <trkpt lat="46.40319" lon="5.23385">
        <ele>195</ele>
        <time>2022-07-21T05:17:34Z</time>
      </trkpt>
      <trkpt lat="46.40324" lon="5.23323">
        <ele>195</ele>
        <time>2022-07-21T05:17:39Z</time>
      </trkpt>
      <trkpt lat="46.40329" lon="5.23258">
        <ele>195.6</ele>
        <time>2022-07-21T05:17:45Z</time>
      </trkpt>
      <trkpt lat="46.40331" lon="5.23229">
        <ele>196.8</ele>
        <time>2022-07-21T05:17:48Z</time>
      </trkpt>
      <trkpt lat="46.40333" lon="5.23192">
        <ele>197.6</ele>
        <time>2022-07-21T05:17:52Z</time>
      </trkpt>
      <trkpt lat="46.40333" lon="5.23183">
        <ele>197.8</ele>
        <time>2022-07-21T05:17:53Z</time>
      </trkpt>
      <trkpt lat="46.40338" lon="5.23116">
        <ele>198.4</ele>
        <time>2022-07-21T05:18:00Z</time>
      </trkpt>
      <trkpt lat="46.40344" lon="5.23039">
        <ele>198</ele>
        <time>2022-07-21T05:18:07Z</time>
      </trkpt>
      <trkpt lat="46.4035" lon="5.22968">
        <ele>196.6</ele>
        <time>2022-07-21T05:18:13Z</time>
      </trkpt>
      <trkpt lat="46.40352" lon="5.22944">
        <ele>196.2</ele>
        <time>2022-07-21T05:18:15Z</time>
      </trkpt>
      <trkpt lat="46.40354" lon="5.22921">
        <ele>195.6</ele>
        <time>2022-07-21T05:18:17Z</time>
      </trkpt>
      <trkpt lat="46.40358" lon="5.22866">
        <ele>195</ele>
        <time>2022-07-21T05:18:22Z</time>
      </trkpt>
      <trkpt lat="46.40365" lon="5.22788">
        <ele>195.8</ele>
        <time>2022-07-21T05:18:30Z</time>
      </trkpt>
      <trkpt lat="46.40371" lon="5.22715">
        <ele>196</ele>
        <time>2022-07-21T05:18:37Z</time>
      </trkpt>
      <trkpt lat="46.40378" lon="5.22635">
        <ele>195</ele>
        <time>2022-07-21T05:18:44Z</time>
      </trkpt>
      <trkpt lat="46.40379" lon="5.22623">
        <ele>194.8</ele>
        <time>2022-07-21T05:18:45Z</time>
      </trkpt>
      <trkpt lat="46.4038" lon="5.22598">
        <ele>194.6</ele>
        <time>2022-07-21T05:18:47Z</time>
      </trkpt>
      <trkpt lat="46.40387" lon="5.22518">
        <ele>195.2</ele>
        <time>2022-07-21T05:18:55Z</time>
      </trkpt>
      <trkpt lat="46.40389" lon="5.22492">
        <ele>195.6</ele>
        <time>2022-07-21T05:18:58Z</time>
      </trkpt>
      <trkpt lat="46.40391" lon="5.22459">
        <ele>196.4</ele>
        <time>2022-07-21T05:19:02Z</time>
      </trkpt>
      <trkpt lat="46.40392" lon="5.22443">
        <ele>196.6</ele>
        <time>2022-07-21T05:19:04Z</time>
      </trkpt>
      <trkpt lat="46.40394" lon="5.22419">
        <ele>197.8</ele>
        <time>2022-07-21T05:19:07Z</time>
      </trkpt>
      <trkpt lat="46.40395" lon="5.22386">
        <ele>198.4</ele>
        <time>2022-07-21T05:19:11Z</time>
      </trkpt>
      <trkpt lat="46.40402" lon="5.22321">
        <ele>198.8</ele>
        <time>2022-07-21T05:19:19Z</time>
      </trkpt>
      <trkpt lat="46.40402" lon="5.22313">
        <ele>199</ele>
        <time>2022-07-21T05:19:20Z</time>
      </trkpt>
      <trkpt lat="46.40406" lon="5.22275">
        <ele>200</ele>
        <time>2022-07-21T05:19:25Z</time>
      </trkpt>
      <trkpt lat="46.40408" lon="5.2225">
        <ele>200.2</ele>
        <time>2022-07-21T05:19:28Z</time>
      </trkpt>
      <trkpt lat="46.40409" lon="5.22218">
        <ele>201</ele>
        <time>2022-07-21T05:19:32Z</time>
      </trkpt>
      <trkpt lat="46.40411" lon="5.22196">
        <ele>201.4</ele>
        <time>2022-07-21T05:19:35Z</time>
      </trkpt>
      <trkpt lat="46.4041" lon="5.22181">
        <ele>201.8</ele>
        <time>2022-07-21T05:19:37Z</time>
      </trkpt>
      <trkpt lat="46.40406" lon="5.22167">
        <ele>202</ele>
        <time>2022-07-21T05:19:39Z</time>
      </trkpt>
      <trkpt lat="46.40394" lon="5.2215">
        <ele>202</ele>
        <time>2022-07-21T05:19:42Z</time>
      </trkpt>
      <trkpt lat="46.40386" lon="5.22138">
        <ele>202.2</ele>
        <time>2022-07-21T05:19:44Z</time>
      </trkpt>
      <trkpt lat="46.40378" lon="5.22124">
        <ele>202.4</ele>
        <time>2022-07-21T05:19:46Z</time>
      </trkpt>
      <trkpt lat="46.40355" lon="5.2209">
        <ele>202.4</ele>
        <time>2022-07-21T05:19:51Z</time>
      </trkpt>
      <trkpt lat="46.40314" lon="5.22028">
        <ele>201.2</ele>
        <time>2022-07-21T05:19:59Z</time>
      </trkpt>
      <trkpt lat="46.40309" lon="5.22021">
        <ele>201</ele>
        <time>2022-07-21T05:20:00Z</time>
      </trkpt>
      <trkpt lat="46.40267" lon="5.21957">
        <ele>199.8</ele>
        <time>2022-07-21T05:20:08Z</time>
      </trkpt>
      <trkpt lat="46.40246" lon="5.21925">
        <ele>199.4</ele>
        <time>2022-07-21T05:20:12Z</time>
      </trkpt>
      <trkpt lat="46.4023" lon="5.21901">
        <ele>198.6</ele>
        <time>2022-07-21T05:20:15Z</time>
      </trkpt>
      <trkpt lat="46.40203" lon="5.21862">
        <ele>198.2</ele>
        <time>2022-07-21T05:20:20Z</time>
      </trkpt>
      <trkpt lat="46.40163" lon="5.21801">
        <ele>198.2</ele>
        <time>2022-07-21T05:20:28Z</time>
      </trkpt>
      <trkpt lat="46.40154" lon="5.21786">
        <ele>198.2</ele>
        <time>2022-07-21T05:20:30Z</time>
      </trkpt>
      <trkpt lat="46.40122" lon="5.21737">
        <ele>198.8</ele>
        <time>2022-07-21T05:20:37Z</time>
      </trkpt>
      <trkpt lat="46.401" lon="5.21706">
        <ele>199.6</ele>
        <time>2022-07-21T05:20:42Z</time>
      </trkpt>
      <trkpt lat="46.4008" lon="5.21676">
        <ele>200.8</ele>
        <time>2022-07-21T05:20:47Z</time>
      </trkpt>
      <trkpt lat="46.40068" lon="5.21658">
        <ele>201.2</ele>
        <time>2022-07-21T05:20:50Z</time>
      </trkpt>
      <trkpt lat="46.40053" lon="5.21634">
        <ele>201.8</ele>
        <time>2022-07-21T05:20:54Z</time>
      </trkpt>
      <trkpt lat="46.40038" lon="5.21611">
        <ele>202.2</ele>
        <time>2022-07-21T05:20:58Z</time>
      </trkpt>
      <trkpt lat="46.40027" lon="5.21593">
        <ele>202.8</ele>
        <time>2022-07-21T05:21:01Z</time>
      </trkpt>
      <trkpt lat="46.40004" lon="5.21559">
        <ele>203.4</ele>
        <time>2022-07-21T05:21:07Z</time>
      </trkpt>
      <trkpt lat="46.39964" lon="5.21499">
        <ele>203.8</ele>
        <time>2022-07-21T05:21:17Z</time>
      </trkpt>
      <trkpt lat="46.39956" lon="5.21487">
        <ele>204</ele>
        <time>2022-07-21T05:21:19Z</time>
      </trkpt>
      <trkpt lat="46.39915" lon="5.21426">
        <ele>204.6</ele>
        <time>2022-07-21T05:21:29Z</time>
      </trkpt>
      <trkpt lat="46.39908" lon="5.21415">
        <ele>204.8</ele>
        <time>2022-07-21T05:21:31Z</time>
      </trkpt>
      <trkpt lat="46.39893" lon="5.21392">
        <ele>205.2</ele>
        <time>2022-07-21T05:21:35Z</time>
      </trkpt>
      <trkpt lat="46.39878" lon="5.2137">
        <ele>205.6</ele>
        <time>2022-07-21T05:21:39Z</time>
      </trkpt>
      <trkpt lat="46.39868" lon="5.21355">
        <ele>206.6</ele>
        <time>2022-07-21T05:21:42Z</time>
      </trkpt>
      <trkpt lat="46.39851" lon="5.2133">
        <ele>207.4</ele>
        <time>2022-07-21T05:21:47Z</time>
      </trkpt>
      <trkpt lat="46.39844" lon="5.2132">
        <ele>207.8</ele>
        <time>2022-07-21T05:21:49Z</time>
      </trkpt>
      <trkpt lat="46.39826" lon="5.21295">
        <ele>208.6</ele>
        <time>2022-07-21T05:21:54Z</time>
      </trkpt>
      <trkpt lat="46.39824" lon="5.2129">
        <ele>208.8</ele>
        <time>2022-07-21T05:21:55Z</time>
      </trkpt>
      <trkpt lat="46.39818" lon="5.2128">
        <ele>209.2</ele>
        <time>2022-07-21T05:21:57Z</time>
      </trkpt>
      <trkpt lat="46.39806" lon="5.21259">
        <ele>209.8</ele>
        <time>2022-07-21T05:22:01Z</time>
      </trkpt>
      <trkpt lat="46.39798" lon="5.21245">
        <ele>210.8</ele>
        <time>2022-07-21T05:22:04Z</time>
      </trkpt>
      <trkpt lat="46.39795" lon="5.21241">
        <ele>211</ele>
        <time>2022-07-21T05:22:05Z</time>
      </trkpt>
      <trkpt lat="46.39781" lon="5.21218">
        <ele>212.2</ele>
        <time>2022-07-21T05:22:10Z</time>
      </trkpt>
      <trkpt lat="46.39772" lon="5.21206">
        <ele>213</ele>
        <time>2022-07-21T05:22:13Z</time>
      </trkpt>
      <trkpt lat="46.39769" lon="5.21202">
        <ele>213</ele>
        <time>2022-07-21T05:22:14Z</time>
      </trkpt>
      <trkpt lat="46.39764" lon="5.21194">
        <ele>213.4</ele>
        <time>2022-07-21T05:22:16Z</time>
      </trkpt>
      <trkpt lat="46.39754" lon="5.21178">
        <ele>214.4</ele>
        <time>2022-07-21T05:22:20Z</time>
      </trkpt>
      <trkpt lat="46.39742" lon="5.21163">
        <ele>215.2</ele>
        <time>2022-07-21T05:22:24Z</time>
      </trkpt>
      <trkpt lat="46.39734" lon="5.2115">
        <ele>216</ele>
        <time>2022-07-21T05:22:27Z</time>
      </trkpt>
      <trkpt lat="46.39728" lon="5.21141">
        <ele>216.6</ele>
        <time>2022-07-21T05:22:29Z</time>
      </trkpt>
      <trkpt lat="46.39715" lon="5.21122">
        <ele>217.8</ele>
        <time>2022-07-21T05:22:34Z</time>
      </trkpt>
      <trkpt lat="46.3971" lon="5.21114">
        <ele>218.2</ele>
        <time>2022-07-21T05:22:36Z</time>
      </trkpt>
      <trkpt lat="46.39701" lon="5.21103">
        <ele>218.6</ele>
        <time>2022-07-21T05:22:39Z</time>
      </trkpt>
      <trkpt lat="46.39687" lon="5.21083">
        <ele>219.8</ele>
        <time>2022-07-21T05:22:44Z</time>
      </trkpt>
      <trkpt lat="46.39684" lon="5.21078">
        <ele>220</ele>
        <time>2022-07-21T05:22:45Z</time>
      </trkpt>
      <trkpt lat="46.39672" lon="5.21062">
        <ele>221</ele>
        <time>2022-07-21T05:22:49Z</time>
      </trkpt>
      <trkpt lat="46.3965" lon="5.21033">
        <ele>221.6</ele>
        <time>2022-07-21T05:22:56Z</time>
      </trkpt>
      <trkpt lat="46.39643" lon="5.21022">
        <ele>222</ele>
        <time>2022-07-21T05:22:58Z</time>
      </trkpt>
      <trkpt lat="46.39616" lon="5.20988">
        <ele>222.6</ele>
        <time>2022-07-21T05:23:05Z</time>
      </trkpt>
      <trkpt lat="46.39581" lon="5.20944">
        <ele>223</ele>
        <time>2022-07-21T05:23:13Z</time>
      </trkpt>
      <trkpt lat="46.39544" lon="5.20896">
        <ele>222.4</ele>
        <time>2022-07-21T05:23:21Z</time>
      </trkpt>
      <trkpt lat="46.39513" lon="5.20858">
        <ele>222</ele>
        <time>2022-07-21T05:23:27Z</time>
      </trkpt>
      <trkpt lat="46.39493" lon="5.20832">
        <ele>221.6</ele>
        <time>2022-07-21T05:23:31Z</time>
      </trkpt>
      <trkpt lat="46.39462" lon="5.20792">
        <ele>221</ele>
        <time>2022-07-21T05:23:37Z</time>
      </trkpt>
      <trkpt lat="46.39442" lon="5.20764">
        <ele>220.6</ele>
        <time>2022-07-21T05:23:41Z</time>
      </trkpt>
      <trkpt lat="46.394" lon="5.20711">
        <ele>220.2</ele>
        <time>2022-07-21T05:23:49Z</time>
      </trkpt>
      <trkpt lat="46.39385" lon="5.20691">
        <ele>220.2</ele>
        <time>2022-07-21T05:23:52Z</time>
      </trkpt>
      <trkpt lat="46.39344" lon="5.20638">
        <ele>220</ele>
        <time>2022-07-21T05:24:00Z</time>
      </trkpt>
      <trkpt lat="46.39339" lon="5.20632">
        <ele>220</ele>
        <time>2022-07-21T05:24:01Z</time>
      </trkpt>
      <trkpt lat="46.39298" lon="5.20579">
        <ele>219.8</ele>
        <time>2022-07-21T05:24:09Z</time>
      </trkpt>
      <trkpt lat="46.39288" lon="5.20566">
        <ele>219.8</ele>
        <time>2022-07-21T05:24:11Z</time>
      </trkpt>
      <trkpt lat="46.39245" lon="5.2051">
        <ele>219.6</ele>
        <time>2022-07-21T05:24:19Z</time>
      </trkpt>
      <trkpt lat="46.39239" lon="5.20502">
        <ele>219.2</ele>
        <time>2022-07-21T05:24:20Z</time>
      </trkpt>
      <trkpt lat="46.39212" lon="5.20467">
        <ele>218.6</ele>
        <time>2022-07-21T05:24:25Z</time>
      </trkpt>
      <trkpt lat="46.39188" lon="5.20437">
        <ele>218.4</ele>
        <time>2022-07-21T05:24:29Z</time>
      </trkpt>
      <trkpt lat="46.39145" lon="5.20381">
        <ele>217.8</ele>
        <time>2022-07-21T05:24:37Z</time>
      </trkpt>
      <trkpt lat="46.39134" lon="5.20367">
        <ele>217.8</ele>
        <time>2022-07-21T05:24:39Z</time>
      </trkpt>
      <trkpt lat="46.3909" lon="5.20309">
        <ele>217</ele>
        <time>2022-07-21T05:24:47Z</time>
      </trkpt>
      <trkpt lat="46.39072" lon="5.20286">
        <ele>216.2</ele>
        <time>2022-07-21T05:24:50Z</time>
      </trkpt>
      <trkpt lat="46.39052" lon="5.20262">
        <ele>215.8</ele>
        <time>2022-07-21T05:24:53Z</time>
      </trkpt>
      <trkpt lat="46.39039" lon="5.20246">
        <ele>215</ele>
        <time>2022-07-21T05:24:55Z</time>
      </trkpt>
      <trkpt lat="46.39019" lon="5.2022">
        <ele>213.8</ele>
        <time>2022-07-21T05:24:58Z</time>
      </trkpt>
      <trkpt lat="46.39" lon="5.20195">
        <ele>212.8</ele>
        <time>2022-07-21T05:25:01Z</time>
      </trkpt>
      <trkpt lat="46.38954" lon="5.20138">
        <ele>211.6</ele>
        <time>2022-07-21T05:25:08Z</time>
      </trkpt>
      <trkpt lat="46.38914" lon="5.20087">
        <ele>210.8</ele>
        <time>2022-07-21T05:25:14Z</time>
      </trkpt>
      <trkpt lat="46.38907" lon="5.20079">
        <ele>210.4</ele>
        <time>2022-07-21T05:25:15Z</time>
      </trkpt>
      <trkpt lat="46.3888" lon="5.20044">
        <ele>209.2</ele>
        <time>2022-07-21T05:25:19Z</time>
      </trkpt>
      <trkpt lat="46.38848" lon="5.20004">
        <ele>208.2</ele>
        <time>2022-07-21T05:25:24Z</time>
      </trkpt>
      <trkpt lat="46.38815" lon="5.19962">
        <ele>208</ele>
        <time>2022-07-21T05:25:30Z</time>
      </trkpt>
      <trkpt lat="46.38795" lon="5.19937">
        <ele>209.4</ele>
        <time>2022-07-21T05:25:34Z</time>
      </trkpt>
      <trkpt lat="46.38782" lon="5.19919">
        <ele>210.2</ele>
        <time>2022-07-21T05:25:37Z</time>
      </trkpt>
      <trkpt lat="46.38778" lon="5.19914">
        <ele>210.8</ele>
        <time>2022-07-21T05:25:38Z</time>
      </trkpt>
      <trkpt lat="46.38758" lon="5.19887">
        <ele>212</ele>
        <time>2022-07-21T05:25:43Z</time>
      </trkpt>
      <trkpt lat="46.38754" lon="5.19882">
        <ele>212.4</ele>
        <time>2022-07-21T05:25:44Z</time>
      </trkpt>
      <trkpt lat="46.38743" lon="5.19866">
        <ele>213.2</ele>
        <time>2022-07-21T05:25:47Z</time>
      </trkpt>
      <trkpt lat="46.38726" lon="5.19847">
        <ele>214.2</ele>
        <time>2022-07-21T05:25:51Z</time>
      </trkpt>
      <trkpt lat="46.38722" lon="5.19842">
        <ele>214.4</ele>
        <time>2022-07-21T05:25:52Z</time>
      </trkpt>
      <trkpt lat="46.38702" lon="5.19818">
        <ele>215.2</ele>
        <time>2022-07-21T05:25:57Z</time>
      </trkpt>
      <trkpt lat="46.38686" lon="5.19799">
        <ele>215.8</ele>
        <time>2022-07-21T05:26:01Z</time>
      </trkpt>
      <trkpt lat="46.38679" lon="5.19789">
        <ele>216.4</ele>
        <time>2022-07-21T05:26:03Z</time>
      </trkpt>
      <trkpt lat="46.38659" lon="5.19763">
        <ele>217.6</ele>
        <time>2022-07-21T05:26:08Z</time>
      </trkpt>
      <trkpt lat="46.38655" lon="5.19758">
        <ele>217.6</ele>
        <time>2022-07-21T05:26:09Z</time>
      </trkpt>
      <trkpt lat="46.38626" lon="5.19723">
        <ele>218.6</ele>
        <time>2022-07-21T05:26:16Z</time>
      </trkpt>
      <trkpt lat="46.38588" lon="5.19674">
        <ele>219</ele>
        <time>2022-07-21T05:26:25Z</time>
      </trkpt>
      <trkpt lat="46.38551" lon="5.19629">
        <ele>218.6</ele>
        <time>2022-07-21T05:26:33Z</time>
      </trkpt>
      <trkpt lat="46.3851" lon="5.19577">
        <ele>218.8</ele>
        <time>2022-07-21T05:26:42Z</time>
      </trkpt>
      <trkpt lat="46.385" lon="5.19564">
        <ele>218.8</ele>
        <time>2022-07-21T05:26:44Z</time>
      </trkpt>
      <trkpt lat="46.38456" lon="5.19509">
        <ele>219</ele>
        <time>2022-07-21T05:26:53Z</time>
      </trkpt>
      <trkpt lat="46.38446" lon="5.19496">
        <ele>219</ele>
        <time>2022-07-21T05:26:55Z</time>
      </trkpt>
      <trkpt lat="46.38402" lon="5.19442">
        <ele>218.6</ele>
        <time>2022-07-21T05:27:04Z</time>
      </trkpt>
      <trkpt lat="46.38398" lon="5.19435">
        <ele>218.6</ele>
        <time>2022-07-21T05:27:05Z</time>
      </trkpt>
      <trkpt lat="46.38358" lon="5.19385">
        <ele>218.6</ele>
        <time>2022-07-21T05:27:13Z</time>
      </trkpt>
      <trkpt lat="46.38313" lon="5.19329">
        <ele>218.6</ele>
        <time>2022-07-21T05:27:22Z</time>
      </trkpt>
      <trkpt lat="46.38307" lon="5.19323">
        <ele>218.6</ele>
        <time>2022-07-21T05:27:23Z</time>
      </trkpt>
      <trkpt lat="46.38264" lon="5.19267">
        <ele>218.6</ele>
        <time>2022-07-21T05:27:32Z</time>
      </trkpt>
      <trkpt lat="46.38249" lon="5.1925">
        <ele>218.4</ele>
        <time>2022-07-21T05:27:35Z</time>
      </trkpt>
      <trkpt lat="46.38209" lon="5.19199">
        <ele>219.8</ele>
        <time>2022-07-21T05:27:44Z</time>
      </trkpt>
      <trkpt lat="46.38192" lon="5.19176">
        <ele>220</ele>
        <time>2022-07-21T05:27:48Z</time>
      </trkpt>
      <trkpt lat="46.3815" lon="5.19124">
        <ele>220.4</ele>
        <time>2022-07-21T05:27:57Z</time>
      </trkpt>
      <trkpt lat="46.3814" lon="5.19112">
        <ele>220.4</ele>
        <time>2022-07-21T05:27:59Z</time>
      </trkpt>
      <trkpt lat="46.38095" lon="5.19055">
        <ele>219.8</ele>
        <time>2022-07-21T05:28:08Z</time>
      </trkpt>
      <trkpt lat="46.38089" lon="5.19048">
        <ele>219.6</ele>
        <time>2022-07-21T05:28:09Z</time>
      </trkpt>
      <trkpt lat="46.38084" lon="5.19042">
        <ele>219.6</ele>
        <time>2022-07-21T05:28:10Z</time>
      </trkpt>
      <trkpt lat="46.38041" lon="5.18987">
        <ele>219</ele>
        <time>2022-07-21T05:28:18Z</time>
      </trkpt>
      <trkpt lat="46.38014" lon="5.18952">
        <ele>218.6</ele>
        <time>2022-07-21T05:28:23Z</time>
      </trkpt>
      <trkpt lat="46.3798" lon="5.1891">
        <ele>217.8</ele>
        <time>2022-07-21T05:28:29Z</time>
      </trkpt>
      <trkpt lat="46.37969" lon="5.18895">
        <ele>217.6</ele>
        <time>2022-07-21T05:28:31Z</time>
      </trkpt>
      <trkpt lat="46.37924" lon="5.18838">
        <ele>217</ele>
        <time>2022-07-21T05:28:39Z</time>
      </trkpt>
      <trkpt lat="46.37912" lon="5.18823">
        <ele>216.4</ele>
        <time>2022-07-21T05:28:41Z</time>
      </trkpt>
      <trkpt lat="46.37879" lon="5.1878">
        <ele>215.8</ele>
        <time>2022-07-21T05:28:47Z</time>
      </trkpt>
      <trkpt lat="46.37843" lon="5.18734">
        <ele>215.2</ele>
        <time>2022-07-21T05:28:53Z</time>
      </trkpt>
      <trkpt lat="46.37824" lon="5.18711">
        <ele>214.8</ele>
        <time>2022-07-21T05:28:56Z</time>
      </trkpt>
      <trkpt lat="46.37805" lon="5.18687">
        <ele>214</ele>
        <time>2022-07-21T05:28:59Z</time>
      </trkpt>
      <trkpt lat="46.37775" lon="5.18648">
        <ele>213</ele>
        <time>2022-07-21T05:29:04Z</time>
      </trkpt>
      <trkpt lat="46.37751" lon="5.18618">
        <ele>212.8</ele>
        <time>2022-07-21T05:29:08Z</time>
      </trkpt>
      <trkpt lat="46.37714" lon="5.18571">
        <ele>213</ele>
        <time>2022-07-21T05:29:15Z</time>
      </trkpt>
      <trkpt lat="46.37687" lon="5.18537">
        <ele>214.2</ele>
        <time>2022-07-21T05:29:21Z</time>
      </trkpt>
      <trkpt lat="46.37669" lon="5.18515">
        <ele>215.2</ele>
        <time>2022-07-21T05:29:25Z</time>
      </trkpt>
      <trkpt lat="46.37657" lon="5.18499">
        <ele>215.4</ele>
        <time>2022-07-21T05:29:28Z</time>
      </trkpt>
      <trkpt lat="46.3764" lon="5.18476">
        <ele>216.4</ele>
        <time>2022-07-21T05:29:32Z</time>
      </trkpt>
      <trkpt lat="46.37626" lon="5.18459">
        <ele>216.6</ele>
        <time>2022-07-21T05:29:35Z</time>
      </trkpt>
      <trkpt lat="46.37599" lon="5.18426">
        <ele>217.4</ele>
        <time>2022-07-21T05:29:41Z</time>
      </trkpt>
      <trkpt lat="46.3759" lon="5.18416">
        <ele>217.6</ele>
        <time>2022-07-21T05:29:43Z</time>
      </trkpt>
      <trkpt lat="46.37562" lon="5.1838">
        <ele>218.4</ele>
        <time>2022-07-21T05:29:49Z</time>
      </trkpt>
      <trkpt lat="46.37549" lon="5.18363">
        <ele>218.8</ele>
        <time>2022-07-21T05:29:52Z</time>
      </trkpt>
      <trkpt lat="46.37517" lon="5.18322">
        <ele>219.4</ele>
        <time>2022-07-21T05:29:59Z</time>
      </trkpt>
      <trkpt lat="46.37502" lon="5.18304">
        <ele>219.6</ele>
        <time>2022-07-21T05:30:02Z</time>
      </trkpt>
      <trkpt lat="46.3746" lon="5.18246">
        <ele>219.6</ele>
        <time>2022-07-21T05:30:11Z</time>
      </trkpt>
      <trkpt lat="46.37451" lon="5.18231">
        <ele>219.4</ele>
        <time>2022-07-21T05:30:13Z</time>
      </trkpt>
      <trkpt lat="46.37434" lon="5.18201">
        <ele>219</ele>
        <time>2022-07-21T05:30:17Z</time>
      </trkpt>
      <trkpt lat="46.37399" lon="5.1814">
        <ele>218.4</ele>
        <time>2022-07-21T05:30:25Z</time>
      </trkpt>
      <trkpt lat="46.37393" lon="5.1813">
        <ele>218.4</ele>
        <time>2022-07-21T05:30:26Z</time>
      </trkpt>
      <trkpt lat="46.37388" lon="5.18122">
        <ele>218.4</ele>
        <time>2022-07-21T05:30:27Z</time>
      </trkpt>
      <trkpt lat="46.37354" lon="5.18061">
        <ele>218</ele>
        <time>2022-07-21T05:30:35Z</time>
      </trkpt>
      <trkpt lat="46.37317" lon="5.17997">
        <ele>217.8</ele>
        <time>2022-07-21T05:30:44Z</time>
      </trkpt>
      <trkpt lat="46.37281" lon="5.17932">
        <ele>217.4</ele>
        <time>2022-07-21T05:30:52Z</time>
      </trkpt>
      <trkpt lat="46.37271" lon="5.17915">
        <ele>217.2</ele>
        <time>2022-07-21T05:30:54Z</time>
      </trkpt>
      <trkpt lat="46.37235" lon="5.17848">
        <ele>216</ele>
        <time>2022-07-21T05:31:01Z</time>
      </trkpt>
      <trkpt lat="46.3723" lon="5.17837">
        <ele>215.6</ele>
        <time>2022-07-21T05:31:02Z</time>
      </trkpt>
      <trkpt lat="46.37218" lon="5.17816">
        <ele>214.6</ele>
        <time>2022-07-21T05:31:04Z</time>
      </trkpt>
      <trkpt lat="46.37196" lon="5.17775">
        <ele>213.2</ele>
        <time>2022-07-21T05:31:08Z</time>
      </trkpt>
      <trkpt lat="46.37181" lon="5.17746">
        <ele>212</ele>
        <time>2022-07-21T05:31:11Z</time>
      </trkpt>
      <trkpt lat="46.3715" lon="5.17694">
        <ele>211.4</ele>
        <time>2022-07-21T05:31:17Z</time>
      </trkpt>
      <trkpt lat="46.37123" lon="5.17659">
        <ele>212.2</ele>
        <time>2022-07-21T05:31:23Z</time>
      </trkpt>
      <trkpt lat="46.37118" lon="5.17654">
        <ele>213</ele>
        <time>2022-07-21T05:31:24Z</time>
      </trkpt>
      <trkpt lat="46.37114" lon="5.17651">
        <ele>213.2</ele>
        <time>2022-07-21T05:31:25Z</time>
      </trkpt>
      <trkpt lat="46.37104" lon="5.17646">
        <ele>214.2</ele>
        <time>2022-07-21T05:31:27Z</time>
      </trkpt>
      <trkpt lat="46.37099" lon="5.17645">
        <ele>214.4</ele>
        <time>2022-07-21T05:31:28Z</time>
      </trkpt>
      <trkpt lat="46.37084" lon="5.17644">
        <ele>215.6</ele>
        <time>2022-07-21T05:31:31Z</time>
      </trkpt>
      <trkpt lat="46.37078" lon="5.17644">
        <ele>215.8</ele>
        <time>2022-07-21T05:31:32Z</time>
      </trkpt>
      <trkpt lat="46.37072" lon="5.17644">
        <ele>215.8</ele>
        <time>2022-07-21T05:31:33Z</time>
      </trkpt>
      <trkpt lat="46.37054" lon="5.17637">
        <ele>216.2</ele>
        <time>2022-07-21T05:31:37Z</time>
      </trkpt>
      <trkpt lat="46.37052" lon="5.1763">
        <ele>216.4</ele>
        <time>2022-07-21T05:31:38Z</time>
      </trkpt>
      <trkpt lat="46.3705" lon="5.17622">
        <ele>216.4</ele>
        <time>2022-07-21T05:31:39Z</time>
      </trkpt>
      <trkpt lat="46.37049" lon="5.17613">
        <ele>216.6</ele>
        <time>2022-07-21T05:31:40Z</time>
      </trkpt>
      <trkpt lat="46.37046" lon="5.17575">
        <ele>216.8</ele>
        <time>2022-07-21T05:31:44Z</time>
      </trkpt>
      <trkpt lat="46.37043" lon="5.17567">
        <ele>217</ele>
        <time>2022-07-21T05:31:45Z</time>
      </trkpt>
      <trkpt lat="46.37039" lon="5.17559">
        <ele>217</ele>
        <time>2022-07-21T05:31:46Z</time>
      </trkpt>
      <trkpt lat="46.37028" lon="5.1755">
        <ele>217.4</ele>
        <time>2022-07-21T05:31:48Z</time>
      </trkpt>
      <trkpt lat="46.37004" lon="5.17534">
        <ele>217.8</ele>
        <time>2022-07-21T05:31:52Z</time>
      </trkpt>
      <trkpt lat="46.37" lon="5.17528">
        <ele>217.8</ele>
        <time>2022-07-21T05:31:53Z</time>
      </trkpt>
      <trkpt lat="46.36996" lon="5.17515">
        <ele>218</ele>
        <time>2022-07-21T05:31:55Z</time>
      </trkpt>
      <trkpt lat="46.36992" lon="5.17499">
        <ele>218</ele>
        <time>2022-07-21T05:31:57Z</time>
      </trkpt>
      <trkpt lat="46.36981" lon="5.17485">
        <ele>218</ele>
        <time>2022-07-21T05:31:59Z</time>
      </trkpt>
      <trkpt lat="46.36975" lon="5.17481">
        <ele>218</ele>
        <time>2022-07-21T05:32:00Z</time>
      </trkpt>
      <trkpt lat="46.36942" lon="5.17468">
        <ele>217.8</ele>
        <time>2022-07-21T05:32:05Z</time>
      </trkpt>
      <trkpt lat="46.36935" lon="5.17467">
        <ele>217.8</ele>
        <time>2022-07-21T05:32:06Z</time>
      </trkpt>
      <trkpt lat="46.36896" lon="5.17465">
        <ele>217.8</ele>
        <time>2022-07-21T05:32:12Z</time>
      </trkpt>
      <trkpt lat="46.36859" lon="5.17457">
        <ele>218</ele>
        <time>2022-07-21T05:32:18Z</time>
      </trkpt>
      <trkpt lat="46.36818" lon="5.17431">
        <ele>218.4</ele>
        <time>2022-07-21T05:32:25Z</time>
      </trkpt>
      <trkpt lat="46.36786" lon="5.17396">
        <ele>218</ele>
        <time>2022-07-21T05:32:31Z</time>
      </trkpt>
      <trkpt lat="46.36776" lon="5.17383">
        <ele>217.8</ele>
        <time>2022-07-21T05:32:33Z</time>
      </trkpt>
      <trkpt lat="46.36748" lon="5.17348">
        <ele>217.6</ele>
        <time>2022-07-21T05:32:39Z</time>
      </trkpt>
      <trkpt lat="46.36732" lon="5.17329">
        <ele>217.6</ele>
        <time>2022-07-21T05:32:43Z</time>
      </trkpt>
      <trkpt lat="46.36726" lon="5.17324">
        <ele>217.6</ele>
        <time>2022-07-21T05:32:44Z</time>
      </trkpt>
      <trkpt lat="46.36721" lon="5.17322">
        <ele>217.6</ele>
        <time>2022-07-21T05:32:45Z</time>
      </trkpt>
      <trkpt lat="46.36708" lon="5.17322">
        <ele>217.6</ele>
        <time>2022-07-21T05:32:47Z</time>
      </trkpt>
      <trkpt lat="46.36664" lon="5.1732">
        <ele>217.6</ele>
        <time>2022-07-21T05:32:53Z</time>
      </trkpt>
      <trkpt lat="46.3662" lon="5.17326">
        <ele>217</ele>
        <time>2022-07-21T05:32:59Z</time>
      </trkpt>
      <trkpt lat="46.36575" lon="5.17338">
        <ele>216.4</ele>
        <time>2022-07-21T05:33:05Z</time>
      </trkpt>
      <trkpt lat="46.36568" lon="5.17341">
        <ele>216.4</ele>
        <time>2022-07-21T05:33:06Z</time>
      </trkpt>
      <trkpt lat="46.36554" lon="5.17346">
        <ele>216.2</ele>
        <time>2022-07-21T05:33:08Z</time>
      </trkpt>
      <trkpt lat="46.36529" lon="5.17346">
        <ele>216</ele>
        <time>2022-07-21T05:33:11Z</time>
      </trkpt>
      <trkpt lat="46.36491" lon="5.17334">
        <ele>215.4</ele>
        <time>2022-07-21T05:33:16Z</time>
      </trkpt>
      <trkpt lat="46.36483" lon="5.17331">
        <ele>215</ele>
        <time>2022-07-21T05:33:17Z</time>
      </trkpt>
      <trkpt lat="46.36429" lon="5.17304">
        <ele>214.4</ele>
        <time>2022-07-21T05:33:24Z</time>
      </trkpt>
      <trkpt lat="46.36421" lon="5.173">
        <ele>214.4</ele>
        <time>2022-07-21T05:33:25Z</time>
      </trkpt>
      <trkpt lat="46.36406" lon="5.17299">
        <ele>214.2</ele>
        <time>2022-07-21T05:33:27Z</time>
      </trkpt>
      <trkpt lat="46.36398" lon="5.17301">
        <ele>213.8</ele>
        <time>2022-07-21T05:33:28Z</time>
      </trkpt>
      <trkpt lat="46.36391" lon="5.17304">
        <ele>213.8</ele>
        <time>2022-07-21T05:33:29Z</time>
      </trkpt>
      <trkpt lat="46.36386" lon="5.17308">
        <ele>213.8</ele>
        <time>2022-07-21T05:33:30Z</time>
      </trkpt>
      <trkpt lat="46.3633" lon="5.17351">
        <ele>213</ele>
        <time>2022-07-21T05:33:38Z</time>
      </trkpt>
      <trkpt lat="46.36324" lon="5.17355">
        <ele>212.8</ele>
        <time>2022-07-21T05:33:39Z</time>
      </trkpt>
      <trkpt lat="46.36317" lon="5.1736">
        <ele>212.6</ele>
        <time>2022-07-21T05:33:40Z</time>
      </trkpt>
      <trkpt lat="46.36297" lon="5.1738">
        <ele>212.2</ele>
        <time>2022-07-21T05:33:43Z</time>
      </trkpt>
      <trkpt lat="46.36287" lon="5.17397">
        <ele>212</ele>
        <time>2022-07-21T05:33:45Z</time>
      </trkpt>
      <trkpt lat="46.36276" lon="5.17434">
        <ele>212</ele>
        <time>2022-07-21T05:33:49Z</time>
      </trkpt>
      <trkpt lat="46.3627" lon="5.17454">
        <ele>212.2</ele>
        <time>2022-07-21T05:33:51Z</time>
      </trkpt>
      <trkpt lat="46.36262" lon="5.17469">
        <ele>212.4</ele>
        <time>2022-07-21T05:33:53Z</time>
      </trkpt>
      <trkpt lat="46.36249" lon="5.17483">
        <ele>212.4</ele>
        <time>2022-07-21T05:33:55Z</time>
      </trkpt>
      <trkpt lat="46.36241" lon="5.17487">
        <ele>212.4</ele>
        <time>2022-07-21T05:33:56Z</time>
      </trkpt>
      <trkpt lat="46.36233" lon="5.17489">
        <ele>212.4</ele>
        <time>2022-07-21T05:33:57Z</time>
      </trkpt>
      <trkpt lat="46.36205" lon="5.17493">
        <ele>211.8</ele>
        <time>2022-07-21T05:34:00Z</time>
      </trkpt>
      <trkpt lat="46.36177" lon="5.17499">
        <ele>210.8</ele>
        <time>2022-07-21T05:34:03Z</time>
      </trkpt>
      <trkpt lat="46.36166" lon="5.17504">
        <ele>210</ele>
        <time>2022-07-21T05:34:04Z</time>
      </trkpt>
      <trkpt lat="46.36147" lon="5.17513">
        <ele>208.4</ele>
        <time>2022-07-21T05:34:06Z</time>
      </trkpt>
      <trkpt lat="46.36133" lon="5.17519">
        <ele>207.6</ele>
        <time>2022-07-21T05:34:07Z</time>
      </trkpt>
      <trkpt lat="46.36122" lon="5.17521">
        <ele>206.8</ele>
        <time>2022-07-21T05:34:08Z</time>
      </trkpt>
      <trkpt lat="46.36098" lon="5.17522">
        <ele>205.4</ele>
        <time>2022-07-21T05:34:10Z</time>
      </trkpt>
      <trkpt lat="46.36085" lon="5.1752">
        <ele>204</ele>
        <time>2022-07-21T05:34:11Z</time>
      </trkpt>
      <trkpt lat="46.36073" lon="5.17517">
        <ele>202.8</ele>
        <time>2022-07-21T05:34:12Z</time>
      </trkpt>
      <trkpt lat="46.3605" lon="5.1751">
        <ele>200.8</ele>
        <time>2022-07-21T05:34:14Z</time>
      </trkpt>
      <trkpt lat="46.36038" lon="5.17508">
        <ele>199.8</ele>
        <time>2022-07-21T05:34:15Z</time>
      </trkpt>
      <trkpt lat="46.36027" lon="5.17508">
        <ele>198.6</ele>
        <time>2022-07-21T05:34:16Z</time>
      </trkpt>
      <trkpt lat="46.35986" lon="5.17515">
        <ele>197.6</ele>
        <time>2022-07-21T05:34:20Z</time>
      </trkpt>
      <trkpt lat="46.35946" lon="5.17525">
        <ele>198.4</ele>
        <time>2022-07-21T05:34:25Z</time>
      </trkpt>
      <trkpt lat="46.35926" lon="5.17528">
        <ele>200</ele>
        <time>2022-07-21T05:34:28Z</time>
      </trkpt>
      <trkpt lat="46.35914" lon="5.17528">
        <ele>201</ele>
        <time>2022-07-21T05:34:30Z</time>
      </trkpt>
      <trkpt lat="46.35908" lon="5.17527">
        <ele>201.2</ele>
        <time>2022-07-21T05:34:31Z</time>
      </trkpt>
      <trkpt lat="46.35893" lon="5.17526">
        <ele>202.6</ele>
        <time>2022-07-21T05:34:34Z</time>
      </trkpt>
      <trkpt lat="46.35888" lon="5.17526">
        <ele>202.8</ele>
        <time>2022-07-21T05:34:35Z</time>
      </trkpt>
      <trkpt lat="46.35879" lon="5.17526">
        <ele>204.2</ele>
        <time>2022-07-21T05:34:37Z</time>
      </trkpt>
      <trkpt lat="46.35864" lon="5.17527">
        <ele>205.2</ele>
        <time>2022-07-21T05:34:40Z</time>
      </trkpt>
      <trkpt lat="46.35861" lon="5.17528">
        <ele>205.4</ele>
        <time>2022-07-21T05:34:41Z</time>
      </trkpt>
      <trkpt lat="46.35843" lon="5.17532">
        <ele>206.8</ele>
        <time>2022-07-21T05:34:45Z</time>
      </trkpt>
      <trkpt lat="46.35833" lon="5.17535">
        <ele>207.2</ele>
        <time>2022-07-21T05:34:47Z</time>
      </trkpt>
      <trkpt lat="46.35819" lon="5.17539">
        <ele>207.8</ele>
        <time>2022-07-21T05:34:50Z</time>
      </trkpt>
      <trkpt lat="46.35803" lon="5.17543">
        <ele>209</ele>
        <time>2022-07-21T05:34:53Z</time>
      </trkpt>
      <trkpt lat="46.35798" lon="5.17543">
        <ele>209.2</ele>
        <time>2022-07-21T05:34:54Z</time>
      </trkpt>
      <trkpt lat="46.35778" lon="5.17548">
        <ele>209.8</ele>
        <time>2022-07-21T05:34:58Z</time>
      </trkpt>
      <trkpt lat="46.35767" lon="5.17551">
        <ele>210</ele>
        <time>2022-07-21T05:35:00Z</time>
      </trkpt>
      <trkpt lat="46.35757" lon="5.17556">
        <ele>210.4</ele>
        <time>2022-07-21T05:35:02Z</time>
      </trkpt>
      <trkpt lat="46.3572" lon="5.17572">
        <ele>210.6</ele>
        <time>2022-07-21T05:35:09Z</time>
      </trkpt>
      <trkpt lat="46.35708" lon="5.17578">
        <ele>210.6</ele>
        <time>2022-07-21T05:35:11Z</time>
      </trkpt>
      <trkpt lat="46.35688" lon="5.17583">
        <ele>210.4</ele>
        <time>2022-07-21T05:35:14Z</time>
      </trkpt>
      <trkpt lat="46.35651" lon="5.17586">
        <ele>209</ele>
        <time>2022-07-21T05:35:19Z</time>
      </trkpt>
      <trkpt lat="46.35643" lon="5.17586">
        <ele>208.6</ele>
        <time>2022-07-21T05:35:20Z</time>
      </trkpt>
      <trkpt lat="46.35619" lon="5.17588">
        <ele>207.8</ele>
        <time>2022-07-21T05:35:23Z</time>
      </trkpt>
      <trkpt lat="46.35579" lon="5.1759">
        <ele>207.2</ele>
        <time>2022-07-21T05:35:28Z</time>
      </trkpt>
      <trkpt lat="46.35542" lon="5.17582">
        <ele>206.8</ele>
        <time>2022-07-21T05:35:33Z</time>
      </trkpt>
      <trkpt lat="46.35535" lon="5.1758">
        <ele>206.8</ele>
        <time>2022-07-21T05:35:34Z</time>
      </trkpt>
      <trkpt lat="46.35506" lon="5.17569">
        <ele>207.8</ele>
        <time>2022-07-21T05:35:39Z</time>
      </trkpt>
      <trkpt lat="46.35485" lon="5.17561">
        <ele>209</ele>
        <time>2022-07-21T05:35:43Z</time>
      </trkpt>
      <trkpt lat="46.35467" lon="5.17557">
        <ele>209.8</ele>
        <time>2022-07-21T05:35:46Z</time>
      </trkpt>
      <trkpt lat="46.35461" lon="5.17556">
        <ele>210.2</ele>
        <time>2022-07-21T05:35:47Z</time>
      </trkpt>
      <trkpt lat="46.3543" lon="5.17547">
        <ele>211.4</ele>
        <time>2022-07-21T05:35:52Z</time>
      </trkpt>
      <trkpt lat="46.35424" lon="5.17545">
        <ele>211.4</ele>
        <time>2022-07-21T05:35:53Z</time>
      </trkpt>
      <trkpt lat="46.35394" lon="5.17526">
        <ele>211.6</ele>
        <time>2022-07-21T05:35:58Z</time>
      </trkpt>
      <trkpt lat="46.3537" lon="5.17505">
        <ele>211.4</ele>
        <time>2022-07-21T05:36:02Z</time>
      </trkpt>
      <trkpt lat="46.35363" lon="5.17503">
        <ele>211.2</ele>
        <time>2022-07-21T05:36:03Z</time>
      </trkpt>
      <trkpt lat="46.35357" lon="5.17503">
        <ele>211.2</ele>
        <time>2022-07-21T05:36:04Z</time>
      </trkpt>
      <trkpt lat="46.35344" lon="5.1751">
        <ele>211</ele>
        <time>2022-07-21T05:36:06Z</time>
      </trkpt>
      <trkpt lat="46.35315" lon="5.17541">
        <ele>210.8</ele>
        <time>2022-07-21T05:36:11Z</time>
      </trkpt>
      <trkpt lat="46.3529" lon="5.17566">
        <ele>210.2</ele>
        <time>2022-07-21T05:36:15Z</time>
      </trkpt>
      <trkpt lat="46.35282" lon="5.17573">
        <ele>210</ele>
        <time>2022-07-21T05:36:16Z</time>
      </trkpt>
      <trkpt lat="46.35252" lon="5.17588">
        <ele>209.6</ele>
        <time>2022-07-21T05:36:20Z</time>
      </trkpt>
      <trkpt lat="46.35231" lon="5.17594">
        <ele>209.6</ele>
        <time>2022-07-21T05:36:23Z</time>
      </trkpt>
      <trkpt lat="46.35212" lon="5.17605">
        <ele>209.4</ele>
        <time>2022-07-21T05:36:26Z</time>
      </trkpt>
      <trkpt lat="46.35194" lon="5.17616">
        <ele>209.8</ele>
        <time>2022-07-21T05:36:29Z</time>
      </trkpt>
      <trkpt lat="46.35183" lon="5.17625">
        <ele>210</ele>
        <time>2022-07-21T05:36:31Z</time>
      </trkpt>
      <trkpt lat="46.35154" lon="5.17651">
        <ele>210.8</ele>
        <time>2022-07-21T05:36:37Z</time>
      </trkpt>
      <trkpt lat="46.35137" lon="5.17661">
        <ele>211.2</ele>
        <time>2022-07-21T05:36:40Z</time>
      </trkpt>
      <trkpt lat="46.35122" lon="5.17667">
        <ele>211.4</ele>
        <time>2022-07-21T05:36:42Z</time>
      </trkpt>
      <trkpt lat="46.35117" lon="5.17668">
        <ele>211.6</ele>
        <time>2022-07-21T05:36:43Z</time>
      </trkpt>
      <trkpt lat="46.35089" lon="5.17668">
        <ele>211.6</ele>
        <time>2022-07-21T05:36:47Z</time>
      </trkpt>
      <trkpt lat="46.35031" lon="5.17669">
        <ele>211</ele>
        <time>2022-07-21T05:36:55Z</time>
      </trkpt>
      <trkpt lat="46.34993" lon="5.17664">
        <ele>210.2</ele>
        <time>2022-07-21T05:37:00Z</time>
      </trkpt>
      <trkpt lat="46.34986" lon="5.17662">
        <ele>210</ele>
        <time>2022-07-21T05:37:01Z</time>
      </trkpt>
      <trkpt lat="46.34933" lon="5.17641">
        <ele>209.2</ele>
        <time>2022-07-21T05:37:08Z</time>
      </trkpt>
      <trkpt lat="46.34926" lon="5.17638">
        <ele>209.2</ele>
        <time>2022-07-21T05:37:09Z</time>
      </trkpt>
      <trkpt lat="46.34918" lon="5.17635">
        <ele>209</ele>
        <time>2022-07-21T05:37:10Z</time>
      </trkpt>
      <trkpt lat="46.34882" lon="5.17616">
        <ele>208.4</ele>
        <time>2022-07-21T05:37:15Z</time>
      </trkpt>
      <trkpt lat="46.34861" lon="5.17605">
        <ele>208</ele>
        <time>2022-07-21T05:37:18Z</time>
      </trkpt>
      <trkpt lat="46.34837" lon="5.17596">
        <ele>207.4</ele>
        <time>2022-07-21T05:37:21Z</time>
      </trkpt>
      <trkpt lat="46.34808" lon="5.17588">
        <ele>206.2</ele>
        <time>2022-07-21T05:37:24Z</time>
      </trkpt>
      <trkpt lat="46.34799" lon="5.17586">
        <ele>205.6</ele>
        <time>2022-07-21T05:37:25Z</time>
      </trkpt>
      <trkpt lat="46.34789" lon="5.17585">
        <ele>204.8</ele>
        <time>2022-07-21T05:37:26Z</time>
      </trkpt>
      <trkpt lat="46.34769" lon="5.17584">
        <ele>203.8</ele>
        <time>2022-07-21T05:37:28Z</time>
      </trkpt>
      <trkpt lat="46.34751" lon="5.17583">
        <ele>203</ele>
        <time>2022-07-21T05:37:30Z</time>
      </trkpt>
      <trkpt lat="46.34742" lon="5.17582">
        <ele>202.4</ele>
        <time>2022-07-21T05:37:31Z</time>
      </trkpt>
      <trkpt lat="46.347" lon="5.17575">
        <ele>201.4</ele>
        <time>2022-07-21T05:37:36Z</time>
      </trkpt>
      <trkpt lat="46.34684" lon="5.17573">
        <ele>201.4</ele>
        <time>2022-07-21T05:37:38Z</time>
      </trkpt>
      <trkpt lat="46.34657" lon="5.1757">
        <ele>202</ele>
        <time>2022-07-21T05:37:42Z</time>
      </trkpt>
      <trkpt lat="46.34645" lon="5.17569">
        <ele>202.4</ele>
        <time>2022-07-21T05:37:44Z</time>
      </trkpt>
      <trkpt lat="46.34631" lon="5.17567">
        <ele>203.8</ele>
        <time>2022-07-21T05:37:47Z</time>
      </trkpt>
      <trkpt lat="46.34621" lon="5.17565">
        <ele>205</ele>
        <time>2022-07-21T05:37:49Z</time>
      </trkpt>
      <trkpt lat="46.34608" lon="5.17564">
        <ele>206.2</ele>
        <time>2022-07-21T05:37:52Z</time>
      </trkpt>
      <trkpt lat="46.34599" lon="5.17564">
        <ele>207.2</ele>
        <time>2022-07-21T05:37:54Z</time>
      </trkpt>
      <trkpt lat="46.34579" lon="5.17563">
        <ele>208.2</ele>
        <time>2022-07-21T05:37:58Z</time>
      </trkpt>
      <trkpt lat="46.34566" lon="5.17561">
        <ele>209.2</ele>
        <time>2022-07-21T05:38:01Z</time>
      </trkpt>
      <trkpt lat="46.34552" lon="5.1756">
        <ele>210.2</ele>
        <time>2022-07-21T05:38:04Z</time>
      </trkpt>
      <trkpt lat="46.34532" lon="5.17558">
        <ele>211</ele>
        <time>2022-07-21T05:38:08Z</time>
      </trkpt>
      <trkpt lat="46.34528" lon="5.17558">
        <ele>211.2</ele>
        <time>2022-07-21T05:38:09Z</time>
      </trkpt>
      <trkpt lat="46.34523" lon="5.17559">
        <ele>211.6</ele>
        <time>2022-07-21T05:38:10Z</time>
      </trkpt>
      <trkpt lat="46.34504" lon="5.17563">
        <ele>212.2</ele>
        <time>2022-07-21T05:38:14Z</time>
      </trkpt>
      <trkpt lat="46.34494" lon="5.17564">
        <ele>212.4</ele>
        <time>2022-07-21T05:38:16Z</time>
      </trkpt>
      <trkpt lat="46.34472" lon="5.17567">
        <ele>212.6</ele>
        <time>2022-07-21T05:38:20Z</time>
      </trkpt>
      <trkpt lat="46.34452" lon="5.17568">
        <ele>213.4</ele>
        <time>2022-07-21T05:38:24Z</time>
      </trkpt>
      <trkpt lat="46.34441" lon="5.17569">
        <ele>213.6</ele>
        <time>2022-07-21T05:38:26Z</time>
      </trkpt>
      <trkpt lat="46.34432" lon="5.17569">
        <ele>213.8</ele>
        <time>2022-07-21T05:38:28Z</time>
      </trkpt>
      <trkpt lat="46.34389" lon="5.17579">
        <ele>214</ele>
        <time>2022-07-21T05:38:36Z</time>
      </trkpt>
      <trkpt lat="46.34345" lon="5.17605">
        <ele>214.6</ele>
        <time>2022-07-21T05:38:44Z</time>
      </trkpt>
      <trkpt lat="46.34341" lon="5.17608">
        <ele>214.6</ele>
        <time>2022-07-21T05:38:45Z</time>
      </trkpt>
      <trkpt lat="46.34306" lon="5.17643">
        <ele>214.8</ele>
        <time>2022-07-21T05:38:52Z</time>
      </trkpt>
      <trkpt lat="46.34271" lon="5.17681">
        <ele>214.8</ele>
        <time>2022-07-21T05:38:59Z</time>
      </trkpt>
      <trkpt lat="46.34224" lon="5.17729">
        <ele>214.2</ele>
        <time>2022-07-21T05:39:08Z</time>
      </trkpt>
      <trkpt lat="46.34174" lon="5.17772">
        <ele>213.6</ele>
        <time>2022-07-21T05:39:17Z</time>
      </trkpt>
      <trkpt lat="46.34142" lon="5.178">
        <ele>213.8</ele>
        <time>2022-07-21T05:39:23Z</time>
      </trkpt>
      <trkpt lat="46.34092" lon="5.17849">
        <ele>213.6</ele>
        <time>2022-07-21T05:39:32Z</time>
      </trkpt>
      <trkpt lat="46.34077" lon="5.17869">
        <ele>213.4</ele>
        <time>2022-07-21T05:39:35Z</time>
      </trkpt>
      <trkpt lat="46.34052" lon="5.17904">
        <ele>213.2</ele>
        <time>2022-07-21T05:39:40Z</time>
      </trkpt>
      <trkpt lat="46.34012" lon="5.17959">
        <ele>212.6</ele>
        <time>2022-07-21T05:39:48Z</time>
      </trkpt>
      <trkpt lat="46.34002" lon="5.17973">
        <ele>212.4</ele>
        <time>2022-07-21T05:39:50Z</time>
      </trkpt>
      <trkpt lat="46.33966" lon="5.18018">
        <ele>212</ele>
        <time>2022-07-21T05:39:57Z</time>
      </trkpt>
      <trkpt lat="46.33928" lon="5.18055">
        <ele>212.4</ele>
        <time>2022-07-21T05:40:04Z</time>
      </trkpt>
      <trkpt lat="46.33914" lon="5.18076">
        <ele>212.4</ele>
        <time>2022-07-21T05:40:07Z</time>
      </trkpt>
      <trkpt lat="46.33911" lon="5.18084">
        <ele>212.4</ele>
        <time>2022-07-21T05:40:08Z</time>
      </trkpt>
      <trkpt lat="46.33894" lon="5.18133">
        <ele>212.4</ele>
        <time>2022-07-21T05:40:14Z</time>
      </trkpt>
      <trkpt lat="46.33875" lon="5.18168">
        <ele>212.4</ele>
        <time>2022-07-21T05:40:19Z</time>
      </trkpt>
      <trkpt lat="46.33871" lon="5.18173">
        <ele>212.4</ele>
        <time>2022-07-21T05:40:20Z</time>
      </trkpt>
      <trkpt lat="46.33845" lon="5.18204">
        <ele>212.2</ele>
        <time>2022-07-21T05:40:26Z</time>
      </trkpt>
      <trkpt lat="46.33814" lon="5.18246">
        <ele>211.6</ele>
        <time>2022-07-21T05:40:32Z</time>
      </trkpt>
      <trkpt lat="46.33803" lon="5.18262">
        <ele>211.4</ele>
        <time>2022-07-21T05:40:34Z</time>
      </trkpt>
      <trkpt lat="46.33787" lon="5.18288">
        <ele>211</ele>
        <time>2022-07-21T05:40:37Z</time>
      </trkpt>
      <trkpt lat="46.33767" lon="5.1833">
        <ele>210</ele>
        <time>2022-07-21T05:40:41Z</time>
      </trkpt>
      <trkpt lat="46.33757" lon="5.1835">
        <ele>209.2</ele>
        <time>2022-07-21T05:40:43Z</time>
      </trkpt>
      <trkpt lat="46.33752" lon="5.1836">
        <ele>208.8</ele>
        <time>2022-07-21T05:40:44Z</time>
      </trkpt>
      <trkpt lat="46.33746" lon="5.18369">
        <ele>208.6</ele>
        <time>2022-07-21T05:40:45Z</time>
      </trkpt>
      <trkpt lat="46.33732" lon="5.18384">
        <ele>208.4</ele>
        <time>2022-07-21T05:40:47Z</time>
      </trkpt>
      <trkpt lat="46.33724" lon="5.18389">
        <ele>208.2</ele>
        <time>2022-07-21T05:40:48Z</time>
      </trkpt>
      <trkpt lat="46.3371" lon="5.18399">
        <ele>208</ele>
        <time>2022-07-21T05:40:50Z</time>
      </trkpt>
      <trkpt lat="46.33691" lon="5.1842">
        <ele>207.8</ele>
        <time>2022-07-21T05:40:53Z</time>
      </trkpt>
      <trkpt lat="46.33679" lon="5.18435">
        <ele>207.8</ele>
        <time>2022-07-21T05:40:55Z</time>
      </trkpt>
      <trkpt lat="46.33661" lon="5.18453">
        <ele>207.8</ele>
        <time>2022-07-21T05:40:58Z</time>
      </trkpt>
      <trkpt lat="46.33655" lon="5.18457">
        <ele>208</ele>
        <time>2022-07-21T05:40:59Z</time>
      </trkpt>
      <trkpt lat="46.33626" lon="5.18477">
        <ele>208.8</ele>
        <time>2022-07-21T05:41:04Z</time>
      </trkpt>
      <trkpt lat="46.33605" lon="5.18491">
        <ele>210.2</ele>
        <time>2022-07-21T05:41:08Z</time>
      </trkpt>
      <trkpt lat="46.33594" lon="5.18498">
        <ele>210.8</ele>
        <time>2022-07-21T05:41:10Z</time>
      </trkpt>
      <trkpt lat="46.33581" lon="5.1851">
        <ele>211.4</ele>
        <time>2022-07-21T05:41:13Z</time>
      </trkpt>
      <trkpt lat="46.3357" lon="5.18523">
        <ele>212.2</ele>
        <time>2022-07-21T05:41:16Z</time>
      </trkpt>
      <trkpt lat="46.33566" lon="5.18528">
        <ele>213</ele>
        <time>2022-07-21T05:41:17Z</time>
      </trkpt>
      <trkpt lat="46.33548" lon="5.18549">
        <ele>214.4</ele>
        <time>2022-07-21T05:41:22Z</time>
      </trkpt>
      <trkpt lat="46.33522" lon="5.18572">
        <ele>215.6</ele>
        <time>2022-07-21T05:41:28Z</time>
      </trkpt>
      <trkpt lat="46.33513" lon="5.18579">
        <ele>216</ele>
        <time>2022-07-21T05:41:30Z</time>
      </trkpt>
      <trkpt lat="46.33496" lon="5.18591">
        <ele>216.8</ele>
        <time>2022-07-21T05:41:34Z</time>
      </trkpt>
      <trkpt lat="46.33484" lon="5.18597">
        <ele>217.4</ele>
        <time>2022-07-21T05:41:37Z</time>
      </trkpt>
      <trkpt lat="46.33476" lon="5.18602">
        <ele>217.8</ele>
        <time>2022-07-21T05:41:39Z</time>
      </trkpt>
      <trkpt lat="46.33468" lon="5.18606">
        <ele>218.4</ele>
        <time>2022-07-21T05:41:42Z</time>
      </trkpt>
      <trkpt lat="46.33467" lon="5.18606">
        <ele>218.6</ele>
        <time>2022-07-21T05:41:43Z</time>
      </trkpt>
      <trkpt lat="46.33463" lon="5.18606">
        <ele>218.8</ele>
        <time>2022-07-21T05:41:45Z</time>
      </trkpt>
      <trkpt lat="46.33461" lon="5.1861">
        <ele>218.8</ele>
        <time>2022-07-21T05:41:46Z</time>
      </trkpt>
      <trkpt lat="46.33459" lon="5.18625">
        <ele>219.2</ele>
        <time>2022-07-21T05:41:49Z</time>
      </trkpt>
      <trkpt lat="46.33457" lon="5.1863">
        <ele>219.2</ele>
        <time>2022-07-21T05:41:50Z</time>
      </trkpt>
      <trkpt lat="46.3345" lon="5.18639">
        <ele>219.2</ele>
        <time>2022-07-21T05:41:52Z</time>
      </trkpt>
      <trkpt lat="46.33445" lon="5.18643">
        <ele>219.4</ele>
        <time>2022-07-21T05:41:53Z</time>
      </trkpt>
      <trkpt lat="46.33419" lon="5.18668">
        <ele>219.4</ele>
        <time>2022-07-21T05:41:58Z</time>
      </trkpt>
      <trkpt lat="46.33379" lon="5.18706">
        <ele>219.8</ele>
        <time>2022-07-21T05:42:06Z</time>
      </trkpt>
      <trkpt lat="46.33376" lon="5.1871">
        <ele>220</ele>
        <time>2022-07-21T05:42:07Z</time>
      </trkpt>
      <trkpt lat="46.33372" lon="5.18713">
        <ele>220.2</ele>
        <time>2022-07-21T05:42:08Z</time>
      </trkpt>
      <trkpt lat="46.33364" lon="5.18722">
        <ele>220.4</ele>
        <time>2022-07-21T05:42:10Z</time>
      </trkpt>
      <trkpt lat="46.33361" lon="5.18726">
        <ele>220.4</ele>
        <time>2022-07-21T05:42:11Z</time>
      </trkpt>
      <trkpt lat="46.33341" lon="5.18755">
        <ele>220.8</ele>
        <time>2022-07-21T05:42:16Z</time>
      </trkpt>
      <trkpt lat="46.33337" lon="5.18761">
        <ele>221</ele>
        <time>2022-07-21T05:42:17Z</time>
      </trkpt>
      <trkpt lat="46.33333" lon="5.18767">
        <ele>221</ele>
        <time>2022-07-21T05:42:18Z</time>
      </trkpt>
      <trkpt lat="46.33316" lon="5.18796">
        <ele>220.8</ele>
        <time>2022-07-21T05:42:22Z</time>
      </trkpt>
      <trkpt lat="46.33285" lon="5.18847">
        <ele>220.8</ele>
        <time>2022-07-21T05:42:29Z</time>
      </trkpt>
      <trkpt lat="46.33252" lon="5.18903">
        <ele>220</ele>
        <time>2022-07-21T05:42:36Z</time>
      </trkpt>
      <trkpt lat="46.33247" lon="5.1891">
        <ele>220</ele>
        <time>2022-07-21T05:42:37Z</time>
      </trkpt>
      <trkpt lat="46.33225" lon="5.18937">
        <ele>219.6</ele>
        <time>2022-07-21T05:42:41Z</time>
      </trkpt>
      <trkpt lat="46.33201" lon="5.18973">
        <ele>219.6</ele>
        <time>2022-07-21T05:42:46Z</time>
      </trkpt>
      <trkpt lat="46.33197" lon="5.18983">
        <ele>219.8</ele>
        <time>2022-07-21T05:42:47Z</time>
      </trkpt>
      <trkpt lat="46.33178" lon="5.19044">
        <ele>220.2</ele>
        <time>2022-07-21T05:42:53Z</time>
      </trkpt>
      <trkpt lat="46.33147" lon="5.19112">
        <ele>220.4</ele>
        <time>2022-07-21T05:43:01Z</time>
      </trkpt>
      <trkpt lat="46.33144" lon="5.1912">
        <ele>220.4</ele>
        <time>2022-07-21T05:43:02Z</time>
      </trkpt>
      <trkpt lat="46.33116" lon="5.19165">
        <ele>220.8</ele>
        <time>2022-07-21T05:43:08Z</time>
      </trkpt>
      <trkpt lat="46.33098" lon="5.19181">
        <ele>220.8</ele>
        <time>2022-07-21T05:43:11Z</time>
      </trkpt>
      <trkpt lat="46.33091" lon="5.19184">
        <ele>220.8</ele>
        <time>2022-07-21T05:43:12Z</time>
      </trkpt>
      <trkpt lat="46.33084" lon="5.19185">
        <ele>220.8</ele>
        <time>2022-07-21T05:43:13Z</time>
      </trkpt>
      <trkpt lat="46.33064" lon="5.19187">
        <ele>221</ele>
        <time>2022-07-21T05:43:16Z</time>
      </trkpt>
      <trkpt lat="46.33057" lon="5.19187">
        <ele>221</ele>
        <time>2022-07-21T05:43:17Z</time>
      </trkpt>
      <trkpt lat="46.33003" lon="5.19184">
        <ele>220.4</ele>
        <time>2022-07-21T05:43:24Z</time>
      </trkpt>
      <trkpt lat="46.32985" lon="5.19187">
        <ele>219.8</ele>
        <time>2022-07-21T05:43:26Z</time>
      </trkpt>
      <trkpt lat="46.32961" lon="5.19196">
        <ele>219</ele>
        <time>2022-07-21T05:43:29Z</time>
      </trkpt>
      <trkpt lat="46.32953" lon="5.19199">
        <ele>218.8</ele>
        <time>2022-07-21T05:43:30Z</time>
      </trkpt>
      <trkpt lat="46.32923" lon="5.19211">
        <ele>218.2</ele>
        <time>2022-07-21T05:43:34Z</time>
      </trkpt>
      <trkpt lat="46.32913" lon="5.19213">
        <ele>218</ele>
        <time>2022-07-21T05:43:35Z</time>
      </trkpt>
      <trkpt lat="46.32874" lon="5.19214">
        <ele>217.6</ele>
        <time>2022-07-21T05:43:40Z</time>
      </trkpt>
      <trkpt lat="46.3286" lon="5.19214">
        <ele>217.4</ele>
        <time>2022-07-21T05:43:42Z</time>
      </trkpt>
      <trkpt lat="46.32805" lon="5.19206">
        <ele>217.2</ele>
        <time>2022-07-21T05:43:49Z</time>
      </trkpt>
      <trkpt lat="46.32768" lon="5.19206">
        <ele>217.2</ele>
        <time>2022-07-21T05:43:54Z</time>
      </trkpt>
      <trkpt lat="46.32761" lon="5.19207">
        <ele>217.2</ele>
        <time>2022-07-21T05:43:55Z</time>
      </trkpt>
      <trkpt lat="46.32714" lon="5.19217">
        <ele>218.8</ele>
        <time>2022-07-21T05:44:02Z</time>
      </trkpt>
      <trkpt lat="46.32705" lon="5.19218">
        <ele>219</ele>
        <time>2022-07-21T05:44:03Z</time>
      </trkpt>
      <trkpt lat="46.32651" lon="5.19219">
        <ele>219.4</ele>
        <time>2022-07-21T05:44:11Z</time>
      </trkpt>
      <trkpt lat="46.32638" lon="5.19219">
        <ele>219.4</ele>
        <time>2022-07-21T05:44:13Z</time>
      </trkpt>
      <trkpt lat="46.32597" lon="5.19216">
        <ele>219.8</ele>
        <time>2022-07-21T05:44:19Z</time>
      </trkpt>
      <trkpt lat="46.32576" lon="5.19215">
        <ele>220</ele>
        <time>2022-07-21T05:44:22Z</time>
      </trkpt>
      <trkpt lat="46.32526" lon="5.19214">
        <ele>219.8</ele>
        <time>2022-07-21T05:44:29Z</time>
      </trkpt>
      <trkpt lat="46.32469" lon="5.19214">
        <ele>219.6</ele>
        <time>2022-07-21T05:44:37Z</time>
      </trkpt>
      <trkpt lat="46.32454" lon="5.19215">
        <ele>219.6</ele>
        <time>2022-07-21T05:44:39Z</time>
      </trkpt>
      <trkpt lat="46.32396" lon="5.19226">
        <ele>219</ele>
        <time>2022-07-21T05:44:47Z</time>
      </trkpt>
      <trkpt lat="46.32367" lon="5.19238">
        <ele>218.8</ele>
        <time>2022-07-21T05:44:51Z</time>
      </trkpt>
      <trkpt lat="46.32338" lon="5.19253">
        <ele>218.6</ele>
        <time>2022-07-21T05:44:55Z</time>
      </trkpt>
      <trkpt lat="46.32288" lon="5.19285">
        <ele>218.6</ele>
        <time>2022-07-21T05:45:03Z</time>
      </trkpt>
      <trkpt lat="46.3224" lon="5.1932">
        <ele>218.6</ele>
        <time>2022-07-21T05:45:10Z</time>
      </trkpt>
      <trkpt lat="46.32189" lon="5.19349">
        <ele>219.6</ele>
        <time>2022-07-21T05:45:18Z</time>
      </trkpt>
      <trkpt lat="46.32149" lon="5.19372">
        <ele>219.8</ele>
        <time>2022-07-21T05:45:25Z</time>
      </trkpt>
      <trkpt lat="46.32136" lon="5.19378">
        <ele>219.8</ele>
        <time>2022-07-21T05:45:27Z</time>
      </trkpt>
      <trkpt lat="46.32081" lon="5.19394">
        <ele>220.8</ele>
        <time>2022-07-21T05:45:36Z</time>
      </trkpt>
      <trkpt lat="46.32075" lon="5.19395">
        <ele>220.8</ele>
        <time>2022-07-21T05:45:37Z</time>
      </trkpt>
      <trkpt lat="46.3203" lon="5.19408">
        <ele>221</ele>
        <time>2022-07-21T05:45:44Z</time>
      </trkpt>
      <trkpt lat="46.31988" lon="5.1943">
        <ele>220.8</ele>
        <time>2022-07-21T05:45:51Z</time>
      </trkpt>
      <trkpt lat="46.31946" lon="5.19461">
        <ele>220.8</ele>
        <time>2022-07-21T05:45:58Z</time>
      </trkpt>
      <trkpt lat="46.31927" lon="5.1947">
        <ele>221</ele>
        <time>2022-07-21T05:46:01Z</time>
      </trkpt>
      <trkpt lat="46.31908" lon="5.19474">
        <ele>221</ele>
        <time>2022-07-21T05:46:04Z</time>
      </trkpt>
      <trkpt lat="46.31857" lon="5.19479">
        <ele>221.4</ele>
        <time>2022-07-21T05:46:12Z</time>
      </trkpt>
      <trkpt lat="46.31797" lon="5.19476">
        <ele>221.6</ele>
        <time>2022-07-21T05:46:21Z</time>
      </trkpt>
      <trkpt lat="46.31761" lon="5.19477">
        <ele>221</ele>
        <time>2022-07-21T05:46:26Z</time>
      </trkpt>
      <trkpt lat="46.31749" lon="5.19482">
        <ele>220.8</ele>
        <time>2022-07-21T05:46:28Z</time>
      </trkpt>
      <trkpt lat="46.31739" lon="5.19496">
        <ele>220.4</ele>
        <time>2022-07-21T05:46:30Z</time>
      </trkpt>
      <trkpt lat="46.31736" lon="5.19506">
        <ele>220.4</ele>
        <time>2022-07-21T05:46:31Z</time>
      </trkpt>
      <trkpt lat="46.31733" lon="5.19526">
        <ele>220.4</ele>
        <time>2022-07-21T05:46:33Z</time>
      </trkpt>
      <trkpt lat="46.31734" lon="5.1955">
        <ele>220.4</ele>
        <time>2022-07-21T05:46:35Z</time>
      </trkpt>
      <trkpt lat="46.31732" lon="5.19582">
        <ele>220.4</ele>
        <time>2022-07-21T05:46:38Z</time>
      </trkpt>
      <trkpt lat="46.31729" lon="5.19591">
        <ele>220.4</ele>
        <time>2022-07-21T05:46:39Z</time>
      </trkpt>
      <trkpt lat="46.31726" lon="5.196">
        <ele>220.4</ele>
        <time>2022-07-21T05:46:40Z</time>
      </trkpt>
      <trkpt lat="46.31716" lon="5.19615">
        <ele>220.4</ele>
        <time>2022-07-21T05:46:42Z</time>
      </trkpt>
      <trkpt lat="46.31703" lon="5.19623">
        <ele>220.4</ele>
        <time>2022-07-21T05:46:44Z</time>
      </trkpt>
      <trkpt lat="46.31696" lon="5.19624">
        <ele>220.6</ele>
        <time>2022-07-21T05:46:45Z</time>
      </trkpt>
      <trkpt lat="46.31642" lon="5.19627">
        <ele>220.4</ele>
        <time>2022-07-21T05:46:52Z</time>
      </trkpt>
      <trkpt lat="46.31632" lon="5.19628">
        <ele>220.4</ele>
        <time>2022-07-21T05:46:53Z</time>
      </trkpt>
      <trkpt lat="46.31573" lon="5.19639">
        <ele>220.2</ele>
        <time>2022-07-21T05:47:01Z</time>
      </trkpt>
      <trkpt lat="46.3155" lon="5.19642">
        <ele>220.6</ele>
        <time>2022-07-21T05:47:04Z</time>
      </trkpt>
      <trkpt lat="46.31503" lon="5.19644">
        <ele>221.4</ele>
        <time>2022-07-21T05:47:11Z</time>
      </trkpt>
      <trkpt lat="46.31464" lon="5.19655">
        <ele>222</ele>
        <time>2022-07-21T05:47:17Z</time>
      </trkpt>
      <trkpt lat="46.31457" lon="5.19657">
        <ele>221.8</ele>
        <time>2022-07-21T05:47:18Z</time>
      </trkpt>
      <trkpt lat="46.31424" lon="5.19669">
        <ele>222.4</ele>
        <time>2022-07-21T05:47:23Z</time>
      </trkpt>
      <trkpt lat="46.31379" lon="5.19682">
        <ele>223.2</ele>
        <time>2022-07-21T05:47:30Z</time>
      </trkpt>
      <trkpt lat="46.31364" lon="5.19686">
        <ele>223.4</ele>
        <time>2022-07-21T05:47:32Z</time>
      </trkpt>
      <trkpt lat="46.3131" lon="5.19696">
        <ele>223.8</ele>
        <time>2022-07-21T05:47:40Z</time>
      </trkpt>
      <trkpt lat="46.31303" lon="5.19696">
        <ele>223.8</ele>
        <time>2022-07-21T05:47:41Z</time>
      </trkpt>
      <trkpt lat="46.31279" lon="5.19695">
        <ele>224</ele>
        <time>2022-07-21T05:47:45Z</time>
      </trkpt>
      <trkpt lat="46.31272" lon="5.19694">
        <ele>224.2</ele>
        <time>2022-07-21T05:47:46Z</time>
      </trkpt>
      <trkpt lat="46.31224" lon="5.19684">
        <ele>224.4</ele>
        <time>2022-07-21T05:47:53Z</time>
      </trkpt>
      <trkpt lat="46.3121" lon="5.19681">
        <ele>224.6</ele>
        <time>2022-07-21T05:47:55Z</time>
      </trkpt>
      <trkpt lat="46.31196" lon="5.19683">
        <ele>224.6</ele>
        <time>2022-07-21T05:47:57Z</time>
      </trkpt>
      <trkpt lat="46.31163" lon="5.197">
        <ele>224.6</ele>
        <time>2022-07-21T05:48:02Z</time>
      </trkpt>
      <trkpt lat="46.31109" lon="5.19739">
        <ele>223.8</ele>
        <time>2022-07-21T05:48:10Z</time>
      </trkpt>
      <trkpt lat="46.31103" lon="5.19744">
        <ele>223.8</ele>
        <time>2022-07-21T05:48:11Z</time>
      </trkpt>
      <trkpt lat="46.31096" lon="5.19748">
        <ele>223.6</ele>
        <time>2022-07-21T05:48:12Z</time>
      </trkpt>
      <trkpt lat="46.31075" lon="5.19755">
        <ele>223.6</ele>
        <time>2022-07-21T05:48:15Z</time>
      </trkpt>
      <trkpt lat="46.31022" lon="5.19771">
        <ele>224</ele>
        <time>2022-07-21T05:48:23Z</time>
      </trkpt>
      <trkpt lat="46.31016" lon="5.19774">
        <ele>224.2</ele>
        <time>2022-07-21T05:48:24Z</time>
      </trkpt>
      <trkpt lat="46.31003" lon="5.1978">
        <ele>224.2</ele>
        <time>2022-07-21T05:48:26Z</time>
      </trkpt>
      <trkpt lat="46.30983" lon="5.19789">
        <ele>224.2</ele>
        <time>2022-07-21T05:48:29Z</time>
      </trkpt>
      <trkpt lat="46.30925" lon="5.19805">
        <ele>224.6</ele>
        <time>2022-07-21T05:48:37Z</time>
      </trkpt>
      <trkpt lat="46.30899" lon="5.1981">
        <ele>225</ele>
        <time>2022-07-21T05:48:41Z</time>
      </trkpt>
      <trkpt lat="46.30878" lon="5.19815">
        <ele>225.2</ele>
        <time>2022-07-21T05:48:44Z</time>
      </trkpt>
      <trkpt lat="46.30824" lon="5.19827">
        <ele>225.6</ele>
        <time>2022-07-21T05:48:52Z</time>
      </trkpt>
      <trkpt lat="46.30816" lon="5.19828">
        <ele>225.6</ele>
        <time>2022-07-21T05:48:53Z</time>
      </trkpt>
      <trkpt lat="46.3077" lon="5.19838">
        <ele>225.6</ele>
        <time>2022-07-21T05:49:00Z</time>
      </trkpt>
      <trkpt lat="46.30727" lon="5.19854">
        <ele>226</ele>
        <time>2022-07-21T05:49:07Z</time>
      </trkpt>
      <trkpt lat="46.30676" lon="5.19882">
        <ele>226</ele>
        <time>2022-07-21T05:49:15Z</time>
      </trkpt>
      <trkpt lat="46.30628" lon="5.19893">
        <ele>225.6</ele>
        <time>2022-07-21T05:49:22Z</time>
      </trkpt>
      <trkpt lat="46.30573" lon="5.19896">
        <ele>224.8</ele>
        <time>2022-07-21T05:49:30Z</time>
      </trkpt>
      <trkpt lat="46.30566" lon="5.19896">
        <ele>224.8</ele>
        <time>2022-07-21T05:49:31Z</time>
      </trkpt>
      <trkpt lat="46.30522" lon="5.19895">
        <ele>224.6</ele>
        <time>2022-07-21T05:49:38Z</time>
      </trkpt>
      <trkpt lat="46.30485" lon="5.1989">
        <ele>224</ele>
        <time>2022-07-21T05:49:43Z</time>
      </trkpt>
      <trkpt lat="46.30463" lon="5.19886">
        <ele>223.8</ele>
        <time>2022-07-21T05:49:46Z</time>
      </trkpt>
      <trkpt lat="46.30404" lon="5.19875">
        <ele>223.4</ele>
        <time>2022-07-21T05:49:54Z</time>
      </trkpt>
      <trkpt lat="46.30396" lon="5.19873">
        <ele>223.2</ele>
        <time>2022-07-21T05:49:55Z</time>
      </trkpt>
      <trkpt lat="46.30339" lon="5.19861">
        <ele>223.6</ele>
        <time>2022-07-21T05:50:03Z</time>
      </trkpt>
      <trkpt lat="46.30332" lon="5.1986">
        <ele>223.6</ele>
        <time>2022-07-21T05:50:04Z</time>
      </trkpt>
      <trkpt lat="46.30275" lon="5.19848">
        <ele>223.8</ele>
        <time>2022-07-21T05:50:12Z</time>
      </trkpt>
      <trkpt lat="46.3026" lon="5.19845">
        <ele>223.8</ele>
        <time>2022-07-21T05:50:14Z</time>
      </trkpt>
      <trkpt lat="46.30205" lon="5.19841">
        <ele>223.4</ele>
        <time>2022-07-21T05:50:22Z</time>
      </trkpt>
      <trkpt lat="46.30178" lon="5.1984">
        <ele>223.6</ele>
        <time>2022-07-21T05:50:27Z</time>
      </trkpt>
      <trkpt lat="46.3017" lon="5.19838">
        <ele>223.8</ele>
        <time>2022-07-21T05:50:30Z</time>
      </trkpt>
      <trkpt lat="46.30169" lon="5.19837">
        <ele>223.8</ele>
        <time>2022-07-21T05:50:33Z</time>
      </trkpt>
      <trkpt lat="46.30167" lon="5.19837">
        <ele>223.6</ele>
        <time>2022-07-21T05:50:59Z</time>
      </trkpt>
      <trkpt lat="46.30164" lon="5.19838">
        <ele>223.6</ele>
        <time>2022-07-21T05:51:04Z</time>
      </trkpt>
      <trkpt lat="46.3016" lon="5.1984">
        <ele>223.6</ele>
        <time>2022-07-21T05:51:22Z</time>
      </trkpt>
      <trkpt lat="46.30159" lon="5.19842">
        <ele>223.6</ele>
        <time>2022-07-21T05:51:23Z</time>
      </trkpt>
      <trkpt lat="46.30158" lon="5.19845">
        <ele>223.6</ele>
        <time>2022-07-21T05:51:24Z</time>
      </trkpt>
      <trkpt lat="46.30159" lon="5.1985">
        <ele>223.6</ele>
        <time>2022-07-21T05:51:25Z</time>
      </trkpt>
      <trkpt lat="46.30161" lon="5.19859">
        <ele>223.6</ele>
        <time>2022-07-21T05:51:27Z</time>
      </trkpt>
      <trkpt lat="46.30162" lon="5.19883">
        <ele>223.8</ele>
        <time>2022-07-21T05:51:32Z</time>
      </trkpt>
      <trkpt lat="46.30159" lon="5.1992">
        <ele>223.8</ele>
        <time>2022-07-21T05:51:38Z</time>
      </trkpt>
      <trkpt lat="46.30157" lon="5.19938">
        <ele>224</ele>
        <time>2022-07-21T05:51:41Z</time>
      </trkpt>
      <trkpt lat="46.30156" lon="5.19944">
        <ele>224</ele>
        <time>2022-07-21T05:51:42Z</time>
      </trkpt>
      <trkpt lat="46.30155" lon="5.19957">
        <ele>224.2</ele>
        <time>2022-07-21T05:51:44Z</time>
      </trkpt>
      <trkpt lat="46.30155" lon="5.19961">
        <ele>224.2</ele>
        <time>2022-07-21T05:51:45Z</time>
      </trkpt>
      <trkpt lat="46.30154" lon="5.19972">
        <ele>224.2</ele>
        <time>2022-07-21T05:51:49Z</time>
      </trkpt>
      <trkpt lat="46.30154" lon="5.19972">
        <ele>224.2</ele>
        <time>2022-07-21T05:51:50Z</time>
      </trkpt>
      <trkpt lat="46.30152" lon="5.19976">
        <ele>224.4</ele>
        <time>2022-07-21T05:53:37Z</time>
      </trkpt>
      <trkpt lat="46.30151" lon="5.19986">
        <ele>224.4</ele>
        <time>2022-07-21T05:53:40Z</time>
      </trkpt>
      <trkpt lat="46.3015" lon="5.19994">
        <ele>224</ele>
        <time>2022-07-21T05:53:45Z</time>
      </trkpt>
      <trkpt lat="46.3015" lon="5.19994">
        <ele>224</ele>
        <time>2022-07-21T05:53:47Z</time>
      </trkpt>
      <trkpt lat="46.30151" lon="5.1999">
        <ele>223.8</ele>
        <time>2022-07-21T05:54:33Z</time>
      </trkpt>
      <trkpt lat="46.30152" lon="5.19982">
        <ele>223.8</ele>
        <time>2022-07-21T05:54:35Z</time>
      </trkpt>
      <trkpt lat="46.30155" lon="5.19957">
        <ele>223.6</ele>
        <time>2022-07-21T05:54:39Z</time>
      </trkpt>
      <trkpt lat="46.30162" lon="5.1991">
        <ele>223.6</ele>
        <time>2022-07-21T05:54:45Z</time>
      </trkpt>
      <trkpt lat="46.30163" lon="5.19855">
        <ele>223.6</ele>
        <time>2022-07-21T05:54:53Z</time>
      </trkpt>
      <trkpt lat="46.30161" lon="5.1985">
        <ele>223.4</ele>
        <time>2022-07-21T05:54:54Z</time>
      </trkpt>
      <trkpt lat="46.30153" lon="5.19844">
        <ele>223.6</ele>
        <time>2022-07-21T05:54:56Z</time>
      </trkpt>
      <trkpt lat="46.30125" lon="5.19834">
        <ele>223.4</ele>
        <time>2022-07-21T05:55:01Z</time>
      </trkpt>
      <trkpt lat="46.30076" lon="5.19813">
        <ele>223.2</ele>
        <time>2022-07-21T05:55:09Z</time>
      </trkpt>
      <trkpt lat="46.30029" lon="5.19798">
        <ele>223.2</ele>
        <time>2022-07-21T05:55:16Z</time>
      </trkpt>
      <trkpt lat="46.29975" lon="5.19789">
        <ele>223</ele>
        <time>2022-07-21T05:55:24Z</time>
      </trkpt>
      <trkpt lat="46.29923" lon="5.19782">
        <ele>222</ele>
        <time>2022-07-21T05:55:31Z</time>
      </trkpt>
      <trkpt lat="46.29877" lon="5.19787">
        <ele>221.8</ele>
        <time>2022-07-21T05:55:37Z</time>
      </trkpt>
      <trkpt lat="46.29817" lon="5.19789">
        <ele>221</ele>
        <time>2022-07-21T05:55:45Z</time>
      </trkpt>
      <trkpt lat="46.29803" lon="5.19791">
        <ele>220.8</ele>
        <time>2022-07-21T05:55:47Z</time>
      </trkpt>
      <trkpt lat="46.29777" lon="5.19794">
        <ele>220.6</ele>
        <time>2022-07-21T05:55:50Z</time>
      </trkpt>
      <trkpt lat="46.29729" lon="5.19804">
        <ele>219.8</ele>
        <time>2022-07-21T05:55:56Z</time>
      </trkpt>
      <trkpt lat="46.29721" lon="5.19808">
        <ele>219.8</ele>
        <time>2022-07-21T05:55:57Z</time>
      </trkpt>
      <trkpt lat="46.29713" lon="5.19813">
        <ele>219.6</ele>
        <time>2022-07-21T05:55:58Z</time>
      </trkpt>
      <trkpt lat="46.29682" lon="5.19839">
        <ele>218.6</ele>
        <time>2022-07-21T05:56:02Z</time>
      </trkpt>
      <trkpt lat="46.2966" lon="5.19861">
        <ele>217.4</ele>
        <time>2022-07-21T05:56:05Z</time>
      </trkpt>
      <trkpt lat="46.29637" lon="5.19883">
        <ele>216.2</ele>
        <time>2022-07-21T05:56:08Z</time>
      </trkpt>
      <trkpt lat="46.29628" lon="5.1989">
        <ele>216</ele>
        <time>2022-07-21T05:56:09Z</time>
      </trkpt>
      <trkpt lat="46.29611" lon="5.19903">
        <ele>215</ele>
        <time>2022-07-21T05:56:11Z</time>
      </trkpt>
      <trkpt lat="46.29592" lon="5.19913">
        <ele>214.4</ele>
        <time>2022-07-21T05:56:13Z</time>
      </trkpt>
      <trkpt lat="46.29582" lon="5.19915">
        <ele>213.6</ele>
        <time>2022-07-21T05:56:14Z</time>
      </trkpt>
      <trkpt lat="46.29572" lon="5.19915">
        <ele>212.8</ele>
        <time>2022-07-21T05:56:15Z</time>
      </trkpt>
      <trkpt lat="46.29563" lon="5.19914">
        <ele>212.6</ele>
        <time>2022-07-21T05:56:16Z</time>
      </trkpt>
      <trkpt lat="46.29516" lon="5.19907">
        <ele>211.2</ele>
        <time>2022-07-21T05:56:21Z</time>
      </trkpt>
      <trkpt lat="46.29507" lon="5.19906">
        <ele>211</ele>
        <time>2022-07-21T05:56:22Z</time>
      </trkpt>
      <trkpt lat="46.29449" lon="5.19904">
        <ele>210.8</ele>
        <time>2022-07-21T05:56:29Z</time>
      </trkpt>
      <trkpt lat="46.29407" lon="5.19901">
        <ele>211.6</ele>
        <time>2022-07-21T05:56:35Z</time>
      </trkpt>
      <trkpt lat="46.29385" lon="5.19901">
        <ele>212.2</ele>
        <time>2022-07-21T05:56:39Z</time>
      </trkpt>
      <trkpt lat="46.2938" lon="5.199">
        <ele>212.6</ele>
        <time>2022-07-21T05:56:40Z</time>
      </trkpt>
      <trkpt lat="46.29365" lon="5.19899">
        <ele>213.8</ele>
        <time>2022-07-21T05:56:43Z</time>
      </trkpt>
      <trkpt lat="46.29356" lon="5.19899">
        <ele>215.2</ele>
        <time>2022-07-21T05:56:45Z</time>
      </trkpt>
      <trkpt lat="46.29351" lon="5.19898">
        <ele>215.6</ele>
        <time>2022-07-21T05:56:46Z</time>
      </trkpt>
      <trkpt lat="46.29338" lon="5.19897">
        <ele>216.6</ele>
        <time>2022-07-21T05:56:49Z</time>
      </trkpt>
      <trkpt lat="46.2933" lon="5.19893">
        <ele>217.4</ele>
        <time>2022-07-21T05:56:51Z</time>
      </trkpt>
      <trkpt lat="46.29325" lon="5.19891">
        <ele>217.8</ele>
        <time>2022-07-21T05:56:52Z</time>
      </trkpt>
      <trkpt lat="46.29321" lon="5.19887">
        <ele>218.2</ele>
        <time>2022-07-21T05:56:53Z</time>
      </trkpt>
      <trkpt lat="46.29314" lon="5.19878">
        <ele>218.6</ele>
        <time>2022-07-21T05:56:55Z</time>
      </trkpt>
      <trkpt lat="46.29311" lon="5.19872">
        <ele>219</ele>
        <time>2022-07-21T05:56:56Z</time>
      </trkpt>
      <trkpt lat="46.29308" lon="5.19866">
        <ele>219.2</ele>
        <time>2022-07-21T05:56:57Z</time>
      </trkpt>
      <trkpt lat="46.293" lon="5.19854">
        <ele>219.6</ele>
        <time>2022-07-21T05:56:59Z</time>
      </trkpt>
      <trkpt lat="46.29296" lon="5.19849">
        <ele>220</ele>
        <time>2022-07-21T05:57:00Z</time>
      </trkpt>
      <trkpt lat="46.29292" lon="5.19844">
        <ele>220.4</ele>
        <time>2022-07-21T05:57:01Z</time>
      </trkpt>
      <trkpt lat="46.29287" lon="5.19841">
        <ele>220.4</ele>
        <time>2022-07-21T05:57:02Z</time>
      </trkpt>
      <trkpt lat="46.29277" lon="5.19837">
        <ele>220.8</ele>
        <time>2022-07-21T05:57:04Z</time>
      </trkpt>
      <trkpt lat="46.29273" lon="5.19835">
        <ele>221.2</ele>
        <time>2022-07-21T05:57:05Z</time>
      </trkpt>
      <trkpt lat="46.29253" lon="5.19833">
        <ele>221.6</ele>
        <time>2022-07-21T05:57:09Z</time>
      </trkpt>
      <trkpt lat="46.29208" lon="5.19839">
        <ele>222.2</ele>
        <time>2022-07-21T05:57:17Z</time>
      </trkpt>
      <trkpt lat="46.2917" lon="5.19851">
        <ele>222.8</ele>
        <time>2022-07-21T05:57:24Z</time>
      </trkpt>
      <trkpt lat="46.29133" lon="5.19863">
        <ele>223.2</ele>
        <time>2022-07-21T05:57:30Z</time>
      </trkpt>
      <trkpt lat="46.29127" lon="5.19864">
        <ele>223.4</ele>
        <time>2022-07-21T05:57:31Z</time>
      </trkpt>
      <trkpt lat="46.29095" lon="5.19864">
        <ele>223.8</ele>
        <time>2022-07-21T05:57:37Z</time>
      </trkpt>
      <trkpt lat="46.29074" lon="5.19861">
        <ele>224.2</ele>
        <time>2022-07-21T05:57:42Z</time>
      </trkpt>
      <trkpt lat="46.2905" lon="5.19858">
        <ele>224.4</ele>
        <time>2022-07-21T05:57:45Z</time>
      </trkpt>
      <trkpt lat="46.29012" lon="5.19849">
        <ele>224.8</ele>
        <time>2022-07-21T05:57:51Z</time>
      </trkpt>
      <trkpt lat="46.28959" lon="5.19835">
        <ele>224.6</ele>
        <time>2022-07-21T05:57:59Z</time>
      </trkpt>
      <trkpt lat="46.2891" lon="5.19823">
        <ele>224.8</ele>
        <time>2022-07-21T05:58:06Z</time>
      </trkpt>
      <trkpt lat="46.28903" lon="5.19823">
        <ele>224.8</ele>
        <time>2022-07-21T05:58:07Z</time>
      </trkpt>
      <trkpt lat="46.28865" lon="5.19835">
        <ele>224.6</ele>
        <time>2022-07-21T05:58:13Z</time>
      </trkpt>
      <trkpt lat="46.28823" lon="5.19862">
        <ele>224.8</ele>
        <time>2022-07-21T05:58:20Z</time>
      </trkpt>
      <trkpt lat="46.28799" lon="5.1989">
        <ele>225.2</ele>
        <time>2022-07-21T05:58:25Z</time>
      </trkpt>
      <trkpt lat="46.28784" lon="5.1991">
        <ele>225.4</ele>
        <time>2022-07-21T05:58:28Z</time>
      </trkpt>
      <trkpt lat="46.28775" lon="5.1992">
        <ele>225.6</ele>
        <time>2022-07-21T05:58:30Z</time>
      </trkpt>
      <trkpt lat="46.28757" lon="5.19933">
        <ele>225.6</ele>
        <time>2022-07-21T05:58:33Z</time>
      </trkpt>
      <trkpt lat="46.28708" lon="5.19954">
        <ele>225.8</ele>
        <time>2022-07-21T05:58:41Z</time>
      </trkpt>
      <trkpt lat="46.28663" lon="5.19968">
        <ele>226.2</ele>
        <time>2022-07-21T05:58:48Z</time>
      </trkpt>
      <trkpt lat="46.2865" lon="5.1997">
        <ele>226.4</ele>
        <time>2022-07-21T05:58:50Z</time>
      </trkpt>
      <trkpt lat="46.28603" lon="5.19974">
        <ele>226.6</ele>
        <time>2022-07-21T05:58:57Z</time>
      </trkpt>
      <trkpt lat="46.28545" lon="5.19977">
        <ele>226.6</ele>
        <time>2022-07-21T05:59:06Z</time>
      </trkpt>
      <trkpt lat="46.28539" lon="5.19977">
        <ele>226.6</ele>
        <time>2022-07-21T05:59:07Z</time>
      </trkpt>
      <trkpt lat="46.28529" lon="5.19974">
        <ele>226.6</ele>
        <time>2022-07-21T05:59:09Z</time>
      </trkpt>
      <trkpt lat="46.28523" lon="5.19974">
        <ele>226.6</ele>
        <time>2022-07-21T05:59:10Z</time>
      </trkpt>
      <trkpt lat="46.28512" lon="5.19976">
        <ele>227</ele>
        <time>2022-07-21T05:59:12Z</time>
      </trkpt>
      <trkpt lat="46.28501" lon="5.19977">
        <ele>227.2</ele>
        <time>2022-07-21T05:59:14Z</time>
      </trkpt>
      <trkpt lat="46.28475" lon="5.19977">
        <ele>227.2</ele>
        <time>2022-07-21T05:59:18Z</time>
      </trkpt>
      <trkpt lat="46.28468" lon="5.19978">
        <ele>227.2</ele>
        <time>2022-07-21T05:59:19Z</time>
      </trkpt>
      <trkpt lat="46.28418" lon="5.19984">
        <ele>227.2</ele>
        <time>2022-07-21T05:59:26Z</time>
      </trkpt>
      <trkpt lat="46.28404" lon="5.19987">
        <ele>227.2</ele>
        <time>2022-07-21T05:59:28Z</time>
      </trkpt>
      <trkpt lat="46.28365" lon="5.19998">
        <ele>227.8</ele>
        <time>2022-07-21T05:59:34Z</time>
      </trkpt>
      <trkpt lat="46.28358" lon="5.20002">
        <ele>227.8</ele>
        <time>2022-07-21T05:59:35Z</time>
      </trkpt>
      <trkpt lat="46.2834" lon="5.20019">
        <ele>227.8</ele>
        <time>2022-07-21T05:59:38Z</time>
      </trkpt>
      <trkpt lat="46.28306" lon="5.20061">
        <ele>227.4</ele>
        <time>2022-07-21T05:59:44Z</time>
      </trkpt>
      <trkpt lat="46.28289" lon="5.20082">
        <ele>227</ele>
        <time>2022-07-21T05:59:47Z</time>
      </trkpt>
      <trkpt lat="46.28276" lon="5.20092">
        <ele>226.6</ele>
        <time>2022-07-21T05:59:49Z</time>
      </trkpt>
      <trkpt lat="46.28259" lon="5.20092">
        <ele>226.4</ele>
        <time>2022-07-21T05:59:51Z</time>
      </trkpt>
      <trkpt lat="46.28253" lon="5.2009">
        <ele>226.4</ele>
        <time>2022-07-21T05:59:52Z</time>
      </trkpt>
      <trkpt lat="46.28238" lon="5.20082">
        <ele>226.4</ele>
        <time>2022-07-21T05:59:54Z</time>
      </trkpt>
      <trkpt lat="46.28219" lon="5.20069">
        <ele>226.4</ele>
        <time>2022-07-21T05:59:57Z</time>
      </trkpt>
      <trkpt lat="46.28176" lon="5.20049">
        <ele>226.4</ele>
        <time>2022-07-21T06:00:03Z</time>
      </trkpt>
      <trkpt lat="46.2814" lon="5.20054">
        <ele>226.4</ele>
        <time>2022-07-21T06:00:08Z</time>
      </trkpt>
      <trkpt lat="46.28085" lon="5.20071">
        <ele>226.8</ele>
        <time>2022-07-21T06:00:16Z</time>
      </trkpt>
      <trkpt lat="46.28064" lon="5.20075">
        <ele>226.8</ele>
        <time>2022-07-21T06:00:19Z</time>
      </trkpt>
      <trkpt lat="46.28021" lon="5.20088">
        <ele>227</ele>
        <time>2022-07-21T06:00:25Z</time>
      </trkpt>
      <trkpt lat="46.27965" lon="5.2012">
        <ele>226.8</ele>
        <time>2022-07-21T06:00:33Z</time>
      </trkpt>
      <trkpt lat="46.27921" lon="5.20144">
        <ele>226.2</ele>
        <time>2022-07-21T06:00:39Z</time>
      </trkpt>
      <trkpt lat="46.27913" lon="5.20151">
        <ele>226</ele>
        <time>2022-07-21T06:00:40Z</time>
      </trkpt>
      <trkpt lat="46.27884" lon="5.20183">
        <ele>225.8</ele>
        <time>2022-07-21T06:00:45Z</time>
      </trkpt>
      <trkpt lat="46.27839" lon="5.20239">
        <ele>226</ele>
        <time>2022-07-21T06:00:53Z</time>
      </trkpt>
      <trkpt lat="46.27821" lon="5.2026">
        <ele>226</ele>
        <time>2022-07-21T06:00:56Z</time>
      </trkpt>
      <trkpt lat="46.27776" lon="5.20314">
        <ele>225.6</ele>
        <time>2022-07-21T06:01:04Z</time>
      </trkpt>
      <trkpt lat="46.27758" lon="5.20331">
        <ele>225.8</ele>
        <time>2022-07-21T06:01:07Z</time>
      </trkpt>
      <trkpt lat="46.27746" lon="5.20337">
        <ele>225.8</ele>
        <time>2022-07-21T06:01:09Z</time>
      </trkpt>
      <trkpt lat="46.27695" lon="5.20357">
        <ele>226.4</ele>
        <time>2022-07-21T06:01:17Z</time>
      </trkpt>
      <trkpt lat="46.27642" lon="5.20375">
        <ele>226.8</ele>
        <time>2022-07-21T06:01:25Z</time>
      </trkpt>
      <trkpt lat="46.27633" lon="5.20377">
        <ele>226.8</ele>
        <time>2022-07-21T06:01:26Z</time>
      </trkpt>
      <trkpt lat="46.27585" lon="5.20385">
        <ele>226.4</ele>
        <time>2022-07-21T06:01:33Z</time>
      </trkpt>
      <trkpt lat="46.27558" lon="5.20401">
        <ele>226.2</ele>
        <time>2022-07-21T06:01:37Z</time>
      </trkpt>
      <trkpt lat="46.27509" lon="5.20447">
        <ele>225.6</ele>
        <time>2022-07-21T06:01:45Z</time>
      </trkpt>
      <trkpt lat="46.27472" lon="5.20478">
        <ele>225.4</ele>
        <time>2022-07-21T06:01:51Z</time>
      </trkpt>
      <trkpt lat="46.27466" lon="5.20482">
        <ele>225.4</ele>
        <time>2022-07-21T06:01:52Z</time>
      </trkpt>
      <trkpt lat="46.27457" lon="5.20484">
        <ele>225.4</ele>
        <time>2022-07-21T06:01:53Z</time>
      </trkpt>
      <trkpt lat="46.27435" lon="5.20483">
        <ele>225.4</ele>
        <time>2022-07-21T06:01:56Z</time>
      </trkpt>
      <trkpt lat="46.27421" lon="5.20478">
        <ele>225.4</ele>
        <time>2022-07-21T06:01:58Z</time>
      </trkpt>
      <trkpt lat="46.27407" lon="5.20469">
        <ele>225.2</ele>
        <time>2022-07-21T06:02:00Z</time>
      </trkpt>
      <trkpt lat="46.27407" lon="5.20469">
        <ele>225</ele>
        <time>2022-07-21T06:02:01Z</time>
      </trkpt>
      <trkpt lat="46.2736" lon="5.20437">
        <ele>224</ele>
        <time>2022-07-21T06:02:07Z</time>
      </trkpt>
      <trkpt lat="46.27323" lon="5.20424">
        <ele>223.6</ele>
        <time>2022-07-21T06:02:12Z</time>
      </trkpt>
      <trkpt lat="46.27316" lon="5.20423">
        <ele>223.4</ele>
        <time>2022-07-21T06:02:13Z</time>
      </trkpt>
      <trkpt lat="46.27309" lon="5.2042">
        <ele>223.2</ele>
        <time>2022-07-21T06:02:14Z</time>
      </trkpt>
      <trkpt lat="46.27303" lon="5.20417">
        <ele>222.8</ele>
        <time>2022-07-21T06:02:15Z</time>
      </trkpt>
      <trkpt lat="46.27288" lon="5.20408">
        <ele>222</ele>
        <time>2022-07-21T06:02:17Z</time>
      </trkpt>
      <trkpt lat="46.2728" lon="5.20405">
        <ele>221.6</ele>
        <time>2022-07-21T06:02:18Z</time>
      </trkpt>
      <trkpt lat="46.27254" lon="5.20401">
        <ele>221.2</ele>
        <time>2022-07-21T06:02:21Z</time>
      </trkpt>
      <trkpt lat="46.27236" lon="5.20397">
        <ele>220.4</ele>
        <time>2022-07-21T06:02:23Z</time>
      </trkpt>
      <trkpt lat="46.27218" lon="5.20393">
        <ele>219.4</ele>
        <time>2022-07-21T06:02:26Z</time>
      </trkpt>
      <trkpt lat="46.272" lon="5.20387">
        <ele>218.4</ele>
        <time>2022-07-21T06:02:27Z</time>
      </trkpt>
      <trkpt lat="46.27188" lon="5.20381">
        <ele>218</ele>
        <time>2022-07-21T06:02:28Z</time>
      </trkpt>
      <trkpt lat="46.27178" lon="5.20374">
        <ele>216.6</ele>
        <time>2022-07-21T06:02:29Z</time>
      </trkpt>
      <trkpt lat="46.27169" lon="5.20365">
        <ele>215.8</ele>
        <time>2022-07-21T06:02:30Z</time>
      </trkpt>
      <trkpt lat="46.2716" lon="5.20355">
        <ele>215</ele>
        <time>2022-07-21T06:02:31Z</time>
      </trkpt>
      <trkpt lat="46.2715" lon="5.20347">
        <ele>214.2</ele>
        <time>2022-07-21T06:02:32Z</time>
      </trkpt>
      <trkpt lat="46.2714" lon="5.20341">
        <ele>213.8</ele>
        <time>2022-07-21T06:02:33Z</time>
      </trkpt>
      <trkpt lat="46.2713" lon="5.20335">
        <ele>212.4</ele>
        <time>2022-07-21T06:02:35Z</time>
      </trkpt>
      <trkpt lat="46.27111" lon="5.20319">
        <ele>211.6</ele>
        <time>2022-07-21T06:02:36Z</time>
      </trkpt>
      <trkpt lat="46.27103" lon="5.20309">
        <ele>211.2</ele>
        <time>2022-07-21T06:02:37Z</time>
      </trkpt>
      <trkpt lat="46.27096" lon="5.20297">
        <ele>210.6</ele>
        <time>2022-07-21T06:02:38Z</time>
      </trkpt>
      <trkpt lat="46.27091" lon="5.20283">
        <ele>210</ele>
        <time>2022-07-21T06:02:39Z</time>
      </trkpt>
      <trkpt lat="46.27088" lon="5.20269">
        <ele>209.8</ele>
        <time>2022-07-21T06:02:40Z</time>
      </trkpt>
      <trkpt lat="46.2708" lon="5.20226">
        <ele>208.4</ele>
        <time>2022-07-21T06:02:43Z</time>
      </trkpt>
      <trkpt lat="46.27069" lon="5.20187">
        <ele>207.4</ele>
        <time>2022-07-21T06:02:46Z</time>
      </trkpt>
      <trkpt lat="46.27064" lon="5.20176">
        <ele>207.2</ele>
        <time>2022-07-21T06:02:47Z</time>
      </trkpt>
      <trkpt lat="46.27033" lon="5.20106">
        <ele>206.4</ele>
        <time>2022-07-21T06:02:53Z</time>
      </trkpt>
      <trkpt lat="46.27028" lon="5.20095">
        <ele>206.2</ele>
        <time>2022-07-21T06:02:54Z</time>
      </trkpt>
      <trkpt lat="46.27021" lon="5.20086">
        <ele>206.2</ele>
        <time>2022-07-21T06:02:55Z</time>
      </trkpt>
      <trkpt lat="46.27013" lon="5.2008">
        <ele>206</ele>
        <time>2022-07-21T06:02:56Z</time>
      </trkpt>
      <trkpt lat="46.26979" lon="5.20068">
        <ele>205.8</ele>
        <time>2022-07-21T06:03:00Z</time>
      </trkpt>
      <trkpt lat="46.26935" lon="5.20042">
        <ele>206</ele>
        <time>2022-07-21T06:03:06Z</time>
      </trkpt>
      <trkpt lat="46.2692" lon="5.20035">
        <ele>206.2</ele>
        <time>2022-07-21T06:03:08Z</time>
      </trkpt>
      <trkpt lat="46.26904" lon="5.20033">
        <ele>206</ele>
        <time>2022-07-21T06:03:10Z</time>
      </trkpt>
      <trkpt lat="46.2688" lon="5.20031">
        <ele>206.4</ele>
        <time>2022-07-21T06:03:13Z</time>
      </trkpt>
      <trkpt lat="46.26863" lon="5.20026">
        <ele>206.2</ele>
        <time>2022-07-21T06:03:15Z</time>
      </trkpt>
      <trkpt lat="46.26807" lon="5.20006">
        <ele>206.2</ele>
        <time>2022-07-21T06:03:22Z</time>
      </trkpt>
      <trkpt lat="46.26799" lon="5.20005">
        <ele>206.2</ele>
        <time>2022-07-21T06:03:23Z</time>
      </trkpt>
      <trkpt lat="46.26742" lon="5.19999">
        <ele>206.2</ele>
        <time>2022-07-21T06:03:30Z</time>
      </trkpt>
      <trkpt lat="46.26734" lon="5.19999">
        <ele>206.2</ele>
        <time>2022-07-21T06:03:31Z</time>
      </trkpt>
      <trkpt lat="46.26679" lon="5.2">
        <ele>206.2</ele>
        <time>2022-07-21T06:03:38Z</time>
      </trkpt>
      <trkpt lat="46.26616" lon="5.19999">
        <ele>206</ele>
        <time>2022-07-21T06:03:46Z</time>
      </trkpt>
      <trkpt lat="46.26601" lon="5.19998">
        <ele>206</ele>
        <time>2022-07-21T06:03:48Z</time>
      </trkpt>
      <trkpt lat="46.2655" lon="5.19988">
        <ele>206.4</ele>
        <time>2022-07-21T06:03:55Z</time>
      </trkpt>
      <trkpt lat="46.26539" lon="5.19982">
        <ele>206.6</ele>
        <time>2022-07-21T06:03:57Z</time>
      </trkpt>
      <trkpt lat="46.26529" lon="5.19972">
        <ele>207</ele>
        <time>2022-07-21T06:03:59Z</time>
      </trkpt>
      <trkpt lat="46.26525" lon="5.19967">
        <ele>207.4</ele>
        <time>2022-07-21T06:04:00Z</time>
      </trkpt>
      <trkpt lat="46.26522" lon="5.19961">
        <ele>208.2</ele>
        <time>2022-07-21T06:04:01Z</time>
      </trkpt>
      <trkpt lat="46.26517" lon="5.19949">
        <ele>208.8</ele>
        <time>2022-07-21T06:04:03Z</time>
      </trkpt>
      <trkpt lat="46.26514" lon="5.19943">
        <ele>209.2</ele>
        <time>2022-07-21T06:04:04Z</time>
      </trkpt>
      <trkpt lat="46.26509" lon="5.19923">
        <ele>210</ele>
        <time>2022-07-21T06:04:07Z</time>
      </trkpt>
      <trkpt lat="46.26507" lon="5.1991">
        <ele>210.6</ele>
        <time>2022-07-21T06:04:09Z</time>
      </trkpt>
      <trkpt lat="46.26507" lon="5.19904">
        <ele>211.2</ele>
        <time>2022-07-21T06:04:10Z</time>
      </trkpt>
      <trkpt lat="46.26506" lon="5.19899">
        <ele>211.4</ele>
        <time>2022-07-21T06:04:11Z</time>
      </trkpt>
      <trkpt lat="46.26499" lon="5.19889">
        <ele>212.2</ele>
        <time>2022-07-21T06:04:14Z</time>
      </trkpt>
      <trkpt lat="46.26492" lon="5.19887">
        <ele>212.4</ele>
        <time>2022-07-21T06:04:16Z</time>
      </trkpt>
      <trkpt lat="46.26488" lon="5.19889">
        <ele>212.6</ele>
        <time>2022-07-21T06:04:17Z</time>
      </trkpt>
      <trkpt lat="46.26478" lon="5.19895">
        <ele>212.8</ele>
        <time>2022-07-21T06:04:19Z</time>
      </trkpt>
      <trkpt lat="46.26465" lon="5.19908">
        <ele>212.8</ele>
        <time>2022-07-21T06:04:22Z</time>
      </trkpt>
      <trkpt lat="46.26433" lon="5.19933">
        <ele>213.2</ele>
        <time>2022-07-21T06:04:28Z</time>
      </trkpt>
      <trkpt lat="46.26386" lon="5.19968">
        <ele>212.8</ele>
        <time>2022-07-21T06:04:36Z</time>
      </trkpt>
      <trkpt lat="46.26348" lon="5.20007">
        <ele>211.8</ele>
        <time>2022-07-21T06:04:42Z</time>
      </trkpt>
      <trkpt lat="46.26335" lon="5.20025">
        <ele>211.4</ele>
        <time>2022-07-21T06:04:44Z</time>
      </trkpt>
      <trkpt lat="46.26321" lon="5.20044">
        <ele>210.2</ele>
        <time>2022-07-21T06:04:46Z</time>
      </trkpt>
      <trkpt lat="46.26306" lon="5.20061">
        <ele>209.4</ele>
        <time>2022-07-21T06:04:48Z</time>
      </trkpt>
      <trkpt lat="46.26299" lon="5.20069">
        <ele>209</ele>
        <time>2022-07-21T06:04:49Z</time>
      </trkpt>
      <trkpt lat="46.26268" lon="5.20094">
        <ele>208</ele>
        <time>2022-07-21T06:04:53Z</time>
      </trkpt>
      <trkpt lat="46.26244" lon="5.20109">
        <ele>207</ele>
        <time>2022-07-21T06:04:56Z</time>
      </trkpt>
      <trkpt lat="46.26212" lon="5.20126">
        <ele>206.6</ele>
        <time>2022-07-21T06:05:00Z</time>
      </trkpt>
      <trkpt lat="46.26159" lon="5.20155">
        <ele>206</ele>
        <time>2022-07-21T06:05:07Z</time>
      </trkpt>
      <trkpt lat="46.26111" lon="5.20181">
        <ele>206.4</ele>
        <time>2022-07-21T06:05:14Z</time>
      </trkpt>
      <trkpt lat="46.26058" lon="5.20211">
        <ele>207</ele>
        <time>2022-07-21T06:05:22Z</time>
      </trkpt>
      <trkpt lat="46.26015" lon="5.20243">
        <ele>207.2</ele>
        <time>2022-07-21T06:05:29Z</time>
      </trkpt>
      <trkpt lat="46.25967" lon="5.20281">
        <ele>207.8</ele>
        <time>2022-07-21T06:05:37Z</time>
      </trkpt>
      <trkpt lat="46.25954" lon="5.20292">
        <ele>208</ele>
        <time>2022-07-21T06:05:39Z</time>
      </trkpt>
      <trkpt lat="46.25947" lon="5.20298">
        <ele>208</ele>
        <time>2022-07-21T06:05:40Z</time>
      </trkpt>
      <trkpt lat="46.25899" lon="5.20344">
        <ele>207.4</ele>
        <time>2022-07-21T06:05:47Z</time>
      </trkpt>
      <trkpt lat="46.25886" lon="5.20356">
        <ele>207</ele>
        <time>2022-07-21T06:05:49Z</time>
      </trkpt>
      <trkpt lat="46.25853" lon="5.20385">
        <ele>206.2</ele>
        <time>2022-07-21T06:05:54Z</time>
      </trkpt>
      <trkpt lat="46.25817" lon="5.20421">
        <ele>206.8</ele>
        <time>2022-07-21T06:06:00Z</time>
      </trkpt>
      <trkpt lat="46.25788" lon="5.20453">
        <ele>207.2</ele>
        <time>2022-07-21T06:06:05Z</time>
      </trkpt>
      <trkpt lat="46.25781" lon="5.20456">
        <ele>207.2</ele>
        <time>2022-07-21T06:06:06Z</time>
      </trkpt>
      <trkpt lat="46.25775" lon="5.20457">
        <ele>207.2</ele>
        <time>2022-07-21T06:06:07Z</time>
      </trkpt>
      <trkpt lat="46.25758" lon="5.20455">
        <ele>207.4</ele>
        <time>2022-07-21T06:06:09Z</time>
      </trkpt>
      <trkpt lat="46.25713" lon="5.20444">
        <ele>207.2</ele>
        <time>2022-07-21T06:06:15Z</time>
      </trkpt>
      <trkpt lat="46.25661" lon="5.20436">
        <ele>207</ele>
        <time>2022-07-21T06:06:22Z</time>
      </trkpt>
      <trkpt lat="46.25619" lon="5.2044">
        <ele>207</ele>
        <time>2022-07-21T06:06:28Z</time>
      </trkpt>
      <trkpt lat="46.25571" lon="5.20459">
        <ele>207</ele>
        <time>2022-07-21T06:06:35Z</time>
      </trkpt>
      <trkpt lat="46.25558" lon="5.20465">
        <ele>207</ele>
        <time>2022-07-21T06:06:37Z</time>
      </trkpt>
      <trkpt lat="46.25536" lon="5.2047">
        <ele>207</ele>
        <time>2022-07-21T06:06:40Z</time>
      </trkpt>
      <trkpt lat="46.25479" lon="5.20487">
        <ele>207</ele>
        <time>2022-07-21T06:06:48Z</time>
      </trkpt>
      <trkpt lat="46.25471" lon="5.2049">
        <ele>207.2</ele>
        <time>2022-07-21T06:06:49Z</time>
      </trkpt>
      <trkpt lat="46.25414" lon="5.20512">
        <ele>207.6</ele>
        <time>2022-07-21T06:06:57Z</time>
      </trkpt>
      <trkpt lat="46.25399" lon="5.20517">
        <ele>207.6</ele>
        <time>2022-07-21T06:06:59Z</time>
      </trkpt>
      <trkpt lat="46.25376" lon="5.2052">
        <ele>207.8</ele>
        <time>2022-07-21T06:07:02Z</time>
      </trkpt>
      <trkpt lat="46.25361" lon="5.20521">
        <ele>207.8</ele>
        <time>2022-07-21T06:07:04Z</time>
      </trkpt>
      <trkpt lat="46.25331" lon="5.20523">
        <ele>208.2</ele>
        <time>2022-07-21T06:07:08Z</time>
      </trkpt>
      <trkpt lat="46.25294" lon="5.20524">
        <ele>208.6</ele>
        <time>2022-07-21T06:07:13Z</time>
      </trkpt>
      <trkpt lat="46.2528" lon="5.20523">
        <ele>208.8</ele>
        <time>2022-07-21T06:07:15Z</time>
      </trkpt>
      <trkpt lat="46.25257" lon="5.20519">
        <ele>209</ele>
        <time>2022-07-21T06:07:18Z</time>
      </trkpt>
      <trkpt lat="46.2525" lon="5.20516">
        <ele>209</ele>
        <time>2022-07-21T06:07:19Z</time>
      </trkpt>
      <trkpt lat="46.25204" lon="5.2049">
        <ele>208.6</ele>
        <time>2022-07-21T06:07:26Z</time>
      </trkpt>
      <trkpt lat="46.25171" lon="5.20483">
        <ele>208.6</ele>
        <time>2022-07-21T06:07:31Z</time>
      </trkpt>
      <trkpt lat="46.25131" lon="5.20495">
        <ele>209</ele>
        <time>2022-07-21T06:07:37Z</time>
      </trkpt>
      <trkpt lat="46.25085" lon="5.20523">
        <ele>209</ele>
        <time>2022-07-21T06:07:44Z</time>
      </trkpt>
      <trkpt lat="46.25044" lon="5.2055">
        <ele>208.8</ele>
        <time>2022-07-21T06:07:51Z</time>
      </trkpt>
      <trkpt lat="46.25019" lon="5.20564">
        <ele>209</ele>
        <time>2022-07-21T06:07:57Z</time>
      </trkpt>
      <trkpt lat="46.25004" lon="5.20573">
        <ele>209.4</ele>
        <time>2022-07-21T06:08:02Z</time>
      </trkpt>
      <trkpt lat="46.24998" lon="5.20575">
        <ele>209.4</ele>
        <time>2022-07-21T06:08:07Z</time>
      </trkpt>
      <trkpt lat="46.24995" lon="5.20579">
        <ele>209.4</ele>
        <time>2022-07-21T06:08:12Z</time>
      </trkpt>
      <trkpt lat="46.24993" lon="5.20587">
        <ele>209.6</ele>
        <time>2022-07-21T06:08:14Z</time>
      </trkpt>
      <trkpt lat="46.24994" lon="5.20593">
        <ele>209.6</ele>
        <time>2022-07-21T06:08:15Z</time>
      </trkpt>
      <trkpt lat="46.24996" lon="5.20605">
        <ele>209.6</ele>
        <time>2022-07-21T06:08:17Z</time>
      </trkpt>
      <trkpt lat="46.24999" lon="5.20611">
        <ele>209.6</ele>
        <time>2022-07-21T06:08:18Z</time>
      </trkpt>
      <trkpt lat="46.25011" lon="5.20639">
        <ele>209.6</ele>
        <time>2022-07-21T06:08:22Z</time>
      </trkpt>
      <trkpt lat="46.25035" lon="5.20682">
        <ele>209.4</ele>
        <time>2022-07-21T06:08:28Z</time>
      </trkpt>
      <trkpt lat="46.2507" lon="5.20752">
        <ele>209.4</ele>
        <time>2022-07-21T06:08:37Z</time>
      </trkpt>
      <trkpt lat="46.25074" lon="5.2076">
        <ele>209.4</ele>
        <time>2022-07-21T06:08:38Z</time>
      </trkpt>
      <trkpt lat="46.25097" lon="5.20832">
        <ele>209.2</ele>
        <time>2022-07-21T06:08:46Z</time>
      </trkpt>
      <trkpt lat="46.25115" lon="5.20905">
        <ele>209.4</ele>
        <time>2022-07-21T06:08:54Z</time>
      </trkpt>
      <trkpt lat="46.25117" lon="5.20915">
        <ele>209.4</ele>
        <time>2022-07-21T06:08:55Z</time>
      </trkpt>
      <trkpt lat="46.25138" lon="5.20975">
        <ele>208.8</ele>
        <time>2022-07-21T06:09:02Z</time>
      </trkpt>
      <trkpt lat="46.25171" lon="5.21047">
        <ele>208.8</ele>
        <time>2022-07-21T06:09:11Z</time>
      </trkpt>
      <trkpt lat="46.25191" lon="5.21095">
        <ele>209</ele>
        <time>2022-07-21T06:09:17Z</time>
      </trkpt>
      <trkpt lat="46.25194" lon="5.21103">
        <ele>209</ele>
        <time>2022-07-21T06:09:18Z</time>
      </trkpt>
      <trkpt lat="46.25196" lon="5.21111">
        <ele>209</ele>
        <time>2022-07-21T06:09:19Z</time>
      </trkpt>
      <trkpt lat="46.25199" lon="5.21128">
        <ele>209.2</ele>
        <time>2022-07-21T06:09:21Z</time>
      </trkpt>
      <trkpt lat="46.25205" lon="5.21143">
        <ele>209.4</ele>
        <time>2022-07-21T06:09:23Z</time>
      </trkpt>
      <trkpt lat="46.25216" lon="5.21162">
        <ele>209.4</ele>
        <time>2022-07-21T06:09:26Z</time>
      </trkpt>
      <trkpt lat="46.2522" lon="5.2117">
        <ele>209.4</ele>
        <time>2022-07-21T06:09:27Z</time>
      </trkpt>
      <trkpt lat="46.25236" lon="5.21221">
        <ele>209.4</ele>
        <time>2022-07-21T06:09:33Z</time>
      </trkpt>
      <trkpt lat="46.25255" lon="5.21293">
        <ele>209</ele>
        <time>2022-07-21T06:09:41Z</time>
      </trkpt>
      <trkpt lat="46.25275" lon="5.21368">
        <ele>209.8</ele>
        <time>2022-07-21T06:09:50Z</time>
      </trkpt>
      <trkpt lat="46.25277" lon="5.21376">
        <ele>210</ele>
        <time>2022-07-21T06:09:51Z</time>
      </trkpt>
      <trkpt lat="46.25285" lon="5.21421">
        <ele>210.8</ele>
        <time>2022-07-21T06:09:57Z</time>
      </trkpt>
      <trkpt lat="46.25286" lon="5.21429">
        <ele>211</ele>
        <time>2022-07-21T06:09:58Z</time>
      </trkpt>
      <trkpt lat="46.25291" lon="5.21463">
        <ele>212.2</ele>
        <time>2022-07-21T06:10:03Z</time>
      </trkpt>
      <trkpt lat="46.25294" lon="5.21483">
        <ele>212.4</ele>
        <time>2022-07-21T06:10:06Z</time>
      </trkpt>
      <trkpt lat="46.25297" lon="5.215">
        <ele>213.4</ele>
        <time>2022-07-21T06:10:09Z</time>
      </trkpt>
      <trkpt lat="46.25299" lon="5.21511">
        <ele>213.8</ele>
        <time>2022-07-21T06:10:11Z</time>
      </trkpt>
      <trkpt lat="46.253" lon="5.21516">
        <ele>214.4</ele>
        <time>2022-07-21T06:10:12Z</time>
      </trkpt>
      <trkpt lat="46.25301" lon="5.2152">
        <ele>214.6</ele>
        <time>2022-07-21T06:10:13Z</time>
      </trkpt>
      <trkpt lat="46.25304" lon="5.21534">
        <ele>215.6</ele>
        <time>2022-07-21T06:10:17Z</time>
      </trkpt>
      <trkpt lat="46.25304" lon="5.21537">
        <ele>215.8</ele>
        <time>2022-07-21T06:10:18Z</time>
      </trkpt>
      <trkpt lat="46.25305" lon="5.21539">
        <ele>216.6</ele>
        <time>2022-07-21T06:10:21Z</time>
      </trkpt>
      <trkpt lat="46.25305" lon="5.21544">
        <ele>217.2</ele>
        <time>2022-07-21T06:10:56Z</time>
      </trkpt>
      <trkpt lat="46.25308" lon="5.21554">
        <ele>217.4</ele>
        <time>2022-07-21T06:10:59Z</time>
      </trkpt>
      <trkpt lat="46.25315" lon="5.21575">
        <ele>217.8</ele>
        <time>2022-07-21T06:11:04Z</time>
      </trkpt>
      <trkpt lat="46.25321" lon="5.21588">
        <ele>218.4</ele>
        <time>2022-07-21T06:11:07Z</time>
      </trkpt>
      <trkpt lat="46.25325" lon="5.21598">
        <ele>218.8</ele>
        <time>2022-07-21T06:11:09Z</time>
      </trkpt>
      <trkpt lat="46.2533" lon="5.21612">
        <ele>219.4</ele>
        <time>2022-07-21T06:11:12Z</time>
      </trkpt>
      <trkpt lat="46.25337" lon="5.21632">
        <ele>220.4</ele>
        <time>2022-07-21T06:11:16Z</time>
      </trkpt>
      <trkpt lat="46.2534" lon="5.21645">
        <ele>220.8</ele>
        <time>2022-07-21T06:11:18Z</time>
      </trkpt>
      <trkpt lat="46.25346" lon="5.21667">
        <ele>221.2</ele>
        <time>2022-07-21T06:11:21Z</time>
      </trkpt>
      <trkpt lat="46.25359" lon="5.21714">
        <ele>221.2</ele>
        <time>2022-07-21T06:11:27Z</time>
      </trkpt>
      <trkpt lat="46.25364" lon="5.21731">
        <ele>221.2</ele>
        <time>2022-07-21T06:11:29Z</time>
      </trkpt>
      <trkpt lat="46.25372" lon="5.21748">
        <ele>221</ele>
        <time>2022-07-21T06:11:31Z</time>
      </trkpt>
      <trkpt lat="46.25378" lon="5.21756">
        <ele>220.8</ele>
        <time>2022-07-21T06:11:32Z</time>
      </trkpt>
      <trkpt lat="46.25388" lon="5.21767">
        <ele>220.6</ele>
        <time>2022-07-21T06:11:34Z</time>
      </trkpt>
      <trkpt lat="46.25401" lon="5.21776">
        <ele>219.8</ele>
        <time>2022-07-21T06:11:36Z</time>
      </trkpt>
      <trkpt lat="46.25408" lon="5.21781">
        <ele>219.4</ele>
        <time>2022-07-21T06:11:37Z</time>
      </trkpt>
      <trkpt lat="46.2545" lon="5.21807">
        <ele>218.8</ele>
        <time>2022-07-21T06:11:43Z</time>
      </trkpt>
      <trkpt lat="46.25484" lon="5.21832">
        <ele>218.4</ele>
        <time>2022-07-21T06:11:48Z</time>
      </trkpt>
      <trkpt lat="46.25499" lon="5.21842">
        <ele>217.8</ele>
        <time>2022-07-21T06:11:50Z</time>
      </trkpt>
      <trkpt lat="46.25533" lon="5.21873">
        <ele>216.8</ele>
        <time>2022-07-21T06:11:55Z</time>
      </trkpt>
      <trkpt lat="46.25539" lon="5.21881">
        <ele>217</ele>
        <time>2022-07-21T06:11:56Z</time>
      </trkpt>
      <trkpt lat="46.25565" lon="5.21932">
        <ele>216</ele>
        <time>2022-07-21T06:12:02Z</time>
      </trkpt>
      <trkpt lat="46.25569" lon="5.21942">
        <ele>215.8</ele>
        <time>2022-07-21T06:12:03Z</time>
      </trkpt>
      <trkpt lat="46.25589" lon="5.22002">
        <ele>214.8</ele>
        <time>2022-07-21T06:12:09Z</time>
      </trkpt>
      <trkpt lat="46.25598" lon="5.22056">
        <ele>213.6</ele>
        <time>2022-07-21T06:12:14Z</time>
      </trkpt>
      <trkpt lat="46.25604" lon="5.2209">
        <ele>213.2</ele>
        <time>2022-07-21T06:12:17Z</time>
      </trkpt>
      <trkpt lat="46.25617" lon="5.22174">
        <ele>212.8</ele>
        <time>2022-07-21T06:12:25Z</time>
      </trkpt>
      <trkpt lat="46.2563" lon="5.22251">
        <ele>213.2</ele>
        <time>2022-07-21T06:12:33Z</time>
      </trkpt>
      <trkpt lat="46.25635" lon="5.22283">
        <ele>213.6</ele>
        <time>2022-07-21T06:12:36Z</time>
      </trkpt>
      <trkpt lat="46.25643" lon="5.22315">
        <ele>213.8</ele>
        <time>2022-07-21T06:12:39Z</time>
      </trkpt>
      <trkpt lat="46.25666" lon="5.22379">
        <ele>213.4</ele>
        <time>2022-07-21T06:12:46Z</time>
      </trkpt>
      <trkpt lat="46.25679" lon="5.22417">
        <ele>214.2</ele>
        <time>2022-07-21T06:12:51Z</time>
      </trkpt>
      <trkpt lat="46.25683" lon="5.22431">
        <ele>214.8</ele>
        <time>2022-07-21T06:12:53Z</time>
      </trkpt>
      <trkpt lat="46.25686" lon="5.22438">
        <ele>215.2</ele>
        <time>2022-07-21T06:12:54Z</time>
      </trkpt>
      <trkpt lat="46.2569" lon="5.22451">
        <ele>215.6</ele>
        <time>2022-07-21T06:12:56Z</time>
      </trkpt>
      <trkpt lat="46.25692" lon="5.22458">
        <ele>216</ele>
        <time>2022-07-21T06:12:57Z</time>
      </trkpt>
      <trkpt lat="46.25697" lon="5.22479">
        <ele>216.6</ele>
        <time>2022-07-21T06:13:00Z</time>
      </trkpt>
      <trkpt lat="46.25698" lon="5.22486">
        <ele>217.2</ele>
        <time>2022-07-21T06:13:01Z</time>
      </trkpt>
      <trkpt lat="46.25701" lon="5.22517">
        <ele>218.4</ele>
        <time>2022-07-21T06:13:05Z</time>
      </trkpt>
      <trkpt lat="46.25704" lon="5.22547">
        <ele>219.4</ele>
        <time>2022-07-21T06:13:09Z</time>
      </trkpt>
      <trkpt lat="46.25709" lon="5.22588">
        <ele>219.8</ele>
        <time>2022-07-21T06:13:14Z</time>
      </trkpt>
      <trkpt lat="46.25711" lon="5.2262">
        <ele>220.6</ele>
        <time>2022-07-21T06:13:18Z</time>
      </trkpt>
      <trkpt lat="46.25712" lon="5.22653">
        <ele>220.8</ele>
        <time>2022-07-21T06:13:22Z</time>
      </trkpt>
      <trkpt lat="46.2571" lon="5.22669">
        <ele>221.2</ele>
        <time>2022-07-21T06:13:24Z</time>
      </trkpt>
      <trkpt lat="46.25706" lon="5.22692">
        <ele>221.6</ele>
        <time>2022-07-21T06:13:27Z</time>
      </trkpt>
      <trkpt lat="46.25702" lon="5.22705">
        <ele>222</ele>
        <time>2022-07-21T06:13:29Z</time>
      </trkpt>
      <trkpt lat="46.25696" lon="5.22722">
        <ele>222.6</ele>
        <time>2022-07-21T06:13:32Z</time>
      </trkpt>
      <trkpt lat="46.2568" lon="5.22768">
        <ele>223.8</ele>
        <time>2022-07-21T06:13:39Z</time>
      </trkpt>
      <trkpt lat="46.25665" lon="5.22815">
        <ele>224</ele>
        <time>2022-07-21T06:13:45Z</time>
      </trkpt>
      <trkpt lat="46.25644" lon="5.22879">
        <ele>223.8</ele>
        <time>2022-07-21T06:13:53Z</time>
      </trkpt>
      <trkpt lat="46.25627" lon="5.2293">
        <ele>223.6</ele>
        <time>2022-07-21T06:13:59Z</time>
      </trkpt>
      <trkpt lat="46.25617" lon="5.22961">
        <ele>223.6</ele>
        <time>2022-07-21T06:14:03Z</time>
      </trkpt>
      <trkpt lat="46.25614" lon="5.22967">
        <ele>223.6</ele>
        <time>2022-07-21T06:14:04Z</time>
      </trkpt>
      <trkpt lat="46.25607" lon="5.22977">
        <ele>223.6</ele>
        <time>2022-07-21T06:14:07Z</time>
      </trkpt>
      <trkpt lat="46.2559" lon="5.2298">
        <ele>224.8</ele>
        <time>2022-07-21T06:14:11Z</time>
      </trkpt>
      <trkpt lat="46.25563" lon="5.2298">
        <ele>225.4</ele>
        <time>2022-07-21T06:14:16Z</time>
      </trkpt>
      <trkpt lat="46.25546" lon="5.22982">
        <ele>225.8</ele>
        <time>2022-07-21T06:14:19Z</time>
      </trkpt>
      <trkpt lat="46.25523" lon="5.22986">
        <ele>226.8</ele>
        <time>2022-07-21T06:14:23Z</time>
      </trkpt>
      <trkpt lat="46.25518" lon="5.22987">
        <ele>227</ele>
        <time>2022-07-21T06:14:24Z</time>
      </trkpt>
      <trkpt lat="46.25492" lon="5.2299">
        <ele>228.2</ele>
        <time>2022-07-21T06:14:29Z</time>
      </trkpt>
      <trkpt lat="46.25464" lon="5.22993">
        <ele>229.4</ele>
        <time>2022-07-21T06:14:34Z</time>
      </trkpt>
      <trkpt lat="46.2542" lon="5.23">
        <ele>230.2</ele>
        <time>2022-07-21T06:14:41Z</time>
      </trkpt>
      <trkpt lat="46.25372" lon="5.23008">
        <ele>230.4</ele>
        <time>2022-07-21T06:14:48Z</time>
      </trkpt>
      <trkpt lat="46.25312" lon="5.23018">
        <ele>230</ele>
        <time>2022-07-21T06:14:57Z</time>
      </trkpt>
      <trkpt lat="46.25255" lon="5.23026">
        <ele>230.4</ele>
        <time>2022-07-21T06:15:06Z</time>
      </trkpt>
      <trkpt lat="46.25247" lon="5.23027">
        <ele>230.4</ele>
        <time>2022-07-21T06:15:07Z</time>
      </trkpt>
      <trkpt lat="46.25191" lon="5.23037">
        <ele>230.2</ele>
        <time>2022-07-21T06:15:15Z</time>
      </trkpt>
      <trkpt lat="46.25169" lon="5.23042">
        <ele>229.6</ele>
        <time>2022-07-21T06:15:18Z</time>
      </trkpt>
      <trkpt lat="46.25148" lon="5.23045">
        <ele>229.2</ele>
        <time>2022-07-21T06:15:21Z</time>
      </trkpt>
      <trkpt lat="46.25115" lon="5.23047">
        <ele>228.4</ele>
        <time>2022-07-21T06:15:25Z</time>
      </trkpt>
      <trkpt lat="46.25105" lon="5.23047">
        <ele>228</ele>
        <time>2022-07-21T06:15:26Z</time>
      </trkpt>
      <trkpt lat="46.25056" lon="5.23042">
        <ele>226.6</ele>
        <time>2022-07-21T06:15:31Z</time>
      </trkpt>
      <trkpt lat="46.25025" lon="5.23038">
        <ele>225.4</ele>
        <time>2022-07-21T06:15:34Z</time>
      </trkpt>
      <trkpt lat="46.25003" lon="5.23036">
        <ele>223.6</ele>
        <time>2022-07-21T06:15:36Z</time>
      </trkpt>
      <trkpt lat="46.24981" lon="5.23034">
        <ele>222.2</ele>
        <time>2022-07-21T06:15:38Z</time>
      </trkpt>
      <trkpt lat="46.2497" lon="5.23032">
        <ele>221.8</ele>
        <time>2022-07-21T06:15:39Z</time>
      </trkpt>
      <trkpt lat="46.24959" lon="5.23032">
        <ele>221</ele>
        <time>2022-07-21T06:15:40Z</time>
      </trkpt>
      <trkpt lat="46.24929" lon="5.23029">
        <ele>219.8</ele>
        <time>2022-07-21T06:15:43Z</time>
      </trkpt>
      <trkpt lat="46.24907" lon="5.23026">
        <ele>218.8</ele>
        <time>2022-07-21T06:15:45Z</time>
      </trkpt>
      <trkpt lat="46.24897" lon="5.23025">
        <ele>218.8</ele>
        <time>2022-07-21T06:15:46Z</time>
      </trkpt>
      <trkpt lat="46.24865" lon="5.23022">
        <ele>218.4</ele>
        <time>2022-07-21T06:15:50Z</time>
      </trkpt>
      <trkpt lat="46.24855" lon="5.2303">
        <ele>218.2</ele>
        <time>2022-07-21T06:15:52Z</time>
      </trkpt>
      <trkpt lat="46.24851" lon="5.23053">
        <ele>218.2</ele>
        <time>2022-07-21T06:15:55Z</time>
      </trkpt>
      <trkpt lat="46.24844" lon="5.23114">
        <ele>217.8</ele>
        <time>2022-07-21T06:16:01Z</time>
      </trkpt>
      <trkpt lat="46.24843" lon="5.23125">
        <ele>217.8</ele>
        <time>2022-07-21T06:16:02Z</time>
      </trkpt>
      <trkpt lat="46.24841" lon="5.23147">
        <ele>217.6</ele>
        <time>2022-07-21T06:16:04Z</time>
      </trkpt>
      <trkpt lat="46.24839" lon="5.23201">
        <ele>217.6</ele>
        <time>2022-07-21T06:16:09Z</time>
      </trkpt>
      <trkpt lat="46.24841" lon="5.2325">
        <ele>218.4</ele>
        <time>2022-07-21T06:16:14Z</time>
      </trkpt>
      <trkpt lat="46.24841" lon="5.23261">
        <ele>219</ele>
        <time>2022-07-21T06:16:15Z</time>
      </trkpt>
      <trkpt lat="46.24842" lon="5.23295">
        <ele>220.2</ele>
        <time>2022-07-21T06:16:19Z</time>
      </trkpt>
      <trkpt lat="46.24844" lon="5.23308">
        <ele>220.6</ele>
        <time>2022-07-21T06:16:21Z</time>
      </trkpt>
      <trkpt lat="46.24847" lon="5.23329">
        <ele>221.4</ele>
        <time>2022-07-21T06:16:24Z</time>
      </trkpt>
      <trkpt lat="46.24852" lon="5.23349">
        <ele>222.6</ele>
        <time>2022-07-21T06:16:27Z</time>
      </trkpt>
      <trkpt lat="46.2486" lon="5.23375">
        <ele>224.2</ele>
        <time>2022-07-21T06:16:31Z</time>
      </trkpt>
      <trkpt lat="46.2487" lon="5.23398">
        <ele>225.2</ele>
        <time>2022-07-21T06:16:35Z</time>
      </trkpt>
      <trkpt lat="46.24872" lon="5.23403">
        <ele>225.4</ele>
        <time>2022-07-21T06:16:36Z</time>
      </trkpt>
      <trkpt lat="46.24881" lon="5.23422">
        <ele>226.4</ele>
        <time>2022-07-21T06:16:39Z</time>
      </trkpt>
      <trkpt lat="46.2489" lon="5.23442">
        <ele>227.2</ele>
        <time>2022-07-21T06:16:42Z</time>
      </trkpt>
      <trkpt lat="46.24898" lon="5.2346">
        <ele>227.6</ele>
        <time>2022-07-21T06:16:45Z</time>
      </trkpt>
      <trkpt lat="46.24908" lon="5.23483">
        <ele>228</ele>
        <time>2022-07-21T06:16:49Z</time>
      </trkpt>
      <trkpt lat="46.24916" lon="5.23509">
        <ele>228.4</ele>
        <time>2022-07-21T06:16:53Z</time>
      </trkpt>
      <trkpt lat="46.24918" lon="5.23516">
        <ele>228.8</ele>
        <time>2022-07-21T06:16:54Z</time>
      </trkpt>
      <trkpt lat="46.24921" lon="5.23531">
        <ele>229.2</ele>
        <time>2022-07-21T06:16:56Z</time>
      </trkpt>
      <trkpt lat="46.24925" lon="5.23568">
        <ele>229.8</ele>
        <time>2022-07-21T06:17:01Z</time>
      </trkpt>
      <trkpt lat="46.24925" lon="5.23584">
        <ele>229.8</ele>
        <time>2022-07-21T06:17:03Z</time>
      </trkpt>
      <trkpt lat="46.24923" lon="5.23606">
        <ele>229.8</ele>
        <time>2022-07-21T06:17:06Z</time>
      </trkpt>
      <trkpt lat="46.24921" lon="5.23627">
        <ele>230.2</ele>
        <time>2022-07-21T06:17:09Z</time>
      </trkpt>
      <trkpt lat="46.24917" lon="5.23653">
        <ele>231</ele>
        <time>2022-07-21T06:17:13Z</time>
      </trkpt>
      <trkpt lat="46.24912" lon="5.23675">
        <ele>231.8</ele>
        <time>2022-07-21T06:17:16Z</time>
      </trkpt>
      <trkpt lat="46.24911" lon="5.23682">
        <ele>232.2</ele>
        <time>2022-07-21T06:17:17Z</time>
      </trkpt>
      <trkpt lat="46.24898" lon="5.23732">
        <ele>233.2</ele>
        <time>2022-07-21T06:17:24Z</time>
      </trkpt>
      <trkpt lat="46.24878" lon="5.23795">
        <ele>233</ele>
        <time>2022-07-21T06:17:32Z</time>
      </trkpt>
      <trkpt lat="46.24863" lon="5.23844">
        <ele>233.2</ele>
        <time>2022-07-21T06:17:38Z</time>
      </trkpt>
      <trkpt lat="46.24862" lon="5.23853">
        <ele>233.2</ele>
        <time>2022-07-21T06:17:39Z</time>
      </trkpt>
      <trkpt lat="46.24858" lon="5.23914">
        <ele>233.2</ele>
        <time>2022-07-21T06:17:46Z</time>
      </trkpt>
      <trkpt lat="46.2486" lon="5.23986">
        <ele>233.2</ele>
        <time>2022-07-21T06:17:53Z</time>
      </trkpt>
      <trkpt lat="46.24863" lon="5.24064">
        <ele>233</ele>
        <time>2022-07-21T06:18:01Z</time>
      </trkpt>
      <trkpt lat="46.24864" lon="5.24084">
        <ele>233</ele>
        <time>2022-07-21T06:18:03Z</time>
      </trkpt>
      <trkpt lat="46.24866" lon="5.24145">
        <ele>233.8</ele>
        <time>2022-07-21T06:18:10Z</time>
      </trkpt>
      <trkpt lat="46.24868" lon="5.2421">
        <ele>234</ele>
        <time>2022-07-21T06:18:17Z</time>
      </trkpt>
      <trkpt lat="46.24869" lon="5.24219">
        <ele>234</ele>
        <time>2022-07-21T06:18:18Z</time>
      </trkpt>
      <trkpt lat="46.24872" lon="5.24304">
        <ele>233.8</ele>
        <time>2022-07-21T06:18:27Z</time>
      </trkpt>
      <trkpt lat="46.24872" lon="5.24314">
        <ele>233.8</ele>
        <time>2022-07-21T06:18:28Z</time>
      </trkpt>
      <trkpt lat="46.24876" lon="5.24394">
        <ele>233.6</ele>
        <time>2022-07-21T06:18:36Z</time>
      </trkpt>
      <trkpt lat="46.24876" lon="5.24404">
        <ele>233.6</ele>
        <time>2022-07-21T06:18:37Z</time>
      </trkpt>
      <trkpt lat="46.2488" lon="5.24491">
        <ele>234</ele>
        <time>2022-07-21T06:18:46Z</time>
      </trkpt>
      <trkpt lat="46.24884" lon="5.24578">
        <ele>233.8</ele>
        <time>2022-07-21T06:18:55Z</time>
      </trkpt>
      <trkpt lat="46.24884" lon="5.24598">
        <ele>233.8</ele>
        <time>2022-07-21T06:18:57Z</time>
      </trkpt>
      <trkpt lat="46.2488" lon="5.24659">
        <ele>233.6</ele>
        <time>2022-07-21T06:19:03Z</time>
      </trkpt>
      <trkpt lat="46.24872" lon="5.24745">
        <ele>233.2</ele>
        <time>2022-07-21T06:19:11Z</time>
      </trkpt>
      <trkpt lat="46.24871" lon="5.24756">
        <ele>233</ele>
        <time>2022-07-21T06:19:12Z</time>
      </trkpt>
      <trkpt lat="46.24857" lon="5.24842">
        <ele>232.4</ele>
        <time>2022-07-21T06:19:20Z</time>
      </trkpt>
      <trkpt lat="46.24854" lon="5.24862">
        <ele>232.8</ele>
        <time>2022-07-21T06:19:22Z</time>
      </trkpt>
      <trkpt lat="46.24846" lon="5.24931">
        <ele>233.6</ele>
        <time>2022-07-21T06:19:29Z</time>
      </trkpt>
      <trkpt lat="46.24846" lon="5.24951">
        <ele>234</ele>
        <time>2022-07-21T06:19:31Z</time>
      </trkpt>
      <trkpt lat="46.24847" lon="5.2498">
        <ele>234.4</ele>
        <time>2022-07-21T06:19:34Z</time>
      </trkpt>
      <trkpt lat="46.24853" lon="5.25066">
        <ele>234.2</ele>
        <time>2022-07-21T06:19:43Z</time>
      </trkpt>
      <trkpt lat="46.24858" lon="5.25152">
        <ele>234.6</ele>
        <time>2022-07-21T06:19:52Z</time>
      </trkpt>
      <trkpt lat="46.24859" lon="5.25162">
        <ele>234.6</ele>
        <time>2022-07-21T06:19:53Z</time>
      </trkpt>
      <trkpt lat="46.24863" lon="5.25245">
        <ele>234.6</ele>
        <time>2022-07-21T06:20:02Z</time>
      </trkpt>
      <trkpt lat="46.24864" lon="5.25254">
        <ele>234.6</ele>
        <time>2022-07-21T06:20:03Z</time>
      </trkpt>
      <trkpt lat="46.24867" lon="5.25306">
        <ele>235</ele>
        <time>2022-07-21T06:20:09Z</time>
      </trkpt>
      <trkpt lat="46.24867" lon="5.25315">
        <ele>235.2</ele>
        <time>2022-07-21T06:20:10Z</time>
      </trkpt>
      <trkpt lat="46.24867" lon="5.25324">
        <ele>235.4</ele>
        <time>2022-07-21T06:20:11Z</time>
      </trkpt>
      <trkpt lat="46.24865" lon="5.25388">
        <ele>236</ele>
        <time>2022-07-21T06:20:18Z</time>
      </trkpt>
      <trkpt lat="46.24864" lon="5.25398">
        <ele>236.2</ele>
        <time>2022-07-21T06:20:19Z</time>
      </trkpt>
      <trkpt lat="46.24862" lon="5.25438">
        <ele>236.2</ele>
        <time>2022-07-21T06:20:23Z</time>
      </trkpt>
      <trkpt lat="46.24861" lon="5.25447">
        <ele>236.2</ele>
        <time>2022-07-21T06:20:24Z</time>
      </trkpt>
      <trkpt lat="46.24853" lon="5.2552">
        <ele>236</ele>
        <time>2022-07-21T06:20:32Z</time>
      </trkpt>
      <trkpt lat="46.24833" lon="5.25589">
        <ele>236</ele>
        <time>2022-07-21T06:20:40Z</time>
      </trkpt>
      <trkpt lat="46.2481" lon="5.25654">
        <ele>236.8</ele>
        <time>2022-07-21T06:20:48Z</time>
      </trkpt>
      <trkpt lat="46.24781" lon="5.25717">
        <ele>236.8</ele>
        <time>2022-07-21T06:20:56Z</time>
      </trkpt>
      <trkpt lat="46.24744" lon="5.25774">
        <ele>237</ele>
        <time>2022-07-21T06:21:04Z</time>
      </trkpt>
      <trkpt lat="46.24722" lon="5.25808">
        <ele>237.2</ele>
        <time>2022-07-21T06:21:09Z</time>
      </trkpt>
      <trkpt lat="46.24718" lon="5.25813">
        <ele>237.2</ele>
        <time>2022-07-21T06:21:10Z</time>
      </trkpt>
      <trkpt lat="46.24693" lon="5.25853">
        <ele>237.8</ele>
        <time>2022-07-21T06:21:16Z</time>
      </trkpt>
      <trkpt lat="46.24672" lon="5.25886">
        <ele>238.2</ele>
        <time>2022-07-21T06:21:21Z</time>
      </trkpt>
      <trkpt lat="46.24657" lon="5.25907">
        <ele>238.2</ele>
        <time>2022-07-21T06:21:24Z</time>
      </trkpt>
      <trkpt lat="46.24616" lon="5.25969">
        <ele>238.6</ele>
        <time>2022-07-21T06:21:33Z</time>
      </trkpt>
      <trkpt lat="46.24612" lon="5.25977">
        <ele>238.6</ele>
        <time>2022-07-21T06:21:34Z</time>
      </trkpt>
      <trkpt lat="46.24605" lon="5.26002">
        <ele>238.6</ele>
        <time>2022-07-21T06:21:37Z</time>
      </trkpt>
      <trkpt lat="46.24591" lon="5.26053">
        <ele>239</ele>
        <time>2022-07-21T06:21:43Z</time>
      </trkpt>
      <trkpt lat="46.24587" lon="5.26062">
        <ele>239.2</ele>
        <time>2022-07-21T06:21:44Z</time>
      </trkpt>
      <trkpt lat="46.24584" lon="5.2607">
        <ele>239.2</ele>
        <time>2022-07-21T06:21:45Z</time>
      </trkpt>
      <trkpt lat="46.24575" lon="5.26086">
        <ele>239.2</ele>
        <time>2022-07-21T06:21:47Z</time>
      </trkpt>
      <trkpt lat="46.24565" lon="5.261">
        <ele>239.2</ele>
        <time>2022-07-21T06:21:49Z</time>
      </trkpt>
      <trkpt lat="46.24559" lon="5.26106">
        <ele>239.2</ele>
        <time>2022-07-21T06:21:50Z</time>
      </trkpt>
      <trkpt lat="46.2451" lon="5.26149">
        <ele>239.6</ele>
        <time>2022-07-21T06:21:58Z</time>
      </trkpt>
      <trkpt lat="46.24503" lon="5.26155">
        <ele>239.6</ele>
        <time>2022-07-21T06:21:59Z</time>
      </trkpt>
      <trkpt lat="46.24451" lon="5.26202">
        <ele>239.2</ele>
        <time>2022-07-21T06:22:07Z</time>
      </trkpt>
      <trkpt lat="46.24445" lon="5.26208">
        <ele>239.2</ele>
        <time>2022-07-21T06:22:08Z</time>
      </trkpt>
      <trkpt lat="46.24424" lon="5.26223">
        <ele>238.8</ele>
        <time>2022-07-21T06:22:11Z</time>
      </trkpt>
      <trkpt lat="46.2441" lon="5.26235">
        <ele>238.8</ele>
        <time>2022-07-21T06:22:13Z</time>
      </trkpt>
      <trkpt lat="46.2436" lon="5.26282">
        <ele>238.4</ele>
        <time>2022-07-21T06:22:21Z</time>
      </trkpt>
      <trkpt lat="46.24352" lon="5.26288">
        <ele>238.4</ele>
        <time>2022-07-21T06:22:22Z</time>
      </trkpt>
      <trkpt lat="46.24308" lon="5.26329">
        <ele>239.2</ele>
        <time>2022-07-21T06:22:30Z</time>
      </trkpt>
      <trkpt lat="46.24276" lon="5.26358">
        <ele>240</ele>
        <time>2022-07-21T06:22:36Z</time>
      </trkpt>
      <trkpt lat="46.24259" lon="5.26372">
        <ele>240.4</ele>
        <time>2022-07-21T06:22:39Z</time>
      </trkpt>
      <trkpt lat="46.2421" lon="5.26417">
        <ele>241</ele>
        <time>2022-07-21T06:22:48Z</time>
      </trkpt>
      <trkpt lat="46.24204" lon="5.26422">
        <ele>241</ele>
        <time>2022-07-21T06:22:49Z</time>
      </trkpt>
      <trkpt lat="46.24155" lon="5.26465">
        <ele>241.4</ele>
        <time>2022-07-21T06:22:58Z</time>
      </trkpt>
      <trkpt lat="46.24118" lon="5.26498">
        <ele>241.4</ele>
        <time>2022-07-21T06:23:05Z</time>
      </trkpt>
      <trkpt lat="46.24074" lon="5.26539">
        <ele>241.8</ele>
        <time>2022-07-21T06:23:13Z</time>
      </trkpt>
      <trkpt lat="46.24062" lon="5.2655">
        <ele>241.6</ele>
        <time>2022-07-21T06:23:15Z</time>
      </trkpt>
      <trkpt lat="46.24048" lon="5.26566">
        <ele>241.4</ele>
        <time>2022-07-21T06:23:18Z</time>
      </trkpt>
      <trkpt lat="46.24037" lon="5.26578">
        <ele>241.4</ele>
        <time>2022-07-21T06:23:20Z</time>
      </trkpt>
      <trkpt lat="46.24025" lon="5.26584">
        <ele>241.4</ele>
        <time>2022-07-21T06:23:22Z</time>
      </trkpt>
      <trkpt lat="46.24018" lon="5.26588">
        <ele>241.4</ele>
        <time>2022-07-21T06:23:23Z</time>
      </trkpt>
      <trkpt lat="46.24009" lon="5.266">
        <ele>241.2</ele>
        <time>2022-07-21T06:23:25Z</time>
      </trkpt>
      <trkpt lat="46.24005" lon="5.26619">
        <ele>240.8</ele>
        <time>2022-07-21T06:23:27Z</time>
      </trkpt>
      <trkpt lat="46.24006" lon="5.2663">
        <ele>240.6</ele>
        <time>2022-07-21T06:23:28Z</time>
      </trkpt>
      <trkpt lat="46.24006" lon="5.2664">
        <ele>240.6</ele>
        <time>2022-07-21T06:23:29Z</time>
      </trkpt>
      <trkpt lat="46.24004" lon="5.2666">
        <ele>240.4</ele>
        <time>2022-07-21T06:23:31Z</time>
      </trkpt>
      <trkpt lat="46.24001" lon="5.2667">
        <ele>240.4</ele>
        <time>2022-07-21T06:23:32Z</time>
      </trkpt>
      <trkpt lat="46.23992" lon="5.26707">
        <ele>239.8</ele>
        <time>2022-07-21T06:23:36Z</time>
      </trkpt>
      <trkpt lat="46.23985" lon="5.26747">
        <ele>239.6</ele>
        <time>2022-07-21T06:23:40Z</time>
      </trkpt>
      <trkpt lat="46.23972" lon="5.26823">
        <ele>239.8</ele>
        <time>2022-07-21T06:23:48Z</time>
      </trkpt>
      <trkpt lat="46.2397" lon="5.26832">
        <ele>239.8</ele>
        <time>2022-07-21T06:23:49Z</time>
      </trkpt>
      <trkpt lat="46.23965" lon="5.26861">
        <ele>240</ele>
        <time>2022-07-21T06:23:52Z</time>
      </trkpt>
      <trkpt lat="46.23957" lon="5.26894">
        <ele>240.6</ele>
        <time>2022-07-21T06:23:56Z</time>
      </trkpt>
      <trkpt lat="46.23952" lon="5.26908">
        <ele>241</ele>
        <time>2022-07-21T06:23:58Z</time>
      </trkpt>
      <trkpt lat="46.23939" lon="5.26941">
        <ele>242.2</ele>
        <time>2022-07-21T06:24:03Z</time>
      </trkpt>
      <trkpt lat="46.23922" lon="5.26973">
        <ele>243.2</ele>
        <time>2022-07-21T06:24:09Z</time>
      </trkpt>
      <trkpt lat="46.23917" lon="5.26987">
        <ele>243.4</ele>
        <time>2022-07-21T06:24:11Z</time>
      </trkpt>
      <trkpt lat="46.23917" lon="5.27003">
        <ele>243.8</ele>
        <time>2022-07-21T06:24:13Z</time>
      </trkpt>
      <trkpt lat="46.23922" lon="5.27015">
        <ele>244</ele>
        <time>2022-07-21T06:24:15Z</time>
      </trkpt>
      <trkpt lat="46.23926" lon="5.27022">
        <ele>244.2</ele>
        <time>2022-07-21T06:24:16Z</time>
      </trkpt>
      <trkpt lat="46.23933" lon="5.27036">
        <ele>244.4</ele>
        <time>2022-07-21T06:24:18Z</time>
      </trkpt>
      <trkpt lat="46.2394" lon="5.27051">
        <ele>244.8</ele>
        <time>2022-07-21T06:24:20Z</time>
      </trkpt>
      <trkpt lat="46.23946" lon="5.27076">
        <ele>245</ele>
        <time>2022-07-21T06:24:23Z</time>
      </trkpt>
      <trkpt lat="46.23951" lon="5.27137">
        <ele>245</ele>
        <time>2022-07-21T06:24:30Z</time>
      </trkpt>
      <trkpt lat="46.23955" lon="5.2718">
        <ele>245.2</ele>
        <time>2022-07-21T06:24:35Z</time>
      </trkpt>
      <trkpt lat="46.2396" lon="5.27212">
        <ele>245.6</ele>
        <time>2022-07-21T06:24:39Z</time>
      </trkpt>
      <trkpt lat="46.23967" lon="5.27252">
        <ele>246.4</ele>
        <time>2022-07-21T06:24:44Z</time>
      </trkpt>
      <trkpt lat="46.23974" lon="5.273">
        <ele>247</ele>
        <time>2022-07-21T06:24:50Z</time>
      </trkpt>
      <trkpt lat="46.23981" lon="5.27342">
        <ele>247.6</ele>
        <time>2022-07-21T06:24:55Z</time>
      </trkpt>
      <trkpt lat="46.23984" lon="5.27358">
        <ele>247.6</ele>
        <time>2022-07-21T06:24:57Z</time>
      </trkpt>
      <trkpt lat="46.23995" lon="5.2743">
        <ele>248</ele>
        <time>2022-07-21T06:25:05Z</time>
      </trkpt>
      <trkpt lat="46.23997" lon="5.2748">
        <ele>247.8</ele>
        <time>2022-07-21T06:25:10Z</time>
      </trkpt>
      <trkpt lat="46.23995" lon="5.27499">
        <ele>247.8</ele>
        <time>2022-07-21T06:25:12Z</time>
      </trkpt>
      <trkpt lat="46.23989" lon="5.27529">
        <ele>247.8</ele>
        <time>2022-07-21T06:25:15Z</time>
      </trkpt>
      <trkpt lat="46.23983" lon="5.27547">
        <ele>247.4</ele>
        <time>2022-07-21T06:25:17Z</time>
      </trkpt>
      <trkpt lat="46.23956" lon="5.27596">
        <ele>247</ele>
        <time>2022-07-21T06:25:23Z</time>
      </trkpt>
      <trkpt lat="46.23914" lon="5.27652">
        <ele>246.4</ele>
        <time>2022-07-21T06:25:30Z</time>
      </trkpt>
      <trkpt lat="46.23902" lon="5.27668">
        <ele>246.2</ele>
        <time>2022-07-21T06:25:32Z</time>
      </trkpt>
      <trkpt lat="46.23875" lon="5.27711">
        <ele>245.4</ele>
        <time>2022-07-21T06:25:37Z</time>
      </trkpt>
      <trkpt lat="46.23856" lon="5.27752">
        <ele>245</ele>
        <time>2022-07-21T06:25:41Z</time>
      </trkpt>
      <trkpt lat="46.23849" lon="5.27772">
        <ele>244.8</ele>
        <time>2022-07-21T06:25:43Z</time>
      </trkpt>
      <trkpt lat="46.23837" lon="5.27811">
        <ele>244.4</ele>
        <time>2022-07-21T06:25:47Z</time>
      </trkpt>
      <trkpt lat="46.23833" lon="5.27831">
        <ele>244.2</ele>
        <time>2022-07-21T06:25:49Z</time>
      </trkpt>
      <trkpt lat="46.2383" lon="5.27852">
        <ele>244</ele>
        <time>2022-07-21T06:25:51Z</time>
      </trkpt>
      <trkpt lat="46.23821" lon="5.27912">
        <ele>244.2</ele>
        <time>2022-07-21T06:25:57Z</time>
      </trkpt>
      <trkpt lat="46.23815" lon="5.27963">
        <ele>244.6</ele>
        <time>2022-07-21T06:26:02Z</time>
      </trkpt>
      <trkpt lat="46.23805" lon="5.28043">
        <ele>244.4</ele>
        <time>2022-07-21T06:26:10Z</time>
      </trkpt>
      <trkpt lat="46.238" lon="5.28073">
        <ele>244.6</ele>
        <time>2022-07-21T06:26:13Z</time>
      </trkpt>
      <trkpt lat="46.2379" lon="5.28147">
        <ele>244.4</ele>
        <time>2022-07-21T06:26:20Z</time>
      </trkpt>
      <trkpt lat="46.23779" lon="5.28223">
        <ele>244</ele>
        <time>2022-07-21T06:26:27Z</time>
      </trkpt>
      <trkpt lat="46.23773" lon="5.28267">
        <ele>243.6</ele>
        <time>2022-07-21T06:26:31Z</time>
      </trkpt>
      <trkpt lat="46.23772" lon="5.28278">
        <ele>243.6</ele>
        <time>2022-07-21T06:26:32Z</time>
      </trkpt>
      <trkpt lat="46.23763" lon="5.28339">
        <ele>243.6</ele>
        <time>2022-07-21T06:26:38Z</time>
      </trkpt>
      <trkpt lat="46.23751" lon="5.28416">
        <ele>244</ele>
        <time>2022-07-21T06:26:46Z</time>
      </trkpt>
      <trkpt lat="46.23741" lon="5.28469">
        <ele>244.2</ele>
        <time>2022-07-21T06:26:51Z</time>
      </trkpt>
      <trkpt lat="46.23732" lon="5.28545">
        <ele>244.4</ele>
        <time>2022-07-21T06:26:58Z</time>
      </trkpt>
      <trkpt lat="46.2373" lon="5.28557">
        <ele>244.2</ele>
        <time>2022-07-21T06:26:59Z</time>
      </trkpt>
      <trkpt lat="46.23726" lon="5.28601">
        <ele>244</ele>
        <time>2022-07-21T06:27:03Z</time>
      </trkpt>
      <trkpt lat="46.23719" lon="5.28668">
        <ele>243.4</ele>
        <time>2022-07-21T06:27:09Z</time>
      </trkpt>
      <trkpt lat="46.23719" lon="5.28689">
        <ele>242.8</ele>
        <time>2022-07-21T06:27:11Z</time>
      </trkpt>
      <trkpt lat="46.23724" lon="5.28711">
        <ele>242.4</ele>
        <time>2022-07-21T06:27:13Z</time>
      </trkpt>
      <trkpt lat="46.23727" lon="5.28721">
        <ele>242.4</ele>
        <time>2022-07-21T06:27:14Z</time>
      </trkpt>
      <trkpt lat="46.23747" lon="5.28777">
        <ele>242.4</ele>
        <time>2022-07-21T06:27:20Z</time>
      </trkpt>
      <trkpt lat="46.23755" lon="5.28804">
        <ele>243</ele>
        <time>2022-07-21T06:27:23Z</time>
      </trkpt>
      <trkpt lat="46.23761" lon="5.2882">
        <ele>243.4</ele>
        <time>2022-07-21T06:27:25Z</time>
      </trkpt>
      <trkpt lat="46.23764" lon="5.28828">
        <ele>243.6</ele>
        <time>2022-07-21T06:27:26Z</time>
      </trkpt>
      <trkpt lat="46.23779" lon="5.2887">
        <ele>244.2</ele>
        <time>2022-07-21T06:27:31Z</time>
      </trkpt>
      <trkpt lat="46.23781" lon="5.28879">
        <ele>244.4</ele>
        <time>2022-07-21T06:27:32Z</time>
      </trkpt>
      <trkpt lat="46.23787" lon="5.28897">
        <ele>244.6</ele>
        <time>2022-07-21T06:27:34Z</time>
      </trkpt>
      <trkpt lat="46.23798" lon="5.28934">
        <ele>244.8</ele>
        <time>2022-07-21T06:27:38Z</time>
      </trkpt>
      <trkpt lat="46.23825" lon="5.29013">
        <ele>243.8</ele>
        <time>2022-07-21T06:27:46Z</time>
      </trkpt>
      <trkpt lat="46.23828" lon="5.29023">
        <ele>243.8</ele>
        <time>2022-07-21T06:27:47Z</time>
      </trkpt>
      <trkpt lat="46.23835" lon="5.29048">
        <ele>243.6</ele>
        <time>2022-07-21T06:27:50Z</time>
      </trkpt>
      <trkpt lat="46.23836" lon="5.29055">
        <ele>243.6</ele>
        <time>2022-07-21T06:27:51Z</time>
      </trkpt>
      <trkpt lat="46.23835" lon="5.29061">
        <ele>243.6</ele>
        <time>2022-07-21T06:27:52Z</time>
      </trkpt>
      <trkpt lat="46.23832" lon="5.29066">
        <ele>243.6</ele>
        <time>2022-07-21T06:27:53Z</time>
      </trkpt>
      <trkpt lat="46.23827" lon="5.29069">
        <ele>243.6</ele>
        <time>2022-07-21T06:27:54Z</time>
      </trkpt>
      <trkpt lat="46.23817" lon="5.2907">
        <ele>243.8</ele>
        <time>2022-07-21T06:27:56Z</time>
      </trkpt>
      <trkpt lat="46.23786" lon="5.29073">
        <ele>243.6</ele>
        <time>2022-07-21T06:28:01Z</time>
      </trkpt>
      <trkpt lat="46.23735" lon="5.29081">
        <ele>244.2</ele>
        <time>2022-07-21T06:28:09Z</time>
      </trkpt>
      <trkpt lat="46.23698" lon="5.29082">
        <ele>244.4</ele>
        <time>2022-07-21T06:28:15Z</time>
      </trkpt>
      <trkpt lat="46.23691" lon="5.2908">
        <ele>244.4</ele>
        <time>2022-07-21T06:28:16Z</time>
      </trkpt>
      <trkpt lat="46.23685" lon="5.29077">
        <ele>244.4</ele>
        <time>2022-07-21T06:28:17Z</time>
      </trkpt>
      <trkpt lat="46.23653" lon="5.2906">
        <ele>244.6</ele>
        <time>2022-07-21T06:28:22Z</time>
      </trkpt>
      <trkpt lat="46.23613" lon="5.29039">
        <ele>244.8</ele>
        <time>2022-07-21T06:28:28Z</time>
      </trkpt>
      <trkpt lat="46.23557" lon="5.29008">
        <ele>245.2</ele>
        <time>2022-07-21T06:28:37Z</time>
      </trkpt>
      <trkpt lat="46.23528" lon="5.28993">
        <ele>245.2</ele>
        <time>2022-07-21T06:28:42Z</time>
      </trkpt>
      <trkpt lat="46.23522" lon="5.28993">
        <ele>245.4</ele>
        <time>2022-07-21T06:28:43Z</time>
      </trkpt>
      <trkpt lat="46.23516" lon="5.28997">
        <ele>245.4</ele>
        <time>2022-07-21T06:28:44Z</time>
      </trkpt>
      <trkpt lat="46.23511" lon="5.29001">
        <ele>245.6</ele>
        <time>2022-07-21T06:28:45Z</time>
      </trkpt>
      <trkpt lat="46.23507" lon="5.29007">
        <ele>245.8</ele>
        <time>2022-07-21T06:28:46Z</time>
      </trkpt>
      <trkpt lat="46.23502" lon="5.29019">
        <ele>246</ele>
        <time>2022-07-21T06:28:48Z</time>
      </trkpt>
      <trkpt lat="46.23499" lon="5.29037">
        <ele>246.2</ele>
        <time>2022-07-21T06:28:50Z</time>
      </trkpt>
      <trkpt lat="46.23495" lon="5.29104">
        <ele>246.4</ele>
        <time>2022-07-21T06:28:57Z</time>
      </trkpt>
      <trkpt lat="46.23489" lon="5.29155">
        <ele>246.4</ele>
        <time>2022-07-21T06:29:02Z</time>
      </trkpt>
      <trkpt lat="46.23487" lon="5.29164">
        <ele>246.6</ele>
        <time>2022-07-21T06:29:03Z</time>
      </trkpt>
      <trkpt lat="46.23485" lon="5.29181">
        <ele>246.6</ele>
        <time>2022-07-21T06:29:05Z</time>
      </trkpt>
      <trkpt lat="46.23481" lon="5.29218">
        <ele>246.8</ele>
        <time>2022-07-21T06:29:09Z</time>
      </trkpt>
      <trkpt lat="46.23478" lon="5.29226">
        <ele>247</ele>
        <time>2022-07-21T06:29:10Z</time>
      </trkpt>
      <trkpt lat="46.23473" lon="5.29233">
        <ele>247.4</ele>
        <time>2022-07-21T06:29:11Z</time>
      </trkpt>
      <trkpt lat="46.23467" lon="5.29234">
        <ele>247.6</ele>
        <time>2022-07-21T06:29:12Z</time>
      </trkpt>
      <trkpt lat="46.23463" lon="5.29233">
        <ele>248</ele>
        <time>2022-07-21T06:29:13Z</time>
      </trkpt>
      <trkpt lat="46.2345" lon="5.29225">
        <ele>248.2</ele>
        <time>2022-07-21T06:29:15Z</time>
      </trkpt>
      <trkpt lat="46.23412" lon="5.29202">
        <ele>248.2</ele>
        <time>2022-07-21T06:29:21Z</time>
      </trkpt>
      <trkpt lat="46.23357" lon="5.2917">
        <ele>248.4</ele>
        <time>2022-07-21T06:29:30Z</time>
      </trkpt>
      <trkpt lat="46.23306" lon="5.2914">
        <ele>248</ele>
        <time>2022-07-21T06:29:38Z</time>
      </trkpt>
      <trkpt lat="46.23299" lon="5.29136">
        <ele>248</ele>
        <time>2022-07-21T06:29:39Z</time>
      </trkpt>
      <trkpt lat="46.23252" lon="5.29108">
        <ele>248</ele>
        <time>2022-07-21T06:29:46Z</time>
      </trkpt>
      <trkpt lat="46.23196" lon="5.29075">
        <ele>247.6</ele>
        <time>2022-07-21T06:29:54Z</time>
      </trkpt>
      <trkpt lat="46.23183" lon="5.29068">
        <ele>247.2</ele>
        <time>2022-07-21T06:29:56Z</time>
      </trkpt>
      <trkpt lat="46.23166" lon="5.2907">
        <ele>246.8</ele>
        <time>2022-07-21T06:29:58Z</time>
      </trkpt>
      <trkpt lat="46.2316" lon="5.29073">
        <ele>246.6</ele>
        <time>2022-07-21T06:29:59Z</time>
      </trkpt>
      <trkpt lat="46.23154" lon="5.29081">
        <ele>246.6</ele>
        <time>2022-07-21T06:30:00Z</time>
      </trkpt>
      <trkpt lat="46.23151" lon="5.29088">
        <ele>246.6</ele>
        <time>2022-07-21T06:30:01Z</time>
      </trkpt>
      <trkpt lat="46.23126" lon="5.29141">
        <ele>246.2</ele>
        <time>2022-07-21T06:30:07Z</time>
      </trkpt>
      <trkpt lat="46.23104" lon="5.29193">
        <ele>246.2</ele>
        <time>2022-07-21T06:30:13Z</time>
      </trkpt>
      <trkpt lat="46.23079" lon="5.29249">
        <ele>247.6</ele>
        <time>2022-07-21T06:30:20Z</time>
      </trkpt>
      <trkpt lat="46.23075" lon="5.29256">
        <ele>247.6</ele>
        <time>2022-07-21T06:30:21Z</time>
      </trkpt>
      <trkpt lat="46.23053" lon="5.29302">
        <ele>248.6</ele>
        <time>2022-07-21T06:30:27Z</time>
      </trkpt>
      <trkpt lat="46.23045" lon="5.29318">
        <ele>248.8</ele>
        <time>2022-07-21T06:30:29Z</time>
      </trkpt>
      <trkpt lat="46.23014" lon="5.29379">
        <ele>249.4</ele>
        <time>2022-07-21T06:30:37Z</time>
      </trkpt>
      <trkpt lat="46.22994" lon="5.29421">
        <ele>249.6</ele>
        <time>2022-07-21T06:30:43Z</time>
      </trkpt>
      <trkpt lat="46.22986" lon="5.29436">
        <ele>249.6</ele>
        <time>2022-07-21T06:30:45Z</time>
      </trkpt>
      <trkpt lat="46.22974" lon="5.29458">
        <ele>249.8</ele>
        <time>2022-07-21T06:30:48Z</time>
      </trkpt>
      <trkpt lat="46.22951" lon="5.29504">
        <ele>249.8</ele>
        <time>2022-07-21T06:30:54Z</time>
      </trkpt>
      <trkpt lat="46.22919" lon="5.29564">
        <ele>249.4</ele>
        <time>2022-07-21T06:31:02Z</time>
      </trkpt>
      <trkpt lat="46.22915" lon="5.29574">
        <ele>249.6</ele>
        <time>2022-07-21T06:31:03Z</time>
      </trkpt>
      <trkpt lat="46.22883" lon="5.29633">
        <ele>250</ele>
        <time>2022-07-21T06:31:11Z</time>
      </trkpt>
      <trkpt lat="46.22873" lon="5.29643">
        <ele>250</ele>
        <time>2022-07-21T06:31:13Z</time>
      </trkpt>
      <trkpt lat="46.22862" lon="5.29641">
        <ele>250</ele>
        <time>2022-07-21T06:31:15Z</time>
      </trkpt>
      <trkpt lat="46.22831" lon="5.2962">
        <ele>250.8</ele>
        <time>2022-07-21T06:31:20Z</time>
      </trkpt>
      <trkpt lat="46.22817" lon="5.29611">
        <ele>251</ele>
        <time>2022-07-21T06:31:22Z</time>
      </trkpt>
      <trkpt lat="46.22805" lon="5.29606">
        <ele>251.4</ele>
        <time>2022-07-21T06:31:24Z</time>
      </trkpt>
      <trkpt lat="46.22797" lon="5.29607">
        <ele>251.8</ele>
        <time>2022-07-21T06:31:25Z</time>
      </trkpt>
      <trkpt lat="46.22792" lon="5.2961">
        <ele>252</ele>
        <time>2022-07-21T06:31:26Z</time>
      </trkpt>
      <trkpt lat="46.22781" lon="5.2962">
        <ele>252</ele>
        <time>2022-07-21T06:31:28Z</time>
      </trkpt>
      <trkpt lat="46.22737" lon="5.29668">
        <ele>251.6</ele>
        <time>2022-07-21T06:31:36Z</time>
      </trkpt>
      <trkpt lat="46.22694" lon="5.29714">
        <ele>252</ele>
        <time>2022-07-21T06:31:44Z</time>
      </trkpt>
      <trkpt lat="46.22684" lon="5.29725">
        <ele>252</ele>
        <time>2022-07-21T06:31:46Z</time>
      </trkpt>
      <trkpt lat="46.22674" lon="5.29741">
        <ele>252</ele>
        <time>2022-07-21T06:31:48Z</time>
      </trkpt>
      <trkpt lat="46.22671" lon="5.29749">
        <ele>252.2</ele>
        <time>2022-07-21T06:31:49Z</time>
      </trkpt>
      <trkpt lat="46.22658" lon="5.29785">
        <ele>252.2</ele>
        <time>2022-07-21T06:31:53Z</time>
      </trkpt>
      <trkpt lat="46.22651" lon="5.298">
        <ele>252</ele>
        <time>2022-07-21T06:31:55Z</time>
      </trkpt>
      <trkpt lat="46.22642" lon="5.29819">
        <ele>251.6</ele>
        <time>2022-07-21T06:31:57Z</time>
      </trkpt>
      <trkpt lat="46.22637" lon="5.29836">
        <ele>251.2</ele>
        <time>2022-07-21T06:31:59Z</time>
      </trkpt>
      <trkpt lat="46.22634" lon="5.29845">
        <ele>251.2</ele>
        <time>2022-07-21T06:32:00Z</time>
      </trkpt>
      <trkpt lat="46.22622" lon="5.29881">
        <ele>250.8</ele>
        <time>2022-07-21T06:32:04Z</time>
      </trkpt>
      <trkpt lat="46.22617" lon="5.29888">
        <ele>250.8</ele>
        <time>2022-07-21T06:32:05Z</time>
      </trkpt>
      <trkpt lat="46.22583" lon="5.29929">
        <ele>250</ele>
        <time>2022-07-21T06:32:11Z</time>
      </trkpt>
      <trkpt lat="46.2257" lon="5.29944">
        <ele>250</ele>
        <time>2022-07-21T06:32:13Z</time>
      </trkpt>
      <trkpt lat="46.22563" lon="5.2995">
        <ele>249.8</ele>
        <time>2022-07-21T06:32:14Z</time>
      </trkpt>
      <trkpt lat="46.22556" lon="5.29955">
        <ele>249.6</ele>
        <time>2022-07-21T06:32:15Z</time>
      </trkpt>
      <trkpt lat="46.22535" lon="5.29968">
        <ele>249</ele>
        <time>2022-07-21T06:32:18Z</time>
      </trkpt>
      <trkpt lat="46.22521" lon="5.29983">
        <ele>248.8</ele>
        <time>2022-07-21T06:32:20Z</time>
      </trkpt>
      <trkpt lat="46.22497" lon="5.3003">
        <ele>248.4</ele>
        <time>2022-07-21T06:32:25Z</time>
      </trkpt>
      <trkpt lat="46.2249" lon="5.30049">
        <ele>248</ele>
        <time>2022-07-21T06:32:27Z</time>
      </trkpt>
      <trkpt lat="46.22487" lon="5.30071">
        <ele>248</ele>
        <time>2022-07-21T06:32:29Z</time>
      </trkpt>
      <trkpt lat="46.22486" lon="5.30139">
        <ele>248.4</ele>
        <time>2022-07-21T06:32:36Z</time>
      </trkpt>
      <trkpt lat="46.22485" lon="5.30168">
        <ele>248.4</ele>
        <time>2022-07-21T06:32:39Z</time>
      </trkpt>
      <trkpt lat="46.22485" lon="5.3018">
        <ele>248.8</ele>
        <time>2022-07-21T06:32:40Z</time>
      </trkpt>
      <trkpt lat="46.2248" lon="5.30213">
        <ele>249.2</ele>
        <time>2022-07-21T06:32:43Z</time>
      </trkpt>
      <trkpt lat="46.22475" lon="5.30237">
        <ele>249.4</ele>
        <time>2022-07-21T06:32:45Z</time>
      </trkpt>
      <trkpt lat="46.22465" lon="5.30304">
        <ele>249.4</ele>
        <time>2022-07-21T06:32:51Z</time>
      </trkpt>
      <trkpt lat="46.22461" lon="5.30316">
        <ele>249.6</ele>
        <time>2022-07-21T06:32:52Z</time>
      </trkpt>
      <trkpt lat="46.22456" lon="5.30324">
        <ele>249.8</ele>
        <time>2022-07-21T06:32:53Z</time>
      </trkpt>
      <trkpt lat="46.22452" lon="5.3033">
        <ele>249.6</ele>
        <time>2022-07-21T06:32:54Z</time>
      </trkpt>
      <trkpt lat="46.22417" lon="5.30381">
        <ele>249.6</ele>
        <time>2022-07-21T06:33:01Z</time>
      </trkpt>
      <trkpt lat="46.2239" lon="5.30421">
        <ele>249.6</ele>
        <time>2022-07-21T06:33:07Z</time>
      </trkpt>
      <trkpt lat="46.2236" lon="5.30474">
        <ele>250</ele>
        <time>2022-07-21T06:33:14Z</time>
      </trkpt>
      <trkpt lat="46.22353" lon="5.305">
        <ele>250.6</ele>
        <time>2022-07-21T06:33:17Z</time>
      </trkpt>
      <trkpt lat="46.22351" lon="5.30507">
        <ele>250.6</ele>
        <time>2022-07-21T06:33:18Z</time>
      </trkpt>
      <trkpt lat="46.22349" lon="5.30517">
        <ele>250.8</ele>
        <time>2022-07-21T06:33:19Z</time>
      </trkpt>
      <trkpt lat="46.22343" lon="5.30591">
        <ele>251.2</ele>
        <time>2022-07-21T06:33:27Z</time>
      </trkpt>
      <trkpt lat="46.22339" lon="5.30618">
        <ele>251.4</ele>
        <time>2022-07-21T06:33:30Z</time>
      </trkpt>
      <trkpt lat="46.22334" lon="5.30635">
        <ele>251.4</ele>
        <time>2022-07-21T06:33:32Z</time>
      </trkpt>
      <trkpt lat="46.22321" lon="5.30675">
        <ele>251.2</ele>
        <time>2022-07-21T06:33:37Z</time>
      </trkpt>
      <trkpt lat="46.22319" lon="5.30691">
        <ele>251.2</ele>
        <time>2022-07-21T06:33:39Z</time>
      </trkpt>
      <trkpt lat="46.22323" lon="5.30724">
        <ele>251.4</ele>
        <time>2022-07-21T06:33:43Z</time>
      </trkpt>
      <trkpt lat="46.22325" lon="5.30734">
        <ele>251.6</ele>
        <time>2022-07-21T06:33:44Z</time>
      </trkpt>
      <trkpt lat="46.22328" lon="5.3075">
        <ele>251.6</ele>
        <time>2022-07-21T06:33:46Z</time>
      </trkpt>
      <trkpt lat="46.22332" lon="5.30766">
        <ele>251.8</ele>
        <time>2022-07-21T06:33:48Z</time>
      </trkpt>
      <trkpt lat="46.22345" lon="5.30817">
        <ele>252.6</ele>
        <time>2022-07-21T06:33:54Z</time>
      </trkpt>
      <trkpt lat="46.22347" lon="5.30831">
        <ele>253</ele>
        <time>2022-07-21T06:33:56Z</time>
      </trkpt>
      <trkpt lat="46.22354" lon="5.3087">
        <ele>253.6</ele>
        <time>2022-07-21T06:34:01Z</time>
      </trkpt>
      <trkpt lat="46.22356" lon="5.30879">
        <ele>253.8</ele>
        <time>2022-07-21T06:34:02Z</time>
      </trkpt>
      <trkpt lat="46.22359" lon="5.30886">
        <ele>254</ele>
        <time>2022-07-21T06:34:03Z</time>
      </trkpt>
      <trkpt lat="46.22368" lon="5.30914">
        <ele>255</ele>
        <time>2022-07-21T06:34:07Z</time>
      </trkpt>
      <trkpt lat="46.22372" lon="5.30934">
        <ele>255.6</ele>
        <time>2022-07-21T06:34:10Z</time>
      </trkpt>
      <trkpt lat="46.22375" lon="5.3095">
        <ele>256</ele>
        <time>2022-07-21T06:34:12Z</time>
      </trkpt>
      <trkpt lat="46.22376" lon="5.30956">
        <ele>256</ele>
        <time>2022-07-21T06:34:13Z</time>
      </trkpt>
      <trkpt lat="46.22377" lon="5.30963">
        <ele>256.2</ele>
        <time>2022-07-21T06:34:14Z</time>
      </trkpt>
      <trkpt lat="46.22382" lon="5.30976">
        <ele>256.4</ele>
        <time>2022-07-21T06:34:16Z</time>
      </trkpt>
      <trkpt lat="46.22385" lon="5.30985">
        <ele>256.6</ele>
        <time>2022-07-21T06:34:17Z</time>
      </trkpt>
      <trkpt lat="46.22389" lon="5.30999">
        <ele>257.2</ele>
        <time>2022-07-21T06:34:19Z</time>
      </trkpt>
      <trkpt lat="46.22393" lon="5.31022">
        <ele>257.6</ele>
        <time>2022-07-21T06:34:22Z</time>
      </trkpt>
      <trkpt lat="46.22395" lon="5.31029">
        <ele>257.6</ele>
        <time>2022-07-21T06:34:23Z</time>
      </trkpt>
      <trkpt lat="46.22397" lon="5.31036">
        <ele>257.8</ele>
        <time>2022-07-21T06:34:24Z</time>
      </trkpt>
      <trkpt lat="46.22402" lon="5.31066">
        <ele>258.4</ele>
        <time>2022-07-21T06:34:28Z</time>
      </trkpt>
      <trkpt lat="46.22407" lon="5.31089">
        <ele>258.6</ele>
        <time>2022-07-21T06:34:31Z</time>
      </trkpt>
      <trkpt lat="46.22412" lon="5.31106">
        <ele>259</ele>
        <time>2022-07-21T06:34:33Z</time>
      </trkpt>
      <trkpt lat="46.22418" lon="5.31114">
        <ele>259.2</ele>
        <time>2022-07-21T06:34:34Z</time>
      </trkpt>
      <trkpt lat="46.22422" lon="5.31124">
        <ele>259.4</ele>
        <time>2022-07-21T06:34:35Z</time>
      </trkpt>
      <trkpt lat="46.22423" lon="5.31139">
        <ele>259.6</ele>
        <time>2022-07-21T06:34:37Z</time>
      </trkpt>
      <trkpt lat="46.22425" lon="5.31158">
        <ele>260</ele>
        <time>2022-07-21T06:34:39Z</time>
      </trkpt>
      <trkpt lat="46.22426" lon="5.31166">
        <ele>260.2</ele>
        <time>2022-07-21T06:34:40Z</time>
      </trkpt>
      <trkpt lat="46.22433" lon="5.31185">
        <ele>260.4</ele>
        <time>2022-07-21T06:34:43Z</time>
      </trkpt>
      <trkpt lat="46.22434" lon="5.312">
        <ele>260.6</ele>
        <time>2022-07-21T06:34:45Z</time>
      </trkpt>
      <trkpt lat="46.22433" lon="5.31215">
        <ele>260.8</ele>
        <time>2022-07-21T06:34:47Z</time>
      </trkpt>
      <trkpt lat="46.22439" lon="5.31237">
        <ele>261.2</ele>
        <time>2022-07-21T06:34:50Z</time>
      </trkpt>
      <trkpt lat="46.22445" lon="5.31253">
        <ele>261.6</ele>
        <time>2022-07-21T06:34:52Z</time>
      </trkpt>
      <trkpt lat="46.22447" lon="5.31261">
        <ele>261.8</ele>
        <time>2022-07-21T06:34:53Z</time>
      </trkpt>
      <trkpt lat="46.22449" lon="5.31276">
        <ele>261.8</ele>
        <time>2022-07-21T06:34:55Z</time>
      </trkpt>
      <trkpt lat="46.22447" lon="5.31292">
        <ele>262</ele>
        <time>2022-07-21T06:34:57Z</time>
      </trkpt>
      <trkpt lat="46.22447" lon="5.31296">
        <ele>262</ele>
        <time>2022-07-21T06:34:58Z</time>
      </trkpt>
      <trkpt lat="46.2244" lon="5.3131">
        <ele>261.6</ele>
        <time>2022-07-21T06:35:00Z</time>
      </trkpt>
      <trkpt lat="46.22437" lon="5.31315">
        <ele>261.6</ele>
        <time>2022-07-21T06:35:01Z</time>
      </trkpt>
      <trkpt lat="46.22399" lon="5.3137">
        <ele>261.8</ele>
        <time>2022-07-21T06:35:10Z</time>
      </trkpt>
      <trkpt lat="46.22383" lon="5.31394">
        <ele>262.4</ele>
        <time>2022-07-21T06:35:14Z</time>
      </trkpt>
      <trkpt lat="46.22363" lon="5.31426">
        <ele>263</ele>
        <time>2022-07-21T06:35:19Z</time>
      </trkpt>
      <trkpt lat="46.22329" lon="5.31476">
        <ele>263.2</ele>
        <time>2022-07-21T06:35:27Z</time>
      </trkpt>
      <trkpt lat="46.22325" lon="5.31483">
        <ele>263.2</ele>
        <time>2022-07-21T06:35:28Z</time>
      </trkpt>
      <trkpt lat="46.22302" lon="5.31519">
        <ele>263</ele>
        <time>2022-07-21T06:35:34Z</time>
      </trkpt>
      <trkpt lat="46.22294" lon="5.31531">
        <ele>263.4</ele>
        <time>2022-07-21T06:35:36Z</time>
      </trkpt>
      <trkpt lat="46.22273" lon="5.31562">
        <ele>264</ele>
        <time>2022-07-21T06:35:41Z</time>
      </trkpt>
      <trkpt lat="46.22247" lon="5.31599">
        <ele>264.4</ele>
        <time>2022-07-21T06:35:48Z</time>
      </trkpt>
      <trkpt lat="46.22239" lon="5.31612">
        <ele>264.4</ele>
        <time>2022-07-21T06:35:50Z</time>
      </trkpt>
      <trkpt lat="46.2222" lon="5.31638">
        <ele>265.6</ele>
        <time>2022-07-21T06:35:55Z</time>
      </trkpt>
      <trkpt lat="46.22212" lon="5.31648">
        <ele>265.8</ele>
        <time>2022-07-21T06:35:57Z</time>
      </trkpt>
      <trkpt lat="46.22172" lon="5.31685">
        <ele>266.4</ele>
        <time>2022-07-21T06:36:05Z</time>
      </trkpt>
      <trkpt lat="46.22152" lon="5.31701">
        <ele>266.6</ele>
        <time>2022-07-21T06:36:09Z</time>
      </trkpt>
      <trkpt lat="46.22128" lon="5.31722">
        <ele>266.8</ele>
        <time>2022-07-21T06:36:14Z</time>
      </trkpt>
      <trkpt lat="46.22086" lon="5.31757">
        <ele>267.6</ele>
        <time>2022-07-21T06:36:23Z</time>
      </trkpt>
      <trkpt lat="46.2208" lon="5.31762">
        <ele>267.8</ele>
        <time>2022-07-21T06:36:24Z</time>
      </trkpt>
      <trkpt lat="46.22051" lon="5.31787">
        <ele>268.8</ele>
        <time>2022-07-21T06:36:30Z</time>
      </trkpt>
      <trkpt lat="46.22042" lon="5.31795">
        <ele>269</ele>
        <time>2022-07-21T06:36:32Z</time>
      </trkpt>
      <trkpt lat="46.22009" lon="5.31822">
        <ele>269.4</ele>
        <time>2022-07-21T06:36:39Z</time>
      </trkpt>
      <trkpt lat="46.21986" lon="5.31831">
        <ele>269.8</ele>
        <time>2022-07-21T06:36:43Z</time>
      </trkpt>
      <trkpt lat="46.21975" lon="5.31833">
        <ele>270</ele>
        <time>2022-07-21T06:36:45Z</time>
      </trkpt>
      <trkpt lat="46.21947" lon="5.31829">
        <ele>270.4</ele>
        <time>2022-07-21T06:36:50Z</time>
      </trkpt>
      <trkpt lat="46.21941" lon="5.3183">
        <ele>270.4</ele>
        <time>2022-07-21T06:36:51Z</time>
      </trkpt>
      <trkpt lat="46.21936" lon="5.31832">
        <ele>270.6</ele>
        <time>2022-07-21T06:36:52Z</time>
      </trkpt>
      <trkpt lat="46.21927" lon="5.3184">
        <ele>270.6</ele>
        <time>2022-07-21T06:36:54Z</time>
      </trkpt>
      <trkpt lat="46.21923" lon="5.31844">
        <ele>270.8</ele>
        <time>2022-07-21T06:36:55Z</time>
      </trkpt>
      <trkpt lat="46.21915" lon="5.31856">
        <ele>270.8</ele>
        <time>2022-07-21T06:36:57Z</time>
      </trkpt>
      <trkpt lat="46.21908" lon="5.31871">
        <ele>271</ele>
        <time>2022-07-21T06:36:59Z</time>
      </trkpt>
      <trkpt lat="46.21905" lon="5.31879">
        <ele>271</ele>
        <time>2022-07-21T06:37:00Z</time>
      </trkpt>
      <trkpt lat="46.21894" lon="5.31918">
        <ele>271.4</ele>
        <time>2022-07-21T06:37:05Z</time>
      </trkpt>
      <trkpt lat="46.21892" lon="5.31925">
        <ele>271.4</ele>
        <time>2022-07-21T06:37:06Z</time>
      </trkpt>
      <trkpt lat="46.21889" lon="5.31934">
        <ele>271.6</ele>
        <time>2022-07-21T06:37:07Z</time>
      </trkpt>
      <trkpt lat="46.21884" lon="5.31949">
        <ele>271.8</ele>
        <time>2022-07-21T06:37:09Z</time>
      </trkpt>
      <trkpt lat="46.21879" lon="5.31962">
        <ele>272</ele>
        <time>2022-07-21T06:37:11Z</time>
      </trkpt>
      <trkpt lat="46.21865" lon="5.31988">
        <ele>272.4</ele>
        <time>2022-07-21T06:37:15Z</time>
      </trkpt>
      <trkpt lat="46.21851" lon="5.32014">
        <ele>272.6</ele>
        <time>2022-07-21T06:37:19Z</time>
      </trkpt>
      <trkpt lat="46.21839" lon="5.32035">
        <ele>272.8</ele>
        <time>2022-07-21T06:37:22Z</time>
      </trkpt>
      <trkpt lat="46.21814" lon="5.3208">
        <ele>273.6</ele>
        <time>2022-07-21T06:37:29Z</time>
      </trkpt>
      <trkpt lat="46.21798" lon="5.321">
        <ele>273.8</ele>
        <time>2022-07-21T06:37:33Z</time>
      </trkpt>
      <trkpt lat="46.21793" lon="5.32104">
        <ele>274</ele>
        <time>2022-07-21T06:37:34Z</time>
      </trkpt>
      <trkpt lat="46.21787" lon="5.32107">
        <ele>274.2</ele>
        <time>2022-07-21T06:37:35Z</time>
      </trkpt>
      <trkpt lat="46.21778" lon="5.32112">
        <ele>274.4</ele>
        <time>2022-07-21T06:37:37Z</time>
      </trkpt>
      <trkpt lat="46.21769" lon="5.32115">
        <ele>274.8</ele>
        <time>2022-07-21T06:37:39Z</time>
      </trkpt>
      <trkpt lat="46.21764" lon="5.32117">
        <ele>275.2</ele>
        <time>2022-07-21T06:37:40Z</time>
      </trkpt>
      <trkpt lat="46.21754" lon="5.32117">
        <ele>275.6</ele>
        <time>2022-07-21T06:37:42Z</time>
      </trkpt>
      <trkpt lat="46.21747" lon="5.32117">
        <ele>275.6</ele>
        <time>2022-07-21T06:37:43Z</time>
      </trkpt>
      <trkpt lat="46.21737" lon="5.32118">
        <ele>276</ele>
        <time>2022-07-21T06:37:45Z</time>
      </trkpt>
      <trkpt lat="46.21732" lon="5.3212">
        <ele>276.2</ele>
        <time>2022-07-21T06:37:46Z</time>
      </trkpt>
      <trkpt lat="46.21719" lon="5.32126">
        <ele>276.4</ele>
        <time>2022-07-21T06:37:48Z</time>
      </trkpt>
      <trkpt lat="46.21703" lon="5.32142">
        <ele>276.8</ele>
        <time>2022-07-21T06:37:51Z</time>
      </trkpt>
      <trkpt lat="46.21699" lon="5.32148">
        <ele>276.8</ele>
        <time>2022-07-21T06:37:52Z</time>
      </trkpt>
      <trkpt lat="46.21693" lon="5.3216">
        <ele>277.2</ele>
        <time>2022-07-21T06:37:54Z</time>
      </trkpt>
      <trkpt lat="46.21678" lon="5.32194">
        <ele>278.4</ele>
        <time>2022-07-21T06:37:59Z</time>
      </trkpt>
      <trkpt lat="46.21656" lon="5.32251">
        <ele>279.6</ele>
        <time>2022-07-21T06:38:07Z</time>
      </trkpt>
      <trkpt lat="46.21655" lon="5.32256">
        <ele>279.6</ele>
        <time>2022-07-21T06:38:08Z</time>
      </trkpt>
      <trkpt lat="46.21633" lon="5.32301">
        <ele>280.2</ele>
        <time>2022-07-21T06:38:15Z</time>
      </trkpt>
      <trkpt lat="46.21623" lon="5.32319">
        <ele>280.6</ele>
        <time>2022-07-21T06:38:18Z</time>
      </trkpt>
      <trkpt lat="46.2161" lon="5.3235">
        <ele>281.4</ele>
        <time>2022-07-21T06:38:23Z</time>
      </trkpt>
      <trkpt lat="46.21604" lon="5.32361">
        <ele>281.6</ele>
        <time>2022-07-21T06:38:25Z</time>
      </trkpt>
      <trkpt lat="46.21581" lon="5.32396">
        <ele>282.6</ele>
        <time>2022-07-21T06:38:31Z</time>
      </trkpt>
      <trkpt lat="46.21577" lon="5.324">
        <ele>282.8</ele>
        <time>2022-07-21T06:38:32Z</time>
      </trkpt>
      <trkpt lat="46.21546" lon="5.32431">
        <ele>283.8</ele>
        <time>2022-07-21T06:38:39Z</time>
      </trkpt>
      <trkpt lat="46.21541" lon="5.32436">
        <ele>284</ele>
        <time>2022-07-21T06:38:40Z</time>
      </trkpt>
      <trkpt lat="46.2153" lon="5.32449">
        <ele>284.2</ele>
        <time>2022-07-21T06:38:43Z</time>
      </trkpt>
      <trkpt lat="46.21519" lon="5.32469">
        <ele>284.6</ele>
        <time>2022-07-21T06:38:46Z</time>
      </trkpt>
      <trkpt lat="46.2151" lon="5.32488">
        <ele>284.8</ele>
        <time>2022-07-21T06:38:49Z</time>
      </trkpt>
      <trkpt lat="46.21502" lon="5.32505">
        <ele>285</ele>
        <time>2022-07-21T06:38:52Z</time>
      </trkpt>
      <trkpt lat="46.21494" lon="5.32527">
        <ele>285.2</ele>
        <time>2022-07-21T06:38:55Z</time>
      </trkpt>
      <trkpt lat="46.21482" lon="5.32553">
        <ele>286</ele>
        <time>2022-07-21T06:38:59Z</time>
      </trkpt>
      <trkpt lat="46.21475" lon="5.32573">
        <ele>286.2</ele>
        <time>2022-07-21T06:39:02Z</time>
      </trkpt>
      <trkpt lat="46.21467" lon="5.32597">
        <ele>286.8</ele>
        <time>2022-07-21T06:39:05Z</time>
      </trkpt>
      <trkpt lat="46.21451" lon="5.32636">
        <ele>286.6</ele>
        <time>2022-07-21T06:39:10Z</time>
      </trkpt>
      <trkpt lat="46.21447" lon="5.32644">
        <ele>286.6</ele>
        <time>2022-07-21T06:39:11Z</time>
      </trkpt>
      <trkpt lat="46.21434" lon="5.32667">
        <ele>286.4</ele>
        <time>2022-07-21T06:39:15Z</time>
      </trkpt>
      <trkpt lat="46.2143" lon="5.32673">
        <ele>286.4</ele>
        <time>2022-07-21T06:39:18Z</time>
      </trkpt>
      <trkpt lat="46.2143" lon="5.32673">
        <ele>286.6</ele>
        <time>2022-07-21T06:39:20Z</time>
      </trkpt>
      <trkpt lat="46.21423" lon="5.32672">
        <ele>286.6</ele>
        <time>2022-07-21T06:39:31Z</time>
      </trkpt>
      <trkpt lat="46.21419" lon="5.32669">
        <ele>286.4</ele>
        <time>2022-07-21T06:39:32Z</time>
      </trkpt>
      <trkpt lat="46.21414" lon="5.32665">
        <ele>286.4</ele>
        <time>2022-07-21T06:39:33Z</time>
      </trkpt>
      <trkpt lat="46.21404" lon="5.32657">
        <ele>286.4</ele>
        <time>2022-07-21T06:39:35Z</time>
      </trkpt>
      <trkpt lat="46.21399" lon="5.32653">
        <ele>286.4</ele>
        <time>2022-07-21T06:39:36Z</time>
      </trkpt>
      <trkpt lat="46.21363" lon="5.32626">
        <ele>286.2</ele>
        <time>2022-07-21T06:39:42Z</time>
      </trkpt>
      <trkpt lat="46.21323" lon="5.32603">
        <ele>286.8</ele>
        <time>2022-07-21T06:39:49Z</time>
      </trkpt>
      <trkpt lat="46.21282" lon="5.32578">
        <ele>287.4</ele>
        <time>2022-07-21T06:39:57Z</time>
      </trkpt>
      <trkpt lat="46.21272" lon="5.32571">
        <ele>287.8</ele>
        <time>2022-07-21T06:39:59Z</time>
      </trkpt>
      <trkpt lat="46.21247" lon="5.32556">
        <ele>288</ele>
        <time>2022-07-21T06:40:04Z</time>
      </trkpt>
      <trkpt lat="46.21243" lon="5.32553">
        <ele>288.2</ele>
        <time>2022-07-21T06:40:05Z</time>
      </trkpt>
      <trkpt lat="46.21225" lon="5.32545">
        <ele>288.4</ele>
        <time>2022-07-21T06:40:10Z</time>
      </trkpt>
      <trkpt lat="46.21218" lon="5.32545">
        <ele>288.6</ele>
        <time>2022-07-21T06:40:16Z</time>
      </trkpt>
      <trkpt lat="46.21218" lon="5.32545">
        <ele>288.6</ele>
        <time>2022-07-21T06:40:17Z</time>
      </trkpt>
      <trkpt lat="46.21217" lon="5.3255">
        <ele>288</ele>
        <time>2022-07-21T06:40:44Z</time>
      </trkpt>
      <trkpt lat="46.21216" lon="5.32556">
        <ele>288.2</ele>
        <time>2022-07-21T06:40:45Z</time>
      </trkpt>
      <trkpt lat="46.21214" lon="5.32597">
        <ele>288.4</ele>
        <time>2022-07-21T06:40:50Z</time>
      </trkpt>
      <trkpt lat="46.21214" lon="5.32616">
        <ele>288.4</ele>
        <time>2022-07-21T06:40:52Z</time>
      </trkpt>
      <trkpt lat="46.21215" lon="5.32633">
        <ele>288.4</ele>
        <time>2022-07-21T06:40:54Z</time>
      </trkpt>
      <trkpt lat="46.21218" lon="5.32673">
        <ele>288.8</ele>
        <time>2022-07-21T06:40:58Z</time>
      </trkpt>
      <trkpt lat="46.21221" lon="5.32702">
        <ele>288.6</ele>
        <time>2022-07-21T06:41:01Z</time>
      </trkpt>
      <trkpt lat="46.21224" lon="5.32737">
        <ele>288.6</ele>
        <time>2022-07-21T06:41:05Z</time>
      </trkpt>
      <trkpt lat="46.21226" lon="5.32755">
        <ele>288.6</ele>
        <time>2022-07-21T06:41:07Z</time>
      </trkpt>
      <trkpt lat="46.2123" lon="5.32806">
        <ele>289</ele>
        <time>2022-07-21T06:41:13Z</time>
      </trkpt>
      <trkpt lat="46.21238" lon="5.32848">
        <ele>289.6</ele>
        <time>2022-07-21T06:41:18Z</time>
      </trkpt>
      <trkpt lat="46.21239" lon="5.32856">
        <ele>289.8</ele>
        <time>2022-07-21T06:41:19Z</time>
      </trkpt>
      <trkpt lat="46.21248" lon="5.329">
        <ele>290.6</ele>
        <time>2022-07-21T06:41:25Z</time>
      </trkpt>
      <trkpt lat="46.21248" lon="5.32906">
        <ele>290.6</ele>
        <time>2022-07-21T06:41:26Z</time>
      </trkpt>
      <trkpt lat="46.21251" lon="5.32934">
        <ele>291.6</ele>
        <time>2022-07-21T06:41:30Z</time>
      </trkpt>
      <trkpt lat="46.21253" lon="5.3294">
        <ele>291.8</ele>
        <time>2022-07-21T06:41:31Z</time>
      </trkpt>
      <trkpt lat="46.21255" lon="5.32947">
        <ele>292.2</ele>
        <time>2022-07-21T06:41:32Z</time>
      </trkpt>
      <trkpt lat="46.21258" lon="5.32953">
        <ele>292.4</ele>
        <time>2022-07-21T06:41:33Z</time>
      </trkpt>
      <trkpt lat="46.21261" lon="5.32958">
        <ele>293.2</ele>
        <time>2022-07-21T06:41:34Z</time>
      </trkpt>
      <trkpt lat="46.21262" lon="5.32965">
        <ele>293.4</ele>
        <time>2022-07-21T06:41:35Z</time>
      </trkpt>
      <trkpt lat="46.21264" lon="5.32971">
        <ele>294</ele>
        <time>2022-07-21T06:41:36Z</time>
      </trkpt>
      <trkpt lat="46.21265" lon="5.32978">
        <ele>294.6</ele>
        <time>2022-07-21T06:41:37Z</time>
      </trkpt>
      <trkpt lat="46.2127" lon="5.33001">
        <ele>295.4</ele>
        <time>2022-07-21T06:41:41Z</time>
      </trkpt>
      <trkpt lat="46.21272" lon="5.33014">
        <ele>295.6</ele>
        <time>2022-07-21T06:41:43Z</time>
      </trkpt>
      <trkpt lat="46.21272" lon="5.33026">
        <ele>296</ele>
        <time>2022-07-21T06:41:45Z</time>
      </trkpt>
      <trkpt lat="46.21272" lon="5.33032">
        <ele>296.2</ele>
        <time>2022-07-21T06:41:46Z</time>
      </trkpt>
      <trkpt lat="46.21272" lon="5.33047">
        <ele>296.8</ele>
        <time>2022-07-21T06:41:48Z</time>
      </trkpt>
      <trkpt lat="46.21272" lon="5.33062">
        <ele>297.2</ele>
        <time>2022-07-21T06:41:50Z</time>
      </trkpt>
      <trkpt lat="46.21272" lon="5.33078">
        <ele>297.6</ele>
        <time>2022-07-21T06:41:52Z</time>
      </trkpt>
      <trkpt lat="46.21272" lon="5.33086">
        <ele>297.8</ele>
        <time>2022-07-21T06:41:53Z</time>
      </trkpt>
      <trkpt lat="46.21273" lon="5.33101">
        <ele>298.2</ele>
        <time>2022-07-21T06:41:55Z</time>
      </trkpt>
      <trkpt lat="46.21283" lon="5.33169">
        <ele>298.8</ele>
        <time>2022-07-21T06:42:03Z</time>
      </trkpt>
      <trkpt lat="46.21286" lon="5.33189">
        <ele>298.8</ele>
        <time>2022-07-21T06:42:06Z</time>
      </trkpt>
      <trkpt lat="46.21296" lon="5.33222">
        <ele>299.2</ele>
        <time>2022-07-21T06:42:11Z</time>
      </trkpt>
      <trkpt lat="46.21311" lon="5.33252">
        <ele>299.8</ele>
        <time>2022-07-21T06:42:16Z</time>
      </trkpt>
      <trkpt lat="46.21322" lon="5.33268">
        <ele>300</ele>
        <time>2022-07-21T06:42:19Z</time>
      </trkpt>
      <trkpt lat="46.21325" lon="5.33274">
        <ele>300.2</ele>
        <time>2022-07-21T06:42:20Z</time>
      </trkpt>
      <trkpt lat="46.21334" lon="5.3329">
        <ele>300.8</ele>
        <time>2022-07-21T06:42:23Z</time>
      </trkpt>
      <trkpt lat="46.2134" lon="5.33301">
        <ele>301</ele>
        <time>2022-07-21T06:42:25Z</time>
      </trkpt>
      <trkpt lat="46.21342" lon="5.33306">
        <ele>301.2</ele>
        <time>2022-07-21T06:42:26Z</time>
      </trkpt>
      <trkpt lat="46.21351" lon="5.33323">
        <ele>302</ele>
        <time>2022-07-21T06:42:29Z</time>
      </trkpt>
      <trkpt lat="46.21354" lon="5.33329">
        <ele>302.2</ele>
        <time>2022-07-21T06:42:30Z</time>
      </trkpt>
      <trkpt lat="46.2136" lon="5.33339">
        <ele>303</ele>
        <time>2022-07-21T06:42:32Z</time>
      </trkpt>
      <trkpt lat="46.21379" lon="5.33379">
        <ele>304.2</ele>
        <time>2022-07-21T06:42:39Z</time>
      </trkpt>
      <trkpt lat="46.21392" lon="5.33406">
        <ele>305.2</ele>
        <time>2022-07-21T06:42:44Z</time>
      </trkpt>
      <trkpt lat="46.21402" lon="5.33428">
        <ele>306.2</ele>
        <time>2022-07-21T06:42:48Z</time>
      </trkpt>
      <trkpt lat="46.21405" lon="5.33434">
        <ele>306.4</ele>
        <time>2022-07-21T06:42:49Z</time>
      </trkpt>
      <trkpt lat="46.21427" lon="5.33482">
        <ele>307.4</ele>
        <time>2022-07-21T06:42:58Z</time>
      </trkpt>
      <trkpt lat="46.21434" lon="5.33498">
        <ele>308.2</ele>
        <time>2022-07-21T06:43:01Z</time>
      </trkpt>
      <trkpt lat="46.21437" lon="5.33503">
        <ele>308.4</ele>
        <time>2022-07-21T06:43:02Z</time>
      </trkpt>
      <trkpt lat="46.21446" lon="5.33519">
        <ele>309.2</ele>
        <time>2022-07-21T06:43:05Z</time>
      </trkpt>
      <trkpt lat="46.21449" lon="5.33524">
        <ele>309.6</ele>
        <time>2022-07-21T06:43:06Z</time>
      </trkpt>
      <trkpt lat="46.21465" lon="5.33552">
        <ele>310.8</ele>
        <time>2022-07-21T06:43:11Z</time>
      </trkpt>
      <trkpt lat="46.21477" lon="5.33575">
        <ele>311.6</ele>
        <time>2022-07-21T06:43:15Z</time>
      </trkpt>
      <trkpt lat="46.21484" lon="5.33587">
        <ele>311.8</ele>
        <time>2022-07-21T06:43:17Z</time>
      </trkpt>
      <trkpt lat="46.21487" lon="5.33593">
        <ele>312.2</ele>
        <time>2022-07-21T06:43:18Z</time>
      </trkpt>
      <trkpt lat="46.21493" lon="5.33605">
        <ele>312.4</ele>
        <time>2022-07-21T06:43:20Z</time>
      </trkpt>
      <trkpt lat="46.215" lon="5.33618">
        <ele>312.6</ele>
        <time>2022-07-21T06:43:22Z</time>
      </trkpt>
      <trkpt lat="46.21509" lon="5.33637">
        <ele>313</ele>
        <time>2022-07-21T06:43:25Z</time>
      </trkpt>
      <trkpt lat="46.21521" lon="5.33662">
        <ele>313.2</ele>
        <time>2022-07-21T06:43:29Z</time>
      </trkpt>
      <trkpt lat="46.21538" lon="5.33693">
        <ele>313.8</ele>
        <time>2022-07-21T06:43:34Z</time>
      </trkpt>
      <trkpt lat="46.21549" lon="5.33717">
        <ele>314.2</ele>
        <time>2022-07-21T06:43:38Z</time>
      </trkpt>
      <trkpt lat="46.21558" lon="5.33735">
        <ele>314.8</ele>
        <time>2022-07-21T06:43:41Z</time>
      </trkpt>
      <trkpt lat="46.21576" lon="5.3377">
        <ele>316</ele>
        <time>2022-07-21T06:43:47Z</time>
      </trkpt>
      <trkpt lat="46.21584" lon="5.33787">
        <ele>316.2</ele>
        <time>2022-07-21T06:43:50Z</time>
      </trkpt>
      <trkpt lat="46.21591" lon="5.33799">
        <ele>316.4</ele>
        <time>2022-07-21T06:43:52Z</time>
      </trkpt>
      <trkpt lat="46.21597" lon="5.33812">
        <ele>316.4</ele>
        <time>2022-07-21T06:43:54Z</time>
      </trkpt>
      <trkpt lat="46.21607" lon="5.33831">
        <ele>317</ele>
        <time>2022-07-21T06:43:57Z</time>
      </trkpt>
      <trkpt lat="46.2162" lon="5.33854">
        <ele>318</ele>
        <time>2022-07-21T06:44:01Z</time>
      </trkpt>
      <trkpt lat="46.21626" lon="5.33865">
        <ele>318</ele>
        <time>2022-07-21T06:44:03Z</time>
      </trkpt>
      <trkpt lat="46.21652" lon="5.33912">
        <ele>319</ele>
        <time>2022-07-21T06:44:11Z</time>
      </trkpt>
      <trkpt lat="46.21658" lon="5.33923">
        <ele>319.2</ele>
        <time>2022-07-21T06:44:13Z</time>
      </trkpt>
      <trkpt lat="46.21682" lon="5.33969">
        <ele>319.8</ele>
        <time>2022-07-21T06:44:21Z</time>
      </trkpt>
      <trkpt lat="46.21685" lon="5.33975">
        <ele>320</ele>
        <time>2022-07-21T06:44:22Z</time>
      </trkpt>
      <trkpt lat="46.21705" lon="5.34015">
        <ele>320.6</ele>
        <time>2022-07-21T06:44:29Z</time>
      </trkpt>
      <trkpt lat="46.21711" lon="5.34027">
        <ele>321</ele>
        <time>2022-07-21T06:44:31Z</time>
      </trkpt>
      <trkpt lat="46.21719" lon="5.34044">
        <ele>322.6</ele>
        <time>2022-07-21T06:44:34Z</time>
      </trkpt>
      <trkpt lat="46.21737" lon="5.34078">
        <ele>323.2</ele>
        <time>2022-07-21T06:44:40Z</time>
      </trkpt>
      <trkpt lat="46.2174" lon="5.34083">
        <ele>323.2</ele>
        <time>2022-07-21T06:44:41Z</time>
      </trkpt>
      <trkpt lat="46.21745" lon="5.34094">
        <ele>323.6</ele>
        <time>2022-07-21T06:44:43Z</time>
      </trkpt>
      <trkpt lat="46.21758" lon="5.3412">
        <ele>324.4</ele>
        <time>2022-07-21T06:44:48Z</time>
      </trkpt>
      <trkpt lat="46.21761" lon="5.34125">
        <ele>324.6</ele>
        <time>2022-07-21T06:44:49Z</time>
      </trkpt>
      <trkpt lat="46.21769" lon="5.3414">
        <ele>326</ele>
        <time>2022-07-21T06:44:52Z</time>
      </trkpt>
      <trkpt lat="46.21779" lon="5.34161">
        <ele>327</ele>
        <time>2022-07-21T06:44:56Z</time>
      </trkpt>
      <trkpt lat="46.21792" lon="5.34189">
        <ele>328</ele>
        <time>2022-07-21T06:45:01Z</time>
      </trkpt>
      <trkpt lat="46.21794" lon="5.34194">
        <ele>328.2</ele>
        <time>2022-07-21T06:45:02Z</time>
      </trkpt>
      <trkpt lat="46.21797" lon="5.342">
        <ele>328.4</ele>
        <time>2022-07-21T06:45:03Z</time>
      </trkpt>
      <trkpt lat="46.21808" lon="5.34223">
        <ele>329.2</ele>
        <time>2022-07-21T06:45:07Z</time>
      </trkpt>
      <trkpt lat="46.21815" lon="5.34234">
        <ele>329.8</ele>
        <time>2022-07-21T06:45:09Z</time>
      </trkpt>
      <trkpt lat="46.21821" lon="5.34244">
        <ele>330.2</ele>
        <time>2022-07-21T06:45:11Z</time>
      </trkpt>
      <trkpt lat="46.21833" lon="5.34271">
        <ele>331.2</ele>
        <time>2022-07-21T06:45:16Z</time>
      </trkpt>
      <trkpt lat="46.21838" lon="5.34281">
        <ele>331.6</ele>
        <time>2022-07-21T06:45:18Z</time>
      </trkpt>
      <trkpt lat="46.21859" lon="5.34319">
        <ele>332.6</ele>
        <time>2022-07-21T06:45:25Z</time>
      </trkpt>
      <trkpt lat="46.21862" lon="5.34324">
        <ele>332.8</ele>
        <time>2022-07-21T06:45:26Z</time>
      </trkpt>
      <trkpt lat="46.21879" lon="5.3435">
        <ele>334</ele>
        <time>2022-07-21T06:45:31Z</time>
      </trkpt>
      <trkpt lat="46.21884" lon="5.34362">
        <ele>334.2</ele>
        <time>2022-07-21T06:45:33Z</time>
      </trkpt>
      <trkpt lat="46.219" lon="5.34394">
        <ele>334.8</ele>
        <time>2022-07-21T06:45:39Z</time>
      </trkpt>
      <trkpt lat="46.21906" lon="5.34404">
        <ele>335.2</ele>
        <time>2022-07-21T06:45:41Z</time>
      </trkpt>
      <trkpt lat="46.21916" lon="5.34422">
        <ele>336</ele>
        <time>2022-07-21T06:45:45Z</time>
      </trkpt>
      <trkpt lat="46.21929" lon="5.34439">
        <ele>337</ele>
        <time>2022-07-21T06:45:49Z</time>
      </trkpt>
      <trkpt lat="46.21932" lon="5.34443">
        <ele>337.4</ele>
        <time>2022-07-21T06:45:50Z</time>
      </trkpt>
      <trkpt lat="46.21941" lon="5.34455">
        <ele>338.2</ele>
        <time>2022-07-21T06:45:53Z</time>
      </trkpt>
      <trkpt lat="46.21945" lon="5.34459">
        <ele>338.6</ele>
        <time>2022-07-21T06:45:54Z</time>
      </trkpt>
      <trkpt lat="46.21952" lon="5.34467">
        <ele>338.8</ele>
        <time>2022-07-21T06:45:56Z</time>
      </trkpt>
      <trkpt lat="46.21978" lon="5.34492">
        <ele>339.6</ele>
        <time>2022-07-21T06:46:02Z</time>
      </trkpt>
      <trkpt lat="46.21986" lon="5.34501">
        <ele>340</ele>
        <time>2022-07-21T06:46:04Z</time>
      </trkpt>
      <trkpt lat="46.22003" lon="5.34518">
        <ele>340.6</ele>
        <time>2022-07-21T06:46:08Z</time>
      </trkpt>
      <trkpt lat="46.22015" lon="5.3453">
        <ele>341.2</ele>
        <time>2022-07-21T06:46:11Z</time>
      </trkpt>
      <trkpt lat="46.22023" lon="5.34536">
        <ele>341.4</ele>
        <time>2022-07-21T06:46:13Z</time>
      </trkpt>
      <trkpt lat="46.2203" lon="5.34543">
        <ele>341.6</ele>
        <time>2022-07-21T06:46:15Z</time>
      </trkpt>
      <trkpt lat="46.22035" lon="5.34547">
        <ele>341.8</ele>
        <time>2022-07-21T06:46:16Z</time>
      </trkpt>
      <trkpt lat="46.22047" lon="5.34558">
        <ele>342.4</ele>
        <time>2022-07-21T06:46:19Z</time>
      </trkpt>
      <trkpt lat="46.22054" lon="5.34567">
        <ele>342.6</ele>
        <time>2022-07-21T06:46:21Z</time>
      </trkpt>
      <trkpt lat="46.22065" lon="5.34577">
        <ele>343.2</ele>
        <time>2022-07-21T06:46:24Z</time>
      </trkpt>
      <trkpt lat="46.22076" lon="5.34587">
        <ele>343.8</ele>
        <time>2022-07-21T06:46:27Z</time>
      </trkpt>
      <trkpt lat="46.22086" lon="5.34595">
        <ele>344.4</ele>
        <time>2022-07-21T06:46:30Z</time>
      </trkpt>
      <trkpt lat="46.22094" lon="5.34601">
        <ele>344.8</ele>
        <time>2022-07-21T06:46:32Z</time>
      </trkpt>
      <trkpt lat="46.22115" lon="5.34616">
        <ele>346.4</ele>
        <time>2022-07-21T06:46:38Z</time>
      </trkpt>
      <trkpt lat="46.22125" lon="5.34622">
        <ele>347.2</ele>
        <time>2022-07-21T06:46:41Z</time>
      </trkpt>
      <trkpt lat="46.22133" lon="5.34627">
        <ele>347.4</ele>
        <time>2022-07-21T06:46:43Z</time>
      </trkpt>
      <trkpt lat="46.22151" lon="5.34639">
        <ele>348.6</ele>
        <time>2022-07-21T06:46:48Z</time>
      </trkpt>
      <trkpt lat="46.2217" lon="5.3465">
        <ele>349.6</ele>
        <time>2022-07-21T06:46:53Z</time>
      </trkpt>
      <trkpt lat="46.22173" lon="5.34652">
        <ele>350</ele>
        <time>2022-07-21T06:46:54Z</time>
      </trkpt>
      <trkpt lat="46.22194" lon="5.34669">
        <ele>350.6</ele>
        <time>2022-07-21T06:47:00Z</time>
      </trkpt>
      <trkpt lat="46.22208" lon="5.3468">
        <ele>351.6</ele>
        <time>2022-07-21T06:47:04Z</time>
      </trkpt>
      <trkpt lat="46.22211" lon="5.34683">
        <ele>351.8</ele>
        <time>2022-07-21T06:47:05Z</time>
      </trkpt>
      <trkpt lat="46.22226" lon="5.34698">
        <ele>352.6</ele>
        <time>2022-07-21T06:47:10Z</time>
      </trkpt>
      <trkpt lat="46.22235" lon="5.34709">
        <ele>353.6</ele>
        <time>2022-07-21T06:47:13Z</time>
      </trkpt>
      <trkpt lat="46.22242" lon="5.34716">
        <ele>353.8</ele>
        <time>2022-07-21T06:47:15Z</time>
      </trkpt>
      <trkpt lat="46.22251" lon="5.34729">
        <ele>355</ele>
        <time>2022-07-21T06:47:18Z</time>
      </trkpt>
      <trkpt lat="46.2226" lon="5.34741">
        <ele>355.8</ele>
        <time>2022-07-21T06:47:21Z</time>
      </trkpt>
      <trkpt lat="46.22264" lon="5.34749">
        <ele>356</ele>
        <time>2022-07-21T06:47:23Z</time>
      </trkpt>
      <trkpt lat="46.22277" lon="5.34769">
        <ele>357</ele>
        <time>2022-07-21T06:47:28Z</time>
      </trkpt>
      <trkpt lat="46.2228" lon="5.34774">
        <ele>357.4</ele>
        <time>2022-07-21T06:47:29Z</time>
      </trkpt>
      <trkpt lat="46.2229" lon="5.3479">
        <ele>358.8</ele>
        <time>2022-07-21T06:47:33Z</time>
      </trkpt>
      <trkpt lat="46.223" lon="5.34807">
        <ele>359.6</ele>
        <time>2022-07-21T06:47:37Z</time>
      </trkpt>
      <trkpt lat="46.22309" lon="5.3482">
        <ele>359.8</ele>
        <time>2022-07-21T06:47:40Z</time>
      </trkpt>
      <trkpt lat="46.22323" lon="5.34841">
        <ele>361.2</ele>
        <time>2022-07-21T06:47:45Z</time>
      </trkpt>
      <trkpt lat="46.22325" lon="5.34845">
        <ele>361.4</ele>
        <time>2022-07-21T06:47:46Z</time>
      </trkpt>
      <trkpt lat="46.22348" lon="5.34874">
        <ele>362</ele>
        <time>2022-07-21T06:47:53Z</time>
      </trkpt>
      <trkpt lat="46.22354" lon="5.34882">
        <ele>362.2</ele>
        <time>2022-07-21T06:47:55Z</time>
      </trkpt>
      <trkpt lat="46.22368" lon="5.34898">
        <ele>362.8</ele>
        <time>2022-07-21T06:47:59Z</time>
      </trkpt>
      <trkpt lat="46.22383" lon="5.34913">
        <ele>363.2</ele>
        <time>2022-07-21T06:48:03Z</time>
      </trkpt>
      <trkpt lat="46.22421" lon="5.34949">
        <ele>364</ele>
        <time>2022-07-21T06:48:12Z</time>
      </trkpt>
      <trkpt lat="46.22443" lon="5.3497">
        <ele>364.2</ele>
        <time>2022-07-21T06:48:17Z</time>
      </trkpt>
      <trkpt lat="46.2246" lon="5.34987">
        <ele>364.8</ele>
        <time>2022-07-21T06:48:21Z</time>
      </trkpt>
      <trkpt lat="46.22494" lon="5.35019">
        <ele>365.4</ele>
        <time>2022-07-21T06:48:29Z</time>
      </trkpt>
      <trkpt lat="46.22509" lon="5.35035">
        <ele>366</ele>
        <time>2022-07-21T06:48:33Z</time>
      </trkpt>
      <trkpt lat="46.22517" lon="5.35043">
        <ele>366</ele>
        <time>2022-07-21T06:48:35Z</time>
      </trkpt>
      <trkpt lat="46.22537" lon="5.35062">
        <ele>366.2</ele>
        <time>2022-07-21T06:48:39Z</time>
      </trkpt>
      <trkpt lat="46.22554" lon="5.35078">
        <ele>366.2</ele>
        <time>2022-07-21T06:48:42Z</time>
      </trkpt>
      <trkpt lat="46.22561" lon="5.35084">
        <ele>366.2</ele>
        <time>2022-07-21T06:48:43Z</time>
      </trkpt>
      <trkpt lat="46.22574" lon="5.35095">
        <ele>366.2</ele>
        <time>2022-07-21T06:48:45Z</time>
      </trkpt>
      <trkpt lat="46.22587" lon="5.35107">
        <ele>366.2</ele>
        <time>2022-07-21T06:48:47Z</time>
      </trkpt>
      <trkpt lat="46.22603" lon="5.35124">
        <ele>366</ele>
        <time>2022-07-21T06:48:50Z</time>
      </trkpt>
      <trkpt lat="46.22609" lon="5.3513">
        <ele>365.8</ele>
        <time>2022-07-21T06:48:51Z</time>
      </trkpt>
      <trkpt lat="46.22655" lon="5.35167">
        <ele>365.4</ele>
        <time>2022-07-21T06:48:57Z</time>
      </trkpt>
      <trkpt lat="46.22685" lon="5.3519">
        <ele>365.2</ele>
        <time>2022-07-21T06:49:01Z</time>
      </trkpt>
      <trkpt lat="46.22693" lon="5.35197">
        <ele>365.2</ele>
        <time>2022-07-21T06:49:02Z</time>
      </trkpt>
      <trkpt lat="46.22702" lon="5.35203">
        <ele>364.8</ele>
        <time>2022-07-21T06:49:03Z</time>
      </trkpt>
      <trkpt lat="46.22729" lon="5.35229">
        <ele>364.4</ele>
        <time>2022-07-21T06:49:07Z</time>
      </trkpt>
      <trkpt lat="46.22739" lon="5.35236">
        <ele>364.2</ele>
        <time>2022-07-21T06:49:08Z</time>
      </trkpt>
      <trkpt lat="46.22769" lon="5.35261">
        <ele>363</ele>
        <time>2022-07-21T06:49:12Z</time>
      </trkpt>
      <trkpt lat="46.22809" lon="5.35295">
        <ele>362</ele>
        <time>2022-07-21T06:49:18Z</time>
      </trkpt>
      <trkpt lat="46.22824" lon="5.35307">
        <ele>361.8</ele>
        <time>2022-07-21T06:49:20Z</time>
      </trkpt>
      <trkpt lat="46.22872" lon="5.3534">
        <ele>361.2</ele>
        <time>2022-07-21T06:49:27Z</time>
      </trkpt>
      <trkpt lat="46.22917" lon="5.35371">
        <ele>361</ele>
        <time>2022-07-21T06:49:34Z</time>
      </trkpt>
      <trkpt lat="46.22955" lon="5.35403">
        <ele>361.2</ele>
        <time>2022-07-21T06:49:40Z</time>
      </trkpt>
      <trkpt lat="46.22984" lon="5.35431">
        <ele>361.2</ele>
        <time>2022-07-21T06:49:45Z</time>
      </trkpt>
      <trkpt lat="46.23028" lon="5.35475">
        <ele>361.2</ele>
        <time>2022-07-21T06:49:52Z</time>
      </trkpt>
      <trkpt lat="46.23052" lon="5.35499">
        <ele>361.2</ele>
        <time>2022-07-21T06:49:56Z</time>
      </trkpt>
      <trkpt lat="46.23058" lon="5.35506">
        <ele>361.2</ele>
        <time>2022-07-21T06:49:57Z</time>
      </trkpt>
      <trkpt lat="46.23092" lon="5.35547">
        <ele>361.4</ele>
        <time>2022-07-21T06:50:03Z</time>
      </trkpt>
      <trkpt lat="46.23138" lon="5.35604">
        <ele>361.4</ele>
        <time>2022-07-21T06:50:11Z</time>
      </trkpt>
      <trkpt lat="46.23166" lon="5.35635">
        <ele>361.2</ele>
        <time>2022-07-21T06:50:15Z</time>
      </trkpt>
      <trkpt lat="46.23174" lon="5.35653">
        <ele>361</ele>
        <time>2022-07-21T06:50:17Z</time>
      </trkpt>
      <trkpt lat="46.23176" lon="5.35676">
        <ele>360.8</ele>
        <time>2022-07-21T06:50:19Z</time>
      </trkpt>
      <trkpt lat="46.23174" lon="5.35688">
        <ele>360.8</ele>
        <time>2022-07-21T06:50:20Z</time>
      </trkpt>
      <trkpt lat="46.23172" lon="5.35698">
        <ele>360.8</ele>
        <time>2022-07-21T06:50:21Z</time>
      </trkpt>
      <trkpt lat="46.23161" lon="5.35741">
        <ele>360.6</ele>
        <time>2022-07-21T06:50:25Z</time>
      </trkpt>
      <trkpt lat="46.23156" lon="5.35751">
        <ele>360.6</ele>
        <time>2022-07-21T06:50:26Z</time>
      </trkpt>
      <trkpt lat="46.23139" lon="5.35794">
        <ele>360</ele>
        <time>2022-07-21T06:50:30Z</time>
      </trkpt>
      <trkpt lat="46.23126" lon="5.35841">
        <ele>359.6</ele>
        <time>2022-07-21T06:50:34Z</time>
      </trkpt>
      <trkpt lat="46.23118" lon="5.35866">
        <ele>359</ele>
        <time>2022-07-21T06:50:36Z</time>
      </trkpt>
      <trkpt lat="46.23114" lon="5.35879">
        <ele>358.4</ele>
        <time>2022-07-21T06:50:37Z</time>
      </trkpt>
      <trkpt lat="46.23105" lon="5.35905">
        <ele>357.2</ele>
        <time>2022-07-21T06:50:39Z</time>
      </trkpt>
      <trkpt lat="46.23097" lon="5.35931">
        <ele>356</ele>
        <time>2022-07-21T06:50:41Z</time>
      </trkpt>
      <trkpt lat="46.23089" lon="5.35958">
        <ele>355</ele>
        <time>2022-07-21T06:50:43Z</time>
      </trkpt>
      <trkpt lat="46.23076" lon="5.35997">
        <ele>353.6</ele>
        <time>2022-07-21T06:50:46Z</time>
      </trkpt>
      <trkpt lat="46.23068" lon="5.36024">
        <ele>352.2</ele>
        <time>2022-07-21T06:50:48Z</time>
      </trkpt>
      <trkpt lat="46.23056" lon="5.36064">
        <ele>351</ele>
        <time>2022-07-21T06:50:51Z</time>
      </trkpt>
      <trkpt lat="46.23039" lon="5.36118">
        <ele>350</ele>
        <time>2022-07-21T06:50:55Z</time>
      </trkpt>
      <trkpt lat="46.23026" lon="5.36157">
        <ele>348.8</ele>
        <time>2022-07-21T06:50:58Z</time>
      </trkpt>
      <trkpt lat="46.2301" lon="5.36203">
        <ele>347.2</ele>
        <time>2022-07-21T06:51:01Z</time>
      </trkpt>
      <trkpt lat="46.23" lon="5.36232">
        <ele>346</ele>
        <time>2022-07-21T06:51:03Z</time>
      </trkpt>
      <trkpt lat="46.22995" lon="5.36246">
        <ele>345.6</ele>
        <time>2022-07-21T06:51:04Z</time>
      </trkpt>
      <trkpt lat="46.22984" lon="5.36276">
        <ele>344.8</ele>
        <time>2022-07-21T06:51:06Z</time>
      </trkpt>
      <trkpt lat="46.2298" lon="5.36288">
        <ele>343.8</ele>
        <time>2022-07-21T06:51:07Z</time>
      </trkpt>
      <trkpt lat="46.2297" lon="5.36319">
        <ele>342.4</ele>
        <time>2022-07-21T06:51:09Z</time>
      </trkpt>
      <trkpt lat="46.2296" lon="5.36349">
        <ele>340.8</ele>
        <time>2022-07-21T06:51:11Z</time>
      </trkpt>
      <trkpt lat="46.22956" lon="5.36363">
        <ele>339.8</ele>
        <time>2022-07-21T06:51:12Z</time>
      </trkpt>
      <trkpt lat="46.22951" lon="5.36378">
        <ele>339.4</ele>
        <time>2022-07-21T06:51:13Z</time>
      </trkpt>
      <trkpt lat="46.22941" lon="5.36407">
        <ele>338.4</ele>
        <time>2022-07-21T06:51:15Z</time>
      </trkpt>
      <trkpt lat="46.22932" lon="5.36437">
        <ele>337</ele>
        <time>2022-07-21T06:51:17Z</time>
      </trkpt>
      <trkpt lat="46.22913" lon="5.36495">
        <ele>335.6</ele>
        <time>2022-07-21T06:51:21Z</time>
      </trkpt>
      <trkpt lat="46.22908" lon="5.36509">
        <ele>335.4</ele>
        <time>2022-07-21T06:51:22Z</time>
      </trkpt>
      <trkpt lat="46.22893" lon="5.36565">
        <ele>334.2</ele>
        <time>2022-07-21T06:51:26Z</time>
      </trkpt>
      <trkpt lat="46.22888" lon="5.36579">
        <ele>334.2</ele>
        <time>2022-07-21T06:51:27Z</time>
      </trkpt>
      <trkpt lat="46.22875" lon="5.36619">
        <ele>332.2</ele>
        <time>2022-07-21T06:51:30Z</time>
      </trkpt>
      <trkpt lat="46.22861" lon="5.36661">
        <ele>331</ele>
        <time>2022-07-21T06:51:33Z</time>
      </trkpt>
      <trkpt lat="46.22842" lon="5.36718">
        <ele>330</ele>
        <time>2022-07-21T06:51:37Z</time>
      </trkpt>
      <trkpt lat="46.22833" lon="5.36745">
        <ele>328.8</ele>
        <time>2022-07-21T06:51:39Z</time>
      </trkpt>
      <trkpt lat="46.2282" lon="5.36785">
        <ele>327.6</ele>
        <time>2022-07-21T06:51:42Z</time>
      </trkpt>
      <trkpt lat="46.22794" lon="5.36862">
        <ele>326.8</ele>
        <time>2022-07-21T06:51:48Z</time>
      </trkpt>
      <trkpt lat="46.22786" lon="5.36887">
        <ele>326.8</ele>
        <time>2022-07-21T06:51:50Z</time>
      </trkpt>
      <trkpt lat="46.22775" lon="5.36923">
        <ele>326.6</ele>
        <time>2022-07-21T06:51:53Z</time>
      </trkpt>
      <trkpt lat="46.22761" lon="5.36963">
        <ele>325.4</ele>
        <time>2022-07-21T06:51:56Z</time>
      </trkpt>
      <trkpt lat="46.22751" lon="5.36994">
        <ele>324.2</ele>
        <time>2022-07-21T06:51:58Z</time>
      </trkpt>
      <trkpt lat="46.22737" lon="5.37037">
        <ele>322.8</ele>
        <time>2022-07-21T06:52:01Z</time>
      </trkpt>
      <trkpt lat="46.22727" lon="5.37066">
        <ele>321.8</ele>
        <time>2022-07-21T06:52:03Z</time>
      </trkpt>
      <trkpt lat="46.22719" lon="5.37093">
        <ele>320.6</ele>
        <time>2022-07-21T06:52:05Z</time>
      </trkpt>
      <trkpt lat="46.22706" lon="5.37139">
        <ele>319.4</ele>
        <time>2022-07-21T06:52:08Z</time>
      </trkpt>
      <trkpt lat="46.22693" lon="5.37179">
        <ele>318</ele>
        <time>2022-07-21T06:52:11Z</time>
      </trkpt>
      <trkpt lat="46.22681" lon="5.37216">
        <ele>316.8</ele>
        <time>2022-07-21T06:52:14Z</time>
      </trkpt>
      <trkpt lat="46.2267" lon="5.37248">
        <ele>316.4</ele>
        <time>2022-07-21T06:52:17Z</time>
      </trkpt>
      <trkpt lat="46.22645" lon="5.37319">
        <ele>315.8</ele>
        <time>2022-07-21T06:52:23Z</time>
      </trkpt>
      <trkpt lat="46.22631" lon="5.37362">
        <ele>315.8</ele>
        <time>2022-07-21T06:52:27Z</time>
      </trkpt>
      <trkpt lat="46.22626" lon="5.37375">
        <ele>315.8</ele>
        <time>2022-07-21T06:52:28Z</time>
      </trkpt>
      <trkpt lat="46.22623" lon="5.37386">
        <ele>315.8</ele>
        <time>2022-07-21T06:52:29Z</time>
      </trkpt>
      <trkpt lat="46.22604" lon="5.37447">
        <ele>315.8</ele>
        <time>2022-07-21T06:52:35Z</time>
      </trkpt>
      <trkpt lat="46.22583" lon="5.37527">
        <ele>316</ele>
        <time>2022-07-21T06:52:42Z</time>
      </trkpt>
      <trkpt lat="46.22578" lon="5.37548">
        <ele>315.8</ele>
        <time>2022-07-21T06:52:44Z</time>
      </trkpt>
      <trkpt lat="46.2256" lon="5.3763">
        <ele>315</ele>
        <time>2022-07-21T06:52:51Z</time>
      </trkpt>
      <trkpt lat="46.22558" lon="5.37639">
        <ele>315</ele>
        <time>2022-07-21T06:52:52Z</time>
      </trkpt>
      <trkpt lat="46.22549" lon="5.37695">
        <ele>314.8</ele>
        <time>2022-07-21T06:52:57Z</time>
      </trkpt>
      <trkpt lat="46.22545" lon="5.37731">
        <ele>314.8</ele>
        <time>2022-07-21T06:53:00Z</time>
      </trkpt>
      <trkpt lat="46.22534" lon="5.37793">
        <ele>314.8</ele>
        <time>2022-07-21T06:53:06Z</time>
      </trkpt>
      <trkpt lat="46.22529" lon="5.37813">
        <ele>314.8</ele>
        <time>2022-07-21T06:53:08Z</time>
      </trkpt>
      <trkpt lat="46.22512" lon="5.37891">
        <ele>315.6</ele>
        <time>2022-07-21T06:53:16Z</time>
      </trkpt>
      <trkpt lat="46.22509" lon="5.37909">
        <ele>315.8</ele>
        <time>2022-07-21T06:53:18Z</time>
      </trkpt>
      <trkpt lat="46.22509" lon="5.37927">
        <ele>316</ele>
        <time>2022-07-21T06:53:20Z</time>
      </trkpt>
      <trkpt lat="46.2251" lon="5.37944">
        <ele>316.2</ele>
        <time>2022-07-21T06:53:22Z</time>
      </trkpt>
      <trkpt lat="46.22515" lon="5.37958">
        <ele>316.6</ele>
        <time>2022-07-21T06:53:24Z</time>
      </trkpt>
      <trkpt lat="46.22518" lon="5.37963">
        <ele>317</ele>
        <time>2022-07-21T06:53:25Z</time>
      </trkpt>
      <trkpt lat="46.22528" lon="5.37979">
        <ele>318.2</ele>
        <time>2022-07-21T06:53:28Z</time>
      </trkpt>
      <trkpt lat="46.22532" lon="5.37984">
        <ele>318.6</ele>
        <time>2022-07-21T06:53:29Z</time>
      </trkpt>
      <trkpt lat="46.22535" lon="5.37989">
        <ele>318.6</ele>
        <time>2022-07-21T06:53:30Z</time>
      </trkpt>
      <trkpt lat="46.2255" lon="5.38006">
        <ele>319.6</ele>
        <time>2022-07-21T06:53:34Z</time>
      </trkpt>
      <trkpt lat="46.2256" lon="5.38018">
        <ele>320.2</ele>
        <time>2022-07-21T06:53:37Z</time>
      </trkpt>
      <trkpt lat="46.22564" lon="5.38022">
        <ele>320.4</ele>
        <time>2022-07-21T06:53:38Z</time>
      </trkpt>
      <trkpt lat="46.22578" lon="5.38038">
        <ele>321.4</ele>
        <time>2022-07-21T06:53:42Z</time>
      </trkpt>
      <trkpt lat="46.22582" lon="5.38041">
        <ele>321.8</ele>
        <time>2022-07-21T06:53:43Z</time>
      </trkpt>
      <trkpt lat="46.22592" lon="5.38051">
        <ele>322.6</ele>
        <time>2022-07-21T06:53:46Z</time>
      </trkpt>
      <trkpt lat="46.22599" lon="5.38057">
        <ele>323.4</ele>
        <time>2022-07-21T06:53:48Z</time>
      </trkpt>
      <trkpt lat="46.22602" lon="5.3806">
        <ele>323.8</ele>
        <time>2022-07-21T06:53:49Z</time>
      </trkpt>
      <trkpt lat="46.22605" lon="5.38063">
        <ele>324.2</ele>
        <time>2022-07-21T06:53:50Z</time>
      </trkpt>
      <trkpt lat="46.22616" lon="5.38071">
        <ele>324.8</ele>
        <time>2022-07-21T06:53:53Z</time>
      </trkpt>
      <trkpt lat="46.2262" lon="5.38073">
        <ele>325</ele>
        <time>2022-07-21T06:53:54Z</time>
      </trkpt>
      <trkpt lat="46.22631" lon="5.38078">
        <ele>326</ele>
        <time>2022-07-21T06:53:57Z</time>
      </trkpt>
      <trkpt lat="46.2265" lon="5.3808">
        <ele>327</ele>
        <time>2022-07-21T06:54:02Z</time>
      </trkpt>
      <trkpt lat="46.22661" lon="5.3808">
        <ele>327.8</ele>
        <time>2022-07-21T06:54:05Z</time>
      </trkpt>
      <trkpt lat="46.22668" lon="5.38078">
        <ele>328.2</ele>
        <time>2022-07-21T06:54:07Z</time>
      </trkpt>
      <trkpt lat="46.22686" lon="5.38072">
        <ele>329.2</ele>
        <time>2022-07-21T06:54:12Z</time>
      </trkpt>
      <trkpt lat="46.2269" lon="5.3807">
        <ele>329.4</ele>
        <time>2022-07-21T06:54:13Z</time>
      </trkpt>
      <trkpt lat="46.22705" lon="5.38066">
        <ele>330.6</ele>
        <time>2022-07-21T06:54:17Z</time>
      </trkpt>
      <trkpt lat="46.22719" lon="5.38066">
        <ele>331.8</ele>
        <time>2022-07-21T06:54:21Z</time>
      </trkpt>
      <trkpt lat="46.22738" lon="5.38068">
        <ele>333</ele>
        <time>2022-07-21T06:54:26Z</time>
      </trkpt>
      <trkpt lat="46.22752" lon="5.3807">
        <ele>334</ele>
        <time>2022-07-21T06:54:30Z</time>
      </trkpt>
      <trkpt lat="46.2276" lon="5.3807">
        <ele>334.4</ele>
        <time>2022-07-21T06:54:32Z</time>
      </trkpt>
      <trkpt lat="46.22774" lon="5.38071">
        <ele>335.2</ele>
        <time>2022-07-21T06:54:36Z</time>
      </trkpt>
      <trkpt lat="46.2279" lon="5.38072">
        <ele>336.2</ele>
        <time>2022-07-21T06:54:40Z</time>
      </trkpt>
      <trkpt lat="46.22801" lon="5.38076">
        <ele>337</ele>
        <time>2022-07-21T06:54:43Z</time>
      </trkpt>
      <trkpt lat="46.22804" lon="5.38079">
        <ele>337.2</ele>
        <time>2022-07-21T06:54:44Z</time>
      </trkpt>
      <trkpt lat="46.22806" lon="5.38083">
        <ele>337.4</ele>
        <time>2022-07-21T06:54:45Z</time>
      </trkpt>
      <trkpt lat="46.22807" lon="5.38088">
        <ele>337.8</ele>
        <time>2022-07-21T06:54:46Z</time>
      </trkpt>
      <trkpt lat="46.22804" lon="5.38097">
        <ele>338</ele>
        <time>2022-07-21T06:54:48Z</time>
      </trkpt>
      <trkpt lat="46.22801" lon="5.38101">
        <ele>338</ele>
        <time>2022-07-21T06:54:49Z</time>
      </trkpt>
      <trkpt lat="46.22797" lon="5.38103">
        <ele>338.4</ele>
        <time>2022-07-21T06:54:50Z</time>
      </trkpt>
      <trkpt lat="46.22785" lon="5.38111">
        <ele>339.4</ele>
        <time>2022-07-21T06:54:53Z</time>
      </trkpt>
      <trkpt lat="46.22781" lon="5.38114">
        <ele>339.8</ele>
        <time>2022-07-21T06:54:54Z</time>
      </trkpt>
      <trkpt lat="46.22773" lon="5.38121">
        <ele>340.4</ele>
        <time>2022-07-21T06:54:56Z</time>
      </trkpt>
      <trkpt lat="46.22762" lon="5.38131">
        <ele>341</ele>
        <time>2022-07-21T06:54:59Z</time>
      </trkpt>
      <trkpt lat="46.22756" lon="5.38139">
        <ele>341.6</ele>
        <time>2022-07-21T06:55:01Z</time>
      </trkpt>
      <trkpt lat="46.22745" lon="5.38155">
        <ele>342.8</ele>
        <time>2022-07-21T06:55:05Z</time>
      </trkpt>
      <trkpt lat="46.2274" lon="5.38167">
        <ele>343.4</ele>
        <time>2022-07-21T06:55:07Z</time>
      </trkpt>
      <trkpt lat="46.22738" lon="5.38173">
        <ele>343.6</ele>
        <time>2022-07-21T06:55:08Z</time>
      </trkpt>
      <trkpt lat="46.22737" lon="5.38179">
        <ele>343.8</ele>
        <time>2022-07-21T06:55:09Z</time>
      </trkpt>
      <trkpt lat="46.22736" lon="5.38191">
        <ele>344.4</ele>
        <time>2022-07-21T06:55:11Z</time>
      </trkpt>
      <trkpt lat="46.22736" lon="5.38202">
        <ele>344.8</ele>
        <time>2022-07-21T06:55:13Z</time>
      </trkpt>
      <trkpt lat="46.22737" lon="5.38232">
        <ele>346.4</ele>
        <time>2022-07-21T06:55:18Z</time>
      </trkpt>
      <trkpt lat="46.22735" lon="5.38244">
        <ele>346.8</ele>
        <time>2022-07-21T06:55:20Z</time>
      </trkpt>
      <trkpt lat="46.22731" lon="5.38256">
        <ele>347</ele>
        <time>2022-07-21T06:55:22Z</time>
      </trkpt>
      <trkpt lat="46.22725" lon="5.38265">
        <ele>347.4</ele>
        <time>2022-07-21T06:55:24Z</time>
      </trkpt>
      <trkpt lat="46.22722" lon="5.38268">
        <ele>348</ele>
        <time>2022-07-21T06:55:25Z</time>
      </trkpt>
      <trkpt lat="46.22715" lon="5.38272">
        <ele>348.6</ele>
        <time>2022-07-21T06:55:27Z</time>
      </trkpt>
      <trkpt lat="46.22697" lon="5.38278">
        <ele>349.8</ele>
        <time>2022-07-21T06:55:31Z</time>
      </trkpt>
      <trkpt lat="46.22693" lon="5.38279">
        <ele>350.2</ele>
        <time>2022-07-21T06:55:32Z</time>
      </trkpt>
      <trkpt lat="46.22681" lon="5.38281">
        <ele>350.8</ele>
        <time>2022-07-21T06:55:35Z</time>
      </trkpt>
      <trkpt lat="46.22669" lon="5.38284">
        <ele>352</ele>
        <time>2022-07-21T06:55:38Z</time>
      </trkpt>
      <trkpt lat="46.22658" lon="5.38286">
        <ele>352.8</ele>
        <time>2022-07-21T06:55:41Z</time>
      </trkpt>
      <trkpt lat="46.22654" lon="5.38287">
        <ele>352.8</ele>
        <time>2022-07-21T06:55:42Z</time>
      </trkpt>
      <trkpt lat="46.22639" lon="5.38291">
        <ele>354</ele>
        <time>2022-07-21T06:55:46Z</time>
      </trkpt>
      <trkpt lat="46.22627" lon="5.38292">
        <ele>354.8</ele>
        <time>2022-07-21T06:55:49Z</time>
      </trkpt>
      <trkpt lat="46.22623" lon="5.38292">
        <ele>355.2</ele>
        <time>2022-07-21T06:55:50Z</time>
      </trkpt>
      <trkpt lat="46.22597" lon="5.383">
        <ele>356.6</ele>
        <time>2022-07-21T06:55:57Z</time>
      </trkpt>
      <trkpt lat="46.22578" lon="5.3831">
        <ele>357.8</ele>
        <time>2022-07-21T06:56:02Z</time>
      </trkpt>
      <trkpt lat="46.2257" lon="5.38314">
        <ele>358</ele>
        <time>2022-07-21T06:56:04Z</time>
      </trkpt>
      <trkpt lat="46.22556" lon="5.38322">
        <ele>359.2</ele>
        <time>2022-07-21T06:56:08Z</time>
      </trkpt>
      <trkpt lat="46.22544" lon="5.38328">
        <ele>360.4</ele>
        <time>2022-07-21T06:56:11Z</time>
      </trkpt>
      <trkpt lat="46.2254" lon="5.38331">
        <ele>360.6</ele>
        <time>2022-07-21T06:56:12Z</time>
      </trkpt>
      <trkpt lat="46.22529" lon="5.38337">
        <ele>361.4</ele>
        <time>2022-07-21T06:56:15Z</time>
      </trkpt>
      <trkpt lat="46.22508" lon="5.38347">
        <ele>362.6</ele>
        <time>2022-07-21T06:56:20Z</time>
      </trkpt>
      <trkpt lat="46.22505" lon="5.38349">
        <ele>362.8</ele>
        <time>2022-07-21T06:56:21Z</time>
      </trkpt>
      <trkpt lat="46.22493" lon="5.38354">
        <ele>363.8</ele>
        <time>2022-07-21T06:56:24Z</time>
      </trkpt>
      <trkpt lat="46.2247" lon="5.38365">
        <ele>364.8</ele>
        <time>2022-07-21T06:56:30Z</time>
      </trkpt>
      <trkpt lat="46.22466" lon="5.38366">
        <ele>365</ele>
        <time>2022-07-21T06:56:31Z</time>
      </trkpt>
      <trkpt lat="46.22459" lon="5.38368">
        <ele>366.2</ele>
        <time>2022-07-21T06:56:33Z</time>
      </trkpt>
      <trkpt lat="46.22441" lon="5.38377">
        <ele>367.4</ele>
        <time>2022-07-21T06:56:38Z</time>
      </trkpt>
      <trkpt lat="46.22437" lon="5.38379">
        <ele>367.8</ele>
        <time>2022-07-21T06:56:39Z</time>
      </trkpt>
      <trkpt lat="46.22425" lon="5.38384">
        <ele>368.4</ele>
        <time>2022-07-21T06:56:42Z</time>
      </trkpt>
      <trkpt lat="46.22413" lon="5.38389">
        <ele>369.4</ele>
        <time>2022-07-21T06:56:45Z</time>
      </trkpt>
      <trkpt lat="46.22397" lon="5.38395">
        <ele>370.4</ele>
        <time>2022-07-21T06:56:49Z</time>
      </trkpt>
      <trkpt lat="46.22393" lon="5.38397">
        <ele>370.6</ele>
        <time>2022-07-21T06:56:50Z</time>
      </trkpt>
      <trkpt lat="46.22385" lon="5.384">
        <ele>371</ele>
        <time>2022-07-21T06:56:52Z</time>
      </trkpt>
      <trkpt lat="46.22377" lon="5.38403">
        <ele>371.6</ele>
        <time>2022-07-21T06:56:54Z</time>
      </trkpt>
      <trkpt lat="46.22368" lon="5.38406">
        <ele>372</ele>
        <time>2022-07-21T06:56:56Z</time>
      </trkpt>
      <trkpt lat="46.22359" lon="5.38409">
        <ele>372.6</ele>
        <time>2022-07-21T06:56:58Z</time>
      </trkpt>
      <trkpt lat="46.22351" lon="5.38411">
        <ele>373</ele>
        <time>2022-07-21T06:57:00Z</time>
      </trkpt>
      <trkpt lat="46.22342" lon="5.38415">
        <ele>373.8</ele>
        <time>2022-07-21T06:57:02Z</time>
      </trkpt>
      <trkpt lat="46.2233" lon="5.38421">
        <ele>374.6</ele>
        <time>2022-07-21T06:57:05Z</time>
      </trkpt>
      <trkpt lat="46.22326" lon="5.38422">
        <ele>375.2</ele>
        <time>2022-07-21T06:57:06Z</time>
      </trkpt>
      <trkpt lat="46.22308" lon="5.3843">
        <ele>376.2</ele>
        <time>2022-07-21T06:57:10Z</time>
      </trkpt>
      <trkpt lat="46.22303" lon="5.38432">
        <ele>376.4</ele>
        <time>2022-07-21T06:57:11Z</time>
      </trkpt>
      <trkpt lat="46.22295" lon="5.38436">
        <ele>376.8</ele>
        <time>2022-07-21T06:57:13Z</time>
      </trkpt>
      <trkpt lat="46.22282" lon="5.38444">
        <ele>377.6</ele>
        <time>2022-07-21T06:57:16Z</time>
      </trkpt>
      <trkpt lat="46.22274" lon="5.38452">
        <ele>378.6</ele>
        <time>2022-07-21T06:57:18Z</time>
      </trkpt>
      <trkpt lat="46.22267" lon="5.38461">
        <ele>379.2</ele>
        <time>2022-07-21T06:57:20Z</time>
      </trkpt>
      <trkpt lat="46.22258" lon="5.38472">
        <ele>379.8</ele>
        <time>2022-07-21T06:57:22Z</time>
      </trkpt>
      <trkpt lat="46.22245" lon="5.38488">
        <ele>380.4</ele>
        <time>2022-07-21T06:57:25Z</time>
      </trkpt>
      <trkpt lat="46.22229" lon="5.38502">
        <ele>380.6</ele>
        <time>2022-07-21T06:57:28Z</time>
      </trkpt>
      <trkpt lat="46.2222" lon="5.38518">
        <ele>380.6</ele>
        <time>2022-07-21T06:57:30Z</time>
      </trkpt>
      <trkpt lat="46.22213" lon="5.38538">
        <ele>380.6</ele>
        <time>2022-07-21T06:57:32Z</time>
      </trkpt>
      <trkpt lat="46.2221" lon="5.38548">
        <ele>380</ele>
        <time>2022-07-21T06:57:33Z</time>
      </trkpt>
      <trkpt lat="46.22207" lon="5.3856">
        <ele>379.6</ele>
        <time>2022-07-21T06:57:34Z</time>
      </trkpt>
      <trkpt lat="46.22196" lon="5.3858">
        <ele>378.8</ele>
        <time>2022-07-21T06:57:36Z</time>
      </trkpt>
      <trkpt lat="46.22178" lon="5.38588">
        <ele>377.6</ele>
        <time>2022-07-21T06:57:38Z</time>
      </trkpt>
      <trkpt lat="46.22169" lon="5.38588">
        <ele>377.2</ele>
        <time>2022-07-21T06:57:39Z</time>
      </trkpt>
      <trkpt lat="46.22161" lon="5.38584">
        <ele>376.4</ele>
        <time>2022-07-21T06:57:40Z</time>
      </trkpt>
      <trkpt lat="46.22147" lon="5.38583">
        <ele>375.4</ele>
        <time>2022-07-21T06:57:42Z</time>
      </trkpt>
      <trkpt lat="46.22146" lon="5.38598">
        <ele>374.4</ele>
        <time>2022-07-21T06:57:44Z</time>
      </trkpt>
      <trkpt lat="46.22155" lon="5.38608">
        <ele>373.8</ele>
        <time>2022-07-21T06:57:46Z</time>
      </trkpt>
      <trkpt lat="46.22161" lon="5.38614">
        <ele>373.6</ele>
        <time>2022-07-21T06:57:47Z</time>
      </trkpt>
      <trkpt lat="46.22177" lon="5.38631">
        <ele>373.2</ele>
        <time>2022-07-21T06:57:49Z</time>
      </trkpt>
      <trkpt lat="46.22193" lon="5.38654">
        <ele>371.6</ele>
        <time>2022-07-21T06:57:51Z</time>
      </trkpt>
      <trkpt lat="46.22205" lon="5.38678">
        <ele>370.6</ele>
        <time>2022-07-21T06:57:53Z</time>
      </trkpt>
      <trkpt lat="46.22224" lon="5.38717">
        <ele>368.4</ele>
        <time>2022-07-21T06:57:56Z</time>
      </trkpt>
      <trkpt lat="46.22229" lon="5.38732">
        <ele>367.2</ele>
        <time>2022-07-21T06:57:57Z</time>
      </trkpt>
      <trkpt lat="46.22234" lon="5.38747">
        <ele>366.6</ele>
        <time>2022-07-21T06:57:58Z</time>
      </trkpt>
      <trkpt lat="46.22238" lon="5.38764">
        <ele>365.4</ele>
        <time>2022-07-21T06:57:59Z</time>
      </trkpt>
      <trkpt lat="46.22243" lon="5.38797">
        <ele>364</ele>
        <time>2022-07-21T06:58:01Z</time>
      </trkpt>
      <trkpt lat="46.22249" lon="5.38831">
        <ele>362.6</ele>
        <time>2022-07-21T06:58:03Z</time>
      </trkpt>
      <trkpt lat="46.22252" lon="5.38848">
        <ele>361.2</ele>
        <time>2022-07-21T06:58:04Z</time>
      </trkpt>
      <trkpt lat="46.2226" lon="5.38881">
        <ele>359.8</ele>
        <time>2022-07-21T06:58:06Z</time>
      </trkpt>
      <trkpt lat="46.2227" lon="5.38913">
        <ele>357.6</ele>
        <time>2022-07-21T06:58:08Z</time>
      </trkpt>
      <trkpt lat="46.22284" lon="5.38943">
        <ele>355.6</ele>
        <time>2022-07-21T06:58:10Z</time>
      </trkpt>
      <trkpt lat="46.22299" lon="5.38972">
        <ele>354.4</ele>
        <time>2022-07-21T06:58:12Z</time>
      </trkpt>
      <trkpt lat="46.22306" lon="5.38987">
        <ele>353.6</ele>
        <time>2022-07-21T06:58:13Z</time>
      </trkpt>
      <trkpt lat="46.22315" lon="5.39001">
        <ele>353</ele>
        <time>2022-07-21T06:58:14Z</time>
      </trkpt>
      <trkpt lat="46.22324" lon="5.39016">
        <ele>351.6</ele>
        <time>2022-07-21T06:58:15Z</time>
      </trkpt>
      <trkpt lat="46.22348" lon="5.39061">
        <ele>350.2</ele>
        <time>2022-07-21T06:58:18Z</time>
      </trkpt>
      <trkpt lat="46.22356" lon="5.39072">
        <ele>348.8</ele>
        <time>2022-07-21T06:58:19Z</time>
      </trkpt>
      <trkpt lat="46.22367" lon="5.39088">
        <ele>347.6</ele>
        <time>2022-07-21T06:58:20Z</time>
      </trkpt>
      <trkpt lat="46.22388" lon="5.39113">
        <ele>345.8</ele>
        <time>2022-07-21T06:58:22Z</time>
      </trkpt>
      <trkpt lat="46.2241" lon="5.39138">
        <ele>344.6</ele>
        <time>2022-07-21T06:58:24Z</time>
      </trkpt>
      <trkpt lat="46.22431" lon="5.39164">
        <ele>342</ele>
        <time>2022-07-21T06:58:26Z</time>
      </trkpt>
      <trkpt lat="46.22454" lon="5.39191">
        <ele>340</ele>
        <time>2022-07-21T06:58:28Z</time>
      </trkpt>
      <trkpt lat="46.22465" lon="5.39203">
        <ele>338</ele>
        <time>2022-07-21T06:58:29Z</time>
      </trkpt>
      <trkpt lat="46.22476" lon="5.39215">
        <ele>337.4</ele>
        <time>2022-07-21T06:58:30Z</time>
      </trkpt>
      <trkpt lat="46.22487" lon="5.39227">
        <ele>335.8</ele>
        <time>2022-07-21T06:58:31Z</time>
      </trkpt>
      <trkpt lat="46.22509" lon="5.39249">
        <ele>333.8</ele>
        <time>2022-07-21T06:58:33Z</time>
      </trkpt>
      <trkpt lat="46.22531" lon="5.39272">
        <ele>332.6</ele>
        <time>2022-07-21T06:58:35Z</time>
      </trkpt>
      <trkpt lat="46.22542" lon="5.39284">
        <ele>330.8</ele>
        <time>2022-07-21T06:58:36Z</time>
      </trkpt>
      <trkpt lat="46.22562" lon="5.39312">
        <ele>328.8</ele>
        <time>2022-07-21T06:58:38Z</time>
      </trkpt>
      <trkpt lat="46.22579" lon="5.39343">
        <ele>327.2</ele>
        <time>2022-07-21T06:58:40Z</time>
      </trkpt>
      <trkpt lat="46.22595" lon="5.39377">
        <ele>325.4</ele>
        <time>2022-07-21T06:58:42Z</time>
      </trkpt>
      <trkpt lat="46.22602" lon="5.39394">
        <ele>324.6</ele>
        <time>2022-07-21T06:58:43Z</time>
      </trkpt>
      <trkpt lat="46.22608" lon="5.39413">
        <ele>323.2</ele>
        <time>2022-07-21T06:58:44Z</time>
      </trkpt>
      <trkpt lat="46.22612" lon="5.39432">
        <ele>322</ele>
        <time>2022-07-21T06:58:45Z</time>
      </trkpt>
      <trkpt lat="46.22618" lon="5.39471">
        <ele>320.2</ele>
        <time>2022-07-21T06:58:47Z</time>
      </trkpt>
      <trkpt lat="46.22622" lon="5.3949">
        <ele>319.6</ele>
        <time>2022-07-21T06:58:48Z</time>
      </trkpt>
      <trkpt lat="46.22626" lon="5.39507">
        <ele>317.6</ele>
        <time>2022-07-21T06:58:49Z</time>
      </trkpt>
      <trkpt lat="46.2263" lon="5.39524">
        <ele>317</ele>
        <time>2022-07-21T06:58:50Z</time>
      </trkpt>
      <trkpt lat="46.22634" lon="5.39536">
        <ele>316.2</ele>
        <time>2022-07-21T06:58:51Z</time>
      </trkpt>
      <trkpt lat="46.22641" lon="5.39554">
        <ele>315.4</ele>
        <time>2022-07-21T06:58:52Z</time>
      </trkpt>
      <trkpt lat="46.22652" lon="5.39584">
        <ele>314.8</ele>
        <time>2022-07-21T06:58:54Z</time>
      </trkpt>
      <trkpt lat="46.22663" lon="5.39614">
        <ele>314</ele>
        <time>2022-07-21T06:58:56Z</time>
      </trkpt>
      <trkpt lat="46.22669" lon="5.39629">
        <ele>313.8</ele>
        <time>2022-07-21T06:58:57Z</time>
      </trkpt>
      <trkpt lat="46.22694" lon="5.39689">
        <ele>313</ele>
        <time>2022-07-21T06:59:01Z</time>
      </trkpt>
      <trkpt lat="46.227" lon="5.39704">
        <ele>312.8</ele>
        <time>2022-07-21T06:59:02Z</time>
      </trkpt>
      <trkpt lat="46.2271" lon="5.39737">
        <ele>311.8</ele>
        <time>2022-07-21T06:59:04Z</time>
      </trkpt>
      <trkpt lat="46.22714" lon="5.39753">
        <ele>311.2</ele>
        <time>2022-07-21T06:59:05Z</time>
      </trkpt>
      <trkpt lat="46.22719" lon="5.39787">
        <ele>309.8</ele>
        <time>2022-07-21T06:59:07Z</time>
      </trkpt>
      <trkpt lat="46.22721" lon="5.39804">
        <ele>308.8</ele>
        <time>2022-07-21T06:59:08Z</time>
      </trkpt>
      <trkpt lat="46.2272" lon="5.39816">
        <ele>308.4</ele>
        <time>2022-07-21T06:59:09Z</time>
      </trkpt>
      <trkpt lat="46.22714" lon="5.3985">
        <ele>308</ele>
        <time>2022-07-21T06:59:11Z</time>
      </trkpt>
      <trkpt lat="46.22709" lon="5.39866">
        <ele>307.6</ele>
        <time>2022-07-21T06:59:12Z</time>
      </trkpt>
      <trkpt lat="46.22697" lon="5.3994">
        <ele>307.2</ele>
        <time>2022-07-21T06:59:17Z</time>
      </trkpt>
      <trkpt lat="46.22688" lon="5.40004">
        <ele>306.8</ele>
        <time>2022-07-21T06:59:22Z</time>
      </trkpt>
      <trkpt lat="46.22685" lon="5.40033">
        <ele>306.8</ele>
        <time>2022-07-21T06:59:24Z</time>
      </trkpt>
      <trkpt lat="46.22681" lon="5.40069">
        <ele>306.6</ele>
        <time>2022-07-21T06:59:27Z</time>
      </trkpt>
      <trkpt lat="46.22673" lon="5.40126">
        <ele>307</ele>
        <time>2022-07-21T06:59:32Z</time>
      </trkpt>
      <trkpt lat="46.22664" lon="5.40181">
        <ele>307</ele>
        <time>2022-07-21T06:59:37Z</time>
      </trkpt>
      <trkpt lat="46.22655" lon="5.4026">
        <ele>306.4</ele>
        <time>2022-07-21T06:59:44Z</time>
      </trkpt>
      <trkpt lat="46.22652" lon="5.40283">
        <ele>306.4</ele>
        <time>2022-07-21T06:59:46Z</time>
      </trkpt>
      <trkpt lat="46.22645" lon="5.40342">
        <ele>306</ele>
        <time>2022-07-21T06:59:51Z</time>
      </trkpt>
      <trkpt lat="46.22643" lon="5.40354">
        <ele>305.8</ele>
        <time>2022-07-21T06:59:52Z</time>
      </trkpt>
      <trkpt lat="46.22644" lon="5.4039">
        <ele>305.4</ele>
        <time>2022-07-21T06:59:55Z</time>
      </trkpt>
      <trkpt lat="46.22646" lon="5.40402">
        <ele>305.2</ele>
        <time>2022-07-21T06:59:56Z</time>
      </trkpt>
      <trkpt lat="46.22653" lon="5.40449">
        <ele>304.8</ele>
        <time>2022-07-21T07:00:00Z</time>
      </trkpt>
      <trkpt lat="46.22654" lon="5.40469">
        <ele>304.4</ele>
        <time>2022-07-21T07:00:02Z</time>
      </trkpt>
      <trkpt lat="46.22655" lon="5.40483">
        <ele>304.2</ele>
        <time>2022-07-21T07:00:03Z</time>
      </trkpt>
      <trkpt lat="46.22654" lon="5.40495">
        <ele>304.2</ele>
        <time>2022-07-21T07:00:04Z</time>
      </trkpt>
      <trkpt lat="46.22646" lon="5.40543">
        <ele>303.2</ele>
        <time>2022-07-21T07:00:08Z</time>
      </trkpt>
      <trkpt lat="46.2264" lon="5.40579">
        <ele>302.8</ele>
        <time>2022-07-21T07:00:11Z</time>
      </trkpt>
      <trkpt lat="46.22634" lon="5.40618">
        <ele>302.2</ele>
        <time>2022-07-21T07:00:14Z</time>
      </trkpt>
      <trkpt lat="46.22629" lon="5.40657">
        <ele>301.2</ele>
        <time>2022-07-21T07:00:17Z</time>
      </trkpt>
      <trkpt lat="46.22628" lon="5.40671">
        <ele>301</ele>
        <time>2022-07-21T07:00:18Z</time>
      </trkpt>
      <trkpt lat="46.22617" lon="5.40737">
        <ele>299.8</ele>
        <time>2022-07-21T07:00:23Z</time>
      </trkpt>
      <trkpt lat="46.22611" lon="5.40762">
        <ele>299.2</ele>
        <time>2022-07-21T07:00:25Z</time>
      </trkpt>
      <trkpt lat="46.22607" lon="5.40775">
        <ele>298.6</ele>
        <time>2022-07-21T07:00:26Z</time>
      </trkpt>
      <trkpt lat="46.22602" lon="5.40786">
        <ele>298.6</ele>
        <time>2022-07-21T07:00:27Z</time>
      </trkpt>
      <trkpt lat="46.22592" lon="5.40807">
        <ele>298.2</ele>
        <time>2022-07-21T07:00:29Z</time>
      </trkpt>
      <trkpt lat="46.22577" lon="5.40845">
        <ele>297.6</ele>
        <time>2022-07-21T07:00:33Z</time>
      </trkpt>
      <trkpt lat="46.22574" lon="5.40856">
        <ele>297.6</ele>
        <time>2022-07-21T07:00:34Z</time>
      </trkpt>
      <trkpt lat="46.22567" lon="5.40898">
        <ele>297.2</ele>
        <time>2022-07-21T07:00:38Z</time>
      </trkpt>
      <trkpt lat="46.22555" lon="5.40982">
        <ele>297.8</ele>
        <time>2022-07-21T07:00:46Z</time>
      </trkpt>
      <trkpt lat="46.22544" lon="5.4105">
        <ele>298.6</ele>
        <time>2022-07-21T07:00:53Z</time>
      </trkpt>
      <trkpt lat="46.22536" lon="5.41077">
        <ele>298.6</ele>
        <time>2022-07-21T07:00:56Z</time>
      </trkpt>
      <trkpt lat="46.22526" lon="5.41101">
        <ele>298.8</ele>
        <time>2022-07-21T07:00:59Z</time>
      </trkpt>
      <trkpt lat="46.22507" lon="5.41157">
        <ele>299.8</ele>
        <time>2022-07-21T07:01:05Z</time>
      </trkpt>
      <trkpt lat="46.22506" lon="5.41167">
        <ele>299.8</ele>
        <time>2022-07-21T07:01:06Z</time>
      </trkpt>
      <trkpt lat="46.22505" lon="5.41177">
        <ele>300</ele>
        <time>2022-07-21T07:01:07Z</time>
      </trkpt>
      <trkpt lat="46.22508" lon="5.41196">
        <ele>300.4</ele>
        <time>2022-07-21T07:01:09Z</time>
      </trkpt>
      <trkpt lat="46.22523" lon="5.41242">
        <ele>300.6</ele>
        <time>2022-07-21T07:01:14Z</time>
      </trkpt>
      <trkpt lat="46.22529" lon="5.41259">
        <ele>300.6</ele>
        <time>2022-07-21T07:01:16Z</time>
      </trkpt>
      <trkpt lat="46.22533" lon="5.41278">
        <ele>300.4</ele>
        <time>2022-07-21T07:01:18Z</time>
      </trkpt>
      <trkpt lat="46.22531" lon="5.41299">
        <ele>300.2</ele>
        <time>2022-07-21T07:01:20Z</time>
      </trkpt>
      <trkpt lat="46.22529" lon="5.41309">
        <ele>300.2</ele>
        <time>2022-07-21T07:01:21Z</time>
      </trkpt>
      <trkpt lat="46.2252" lon="5.41347">
        <ele>300.2</ele>
        <time>2022-07-21T07:01:25Z</time>
      </trkpt>
      <trkpt lat="46.22515" lon="5.41377">
        <ele>300.2</ele>
        <time>2022-07-21T07:01:28Z</time>
      </trkpt>
      <trkpt lat="46.22514" lon="5.41387">
        <ele>300.2</ele>
        <time>2022-07-21T07:01:29Z</time>
      </trkpt>
      <trkpt lat="46.22515" lon="5.41417">
        <ele>300</ele>
        <time>2022-07-21T07:01:32Z</time>
      </trkpt>
      <trkpt lat="46.22524" lon="5.4149">
        <ele>299.4</ele>
        <time>2022-07-21T07:01:39Z</time>
      </trkpt>
      <trkpt lat="46.22524" lon="5.415">
        <ele>299.4</ele>
        <time>2022-07-21T07:01:40Z</time>
      </trkpt>
      <trkpt lat="46.22522" lon="5.41531">
        <ele>299.2</ele>
        <time>2022-07-21T07:01:43Z</time>
      </trkpt>
      <trkpt lat="46.22517" lon="5.41569">
        <ele>298.8</ele>
        <time>2022-07-21T07:01:47Z</time>
      </trkpt>
      <trkpt lat="46.22513" lon="5.41586">
        <ele>298.6</ele>
        <time>2022-07-21T07:01:49Z</time>
      </trkpt>
      <trkpt lat="46.22501" lon="5.41629">
        <ele>298.4</ele>
        <time>2022-07-21T07:01:55Z</time>
      </trkpt>
      <trkpt lat="46.22502" lon="5.41642">
        <ele>298.4</ele>
        <time>2022-07-21T07:01:57Z</time>
      </trkpt>
      <trkpt lat="46.22506" lon="5.41647">
        <ele>298.4</ele>
        <time>2022-07-21T07:01:58Z</time>
      </trkpt>
      <trkpt lat="46.22531" lon="5.41677">
        <ele>297.8</ele>
        <time>2022-07-21T07:02:03Z</time>
      </trkpt>
      <trkpt lat="46.22542" lon="5.4169">
        <ele>297.6</ele>
        <time>2022-07-21T07:02:05Z</time>
      </trkpt>
      <trkpt lat="46.22546" lon="5.41698">
        <ele>297.6</ele>
        <time>2022-07-21T07:02:06Z</time>
      </trkpt>
      <trkpt lat="46.22561" lon="5.4172">
        <ele>297.6</ele>
        <time>2022-07-21T07:02:09Z</time>
      </trkpt>
      <trkpt lat="46.22566" lon="5.41726">
        <ele>297.6</ele>
        <time>2022-07-21T07:02:10Z</time>
      </trkpt>
      <trkpt lat="46.22577" lon="5.41733">
        <ele>297.6</ele>
        <time>2022-07-21T07:02:12Z</time>
      </trkpt>
      <trkpt lat="46.22601" lon="5.41737">
        <ele>298.2</ele>
        <time>2022-07-21T07:02:16Z</time>
      </trkpt>
      <trkpt lat="46.22623" lon="5.41739">
        <ele>298.8</ele>
        <time>2022-07-21T07:02:20Z</time>
      </trkpt>
      <trkpt lat="46.22634" lon="5.41741">
        <ele>299.4</ele>
        <time>2022-07-21T07:02:22Z</time>
      </trkpt>
      <trkpt lat="46.22646" lon="5.41744">
        <ele>299.8</ele>
        <time>2022-07-21T07:02:24Z</time>
      </trkpt>
      <trkpt lat="46.22676" lon="5.41748">
        <ele>301</ele>
        <time>2022-07-21T07:02:29Z</time>
      </trkpt>
      <trkpt lat="46.22689" lon="5.41749">
        <ele>301.4</ele>
        <time>2022-07-21T07:02:31Z</time>
      </trkpt>
      <trkpt lat="46.22714" lon="5.4175">
        <ele>302</ele>
        <time>2022-07-21T07:02:35Z</time>
      </trkpt>
      <trkpt lat="46.22734" lon="5.41749">
        <ele>302.4</ele>
        <time>2022-07-21T07:02:38Z</time>
      </trkpt>
      <trkpt lat="46.22741" lon="5.4175">
        <ele>302.6</ele>
        <time>2022-07-21T07:02:39Z</time>
      </trkpt>
      <trkpt lat="46.22772" lon="5.41754">
        <ele>302.6</ele>
        <time>2022-07-21T07:02:44Z</time>
      </trkpt>
      <trkpt lat="46.22823" lon="5.41762">
        <ele>302.8</ele>
        <time>2022-07-21T07:02:52Z</time>
      </trkpt>
      <trkpt lat="46.22863" lon="5.4177">
        <ele>302.8</ele>
        <time>2022-07-21T07:02:58Z</time>
      </trkpt>
      <trkpt lat="46.22876" lon="5.41776">
        <ele>302.8</ele>
        <time>2022-07-21T07:03:00Z</time>
      </trkpt>
      <trkpt lat="46.2291" lon="5.41799">
        <ele>303</ele>
        <time>2022-07-21T07:03:06Z</time>
      </trkpt>
      <trkpt lat="46.22926" lon="5.41812">
        <ele>303.2</ele>
        <time>2022-07-21T07:03:09Z</time>
      </trkpt>
      <trkpt lat="46.22948" lon="5.4183">
        <ele>303.4</ele>
        <time>2022-07-21T07:03:13Z</time>
      </trkpt>
      <trkpt lat="46.22982" lon="5.41859">
        <ele>303.6</ele>
        <time>2022-07-21T07:03:19Z</time>
      </trkpt>
      <trkpt lat="46.23025" lon="5.41891">
        <ele>304</ele>
        <time>2022-07-21T07:03:26Z</time>
      </trkpt>
      <trkpt lat="46.23077" lon="5.41926">
        <ele>303.8</ele>
        <time>2022-07-21T07:03:34Z</time>
      </trkpt>
      <trkpt lat="46.23083" lon="5.4193">
        <ele>303.8</ele>
        <time>2022-07-21T07:03:35Z</time>
      </trkpt>
      <trkpt lat="46.23124" lon="5.41956">
        <ele>303.8</ele>
        <time>2022-07-21T07:03:42Z</time>
      </trkpt>
      <trkpt lat="46.23142" lon="5.41967">
        <ele>304.4</ele>
        <time>2022-07-21T07:03:45Z</time>
      </trkpt>
      <trkpt lat="46.23178" lon="5.41986">
        <ele>305.2</ele>
        <time>2022-07-21T07:03:51Z</time>
      </trkpt>
      <trkpt lat="46.2319" lon="5.41993">
        <ele>305.4</ele>
        <time>2022-07-21T07:03:53Z</time>
      </trkpt>
      <trkpt lat="46.23235" lon="5.42021">
        <ele>305.4</ele>
        <time>2022-07-21T07:04:01Z</time>
      </trkpt>
      <trkpt lat="46.23283" lon="5.42062">
        <ele>306.2</ele>
        <time>2022-07-21T07:04:10Z</time>
      </trkpt>
      <trkpt lat="46.23293" lon="5.42073">
        <ele>306.4</ele>
        <time>2022-07-21T07:04:12Z</time>
      </trkpt>
      <trkpt lat="46.23332" lon="5.4212">
        <ele>307</ele>
        <time>2022-07-21T07:04:20Z</time>
      </trkpt>
      <trkpt lat="46.23377" lon="5.42163">
        <ele>307.2</ele>
        <time>2022-07-21T07:04:27Z</time>
      </trkpt>
      <trkpt lat="46.23426" lon="5.42206">
        <ele>305.6</ele>
        <time>2022-07-21T07:04:34Z</time>
      </trkpt>
      <trkpt lat="46.23434" lon="5.42212">
        <ele>305.4</ele>
        <time>2022-07-21T07:04:35Z</time>
      </trkpt>
      <trkpt lat="46.2348" lon="5.42246">
        <ele>304.4</ele>
        <time>2022-07-21T07:04:41Z</time>
      </trkpt>
      <trkpt lat="46.23488" lon="5.4225">
        <ele>304.2</ele>
        <time>2022-07-21T07:04:42Z</time>
      </trkpt>
      <trkpt lat="46.23518" lon="5.42261">
        <ele>303.2</ele>
        <time>2022-07-21T07:04:46Z</time>
      </trkpt>
      <trkpt lat="46.23533" lon="5.42266">
        <ele>303</ele>
        <time>2022-07-21T07:04:48Z</time>
      </trkpt>
      <trkpt lat="46.2354" lon="5.42268">
        <ele>303</ele>
        <time>2022-07-21T07:04:49Z</time>
      </trkpt>
      <trkpt lat="46.23591" lon="5.42287">
        <ele>303.2</ele>
        <time>2022-07-21T07:04:56Z</time>
      </trkpt>
      <trkpt lat="46.23651" lon="5.42312">
        <ele>303.6</ele>
        <time>2022-07-21T07:05:04Z</time>
      </trkpt>
      <trkpt lat="46.23675" lon="5.42323">
        <ele>303.4</ele>
        <time>2022-07-21T07:05:07Z</time>
      </trkpt>
      <trkpt lat="46.2373" lon="5.42345">
        <ele>302.6</ele>
        <time>2022-07-21T07:05:14Z</time>
      </trkpt>
      <trkpt lat="46.23738" lon="5.42348">
        <ele>302.4</ele>
        <time>2022-07-21T07:05:15Z</time>
      </trkpt>
      <trkpt lat="46.23746" lon="5.4235">
        <ele>302.2</ele>
        <time>2022-07-21T07:05:16Z</time>
      </trkpt>
      <trkpt lat="46.23796" lon="5.42356">
        <ele>301.2</ele>
        <time>2022-07-21T07:05:22Z</time>
      </trkpt>
      <trkpt lat="46.23804" lon="5.42357">
        <ele>301.2</ele>
        <time>2022-07-21T07:05:23Z</time>
      </trkpt>
      <trkpt lat="46.23861" lon="5.42355">
        <ele>301</ele>
        <time>2022-07-21T07:05:30Z</time>
      </trkpt>
      <trkpt lat="46.23906" lon="5.42336">
        <ele>301.2</ele>
        <time>2022-07-21T07:05:36Z</time>
      </trkpt>
      <trkpt lat="46.23952" lon="5.42328">
        <ele>301.4</ele>
        <time>2022-07-21T07:05:42Z</time>
      </trkpt>
      <trkpt lat="46.23996" lon="5.42328">
        <ele>301.6</ele>
        <time>2022-07-21T07:05:48Z</time>
      </trkpt>
      <trkpt lat="46.24051" lon="5.42329">
        <ele>301.8</ele>
        <time>2022-07-21T07:05:56Z</time>
      </trkpt>
      <trkpt lat="46.24058" lon="5.42329">
        <ele>301.8</ele>
        <time>2022-07-21T07:05:57Z</time>
      </trkpt>
      <trkpt lat="46.24071" lon="5.42326">
        <ele>302.2</ele>
        <time>2022-07-21T07:05:59Z</time>
      </trkpt>
      <trkpt lat="46.2409" lon="5.42321">
        <ele>303</ele>
        <time>2022-07-21T07:06:02Z</time>
      </trkpt>
      <trkpt lat="46.24096" lon="5.42319">
        <ele>303.2</ele>
        <time>2022-07-21T07:06:03Z</time>
      </trkpt>
      <trkpt lat="46.24143" lon="5.42304">
        <ele>304.2</ele>
        <time>2022-07-21T07:06:10Z</time>
      </trkpt>
      <trkpt lat="46.24163" lon="5.42301">
        <ele>304.6</ele>
        <time>2022-07-21T07:06:13Z</time>
      </trkpt>
      <trkpt lat="46.2418" lon="5.42304">
        <ele>305</ele>
        <time>2022-07-21T07:06:16Z</time>
      </trkpt>
      <trkpt lat="46.24191" lon="5.42305">
        <ele>305.4</ele>
        <time>2022-07-21T07:06:18Z</time>
      </trkpt>
      <trkpt lat="46.24228" lon="5.42305">
        <ele>306.4</ele>
        <time>2022-07-21T07:06:24Z</time>
      </trkpt>
      <trkpt lat="46.24235" lon="5.42305">
        <ele>306.4</ele>
        <time>2022-07-21T07:06:25Z</time>
      </trkpt>
      <trkpt lat="46.24287" lon="5.42302">
        <ele>307</ele>
        <time>2022-07-21T07:06:33Z</time>
      </trkpt>
      <trkpt lat="46.24316" lon="5.42299">
        <ele>307.4</ele>
        <time>2022-07-21T07:06:38Z</time>
      </trkpt>
      <trkpt lat="46.24322" lon="5.42299">
        <ele>307.6</ele>
        <time>2022-07-21T07:06:39Z</time>
      </trkpt>
      <trkpt lat="46.24345" lon="5.42297">
        <ele>308.4</ele>
        <time>2022-07-21T07:06:43Z</time>
      </trkpt>
      <trkpt lat="46.24362" lon="5.42294">
        <ele>308.6</ele>
        <time>2022-07-21T07:06:46Z</time>
      </trkpt>
      <trkpt lat="46.24381" lon="5.42293">
        <ele>308.8</ele>
        <time>2022-07-21T07:06:49Z</time>
      </trkpt>
      <trkpt lat="46.24388" lon="5.42293">
        <ele>308.8</ele>
        <time>2022-07-21T07:06:50Z</time>
      </trkpt>
      <trkpt lat="46.24424" lon="5.42292">
        <ele>308.2</ele>
        <time>2022-07-21T07:06:55Z</time>
      </trkpt>
      <trkpt lat="46.2447" lon="5.42293">
        <ele>307.4</ele>
        <time>2022-07-21T07:07:01Z</time>
      </trkpt>
      <trkpt lat="46.24478" lon="5.42294">
        <ele>307.4</ele>
        <time>2022-07-21T07:07:02Z</time>
      </trkpt>
      <trkpt lat="46.24529" lon="5.42303">
        <ele>307</ele>
        <time>2022-07-21T07:07:09Z</time>
      </trkpt>
      <trkpt lat="46.24575" lon="5.42314">
        <ele>306.2</ele>
        <time>2022-07-21T07:07:15Z</time>
      </trkpt>
      <trkpt lat="46.24582" lon="5.42316">
        <ele>306</ele>
        <time>2022-07-21T07:07:16Z</time>
      </trkpt>
      <trkpt lat="46.24626" lon="5.42329">
        <ele>305.6</ele>
        <time>2022-07-21T07:07:23Z</time>
      </trkpt>
      <trkpt lat="46.24635" lon="5.42332">
        <ele>305.6</ele>
        <time>2022-07-21T07:07:25Z</time>
      </trkpt>
      <trkpt lat="46.2464" lon="5.42336">
        <ele>306</ele>
        <time>2022-07-21T07:07:27Z</time>
      </trkpt>
      <trkpt lat="46.24642" lon="5.42337">
        <ele>306.2</ele>
        <time>2022-07-21T07:07:30Z</time>
      </trkpt>
      <trkpt lat="46.24647" lon="5.4234">
        <ele>306.6</ele>
        <time>2022-07-21T07:07:37Z</time>
      </trkpt>
      <trkpt lat="46.24655" lon="5.4234">
        <ele>306.6</ele>
        <time>2022-07-21T07:07:39Z</time>
      </trkpt>
      <trkpt lat="46.24686" lon="5.42344">
        <ele>306.6</ele>
        <time>2022-07-21T07:07:44Z</time>
      </trkpt>
      <trkpt lat="46.24743" lon="5.42352">
        <ele>305.8</ele>
        <time>2022-07-21T07:07:52Z</time>
      </trkpt>
      <trkpt lat="46.2475" lon="5.42353">
        <ele>305.8</ele>
        <time>2022-07-21T07:07:53Z</time>
      </trkpt>
      <trkpt lat="46.24799" lon="5.42359">
        <ele>306.4</ele>
        <time>2022-07-21T07:08:00Z</time>
      </trkpt>
      <trkpt lat="46.24853" lon="5.42364">
        <ele>306.8</ele>
        <time>2022-07-21T07:08:08Z</time>
      </trkpt>
      <trkpt lat="46.2486" lon="5.42365">
        <ele>306.8</ele>
        <time>2022-07-21T07:08:09Z</time>
      </trkpt>
      <trkpt lat="46.24919" lon="5.42374">
        <ele>307</ele>
        <time>2022-07-21T07:08:18Z</time>
      </trkpt>
      <trkpt lat="46.24965" lon="5.4238">
        <ele>306.8</ele>
        <time>2022-07-21T07:08:25Z</time>
      </trkpt>
      <trkpt lat="46.2502" lon="5.42387">
        <ele>306.4</ele>
        <time>2022-07-21T07:08:33Z</time>
      </trkpt>
      <trkpt lat="46.25077" lon="5.42393">
        <ele>306.2</ele>
        <time>2022-07-21T07:08:41Z</time>
      </trkpt>
      <trkpt lat="46.2509" lon="5.42395">
        <ele>306</ele>
        <time>2022-07-21T07:08:43Z</time>
      </trkpt>
      <trkpt lat="46.25145" lon="5.42401">
        <ele>306.2</ele>
        <time>2022-07-21T07:08:51Z</time>
      </trkpt>
      <trkpt lat="46.25158" lon="5.42403">
        <ele>306.2</ele>
        <time>2022-07-21T07:08:53Z</time>
      </trkpt>
      <trkpt lat="46.25213" lon="5.4241">
        <ele>306.4</ele>
        <time>2022-07-21T07:09:01Z</time>
      </trkpt>
      <trkpt lat="46.25219" lon="5.42411">
        <ele>306.6</ele>
        <time>2022-07-21T07:09:02Z</time>
      </trkpt>
      <trkpt lat="46.25273" lon="5.42419">
        <ele>306.8</ele>
        <time>2022-07-21T07:09:10Z</time>
      </trkpt>
      <trkpt lat="46.25329" lon="5.42429">
        <ele>306.6</ele>
        <time>2022-07-21T07:09:18Z</time>
      </trkpt>
      <trkpt lat="46.25337" lon="5.4243">
        <ele>306.6</ele>
        <time>2022-07-21T07:09:19Z</time>
      </trkpt>
      <trkpt lat="46.25395" lon="5.42439">
        <ele>306.2</ele>
        <time>2022-07-21T07:09:27Z</time>
      </trkpt>
      <trkpt lat="46.25403" lon="5.4244">
        <ele>306.2</ele>
        <time>2022-07-21T07:09:28Z</time>
      </trkpt>
      <trkpt lat="46.25457" lon="5.42449">
        <ele>305.6</ele>
        <time>2022-07-21T07:09:35Z</time>
      </trkpt>
      <trkpt lat="46.25465" lon="5.42451">
        <ele>305.6</ele>
        <time>2022-07-21T07:09:36Z</time>
      </trkpt>
      <trkpt lat="46.25523" lon="5.4246">
        <ele>306</ele>
        <time>2022-07-21T07:09:44Z</time>
      </trkpt>
      <trkpt lat="46.25545" lon="5.42464">
        <ele>306</ele>
        <time>2022-07-21T07:09:47Z</time>
      </trkpt>
      <trkpt lat="46.25599" lon="5.42472">
        <ele>306.4</ele>
        <time>2022-07-21T07:09:54Z</time>
      </trkpt>
      <trkpt lat="46.25659" lon="5.42481">
        <ele>306.2</ele>
        <time>2022-07-21T07:10:02Z</time>
      </trkpt>
      <trkpt lat="46.25673" lon="5.42484">
        <ele>306.2</ele>
        <time>2022-07-21T07:10:04Z</time>
      </trkpt>
      <trkpt lat="46.2573" lon="5.42492">
        <ele>306.4</ele>
        <time>2022-07-21T07:10:12Z</time>
      </trkpt>
      <trkpt lat="46.25737" lon="5.42493">
        <ele>306.4</ele>
        <time>2022-07-21T07:10:13Z</time>
      </trkpt>
      <trkpt lat="46.25792" lon="5.42503">
        <ele>306.6</ele>
        <time>2022-07-21T07:10:21Z</time>
      </trkpt>
      <trkpt lat="46.25799" lon="5.42503">
        <ele>306.6</ele>
        <time>2022-07-21T07:10:22Z</time>
      </trkpt>
      <trkpt lat="46.25853" lon="5.42512">
        <ele>306.8</ele>
        <time>2022-07-21T07:10:30Z</time>
      </trkpt>
      <trkpt lat="46.2586" lon="5.42513">
        <ele>306.8</ele>
        <time>2022-07-21T07:10:31Z</time>
      </trkpt>
      <trkpt lat="46.25919" lon="5.42523">
        <ele>307.6</ele>
        <time>2022-07-21T07:10:40Z</time>
      </trkpt>
      <trkpt lat="46.25926" lon="5.42523">
        <ele>307.6</ele>
        <time>2022-07-21T07:10:41Z</time>
      </trkpt>
      <trkpt lat="46.25933" lon="5.42524">
        <ele>307.6</ele>
        <time>2022-07-21T07:10:42Z</time>
      </trkpt>
      <trkpt lat="46.25988" lon="5.42534">
        <ele>307.8</ele>
        <time>2022-07-21T07:10:50Z</time>
      </trkpt>
      <trkpt lat="46.25995" lon="5.42535">
        <ele>307.6</ele>
        <time>2022-07-21T07:10:51Z</time>
      </trkpt>
      <trkpt lat="46.26043" lon="5.42542">
        <ele>307.4</ele>
        <time>2022-07-21T07:10:58Z</time>
      </trkpt>
      <trkpt lat="46.26057" lon="5.42544">
        <ele>307.2</ele>
        <time>2022-07-21T07:11:00Z</time>
      </trkpt>
      <trkpt lat="46.2611" lon="5.42553">
        <ele>307.2</ele>
        <time>2022-07-21T07:11:08Z</time>
      </trkpt>
      <trkpt lat="46.2613" lon="5.42556">
        <ele>307.2</ele>
        <time>2022-07-21T07:11:11Z</time>
      </trkpt>
      <trkpt lat="46.26185" lon="5.42563">
        <ele>307.8</ele>
        <time>2022-07-21T07:11:19Z</time>
      </trkpt>
      <trkpt lat="46.26198" lon="5.42565">
        <ele>307.8</ele>
        <time>2022-07-21T07:11:21Z</time>
      </trkpt>
      <trkpt lat="46.26257" lon="5.42572">
        <ele>307.6</ele>
        <time>2022-07-21T07:11:29Z</time>
      </trkpt>
      <trkpt lat="46.26312" lon="5.42577">
        <ele>308</ele>
        <time>2022-07-21T07:11:37Z</time>
      </trkpt>
      <trkpt lat="46.26319" lon="5.42577">
        <ele>308</ele>
        <time>2022-07-21T07:11:38Z</time>
      </trkpt>
      <trkpt lat="46.26333" lon="5.42578">
        <ele>308.2</ele>
        <time>2022-07-21T07:11:40Z</time>
      </trkpt>
      <trkpt lat="46.26352" lon="5.42584">
        <ele>308.6</ele>
        <time>2022-07-21T07:11:43Z</time>
      </trkpt>
      <trkpt lat="46.26365" lon="5.42584">
        <ele>308.8</ele>
        <time>2022-07-21T07:11:45Z</time>
      </trkpt>
      <trkpt lat="46.26405" lon="5.42589">
        <ele>309</ele>
        <time>2022-07-21T07:11:51Z</time>
      </trkpt>
      <trkpt lat="46.26458" lon="5.426">
        <ele>309</ele>
        <time>2022-07-21T07:11:59Z</time>
      </trkpt>
      <trkpt lat="46.26514" lon="5.42618">
        <ele>309.6</ele>
        <time>2022-07-21T07:12:08Z</time>
      </trkpt>
      <trkpt lat="46.2652" lon="5.42619">
        <ele>309.6</ele>
        <time>2022-07-21T07:12:09Z</time>
      </trkpt>
      <trkpt lat="46.26541" lon="5.42621">
        <ele>309.8</ele>
        <time>2022-07-21T07:12:12Z</time>
      </trkpt>
      <trkpt lat="46.26555" lon="5.42623">
        <ele>310</ele>
        <time>2022-07-21T07:12:14Z</time>
      </trkpt>
      <trkpt lat="46.26605" lon="5.42633">
        <ele>310</ele>
        <time>2022-07-21T07:12:21Z</time>
      </trkpt>
      <trkpt lat="46.26655" lon="5.42647">
        <ele>310</ele>
        <time>2022-07-21T07:12:29Z</time>
      </trkpt>
      <trkpt lat="46.26698" lon="5.42658">
        <ele>310.6</ele>
        <time>2022-07-21T07:12:36Z</time>
      </trkpt>
      <trkpt lat="46.26711" lon="5.42661">
        <ele>311</ele>
        <time>2022-07-21T07:12:38Z</time>
      </trkpt>
      <trkpt lat="46.26751" lon="5.42672">
        <ele>311.4</ele>
        <time>2022-07-21T07:12:44Z</time>
      </trkpt>
      <trkpt lat="46.2679" lon="5.42683">
        <ele>311.2</ele>
        <time>2022-07-21T07:12:50Z</time>
      </trkpt>
      <trkpt lat="46.26844" lon="5.42699">
        <ele>311.2</ele>
        <time>2022-07-21T07:12:58Z</time>
      </trkpt>
      <trkpt lat="46.2689" lon="5.42717">
        <ele>311</ele>
        <time>2022-07-21T07:13:05Z</time>
      </trkpt>
      <trkpt lat="46.26921" lon="5.4273">
        <ele>312.2</ele>
        <time>2022-07-21T07:13:10Z</time>
      </trkpt>
      <trkpt lat="46.26934" lon="5.42735">
        <ele>312.6</ele>
        <time>2022-07-21T07:13:12Z</time>
      </trkpt>
      <trkpt lat="46.26973" lon="5.42747">
        <ele>312.8</ele>
        <time>2022-07-21T07:13:18Z</time>
      </trkpt>
      <trkpt lat="46.26979" lon="5.42749">
        <ele>312.8</ele>
        <time>2022-07-21T07:13:19Z</time>
      </trkpt>
      <trkpt lat="46.27038" lon="5.42762">
        <ele>313</ele>
        <time>2022-07-21T07:13:28Z</time>
      </trkpt>
      <trkpt lat="46.27056" lon="5.42765">
        <ele>313.2</ele>
        <time>2022-07-21T07:13:31Z</time>
      </trkpt>
      <trkpt lat="46.2708" lon="5.42767">
        <ele>313.8</ele>
        <time>2022-07-21T07:13:35Z</time>
      </trkpt>
      <trkpt lat="46.27097" lon="5.42767">
        <ele>314.4</ele>
        <time>2022-07-21T07:13:38Z</time>
      </trkpt>
      <trkpt lat="46.27131" lon="5.4277">
        <ele>315.4</ele>
        <time>2022-07-21T07:13:44Z</time>
      </trkpt>
      <trkpt lat="46.27136" lon="5.42771">
        <ele>315.8</ele>
        <time>2022-07-21T07:13:45Z</time>
      </trkpt>
      <trkpt lat="46.27177" lon="5.42789">
        <ele>316.2</ele>
        <time>2022-07-21T07:13:52Z</time>
      </trkpt>
      <trkpt lat="46.27188" lon="5.42796">
        <ele>316.4</ele>
        <time>2022-07-21T07:13:54Z</time>
      </trkpt>
      <trkpt lat="46.27238" lon="5.42824">
        <ele>316.8</ele>
        <time>2022-07-21T07:14:02Z</time>
      </trkpt>
      <trkpt lat="46.27293" lon="5.42863">
        <ele>316</ele>
        <time>2022-07-21T07:14:10Z</time>
      </trkpt>
      <trkpt lat="46.27308" lon="5.42872">
        <ele>315.2</ele>
        <time>2022-07-21T07:14:12Z</time>
      </trkpt>
      <trkpt lat="46.2734" lon="5.42888">
        <ele>314.6</ele>
        <time>2022-07-21T07:14:16Z</time>
      </trkpt>
      <trkpt lat="46.27356" lon="5.42894">
        <ele>314.2</ele>
        <time>2022-07-21T07:14:18Z</time>
      </trkpt>
      <trkpt lat="46.27403" lon="5.4291">
        <ele>313</ele>
        <time>2022-07-21T07:14:24Z</time>
      </trkpt>
      <trkpt lat="46.27455" lon="5.42927">
        <ele>312.6</ele>
        <time>2022-07-21T07:14:31Z</time>
      </trkpt>
      <trkpt lat="46.27511" lon="5.42944">
        <ele>312.8</ele>
        <time>2022-07-21T07:14:39Z</time>
      </trkpt>
      <trkpt lat="46.27565" lon="5.42962">
        <ele>313</ele>
        <time>2022-07-21T07:14:47Z</time>
      </trkpt>
      <trkpt lat="46.27573" lon="5.42965">
        <ele>313</ele>
        <time>2022-07-21T07:14:48Z</time>
      </trkpt>
      <trkpt lat="46.27632" lon="5.42985">
        <ele>312.8</ele>
        <time>2022-07-21T07:14:56Z</time>
      </trkpt>
      <trkpt lat="46.27639" lon="5.42987">
        <ele>312.8</ele>
        <time>2022-07-21T07:14:57Z</time>
      </trkpt>
      <trkpt lat="46.27693" lon="5.43004">
        <ele>313</ele>
        <time>2022-07-21T07:15:05Z</time>
      </trkpt>
      <trkpt lat="46.27745" lon="5.43025">
        <ele>312.8</ele>
        <time>2022-07-21T07:15:13Z</time>
      </trkpt>
      <trkpt lat="46.27803" lon="5.43047">
        <ele>312.4</ele>
        <time>2022-07-21T07:15:21Z</time>
      </trkpt>
      <trkpt lat="46.27841" lon="5.43048">
        <ele>312.2</ele>
        <time>2022-07-21T07:15:26Z</time>
      </trkpt>
      <trkpt lat="46.27849" lon="5.43047">
        <ele>312</ele>
        <time>2022-07-21T07:15:27Z</time>
      </trkpt>
      <trkpt lat="46.27896" lon="5.4305">
        <ele>312</ele>
        <time>2022-07-21T07:15:33Z</time>
      </trkpt>
      <trkpt lat="46.27939" lon="5.43059">
        <ele>311.6</ele>
        <time>2022-07-21T07:15:39Z</time>
      </trkpt>
      <trkpt lat="46.27992" lon="5.43071">
        <ele>311.6</ele>
        <time>2022-07-21T07:15:47Z</time>
      </trkpt>
      <trkpt lat="46.28052" lon="5.43084">
        <ele>312.4</ele>
        <time>2022-07-21T07:15:56Z</time>
      </trkpt>
      <trkpt lat="46.2811" lon="5.43096">
        <ele>312.6</ele>
        <time>2022-07-21T07:16:05Z</time>
      </trkpt>
      <trkpt lat="46.28131" lon="5.431">
        <ele>312.6</ele>
        <time>2022-07-21T07:16:08Z</time>
      </trkpt>
      <trkpt lat="46.28189" lon="5.43111">
        <ele>313</ele>
        <time>2022-07-21T07:16:17Z</time>
      </trkpt>
      <trkpt lat="46.28204" lon="5.43115">
        <ele>313</ele>
        <time>2022-07-21T07:16:19Z</time>
      </trkpt>
      <trkpt lat="46.28236" lon="5.4312">
        <ele>313</ele>
        <time>2022-07-21T07:16:24Z</time>
      </trkpt>
      <trkpt lat="46.28269" lon="5.43127">
        <ele>313.2</ele>
        <time>2022-07-21T07:16:29Z</time>
      </trkpt>
      <trkpt lat="46.28321" lon="5.43133">
        <ele>313.2</ele>
        <time>2022-07-21T07:16:37Z</time>
      </trkpt>
      <trkpt lat="46.28378" lon="5.43126">
        <ele>313.2</ele>
        <time>2022-07-21T07:16:46Z</time>
      </trkpt>
      <trkpt lat="46.28423" lon="5.4312">
        <ele>313.2</ele>
        <time>2022-07-21T07:16:53Z</time>
      </trkpt>
      <trkpt lat="46.28466" lon="5.43114">
        <ele>313.2</ele>
        <time>2022-07-21T07:17:00Z</time>
      </trkpt>
      <trkpt lat="46.28524" lon="5.43109">
        <ele>313.6</ele>
        <time>2022-07-21T07:17:09Z</time>
      </trkpt>
      <trkpt lat="46.28581" lon="5.43108">
        <ele>313.8</ele>
        <time>2022-07-21T07:17:18Z</time>
      </trkpt>
      <trkpt lat="46.28605" lon="5.43109">
        <ele>313.8</ele>
        <time>2022-07-21T07:17:22Z</time>
      </trkpt>
      <trkpt lat="46.28662" lon="5.43114">
        <ele>314.2</ele>
        <time>2022-07-21T07:17:31Z</time>
      </trkpt>
      <trkpt lat="46.28683" lon="5.43116">
        <ele>314.2</ele>
        <time>2022-07-21T07:17:34Z</time>
      </trkpt>
      <trkpt lat="46.28709" lon="5.43118">
        <ele>314.2</ele>
        <time>2022-07-21T07:17:38Z</time>
      </trkpt>
      <trkpt lat="46.28746" lon="5.43123">
        <ele>314.2</ele>
        <time>2022-07-21T07:17:44Z</time>
      </trkpt>
      <trkpt lat="46.28798" lon="5.43137">
        <ele>314.2</ele>
        <time>2022-07-21T07:17:52Z</time>
      </trkpt>
      <trkpt lat="46.28851" lon="5.43159">
        <ele>314.4</ele>
        <time>2022-07-21T07:18:01Z</time>
      </trkpt>
      <trkpt lat="46.28864" lon="5.43164">
        <ele>314.4</ele>
        <time>2022-07-21T07:18:03Z</time>
      </trkpt>
      <trkpt lat="46.28917" lon="5.43186">
        <ele>314.4</ele>
        <time>2022-07-21T07:18:12Z</time>
      </trkpt>
      <trkpt lat="46.28929" lon="5.43192">
        <ele>314.4</ele>
        <time>2022-07-21T07:18:14Z</time>
      </trkpt>
      <trkpt lat="46.28982" lon="5.43218">
        <ele>314.6</ele>
        <time>2022-07-21T07:18:23Z</time>
      </trkpt>
      <trkpt lat="46.29027" lon="5.43253">
        <ele>314.4</ele>
        <time>2022-07-21T07:18:31Z</time>
      </trkpt>
      <trkpt lat="46.29073" lon="5.43298">
        <ele>314.4</ele>
        <time>2022-07-21T07:18:40Z</time>
      </trkpt>
      <trkpt lat="46.29079" lon="5.43304">
        <ele>314.4</ele>
        <time>2022-07-21T07:18:41Z</time>
      </trkpt>
      <trkpt lat="46.29126" lon="5.43345">
        <ele>315</ele>
        <time>2022-07-21T07:18:50Z</time>
      </trkpt>
      <trkpt lat="46.29132" lon="5.43349">
        <ele>315.2</ele>
        <time>2022-07-21T07:18:51Z</time>
      </trkpt>
      <trkpt lat="46.29164" lon="5.43373">
        <ele>315.6</ele>
        <time>2022-07-21T07:18:57Z</time>
      </trkpt>
      <trkpt lat="46.29181" lon="5.43385">
        <ele>315.6</ele>
        <time>2022-07-21T07:19:00Z</time>
      </trkpt>
      <trkpt lat="46.2923" lon="5.43408">
        <ele>315.6</ele>
        <time>2022-07-21T07:19:08Z</time>
      </trkpt>
      <trkpt lat="46.2928" lon="5.43426">
        <ele>316</ele>
        <time>2022-07-21T07:19:16Z</time>
      </trkpt>
      <trkpt lat="46.29335" lon="5.43452">
        <ele>316.2</ele>
        <time>2022-07-21T07:19:25Z</time>
      </trkpt>
      <trkpt lat="46.29341" lon="5.43455">
        <ele>316.2</ele>
        <time>2022-07-21T07:19:26Z</time>
      </trkpt>
      <trkpt lat="46.29381" lon="5.43482">
        <ele>316.2</ele>
        <time>2022-07-21T07:19:33Z</time>
      </trkpt>
      <trkpt lat="46.29415" lon="5.43505">
        <ele>316.6</ele>
        <time>2022-07-21T07:19:39Z</time>
      </trkpt>
      <trkpt lat="46.29421" lon="5.43509">
        <ele>316.6</ele>
        <time>2022-07-21T07:19:40Z</time>
      </trkpt>
      <trkpt lat="46.29449" lon="5.43526">
        <ele>317.8</ele>
        <time>2022-07-21T07:19:45Z</time>
      </trkpt>
      <trkpt lat="46.29471" lon="5.43537">
        <ele>318.4</ele>
        <time>2022-07-21T07:19:49Z</time>
      </trkpt>
      <trkpt lat="46.29524" lon="5.43565">
        <ele>318.8</ele>
        <time>2022-07-21T07:19:58Z</time>
      </trkpt>
      <trkpt lat="46.2953" lon="5.43568">
        <ele>318.8</ele>
        <time>2022-07-21T07:19:59Z</time>
      </trkpt>
      <trkpt lat="46.29583" lon="5.43596">
        <ele>319</ele>
        <time>2022-07-21T07:20:08Z</time>
      </trkpt>
      <trkpt lat="46.29599" lon="5.43605">
        <ele>319</ele>
        <time>2022-07-21T07:20:11Z</time>
      </trkpt>
      <trkpt lat="46.29651" lon="5.43633">
        <ele>319.2</ele>
        <time>2022-07-21T07:20:20Z</time>
      </trkpt>
      <trkpt lat="46.29704" lon="5.43661">
        <ele>319.6</ele>
        <time>2022-07-21T07:20:29Z</time>
      </trkpt>
      <trkpt lat="46.2971" lon="5.43665">
        <ele>319.6</ele>
        <time>2022-07-21T07:20:30Z</time>
      </trkpt>
      <trkpt lat="46.29764" lon="5.43693">
        <ele>319.6</ele>
        <time>2022-07-21T07:20:39Z</time>
      </trkpt>
      <trkpt lat="46.2977" lon="5.43696">
        <ele>319.8</ele>
        <time>2022-07-21T07:20:40Z</time>
      </trkpt>
      <trkpt lat="46.29824" lon="5.43722">
        <ele>320.2</ele>
        <time>2022-07-21T07:20:49Z</time>
      </trkpt>
      <trkpt lat="46.29836" lon="5.43727">
        <ele>320.2</ele>
        <time>2022-07-21T07:20:51Z</time>
      </trkpt>
      <trkpt lat="46.2989" lon="5.43749">
        <ele>320.8</ele>
        <time>2022-07-21T07:21:00Z</time>
      </trkpt>
      <trkpt lat="46.29902" lon="5.43754">
        <ele>320.8</ele>
        <time>2022-07-21T07:21:02Z</time>
      </trkpt>
      <trkpt lat="46.29914" lon="5.4376">
        <ele>321</ele>
        <time>2022-07-21T07:21:04Z</time>
      </trkpt>
      <trkpt lat="46.29954" lon="5.43776">
        <ele>321.2</ele>
        <time>2022-07-21T07:21:11Z</time>
      </trkpt>
      <trkpt lat="46.30009" lon="5.43801">
        <ele>321.4</ele>
        <time>2022-07-21T07:21:20Z</time>
      </trkpt>
      <trkpt lat="46.30015" lon="5.43804">
        <ele>321.4</ele>
        <time>2022-07-21T07:21:21Z</time>
      </trkpt>
      <trkpt lat="46.30068" lon="5.43831">
        <ele>321.2</ele>
        <time>2022-07-21T07:21:30Z</time>
      </trkpt>
      <trkpt lat="46.30074" lon="5.43834">
        <ele>321.4</ele>
        <time>2022-07-21T07:21:31Z</time>
      </trkpt>
      <trkpt lat="46.30126" lon="5.43862">
        <ele>321.8</ele>
        <time>2022-07-21T07:21:40Z</time>
      </trkpt>
      <trkpt lat="46.30155" lon="5.43877">
        <ele>322</ele>
        <time>2022-07-21T07:21:45Z</time>
      </trkpt>
      <trkpt lat="46.30194" lon="5.43898">
        <ele>322</ele>
        <time>2022-07-21T07:21:52Z</time>
      </trkpt>
      <trkpt lat="46.302" lon="5.43901">
        <ele>322.2</ele>
        <time>2022-07-21T07:21:53Z</time>
      </trkpt>
      <trkpt lat="46.30254" lon="5.43927">
        <ele>322.6</ele>
        <time>2022-07-21T07:22:02Z</time>
      </trkpt>
      <trkpt lat="46.30297" lon="5.43949">
        <ele>322.4</ele>
        <time>2022-07-21T07:22:09Z</time>
      </trkpt>
      <trkpt lat="46.30351" lon="5.43973">
        <ele>322.2</ele>
        <time>2022-07-21T07:22:18Z</time>
      </trkpt>
      <trkpt lat="46.30397" lon="5.43995">
        <ele>322.4</ele>
        <time>2022-07-21T07:22:26Z</time>
      </trkpt>
      <trkpt lat="46.3044" lon="5.4401">
        <ele>322.2</ele>
        <time>2022-07-21T07:22:33Z</time>
      </trkpt>
      <trkpt lat="46.30488" lon="5.44023">
        <ele>322.2</ele>
        <time>2022-07-21T07:22:41Z</time>
      </trkpt>
      <trkpt lat="46.30505" lon="5.44027">
        <ele>322.2</ele>
        <time>2022-07-21T07:22:44Z</time>
      </trkpt>
      <trkpt lat="46.30527" lon="5.44033">
        <ele>322.6</ele>
        <time>2022-07-21T07:22:48Z</time>
      </trkpt>
      <trkpt lat="46.30543" lon="5.44036">
        <ele>323.2</ele>
        <time>2022-07-21T07:22:51Z</time>
      </trkpt>
      <trkpt lat="46.30565" lon="5.44038">
        <ele>324.2</ele>
        <time>2022-07-21T07:22:55Z</time>
      </trkpt>
      <trkpt lat="46.3057" lon="5.44038">
        <ele>324.4</ele>
        <time>2022-07-21T07:22:56Z</time>
      </trkpt>
      <trkpt lat="46.3061" lon="5.44043">
        <ele>325.4</ele>
        <time>2022-07-21T07:23:03Z</time>
      </trkpt>
      <trkpt lat="46.3065" lon="5.4405">
        <ele>326.6</ele>
        <time>2022-07-21T07:23:10Z</time>
      </trkpt>
      <trkpt lat="46.30673" lon="5.44054">
        <ele>326.8</ele>
        <time>2022-07-21T07:23:14Z</time>
      </trkpt>
      <trkpt lat="46.30691" lon="5.44053">
        <ele>327.2</ele>
        <time>2022-07-21T07:23:17Z</time>
      </trkpt>
      <trkpt lat="46.30717" lon="5.44047">
        <ele>327</ele>
        <time>2022-07-21T07:23:21Z</time>
      </trkpt>
      <trkpt lat="46.30723" lon="5.44044">
        <ele>327</ele>
        <time>2022-07-21T07:23:22Z</time>
      </trkpt>
      <trkpt lat="46.3073" lon="5.44042">
        <ele>327</ele>
        <time>2022-07-21T07:23:23Z</time>
      </trkpt>
      <trkpt lat="46.30752" lon="5.44035">
        <ele>326.6</ele>
        <time>2022-07-21T07:23:26Z</time>
      </trkpt>
      <trkpt lat="46.30789" lon="5.44022">
        <ele>325.6</ele>
        <time>2022-07-21T07:23:31Z</time>
      </trkpt>
      <trkpt lat="46.30798" lon="5.44021">
        <ele>325.2</ele>
        <time>2022-07-21T07:23:32Z</time>
      </trkpt>
      <trkpt lat="46.30823" lon="5.44023">
        <ele>324.4</ele>
        <time>2022-07-21T07:23:35Z</time>
      </trkpt>
      <trkpt lat="46.3084" lon="5.44027">
        <ele>323.8</ele>
        <time>2022-07-21T07:23:37Z</time>
      </trkpt>
      <trkpt lat="46.30848" lon="5.44029">
        <ele>323.4</ele>
        <time>2022-07-21T07:23:38Z</time>
      </trkpt>
      <trkpt lat="46.30864" lon="5.44034">
        <ele>322.2</ele>
        <time>2022-07-21T07:23:40Z</time>
      </trkpt>
      <trkpt lat="46.309" lon="5.44048">
        <ele>321.6</ele>
        <time>2022-07-21T07:23:45Z</time>
      </trkpt>
      <trkpt lat="46.30953" lon="5.44082">
        <ele>321.8</ele>
        <time>2022-07-21T07:23:53Z</time>
      </trkpt>
      <trkpt lat="46.30958" lon="5.44085">
        <ele>321.8</ele>
        <time>2022-07-21T07:23:54Z</time>
      </trkpt>
      <trkpt lat="46.30998" lon="5.44115">
        <ele>322.2</ele>
        <time>2022-07-21T07:24:01Z</time>
      </trkpt>
      <trkpt lat="46.3103" lon="5.44138">
        <ele>323.2</ele>
        <time>2022-07-21T07:24:07Z</time>
      </trkpt>
      <trkpt lat="46.31035" lon="5.44142">
        <ele>323.4</ele>
        <time>2022-07-21T07:24:08Z</time>
      </trkpt>
      <trkpt lat="46.31062" lon="5.44165">
        <ele>324.2</ele>
        <time>2022-07-21T07:24:13Z</time>
      </trkpt>
      <trkpt lat="46.31078" lon="5.44178">
        <ele>324.6</ele>
        <time>2022-07-21T07:24:16Z</time>
      </trkpt>
      <trkpt lat="46.31108" lon="5.44205">
        <ele>325.4</ele>
        <time>2022-07-21T07:24:22Z</time>
      </trkpt>
      <trkpt lat="46.31119" lon="5.44214">
        <ele>326</ele>
        <time>2022-07-21T07:24:24Z</time>
      </trkpt>
      <trkpt lat="46.31167" lon="5.44257">
        <ele>326.4</ele>
        <time>2022-07-21T07:24:33Z</time>
      </trkpt>
      <trkpt lat="46.31206" lon="5.44283">
        <ele>326.4</ele>
        <time>2022-07-21T07:24:40Z</time>
      </trkpt>
      <trkpt lat="46.31218" lon="5.44288">
        <ele>326.4</ele>
        <time>2022-07-21T07:24:42Z</time>
      </trkpt>
      <trkpt lat="46.31254" lon="5.44302">
        <ele>327</ele>
        <time>2022-07-21T07:24:48Z</time>
      </trkpt>
      <trkpt lat="46.31277" lon="5.44312">
        <ele>327.4</ele>
        <time>2022-07-21T07:24:52Z</time>
      </trkpt>
      <trkpt lat="46.31314" lon="5.44327">
        <ele>328</ele>
        <time>2022-07-21T07:24:58Z</time>
      </trkpt>
      <trkpt lat="46.31371" lon="5.44351">
        <ele>327.6</ele>
        <time>2022-07-21T07:25:07Z</time>
      </trkpt>
      <trkpt lat="46.31383" lon="5.44356">
        <ele>327.4</ele>
        <time>2022-07-21T07:25:09Z</time>
      </trkpt>
      <trkpt lat="46.31433" lon="5.44376">
        <ele>326.4</ele>
        <time>2022-07-21T07:25:16Z</time>
      </trkpt>
      <trkpt lat="46.31446" lon="5.44381">
        <ele>326.2</ele>
        <time>2022-07-21T07:25:18Z</time>
      </trkpt>
      <trkpt lat="46.31505" lon="5.44404">
        <ele>325.6</ele>
        <time>2022-07-21T07:25:26Z</time>
      </trkpt>
      <trkpt lat="46.31525" lon="5.44412">
        <ele>325.6</ele>
        <time>2022-07-21T07:25:29Z</time>
      </trkpt>
      <trkpt lat="46.31581" lon="5.44423">
        <ele>325.6</ele>
        <time>2022-07-21T07:25:37Z</time>
      </trkpt>
      <trkpt lat="46.31588" lon="5.44424">
        <ele>325.6</ele>
        <time>2022-07-21T07:25:38Z</time>
      </trkpt>
      <trkpt lat="46.31595" lon="5.44425">
        <ele>325.4</ele>
        <time>2022-07-21T07:25:39Z</time>
      </trkpt>
      <trkpt lat="46.3165" lon="5.44431">
        <ele>325.4</ele>
        <time>2022-07-21T07:25:47Z</time>
      </trkpt>
      <trkpt lat="46.31706" lon="5.44433">
        <ele>325.6</ele>
        <time>2022-07-21T07:25:55Z</time>
      </trkpt>
      <trkpt lat="46.3172" lon="5.44434">
        <ele>325.6</ele>
        <time>2022-07-21T07:25:57Z</time>
      </trkpt>
      <trkpt lat="46.3178" lon="5.44436">
        <ele>326</ele>
        <time>2022-07-21T07:26:06Z</time>
      </trkpt>
      <trkpt lat="46.31788" lon="5.44436">
        <ele>326</ele>
        <time>2022-07-21T07:26:07Z</time>
      </trkpt>
      <trkpt lat="46.31844" lon="5.4444">
        <ele>326.2</ele>
        <time>2022-07-21T07:26:15Z</time>
      </trkpt>
      <trkpt lat="46.31865" lon="5.44441">
        <ele>326.2</ele>
        <time>2022-07-21T07:26:18Z</time>
      </trkpt>
      <trkpt lat="46.31925" lon="5.44444">
        <ele>326</ele>
        <time>2022-07-21T07:26:27Z</time>
      </trkpt>
      <trkpt lat="46.31931" lon="5.44444">
        <ele>326</ele>
        <time>2022-07-21T07:26:28Z</time>
      </trkpt>
      <trkpt lat="46.31986" lon="5.44448">
        <ele>325.8</ele>
        <time>2022-07-21T07:26:36Z</time>
      </trkpt>
      <trkpt lat="46.3204" lon="5.4445">
        <ele>325.6</ele>
        <time>2022-07-21T07:26:44Z</time>
      </trkpt>
      <trkpt lat="46.3206" lon="5.44451">
        <ele>325.6</ele>
        <time>2022-07-21T07:26:47Z</time>
      </trkpt>
      <trkpt lat="46.32118" lon="5.44453">
        <ele>325.2</ele>
        <time>2022-07-21T07:26:55Z</time>
      </trkpt>
      <trkpt lat="46.32126" lon="5.44453">
        <ele>325</ele>
        <time>2022-07-21T07:26:56Z</time>
      </trkpt>
      <trkpt lat="46.32164" lon="5.44454">
        <ele>324.2</ele>
        <time>2022-07-21T07:27:01Z</time>
      </trkpt>
      <trkpt lat="46.32187" lon="5.44455">
        <ele>324.4</ele>
        <time>2022-07-21T07:27:04Z</time>
      </trkpt>
      <trkpt lat="46.32243" lon="5.44459">
        <ele>324.6</ele>
        <time>2022-07-21T07:27:12Z</time>
      </trkpt>
      <trkpt lat="46.32291" lon="5.44463">
        <ele>325</ele>
        <time>2022-07-21T07:27:19Z</time>
      </trkpt>
      <trkpt lat="46.32337" lon="5.44469">
        <ele>325.4</ele>
        <time>2022-07-21T07:27:26Z</time>
      </trkpt>
      <trkpt lat="46.32356" lon="5.44471">
        <ele>326</ele>
        <time>2022-07-21T07:27:29Z</time>
      </trkpt>
      <trkpt lat="46.32403" lon="5.44471">
        <ele>326.6</ele>
        <time>2022-07-21T07:27:36Z</time>
      </trkpt>
      <trkpt lat="46.32418" lon="5.44472">
        <ele>326.6</ele>
        <time>2022-07-21T07:27:38Z</time>
      </trkpt>
      <trkpt lat="46.32432" lon="5.44473">
        <ele>326.8</ele>
        <time>2022-07-21T07:27:40Z</time>
      </trkpt>
      <trkpt lat="46.32467" lon="5.44475">
        <ele>326.6</ele>
        <time>2022-07-21T07:27:45Z</time>
      </trkpt>
      <trkpt lat="46.32524" lon="5.44481">
        <ele>326.4</ele>
        <time>2022-07-21T07:27:53Z</time>
      </trkpt>
      <trkpt lat="46.32536" lon="5.44483">
        <ele>326.4</ele>
        <time>2022-07-21T07:27:55Z</time>
      </trkpt>
      <trkpt lat="46.32594" lon="5.44493">
        <ele>327</ele>
        <time>2022-07-21T07:28:04Z</time>
      </trkpt>
      <trkpt lat="46.32642" lon="5.44503">
        <ele>327.6</ele>
        <time>2022-07-21T07:28:11Z</time>
      </trkpt>
      <trkpt lat="46.32678" lon="5.44507">
        <ele>327.2</ele>
        <time>2022-07-21T07:28:16Z</time>
      </trkpt>
      <trkpt lat="46.32692" lon="5.44506">
        <ele>327</ele>
        <time>2022-07-21T07:28:18Z</time>
      </trkpt>
      <trkpt lat="46.32734" lon="5.44494">
        <ele>327</ele>
        <time>2022-07-21T07:28:24Z</time>
      </trkpt>
      <trkpt lat="46.32791" lon="5.44474">
        <ele>326</ele>
        <time>2022-07-21T07:28:32Z</time>
      </trkpt>
      <trkpt lat="46.3284" lon="5.4445">
        <ele>325.8</ele>
        <time>2022-07-21T07:28:39Z</time>
      </trkpt>
      <trkpt lat="46.32878" lon="5.44435">
        <ele>325.6</ele>
        <time>2022-07-21T07:28:44Z</time>
      </trkpt>
      <trkpt lat="46.3293" lon="5.44423">
        <ele>325.8</ele>
        <time>2022-07-21T07:28:51Z</time>
      </trkpt>
      <trkpt lat="46.32973" lon="5.44411">
        <ele>325.6</ele>
        <time>2022-07-21T07:28:57Z</time>
      </trkpt>
      <trkpt lat="46.32981" lon="5.44408">
        <ele>325.4</ele>
        <time>2022-07-21T07:28:58Z</time>
      </trkpt>
      <trkpt lat="46.33002" lon="5.444">
        <ele>325.2</ele>
        <time>2022-07-21T07:29:01Z</time>
      </trkpt>
      <trkpt lat="46.33023" lon="5.44393">
        <ele>325</ele>
        <time>2022-07-21T07:29:04Z</time>
      </trkpt>
      <trkpt lat="46.33051" lon="5.44379">
        <ele>324.8</ele>
        <time>2022-07-21T07:29:08Z</time>
      </trkpt>
      <trkpt lat="46.33057" lon="5.44379">
        <ele>324.8</ele>
        <time>2022-07-21T07:29:09Z</time>
      </trkpt>
      <trkpt lat="46.33102" lon="5.44381">
        <ele>325</ele>
        <time>2022-07-21T07:29:16Z</time>
      </trkpt>
      <trkpt lat="46.33115" lon="5.44384">
        <ele>325</ele>
        <time>2022-07-21T07:29:18Z</time>
      </trkpt>
      <trkpt lat="46.33128" lon="5.44392">
        <ele>324.8</ele>
        <time>2022-07-21T07:29:20Z</time>
      </trkpt>
      <trkpt lat="46.33138" lon="5.44405">
        <ele>324.8</ele>
        <time>2022-07-21T07:29:22Z</time>
      </trkpt>
      <trkpt lat="46.33145" lon="5.44422">
        <ele>324.8</ele>
        <time>2022-07-21T07:29:24Z</time>
      </trkpt>
      <trkpt lat="46.33154" lon="5.44469">
        <ele>324.6</ele>
        <time>2022-07-21T07:29:29Z</time>
      </trkpt>
      <trkpt lat="46.33159" lon="5.44508">
        <ele>324.4</ele>
        <time>2022-07-21T07:29:33Z</time>
      </trkpt>
      <trkpt lat="46.33163" lon="5.44524">
        <ele>324.4</ele>
        <time>2022-07-21T07:29:35Z</time>
      </trkpt>
      <trkpt lat="46.33177" lon="5.44553">
        <ele>325</ele>
        <time>2022-07-21T07:29:39Z</time>
      </trkpt>
      <trkpt lat="46.33181" lon="5.44559">
        <ele>325.2</ele>
        <time>2022-07-21T07:29:40Z</time>
      </trkpt>
      <trkpt lat="46.33187" lon="5.4457">
        <ele>325.4</ele>
        <time>2022-07-21T07:29:42Z</time>
      </trkpt>
      <trkpt lat="46.33192" lon="5.44581">
        <ele>325.8</ele>
        <time>2022-07-21T07:29:44Z</time>
      </trkpt>
      <trkpt lat="46.33199" lon="5.44597">
        <ele>326.6</ele>
        <time>2022-07-21T07:29:47Z</time>
      </trkpt>
      <trkpt lat="46.33202" lon="5.44602">
        <ele>326.8</ele>
        <time>2022-07-21T07:29:48Z</time>
      </trkpt>
      <trkpt lat="46.33207" lon="5.44611">
        <ele>327.4</ele>
        <time>2022-07-21T07:29:50Z</time>
      </trkpt>
      <trkpt lat="46.33209" lon="5.44615">
        <ele>328.2</ele>
        <time>2022-07-21T07:29:51Z</time>
      </trkpt>
      <trkpt lat="46.33223" lon="5.44635">
        <ele>329.8</ele>
        <time>2022-07-21T07:29:56Z</time>
      </trkpt>
      <trkpt lat="46.33232" lon="5.44646">
        <ele>331.2</ele>
        <time>2022-07-21T07:29:59Z</time>
      </trkpt>
      <trkpt lat="46.33246" lon="5.4466">
        <ele>332.6</ele>
        <time>2022-07-21T07:30:03Z</time>
      </trkpt>
      <trkpt lat="46.33252" lon="5.44667">
        <ele>332.8</ele>
        <time>2022-07-21T07:30:05Z</time>
      </trkpt>
      <trkpt lat="46.33262" lon="5.44677">
        <ele>333.6</ele>
        <time>2022-07-21T07:30:08Z</time>
      </trkpt>
      <trkpt lat="46.3328" lon="5.44699">
        <ele>334.6</ele>
        <time>2022-07-21T07:30:14Z</time>
      </trkpt>
      <trkpt lat="46.33283" lon="5.44702">
        <ele>334.8</ele>
        <time>2022-07-21T07:30:15Z</time>
      </trkpt>
      <trkpt lat="46.33298" lon="5.4472">
        <ele>335.6</ele>
        <time>2022-07-21T07:30:20Z</time>
      </trkpt>
      <trkpt lat="46.33313" lon="5.44738">
        <ele>336.8</ele>
        <time>2022-07-21T07:30:25Z</time>
      </trkpt>
      <trkpt lat="46.33322" lon="5.44748">
        <ele>337.2</ele>
        <time>2022-07-21T07:30:28Z</time>
      </trkpt>
      <trkpt lat="46.33336" lon="5.44768">
        <ele>338.2</ele>
        <time>2022-07-21T07:30:33Z</time>
      </trkpt>
      <trkpt lat="46.33351" lon="5.44789">
        <ele>338.8</ele>
        <time>2022-07-21T07:30:38Z</time>
      </trkpt>
      <trkpt lat="46.33359" lon="5.44804">
        <ele>339.2</ele>
        <time>2022-07-21T07:30:41Z</time>
      </trkpt>
      <trkpt lat="46.3337" lon="5.44823">
        <ele>339.8</ele>
        <time>2022-07-21T07:30:45Z</time>
      </trkpt>
      <trkpt lat="46.33384" lon="5.4485">
        <ele>340.2</ele>
        <time>2022-07-21T07:30:51Z</time>
      </trkpt>
      <trkpt lat="46.33389" lon="5.44857">
        <ele>340.4</ele>
        <time>2022-07-21T07:30:53Z</time>
      </trkpt>
      <trkpt lat="46.33397" lon="5.44869">
        <ele>341.4</ele>
        <time>2022-07-21T07:30:56Z</time>
      </trkpt>
      <trkpt lat="46.33412" lon="5.44889">
        <ele>342.4</ele>
        <time>2022-07-21T07:31:01Z</time>
      </trkpt>
      <trkpt lat="46.33415" lon="5.44893">
        <ele>342.6</ele>
        <time>2022-07-21T07:31:02Z</time>
      </trkpt>
      <trkpt lat="46.33432" lon="5.44915">
        <ele>343.6</ele>
        <time>2022-07-21T07:31:07Z</time>
      </trkpt>
      <trkpt lat="46.33443" lon="5.44929">
        <ele>343.8</ele>
        <time>2022-07-21T07:31:10Z</time>
      </trkpt>
      <trkpt lat="46.33475" lon="5.44968">
        <ele>343.6</ele>
        <time>2022-07-21T07:31:17Z</time>
      </trkpt>
      <trkpt lat="46.3351" lon="5.45016">
        <ele>343.4</ele>
        <time>2022-07-21T07:31:25Z</time>
      </trkpt>
      <trkpt lat="46.33514" lon="5.45022">
        <ele>343.6</ele>
        <time>2022-07-21T07:31:26Z</time>
      </trkpt>
      <trkpt lat="46.33517" lon="5.4503">
        <ele>343.6</ele>
        <time>2022-07-21T07:31:27Z</time>
      </trkpt>
      <trkpt lat="46.33521" lon="5.45045">
        <ele>343.8</ele>
        <time>2022-07-21T07:31:29Z</time>
      </trkpt>
      <trkpt lat="46.33525" lon="5.45061">
        <ele>344</ele>
        <time>2022-07-21T07:31:31Z</time>
      </trkpt>
      <trkpt lat="46.3353" lon="5.45131">
        <ele>344</ele>
        <time>2022-07-21T07:31:39Z</time>
      </trkpt>
      <trkpt lat="46.33527" lon="5.452">
        <ele>344.6</ele>
        <time>2022-07-21T07:31:47Z</time>
      </trkpt>
      <trkpt lat="46.33519" lon="5.45265">
        <ele>344.6</ele>
        <time>2022-07-21T07:31:54Z</time>
      </trkpt>
      <trkpt lat="46.33519" lon="5.45274">
        <ele>344.6</ele>
        <time>2022-07-21T07:31:55Z</time>
      </trkpt>
      <trkpt lat="46.33518" lon="5.45283">
        <ele>344.4</ele>
        <time>2022-07-21T07:31:56Z</time>
      </trkpt>
      <trkpt lat="46.33519" lon="5.45303">
        <ele>344.4</ele>
        <time>2022-07-21T07:31:58Z</time>
      </trkpt>
      <trkpt lat="46.3352" lon="5.45312">
        <ele>344.4</ele>
        <time>2022-07-21T07:31:59Z</time>
      </trkpt>
      <trkpt lat="46.33521" lon="5.45322">
        <ele>344.4</ele>
        <time>2022-07-21T07:32:00Z</time>
      </trkpt>
      <trkpt lat="46.33533" lon="5.45359">
        <ele>344.4</ele>
        <time>2022-07-21T07:32:04Z</time>
      </trkpt>
      <trkpt lat="46.33558" lon="5.45435">
        <ele>344</ele>
        <time>2022-07-21T07:32:12Z</time>
      </trkpt>
      <trkpt lat="46.33578" lon="5.45495">
        <ele>343.8</ele>
        <time>2022-07-21T07:32:19Z</time>
      </trkpt>
      <trkpt lat="46.33595" lon="5.45536">
        <ele>345</ele>
        <time>2022-07-21T07:32:25Z</time>
      </trkpt>
      <trkpt lat="46.33602" lon="5.45554">
        <ele>345.8</ele>
        <time>2022-07-21T07:32:28Z</time>
      </trkpt>
      <trkpt lat="46.33607" lon="5.4557">
        <ele>347</ele>
        <time>2022-07-21T07:32:31Z</time>
      </trkpt>
      <trkpt lat="46.3361" lon="5.45587">
        <ele>347.6</ele>
        <time>2022-07-21T07:32:34Z</time>
      </trkpt>
      <trkpt lat="46.33612" lon="5.45598">
        <ele>348.6</ele>
        <time>2022-07-21T07:32:36Z</time>
      </trkpt>
      <trkpt lat="46.33612" lon="5.45603">
        <ele>349</ele>
        <time>2022-07-21T07:32:37Z</time>
      </trkpt>
      <trkpt lat="46.33612" lon="5.4562">
        <ele>350</ele>
        <time>2022-07-21T07:32:40Z</time>
      </trkpt>
      <trkpt lat="46.33609" lon="5.45634">
        <ele>350.6</ele>
        <time>2022-07-21T07:32:43Z</time>
      </trkpt>
      <trkpt lat="46.33606" lon="5.45643">
        <ele>350.8</ele>
        <time>2022-07-21T07:32:45Z</time>
      </trkpt>
      <trkpt lat="46.33599" lon="5.45655">
        <ele>351.4</ele>
        <time>2022-07-21T07:32:48Z</time>
      </trkpt>
      <trkpt lat="46.33594" lon="5.45662">
        <ele>352</ele>
        <time>2022-07-21T07:32:50Z</time>
      </trkpt>
      <trkpt lat="46.33582" lon="5.45673">
        <ele>353</ele>
        <time>2022-07-21T07:32:54Z</time>
      </trkpt>
      <trkpt lat="46.3358" lon="5.45676">
        <ele>353.2</ele>
        <time>2022-07-21T07:32:55Z</time>
      </trkpt>
      <trkpt lat="46.33571" lon="5.45683">
        <ele>354.2</ele>
        <time>2022-07-21T07:32:58Z</time>
      </trkpt>
      <trkpt lat="46.33558" lon="5.4569">
        <ele>355.4</ele>
        <time>2022-07-21T07:33:02Z</time>
      </trkpt>
      <trkpt lat="46.33546" lon="5.45696">
        <ele>356.6</ele>
        <time>2022-07-21T07:33:06Z</time>
      </trkpt>
      <trkpt lat="46.33533" lon="5.45703">
        <ele>357.6</ele>
        <time>2022-07-21T07:33:10Z</time>
      </trkpt>
      <trkpt lat="46.33524" lon="5.45708">
        <ele>358.8</ele>
        <time>2022-07-21T07:33:13Z</time>
      </trkpt>
      <trkpt lat="46.33512" lon="5.45717">
        <ele>360</ele>
        <time>2022-07-21T07:33:17Z</time>
      </trkpt>
      <trkpt lat="46.33509" lon="5.45719">
        <ele>360</ele>
        <time>2022-07-21T07:33:18Z</time>
      </trkpt>
      <trkpt lat="46.3349" lon="5.45735">
        <ele>361</ele>
        <time>2022-07-21T07:33:24Z</time>
      </trkpt>
      <trkpt lat="46.33481" lon="5.45745">
        <ele>361.8</ele>
        <time>2022-07-21T07:33:27Z</time>
      </trkpt>
      <trkpt lat="46.33476" lon="5.45751">
        <ele>362</ele>
        <time>2022-07-21T07:33:29Z</time>
      </trkpt>
      <trkpt lat="46.33462" lon="5.45773">
        <ele>362.8</ele>
        <time>2022-07-21T07:33:35Z</time>
      </trkpt>
      <trkpt lat="46.33461" lon="5.45778">
        <ele>363</ele>
        <time>2022-07-21T07:33:36Z</time>
      </trkpt>
      <trkpt lat="46.33457" lon="5.45799">
        <ele>363.8</ele>
        <time>2022-07-21T07:33:40Z</time>
      </trkpt>
      <trkpt lat="46.33458" lon="5.45811">
        <ele>364.2</ele>
        <time>2022-07-21T07:33:42Z</time>
      </trkpt>
      <trkpt lat="46.33462" lon="5.45829">
        <ele>364.6</ele>
        <time>2022-07-21T07:33:45Z</time>
      </trkpt>
      <trkpt lat="46.3348" lon="5.45867">
        <ele>365.4</ele>
        <time>2022-07-21T07:33:52Z</time>
      </trkpt>
      <trkpt lat="46.33482" lon="5.45872">
        <ele>365.4</ele>
        <time>2022-07-21T07:33:53Z</time>
      </trkpt>
      <trkpt lat="46.33499" lon="5.45901">
        <ele>366.6</ele>
        <time>2022-07-21T07:33:59Z</time>
      </trkpt>
      <trkpt lat="46.3351" lon="5.45918">
        <ele>367</ele>
        <time>2022-07-21T07:34:03Z</time>
      </trkpt>
      <trkpt lat="46.33527" lon="5.45937">
        <ele>367.8</ele>
        <time>2022-07-21T07:34:08Z</time>
      </trkpt>
      <trkpt lat="46.33538" lon="5.45946">
        <ele>368.2</ele>
        <time>2022-07-21T07:34:11Z</time>
      </trkpt>
      <trkpt lat="46.33553" lon="5.45955">
        <ele>369.2</ele>
        <time>2022-07-21T07:34:15Z</time>
      </trkpt>
      <trkpt lat="46.33565" lon="5.4596">
        <ele>370</ele>
        <time>2022-07-21T07:34:18Z</time>
      </trkpt>
      <trkpt lat="46.3357" lon="5.45962">
        <ele>370.4</ele>
        <time>2022-07-21T07:34:19Z</time>
      </trkpt>
      <trkpt lat="46.33582" lon="5.45967">
        <ele>370.8</ele>
        <time>2022-07-21T07:34:22Z</time>
      </trkpt>
      <trkpt lat="46.33595" lon="5.45973">
        <ele>371</ele>
        <time>2022-07-21T07:34:25Z</time>
      </trkpt>
      <trkpt lat="46.33598" lon="5.45975">
        <ele>371.4</ele>
        <time>2022-07-21T07:34:26Z</time>
      </trkpt>
      <trkpt lat="46.33619" lon="5.45985">
        <ele>372.4</ele>
        <time>2022-07-21T07:34:31Z</time>
      </trkpt>
      <trkpt lat="46.3363" lon="5.45991">
        <ele>373</ele>
        <time>2022-07-21T07:34:34Z</time>
      </trkpt>
      <trkpt lat="46.33637" lon="5.45995">
        <ele>373.6</ele>
        <time>2022-07-21T07:34:36Z</time>
      </trkpt>
      <trkpt lat="46.33652" lon="5.46004">
        <ele>374.6</ele>
        <time>2022-07-21T07:34:40Z</time>
      </trkpt>
      <trkpt lat="46.33667" lon="5.46012">
        <ele>375.6</ele>
        <time>2022-07-21T07:34:44Z</time>
      </trkpt>
      <trkpt lat="46.3367" lon="5.46014">
        <ele>375.8</ele>
        <time>2022-07-21T07:34:45Z</time>
      </trkpt>
      <trkpt lat="46.33684" lon="5.46025">
        <ele>377</ele>
        <time>2022-07-21T07:34:49Z</time>
      </trkpt>
      <trkpt lat="46.33697" lon="5.46036">
        <ele>377.8</ele>
        <time>2022-07-21T07:34:53Z</time>
      </trkpt>
      <trkpt lat="46.33701" lon="5.46038">
        <ele>378.2</ele>
        <time>2022-07-21T07:34:54Z</time>
      </trkpt>
      <trkpt lat="46.3372" lon="5.46049">
        <ele>379.4</ele>
        <time>2022-07-21T07:34:59Z</time>
      </trkpt>
      <trkpt lat="46.33724" lon="5.4605">
        <ele>379.6</ele>
        <time>2022-07-21T07:35:00Z</time>
      </trkpt>
      <trkpt lat="46.33739" lon="5.46055">
        <ele>380.4</ele>
        <time>2022-07-21T07:35:04Z</time>
      </trkpt>
      <trkpt lat="46.3375" lon="5.46056">
        <ele>381.2</ele>
        <time>2022-07-21T07:35:07Z</time>
      </trkpt>
      <trkpt lat="46.33762" lon="5.46056">
        <ele>381.6</ele>
        <time>2022-07-21T07:35:10Z</time>
      </trkpt>
      <trkpt lat="46.33783" lon="5.46052">
        <ele>382.6</ele>
        <time>2022-07-21T07:35:15Z</time>
      </trkpt>
      <trkpt lat="46.33786" lon="5.46051">
        <ele>382.8</ele>
        <time>2022-07-21T07:35:16Z</time>
      </trkpt>
      <trkpt lat="46.33807" lon="5.46046">
        <ele>384</ele>
        <time>2022-07-21T07:35:21Z</time>
      </trkpt>
      <trkpt lat="46.33815" lon="5.46043">
        <ele>384.4</ele>
        <time>2022-07-21T07:35:23Z</time>
      </trkpt>
      <trkpt lat="46.33832" lon="5.46039">
        <ele>385</ele>
        <time>2022-07-21T07:35:27Z</time>
      </trkpt>
      <trkpt lat="46.33836" lon="5.46038">
        <ele>385.2</ele>
        <time>2022-07-21T07:35:28Z</time>
      </trkpt>
      <trkpt lat="46.33849" lon="5.46037">
        <ele>386.2</ele>
        <time>2022-07-21T07:35:31Z</time>
      </trkpt>
      <trkpt lat="46.33868" lon="5.46033">
        <ele>387.2</ele>
        <time>2022-07-21T07:35:36Z</time>
      </trkpt>
      <trkpt lat="46.33893" lon="5.46028">
        <ele>388.4</ele>
        <time>2022-07-21T07:35:42Z</time>
      </trkpt>
      <trkpt lat="46.33918" lon="5.46025">
        <ele>389.6</ele>
        <time>2022-07-21T07:35:48Z</time>
      </trkpt>
      <trkpt lat="46.33935" lon="5.46023">
        <ele>390.4</ele>
        <time>2022-07-21T07:35:52Z</time>
      </trkpt>
      <trkpt lat="46.33944" lon="5.46023">
        <ele>390.6</ele>
        <time>2022-07-21T07:35:54Z</time>
      </trkpt>
      <trkpt lat="46.33977" lon="5.46027">
        <ele>391.2</ele>
        <time>2022-07-21T07:36:01Z</time>
      </trkpt>
      <trkpt lat="46.33986" lon="5.4603">
        <ele>391.4</ele>
        <time>2022-07-21T07:36:03Z</time>
      </trkpt>
      <trkpt lat="46.33994" lon="5.46035">
        <ele>391.8</ele>
        <time>2022-07-21T07:36:05Z</time>
      </trkpt>
      <trkpt lat="46.34002" lon="5.46041">
        <ele>392.2</ele>
        <time>2022-07-21T07:36:07Z</time>
      </trkpt>
      <trkpt lat="46.34008" lon="5.46047">
        <ele>392.4</ele>
        <time>2022-07-21T07:36:09Z</time>
      </trkpt>
      <trkpt lat="46.34017" lon="5.46061">
        <ele>393.2</ele>
        <time>2022-07-21T07:36:12Z</time>
      </trkpt>
      <trkpt lat="46.34027" lon="5.46072">
        <ele>394</ele>
        <time>2022-07-21T07:36:15Z</time>
      </trkpt>
      <trkpt lat="46.34034" lon="5.46077">
        <ele>394.4</ele>
        <time>2022-07-21T07:36:17Z</time>
      </trkpt>
      <trkpt lat="46.34039" lon="5.46079">
        <ele>394.6</ele>
        <time>2022-07-21T07:36:18Z</time>
      </trkpt>
      <trkpt lat="46.34048" lon="5.46078">
        <ele>395.2</ele>
        <time>2022-07-21T07:36:20Z</time>
      </trkpt>
      <trkpt lat="46.34057" lon="5.46073">
        <ele>395.6</ele>
        <time>2022-07-21T07:36:22Z</time>
      </trkpt>
      <trkpt lat="46.34064" lon="5.46067">
        <ele>396</ele>
        <time>2022-07-21T07:36:24Z</time>
      </trkpt>
      <trkpt lat="46.3407" lon="5.46058">
        <ele>396.8</ele>
        <time>2022-07-21T07:36:26Z</time>
      </trkpt>
      <trkpt lat="46.34074" lon="5.46053">
        <ele>397</ele>
        <time>2022-07-21T07:36:27Z</time>
      </trkpt>
      <trkpt lat="46.34084" lon="5.4604">
        <ele>397.8</ele>
        <time>2022-07-21T07:36:30Z</time>
      </trkpt>
      <trkpt lat="46.34097" lon="5.46031">
        <ele>399</ele>
        <time>2022-07-21T07:36:33Z</time>
      </trkpt>
      <trkpt lat="46.34115" lon="5.46022">
        <ele>399.8</ele>
        <time>2022-07-21T07:36:37Z</time>
      </trkpt>
      <trkpt lat="46.3412" lon="5.4602">
        <ele>400.2</ele>
        <time>2022-07-21T07:36:38Z</time>
      </trkpt>
      <trkpt lat="46.34129" lon="5.46017">
        <ele>400.4</ele>
        <time>2022-07-21T07:36:40Z</time>
      </trkpt>
      <trkpt lat="46.34143" lon="5.46016">
        <ele>401.4</ele>
        <time>2022-07-21T07:36:43Z</time>
      </trkpt>
      <trkpt lat="46.3416" lon="5.46013">
        <ele>402.4</ele>
        <time>2022-07-21T07:36:47Z</time>
      </trkpt>
      <trkpt lat="46.34177" lon="5.46011">
        <ele>403.6</ele>
        <time>2022-07-21T07:36:51Z</time>
      </trkpt>
      <trkpt lat="46.34198" lon="5.4601">
        <ele>404.8</ele>
        <time>2022-07-21T07:36:56Z</time>
      </trkpt>
      <trkpt lat="46.34218" lon="5.4601">
        <ele>406</ele>
        <time>2022-07-21T07:37:01Z</time>
      </trkpt>
      <trkpt lat="46.34235" lon="5.46011">
        <ele>406.8</ele>
        <time>2022-07-21T07:37:05Z</time>
      </trkpt>
      <trkpt lat="46.34239" lon="5.46011">
        <ele>407.2</ele>
        <time>2022-07-21T07:37:06Z</time>
      </trkpt>
      <trkpt lat="46.34265" lon="5.46011">
        <ele>408.4</ele>
        <time>2022-07-21T07:37:12Z</time>
      </trkpt>
      <trkpt lat="46.34282" lon="5.46011">
        <ele>409.2</ele>
        <time>2022-07-21T07:37:16Z</time>
      </trkpt>
      <trkpt lat="46.34287" lon="5.46011">
        <ele>409.4</ele>
        <time>2022-07-21T07:37:17Z</time>
      </trkpt>
      <trkpt lat="46.34299" lon="5.46011">
        <ele>410</ele>
        <time>2022-07-21T07:37:20Z</time>
      </trkpt>
      <trkpt lat="46.34307" lon="5.46011">
        <ele>410.6</ele>
        <time>2022-07-21T07:37:22Z</time>
      </trkpt>
      <trkpt lat="46.34325" lon="5.46012">
        <ele>411.8</ele>
        <time>2022-07-21T07:37:26Z</time>
      </trkpt>
      <trkpt lat="46.34345" lon="5.46013">
        <ele>412.8</ele>
        <time>2022-07-21T07:37:31Z</time>
      </trkpt>
      <trkpt lat="46.34366" lon="5.46014">
        <ele>414.2</ele>
        <time>2022-07-21T07:37:36Z</time>
      </trkpt>
      <trkpt lat="46.34388" lon="5.46014">
        <ele>415.2</ele>
        <time>2022-07-21T07:37:41Z</time>
      </trkpt>
      <trkpt lat="46.34408" lon="5.46015">
        <ele>416</ele>
        <time>2022-07-21T07:37:45Z</time>
      </trkpt>
      <trkpt lat="46.34418" lon="5.46015">
        <ele>416.2</ele>
        <time>2022-07-21T07:37:47Z</time>
      </trkpt>
      <trkpt lat="46.34443" lon="5.46019">
        <ele>417.2</ele>
        <time>2022-07-21T07:37:52Z</time>
      </trkpt>
      <trkpt lat="46.34452" lon="5.46021">
        <ele>417.4</ele>
        <time>2022-07-21T07:37:54Z</time>
      </trkpt>
      <trkpt lat="46.34472" lon="5.46025">
        <ele>418.8</ele>
        <time>2022-07-21T07:37:58Z</time>
      </trkpt>
      <trkpt lat="46.34491" lon="5.4603">
        <ele>419.8</ele>
        <time>2022-07-21T07:38:02Z</time>
      </trkpt>
      <trkpt lat="46.34495" lon="5.46031">
        <ele>420</ele>
        <time>2022-07-21T07:38:03Z</time>
      </trkpt>
      <trkpt lat="46.34509" lon="5.46038">
        <ele>420.8</ele>
        <time>2022-07-21T07:38:06Z</time>
      </trkpt>
      <trkpt lat="46.34512" lon="5.46042">
        <ele>421</ele>
        <time>2022-07-21T07:38:07Z</time>
      </trkpt>
      <trkpt lat="46.34516" lon="5.46045">
        <ele>421.6</ele>
        <time>2022-07-21T07:38:08Z</time>
      </trkpt>
      <trkpt lat="46.34522" lon="5.46049">
        <ele>422</ele>
        <time>2022-07-21T07:38:10Z</time>
      </trkpt>
      <trkpt lat="46.34525" lon="5.4605">
        <ele>422.2</ele>
        <time>2022-07-21T07:38:11Z</time>
      </trkpt>
      <trkpt lat="46.34529" lon="5.46049">
        <ele>422.6</ele>
        <time>2022-07-21T07:38:12Z</time>
      </trkpt>
      <trkpt lat="46.34544" lon="5.46044">
        <ele>422.8</ele>
        <time>2022-07-21T07:38:15Z</time>
      </trkpt>
      <trkpt lat="46.3455" lon="5.46044">
        <ele>422.8</ele>
        <time>2022-07-21T07:38:16Z</time>
      </trkpt>
      <trkpt lat="46.3459" lon="5.46041">
        <ele>422.2</ele>
        <time>2022-07-21T07:38:22Z</time>
      </trkpt>
      <trkpt lat="46.34616" lon="5.46038">
        <ele>421</ele>
        <time>2022-07-21T07:38:25Z</time>
      </trkpt>
      <trkpt lat="46.34625" lon="5.46036">
        <ele>420.4</ele>
        <time>2022-07-21T07:38:26Z</time>
      </trkpt>
      <trkpt lat="46.34644" lon="5.46034">
        <ele>419.6</ele>
        <time>2022-07-21T07:38:28Z</time>
      </trkpt>
      <trkpt lat="46.34663" lon="5.4603">
        <ele>418.2</ele>
        <time>2022-07-21T07:38:30Z</time>
      </trkpt>
      <trkpt lat="46.34673" lon="5.46028">
        <ele>417.8</ele>
        <time>2022-07-21T07:38:31Z</time>
      </trkpt>
      <trkpt lat="46.34694" lon="5.46025">
        <ele>416.6</ele>
        <time>2022-07-21T07:38:33Z</time>
      </trkpt>
      <trkpt lat="46.34716" lon="5.46022">
        <ele>415</ele>
        <time>2022-07-21T07:38:35Z</time>
      </trkpt>
      <trkpt lat="46.34728" lon="5.46019">
        <ele>414.2</ele>
        <time>2022-07-21T07:38:36Z</time>
      </trkpt>
      <trkpt lat="46.3474" lon="5.46017">
        <ele>414</ele>
        <time>2022-07-21T07:38:37Z</time>
      </trkpt>
      <trkpt lat="46.34765" lon="5.46012">
        <ele>412.6</ele>
        <time>2022-07-21T07:38:39Z</time>
      </trkpt>
      <trkpt lat="46.34778" lon="5.46009">
        <ele>411.2</ele>
        <time>2022-07-21T07:38:40Z</time>
      </trkpt>
      <trkpt lat="46.34792" lon="5.46007">
        <ele>410.6</ele>
        <time>2022-07-21T07:38:41Z</time>
      </trkpt>
      <trkpt lat="46.34805" lon="5.46005">
        <ele>409.6</ele>
        <time>2022-07-21T07:38:42Z</time>
      </trkpt>
      <trkpt lat="46.34819" lon="5.46003">
        <ele>407.8</ele>
        <time>2022-07-21T07:38:43Z</time>
      </trkpt>
      <trkpt lat="46.34847" lon="5.46001">
        <ele>405.6</ele>
        <time>2022-07-21T07:38:45Z</time>
      </trkpt>
      <trkpt lat="46.34874" lon="5.45998">
        <ele>403.6</ele>
        <time>2022-07-21T07:38:47Z</time>
      </trkpt>
      <trkpt lat="46.34902" lon="5.45997">
        <ele>401.2</ele>
        <time>2022-07-21T07:38:49Z</time>
      </trkpt>
      <trkpt lat="46.34931" lon="5.45995">
        <ele>399</ele>
        <time>2022-07-21T07:38:51Z</time>
      </trkpt>
      <trkpt lat="46.3496" lon="5.45992">
        <ele>397.8</ele>
        <time>2022-07-21T07:38:53Z</time>
      </trkpt>
      <trkpt lat="46.34973" lon="5.4599">
        <ele>397</ele>
        <time>2022-07-21T07:38:54Z</time>
      </trkpt>
      <trkpt lat="46.34988" lon="5.45988">
        <ele>396.4</ele>
        <time>2022-07-21T07:38:55Z</time>
      </trkpt>
      <trkpt lat="46.35002" lon="5.45986">
        <ele>395.2</ele>
        <time>2022-07-21T07:38:56Z</time>
      </trkpt>
      <trkpt lat="46.3503" lon="5.45983">
        <ele>393.2</ele>
        <time>2022-07-21T07:38:58Z</time>
      </trkpt>
      <trkpt lat="46.35045" lon="5.45982">
        <ele>391.4</ele>
        <time>2022-07-21T07:38:59Z</time>
      </trkpt>
      <trkpt lat="46.35074" lon="5.4598">
        <ele>389.4</ele>
        <time>2022-07-21T07:39:01Z</time>
      </trkpt>
      <trkpt lat="46.35103" lon="5.45977">
        <ele>387.4</ele>
        <time>2022-07-21T07:39:03Z</time>
      </trkpt>
      <trkpt lat="46.35132" lon="5.45976">
        <ele>385.8</ele>
        <time>2022-07-21T07:39:05Z</time>
      </trkpt>
      <trkpt lat="46.35161" lon="5.45975">
        <ele>384</ele>
        <time>2022-07-21T07:39:07Z</time>
      </trkpt>
      <trkpt lat="46.35176" lon="5.45974">
        <ele>382.4</ele>
        <time>2022-07-21T07:39:08Z</time>
      </trkpt>
      <trkpt lat="46.35205" lon="5.45973">
        <ele>381</ele>
        <time>2022-07-21T07:39:10Z</time>
      </trkpt>
      <trkpt lat="46.35235" lon="5.45973">
        <ele>379</ele>
        <time>2022-07-21T07:39:12Z</time>
      </trkpt>
      <trkpt lat="46.35265" lon="5.45973">
        <ele>376.8</ele>
        <time>2022-07-21T07:39:14Z</time>
      </trkpt>
      <trkpt lat="46.3528" lon="5.45974">
        <ele>375.4</ele>
        <time>2022-07-21T07:39:15Z</time>
      </trkpt>
      <trkpt lat="46.35311" lon="5.45976">
        <ele>372.6</ele>
        <time>2022-07-21T07:39:17Z</time>
      </trkpt>
      <trkpt lat="46.35326" lon="5.45978">
        <ele>371.4</ele>
        <time>2022-07-21T07:39:18Z</time>
      </trkpt>
      <trkpt lat="46.35341" lon="5.45979">
        <ele>369.6</ele>
        <time>2022-07-21T07:39:19Z</time>
      </trkpt>
      <trkpt lat="46.35356" lon="5.45981">
        <ele>369</ele>
        <time>2022-07-21T07:39:20Z</time>
      </trkpt>
      <trkpt lat="46.35372" lon="5.45982">
        <ele>368.2</ele>
        <time>2022-07-21T07:39:21Z</time>
      </trkpt>
      <trkpt lat="46.35387" lon="5.45981">
        <ele>366.8</ele>
        <time>2022-07-21T07:39:22Z</time>
      </trkpt>
      <trkpt lat="46.35416" lon="5.45979">
        <ele>365.2</ele>
        <time>2022-07-21T07:39:24Z</time>
      </trkpt>
      <trkpt lat="46.3546" lon="5.45972">
        <ele>364</ele>
        <time>2022-07-21T07:39:27Z</time>
      </trkpt>
      <trkpt lat="46.35475" lon="5.4597">
        <ele>362.8</ele>
        <time>2022-07-21T07:39:28Z</time>
      </trkpt>
      <trkpt lat="46.3549" lon="5.4597">
        <ele>361.4</ele>
        <time>2022-07-21T07:39:29Z</time>
      </trkpt>
      <trkpt lat="46.35519" lon="5.45968">
        <ele>359.8</ele>
        <time>2022-07-21T07:39:31Z</time>
      </trkpt>
      <trkpt lat="46.35547" lon="5.45971">
        <ele>358.6</ele>
        <time>2022-07-21T07:39:33Z</time>
      </trkpt>
      <trkpt lat="46.35574" lon="5.45977">
        <ele>357.2</ele>
        <time>2022-07-21T07:39:35Z</time>
      </trkpt>
      <trkpt lat="46.35597" lon="5.45986">
        <ele>354.8</ele>
        <time>2022-07-21T07:39:37Z</time>
      </trkpt>
      <trkpt lat="46.35608" lon="5.45991">
        <ele>353.6</ele>
        <time>2022-07-21T07:39:38Z</time>
      </trkpt>
      <trkpt lat="46.35618" lon="5.45994">
        <ele>353</ele>
        <time>2022-07-21T07:39:39Z</time>
      </trkpt>
      <trkpt lat="46.35628" lon="5.45995">
        <ele>352</ele>
        <time>2022-07-21T07:39:40Z</time>
      </trkpt>
      <trkpt lat="46.35638" lon="5.45993">
        <ele>351.6</ele>
        <time>2022-07-21T07:39:41Z</time>
      </trkpt>
      <trkpt lat="46.35648" lon="5.45989">
        <ele>350.8</ele>
        <time>2022-07-21T07:39:42Z</time>
      </trkpt>
      <trkpt lat="46.35667" lon="5.45983">
        <ele>349.2</ele>
        <time>2022-07-21T07:39:44Z</time>
      </trkpt>
      <trkpt lat="46.35686" lon="5.45981">
        <ele>348.2</ele>
        <time>2022-07-21T07:39:46Z</time>
      </trkpt>
      <trkpt lat="46.35712" lon="5.45981">
        <ele>347</ele>
        <time>2022-07-21T07:39:49Z</time>
      </trkpt>
      <trkpt lat="46.35728" lon="5.45983">
        <ele>346.6</ele>
        <time>2022-07-21T07:39:51Z</time>
      </trkpt>
      <trkpt lat="46.35757" lon="5.45987">
        <ele>346.6</ele>
        <time>2022-07-21T07:39:55Z</time>
      </trkpt>
      <trkpt lat="46.35764" lon="5.45985">
        <ele>346.6</ele>
        <time>2022-07-21T07:39:56Z</time>
      </trkpt>
      <trkpt lat="46.3577" lon="5.4598">
        <ele>346.6</ele>
        <time>2022-07-21T07:39:57Z</time>
      </trkpt>
      <trkpt lat="46.35777" lon="5.45963">
        <ele>346.8</ele>
        <time>2022-07-21T07:39:59Z</time>
      </trkpt>
      <trkpt lat="46.35779" lon="5.45954">
        <ele>346.8</ele>
        <time>2022-07-21T07:40:00Z</time>
      </trkpt>
      <trkpt lat="46.35788" lon="5.45918">
        <ele>347.4</ele>
        <time>2022-07-21T07:40:04Z</time>
      </trkpt>
      <trkpt lat="46.35795" lon="5.4588">
        <ele>348.2</ele>
        <time>2022-07-21T07:40:08Z</time>
      </trkpt>
      <trkpt lat="46.35796" lon="5.45871">
        <ele>348.4</ele>
        <time>2022-07-21T07:40:09Z</time>
      </trkpt>
      <trkpt lat="46.35796" lon="5.45861">
        <ele>348.6</ele>
        <time>2022-07-21T07:40:10Z</time>
      </trkpt>
      <trkpt lat="46.35796" lon="5.45852">
        <ele>348.6</ele>
        <time>2022-07-21T07:40:11Z</time>
      </trkpt>
      <trkpt lat="46.35794" lon="5.45812">
        <ele>349</ele>
        <time>2022-07-21T07:40:15Z</time>
      </trkpt>
      <trkpt lat="46.35793" lon="5.45802">
        <ele>349.2</ele>
        <time>2022-07-21T07:40:16Z</time>
      </trkpt>
      <trkpt lat="46.35792" lon="5.45793">
        <ele>349.2</ele>
        <time>2022-07-21T07:40:17Z</time>
      </trkpt>
      <trkpt lat="46.35787" lon="5.45768">
        <ele>349.4</ele>
        <time>2022-07-21T07:40:20Z</time>
      </trkpt>
      <trkpt lat="46.35777" lon="5.45719">
        <ele>350.4</ele>
        <time>2022-07-21T07:40:26Z</time>
      </trkpt>
      <trkpt lat="46.35776" lon="5.45711">
        <ele>350.4</ele>
        <time>2022-07-21T07:40:27Z</time>
      </trkpt>
      <trkpt lat="46.35777" lon="5.45694">
        <ele>350.4</ele>
        <time>2022-07-21T07:40:29Z</time>
      </trkpt>
      <trkpt lat="46.35781" lon="5.45683">
        <ele>350.4</ele>
        <time>2022-07-21T07:40:30Z</time>
      </trkpt>
      <trkpt lat="46.35787" lon="5.45677">
        <ele>350.4</ele>
        <time>2022-07-21T07:40:31Z</time>
      </trkpt>
      <trkpt lat="46.35799" lon="5.45671">
        <ele>350.4</ele>
        <time>2022-07-21T07:40:33Z</time>
      </trkpt>
      <trkpt lat="46.35817" lon="5.45673">
        <ele>350.4</ele>
        <time>2022-07-21T07:40:36Z</time>
      </trkpt>
      <trkpt lat="46.35822" lon="5.45672">
        <ele>350.4</ele>
        <time>2022-07-21T07:40:37Z</time>
      </trkpt>
      <trkpt lat="46.35849" lon="5.45666">
        <ele>350.8</ele>
        <time>2022-07-21T07:40:42Z</time>
      </trkpt>
      <trkpt lat="46.35864" lon="5.45662">
        <ele>351.8</ele>
        <time>2022-07-21T07:40:45Z</time>
      </trkpt>
      <trkpt lat="46.35878" lon="5.45657">
        <ele>353</ele>
        <time>2022-07-21T07:40:48Z</time>
      </trkpt>
      <trkpt lat="46.35893" lon="5.45652">
        <ele>354.2</ele>
        <time>2022-07-21T07:40:51Z</time>
      </trkpt>
      <trkpt lat="46.35915" lon="5.45646">
        <ele>355</ele>
        <time>2022-07-21T07:40:55Z</time>
      </trkpt>
      <trkpt lat="46.35925" lon="5.45643">
        <ele>355.2</ele>
        <time>2022-07-21T07:40:57Z</time>
      </trkpt>
      <trkpt lat="46.35969" lon="5.45637">
        <ele>355.8</ele>
        <time>2022-07-21T07:41:05Z</time>
      </trkpt>
      <trkpt lat="46.36013" lon="5.45641">
        <ele>355.8</ele>
        <time>2022-07-21T07:41:13Z</time>
      </trkpt>
      <trkpt lat="46.36029" lon="5.45644">
        <ele>356.2</ele>
        <time>2022-07-21T07:41:16Z</time>
      </trkpt>
      <trkpt lat="46.36058" lon="5.45646">
        <ele>356.8</ele>
        <time>2022-07-21T07:41:21Z</time>
      </trkpt>
      <trkpt lat="46.36112" lon="5.45646">
        <ele>356.6</ele>
        <time>2022-07-21T07:41:30Z</time>
      </trkpt>
      <trkpt lat="46.36169" lon="5.45645">
        <ele>356.6</ele>
        <time>2022-07-21T07:41:40Z</time>
      </trkpt>
      <trkpt lat="46.36215" lon="5.45644">
        <ele>357.4</ele>
        <time>2022-07-21T07:41:48Z</time>
      </trkpt>
      <trkpt lat="46.36221" lon="5.45645">
        <ele>358</ele>
        <time>2022-07-21T07:41:49Z</time>
      </trkpt>
      <trkpt lat="46.36254" lon="5.45647">
        <ele>358.4</ele>
        <time>2022-07-21T07:41:55Z</time>
      </trkpt>
      <trkpt lat="46.36265" lon="5.45648">
        <ele>358.6</ele>
        <time>2022-07-21T07:41:57Z</time>
      </trkpt>
      <trkpt lat="46.3632" lon="5.45653">
        <ele>359.2</ele>
        <time>2022-07-21T07:42:07Z</time>
      </trkpt>
      <trkpt lat="46.36331" lon="5.45654">
        <ele>359.2</ele>
        <time>2022-07-21T07:42:09Z</time>
      </trkpt>
      <trkpt lat="46.36385" lon="5.45649">
        <ele>359.4</ele>
        <time>2022-07-21T07:42:18Z</time>
      </trkpt>
      <trkpt lat="46.36409" lon="5.45638">
        <ele>359.2</ele>
        <time>2022-07-21T07:42:22Z</time>
      </trkpt>
      <trkpt lat="46.36421" lon="5.45633">
        <ele>358.8</ele>
        <time>2022-07-21T07:42:24Z</time>
      </trkpt>
      <trkpt lat="46.36469" lon="5.45617">
        <ele>358.4</ele>
        <time>2022-07-21T07:42:32Z</time>
      </trkpt>
      <trkpt lat="46.36516" lon="5.45613">
        <ele>358.4</ele>
        <time>2022-07-21T07:42:40Z</time>
      </trkpt>
      <trkpt lat="46.36568" lon="5.45619">
        <ele>359.2</ele>
        <time>2022-07-21T07:42:49Z</time>
      </trkpt>
      <trkpt lat="46.36579" lon="5.45619">
        <ele>359.8</ele>
        <time>2022-07-21T07:42:51Z</time>
      </trkpt>
      <trkpt lat="46.36619" lon="5.45615">
        <ele>360.6</ele>
        <time>2022-07-21T07:42:58Z</time>
      </trkpt>
      <trkpt lat="46.36646" lon="5.4561">
        <ele>360.8</ele>
        <time>2022-07-21T07:43:03Z</time>
      </trkpt>
      <trkpt lat="46.36652" lon="5.45609">
        <ele>360.8</ele>
        <time>2022-07-21T07:43:04Z</time>
      </trkpt>
      <trkpt lat="46.36663" lon="5.45607">
        <ele>361.2</ele>
        <time>2022-07-21T07:43:06Z</time>
      </trkpt>
      <trkpt lat="46.36683" lon="5.45603">
        <ele>362</ele>
        <time>2022-07-21T07:43:10Z</time>
      </trkpt>
      <trkpt lat="46.36707" lon="5.45598">
        <ele>362.6</ele>
        <time>2022-07-21T07:43:15Z</time>
      </trkpt>
      <trkpt lat="46.36718" lon="5.45597">
        <ele>363.4</ele>
        <time>2022-07-21T07:43:17Z</time>
      </trkpt>
      <trkpt lat="46.36751" lon="5.45595">
        <ele>364.2</ele>
        <time>2022-07-21T07:43:23Z</time>
      </trkpt>
      <trkpt lat="46.3678" lon="5.45594">
        <ele>364.4</ele>
        <time>2022-07-21T07:43:28Z</time>
      </trkpt>
      <trkpt lat="46.36791" lon="5.45594">
        <ele>364.4</ele>
        <time>2022-07-21T07:43:30Z</time>
      </trkpt>
      <trkpt lat="46.36814" lon="5.45593">
        <ele>365.6</ele>
        <time>2022-07-21T07:43:34Z</time>
      </trkpt>
      <trkpt lat="46.36831" lon="5.45594">
        <ele>365.8</ele>
        <time>2022-07-21T07:43:37Z</time>
      </trkpt>
      <trkpt lat="46.36836" lon="5.45595">
        <ele>366</ele>
        <time>2022-07-21T07:43:38Z</time>
      </trkpt>
      <trkpt lat="46.36877" lon="5.45599">
        <ele>366.2</ele>
        <time>2022-07-21T07:43:45Z</time>
      </trkpt>
      <trkpt lat="46.36883" lon="5.45599">
        <ele>366.4</ele>
        <time>2022-07-21T07:43:46Z</time>
      </trkpt>
      <trkpt lat="46.36925" lon="5.45604">
        <ele>366.4</ele>
        <time>2022-07-21T07:43:53Z</time>
      </trkpt>
      <trkpt lat="46.36978" lon="5.45617">
        <ele>366.2</ele>
        <time>2022-07-21T07:44:02Z</time>
      </trkpt>
      <trkpt lat="46.37014" lon="5.45636">
        <ele>366.6</ele>
        <time>2022-07-21T07:44:09Z</time>
      </trkpt>
      <trkpt lat="46.37024" lon="5.4564">
        <ele>366.8</ele>
        <time>2022-07-21T07:44:11Z</time>
      </trkpt>
      <trkpt lat="46.3703" lon="5.45642">
        <ele>367</ele>
        <time>2022-07-21T07:44:12Z</time>
      </trkpt>
      <trkpt lat="46.37051" lon="5.45648">
        <ele>367.4</ele>
        <time>2022-07-21T07:44:16Z</time>
      </trkpt>
      <trkpt lat="46.37067" lon="5.45649">
        <ele>367.8</ele>
        <time>2022-07-21T07:44:19Z</time>
      </trkpt>
      <trkpt lat="46.37112" lon="5.4565">
        <ele>367.8</ele>
        <time>2022-07-21T07:44:27Z</time>
      </trkpt>
      <trkpt lat="46.3715" lon="5.45648">
        <ele>368.4</ele>
        <time>2022-07-21T07:44:34Z</time>
      </trkpt>
      <trkpt lat="46.3716" lon="5.45648">
        <ele>369</ele>
        <time>2022-07-21T07:44:36Z</time>
      </trkpt>
      <trkpt lat="46.37192" lon="5.45645">
        <ele>369.6</ele>
        <time>2022-07-21T07:44:42Z</time>
      </trkpt>
      <trkpt lat="46.37229" lon="5.45642">
        <ele>370.6</ele>
        <time>2022-07-21T07:44:49Z</time>
      </trkpt>
      <trkpt lat="46.37255" lon="5.4564">
        <ele>371.4</ele>
        <time>2022-07-21T07:44:54Z</time>
      </trkpt>
      <trkpt lat="46.37276" lon="5.45638">
        <ele>371.6</ele>
        <time>2022-07-21T07:44:58Z</time>
      </trkpt>
      <trkpt lat="46.37281" lon="5.45638">
        <ele>371.6</ele>
        <time>2022-07-21T07:44:59Z</time>
      </trkpt>
      <trkpt lat="46.37306" lon="5.45637">
        <ele>372.8</ele>
        <time>2022-07-21T07:45:04Z</time>
      </trkpt>
      <trkpt lat="46.3732" lon="5.45636">
        <ele>373.4</ele>
        <time>2022-07-21T07:45:07Z</time>
      </trkpt>
      <trkpt lat="46.3733" lon="5.45636">
        <ele>373.8</ele>
        <time>2022-07-21T07:45:09Z</time>
      </trkpt>
      <trkpt lat="46.37369" lon="5.45638">
        <ele>374.8</ele>
        <time>2022-07-21T07:45:17Z</time>
      </trkpt>
      <trkpt lat="46.37402" lon="5.4564">
        <ele>375.6</ele>
        <time>2022-07-21T07:45:24Z</time>
      </trkpt>
      <trkpt lat="46.37407" lon="5.4564">
        <ele>375.8</ele>
        <time>2022-07-21T07:45:25Z</time>
      </trkpt>
      <trkpt lat="46.37441" lon="5.45638">
        <ele>376.6</ele>
        <time>2022-07-21T07:45:32Z</time>
      </trkpt>
      <trkpt lat="46.3745" lon="5.45636">
        <ele>376.8</ele>
        <time>2022-07-21T07:45:34Z</time>
      </trkpt>
      <trkpt lat="46.37474" lon="5.45626">
        <ele>377.6</ele>
        <time>2022-07-21T07:45:39Z</time>
      </trkpt>
      <trkpt lat="46.37487" lon="5.4562">
        <ele>378</ele>
        <time>2022-07-21T07:45:42Z</time>
      </trkpt>
      <trkpt lat="46.37508" lon="5.45611">
        <ele>378.6</ele>
        <time>2022-07-21T07:45:47Z</time>
      </trkpt>
      <trkpt lat="46.37512" lon="5.45609">
        <ele>379</ele>
        <time>2022-07-21T07:45:48Z</time>
      </trkpt>
      <trkpt lat="46.37516" lon="5.45607">
        <ele>379.4</ele>
        <time>2022-07-21T07:45:49Z</time>
      </trkpt>
      <trkpt lat="46.37537" lon="5.45599">
        <ele>380.6</ele>
        <time>2022-07-21T07:45:54Z</time>
      </trkpt>
      <trkpt lat="46.37545" lon="5.45596">
        <ele>381.2</ele>
        <time>2022-07-21T07:45:56Z</time>
      </trkpt>
      <trkpt lat="46.37553" lon="5.45594">
        <ele>381.8</ele>
        <time>2022-07-21T07:45:58Z</time>
      </trkpt>
      <trkpt lat="46.37565" lon="5.4559">
        <ele>383</ele>
        <time>2022-07-21T07:46:01Z</time>
      </trkpt>
      <trkpt lat="46.37569" lon="5.45589">
        <ele>383</ele>
        <time>2022-07-21T07:46:02Z</time>
      </trkpt>
      <trkpt lat="46.37574" lon="5.45589">
        <ele>383.2</ele>
        <time>2022-07-21T07:46:03Z</time>
      </trkpt>
      <trkpt lat="46.37591" lon="5.45588">
        <ele>384</ele>
        <time>2022-07-21T07:46:07Z</time>
      </trkpt>
      <trkpt lat="46.3761" lon="5.45588">
        <ele>385.2</ele>
        <time>2022-07-21T07:46:11Z</time>
      </trkpt>
      <trkpt lat="46.37615" lon="5.45588">
        <ele>385.6</ele>
        <time>2022-07-21T07:46:12Z</time>
      </trkpt>
      <trkpt lat="46.37629" lon="5.45588">
        <ele>386.2</ele>
        <time>2022-07-21T07:46:15Z</time>
      </trkpt>
      <trkpt lat="46.37653" lon="5.45588">
        <ele>386.8</ele>
        <time>2022-07-21T07:46:20Z</time>
      </trkpt>
      <trkpt lat="46.37668" lon="5.45589">
        <ele>387.2</ele>
        <time>2022-07-21T07:46:23Z</time>
      </trkpt>
      <trkpt lat="46.37698" lon="5.45589">
        <ele>387.6</ele>
        <time>2022-07-21T07:46:29Z</time>
      </trkpt>
      <trkpt lat="46.37718" lon="5.45591">
        <ele>388.2</ele>
        <time>2022-07-21T07:46:33Z</time>
      </trkpt>
      <trkpt lat="46.3775" lon="5.45594">
        <ele>389</ele>
        <time>2022-07-21T07:46:40Z</time>
      </trkpt>
      <trkpt lat="46.37759" lon="5.45594">
        <ele>389.2</ele>
        <time>2022-07-21T07:46:42Z</time>
      </trkpt>
      <trkpt lat="46.37781" lon="5.45593">
        <ele>390.4</ele>
        <time>2022-07-21T07:46:47Z</time>
      </trkpt>
      <trkpt lat="46.37785" lon="5.45592">
        <ele>390.4</ele>
        <time>2022-07-21T07:46:48Z</time>
      </trkpt>
      <trkpt lat="46.37811" lon="5.45592">
        <ele>391.6</ele>
        <time>2022-07-21T07:46:54Z</time>
      </trkpt>
      <trkpt lat="46.37824" lon="5.45593">
        <ele>392.2</ele>
        <time>2022-07-21T07:46:57Z</time>
      </trkpt>
      <trkpt lat="46.37829" lon="5.45594">
        <ele>392.6</ele>
        <time>2022-07-21T07:46:58Z</time>
      </trkpt>
      <trkpt lat="46.37851" lon="5.45596">
        <ele>394.2</ele>
        <time>2022-07-21T07:47:03Z</time>
      </trkpt>
      <trkpt lat="46.37868" lon="5.45599">
        <ele>395.2</ele>
        <time>2022-07-21T07:47:07Z</time>
      </trkpt>
      <trkpt lat="46.37873" lon="5.45599">
        <ele>395.6</ele>
        <time>2022-07-21T07:47:08Z</time>
      </trkpt>
      <trkpt lat="46.37881" lon="5.45599">
        <ele>396</ele>
        <time>2022-07-21T07:47:10Z</time>
      </trkpt>
      <trkpt lat="46.37885" lon="5.45598">
        <ele>396.2</ele>
        <time>2022-07-21T07:47:11Z</time>
      </trkpt>
      <trkpt lat="46.37894" lon="5.45595">
        <ele>396.8</ele>
        <time>2022-07-21T07:47:13Z</time>
      </trkpt>
      <trkpt lat="46.37899" lon="5.45594">
        <ele>396.8</ele>
        <time>2022-07-21T07:47:14Z</time>
      </trkpt>
      <trkpt lat="46.37908" lon="5.45592">
        <ele>397.2</ele>
        <time>2022-07-21T07:47:16Z</time>
      </trkpt>
      <trkpt lat="46.37927" lon="5.45587">
        <ele>398</ele>
        <time>2022-07-21T07:47:20Z</time>
      </trkpt>
      <trkpt lat="46.37932" lon="5.45587">
        <ele>398.2</ele>
        <time>2022-07-21T07:47:21Z</time>
      </trkpt>
      <trkpt lat="46.37971" lon="5.45583">
        <ele>398.4</ele>
        <time>2022-07-21T07:47:28Z</time>
      </trkpt>
      <trkpt lat="46.38017" lon="5.45587">
        <ele>398</ele>
        <time>2022-07-21T07:47:35Z</time>
      </trkpt>
      <trkpt lat="46.38069" lon="5.45602">
        <ele>397.6</ele>
        <time>2022-07-21T07:47:43Z</time>
      </trkpt>
      <trkpt lat="46.38116" lon="5.45614">
        <ele>397.2</ele>
        <time>2022-07-21T07:47:50Z</time>
      </trkpt>
      <trkpt lat="46.38132" lon="5.45617">
        <ele>396.8</ele>
        <time>2022-07-21T07:47:52Z</time>
      </trkpt>
      <trkpt lat="46.38165" lon="5.4562">
        <ele>396.2</ele>
        <time>2022-07-21T07:47:56Z</time>
      </trkpt>
      <trkpt lat="46.38192" lon="5.45622">
        <ele>395.2</ele>
        <time>2022-07-21T07:47:59Z</time>
      </trkpt>
      <trkpt lat="46.38237" lon="5.45626">
        <ele>394</ele>
        <time>2022-07-21T07:48:04Z</time>
      </trkpt>
      <trkpt lat="46.38263" lon="5.45627">
        <ele>392.6</ele>
        <time>2022-07-21T07:48:07Z</time>
      </trkpt>
      <trkpt lat="46.38272" lon="5.45628">
        <ele>392.2</ele>
        <time>2022-07-21T07:48:08Z</time>
      </trkpt>
      <trkpt lat="46.3829" lon="5.4563">
        <ele>391.2</ele>
        <time>2022-07-21T07:48:10Z</time>
      </trkpt>
      <trkpt lat="46.38325" lon="5.45635">
        <ele>389.8</ele>
        <time>2022-07-21T07:48:14Z</time>
      </trkpt>
      <trkpt lat="46.38352" lon="5.4564">
        <ele>388.6</ele>
        <time>2022-07-21T07:48:17Z</time>
      </trkpt>
      <trkpt lat="46.38414" lon="5.45653">
        <ele>388</ele>
        <time>2022-07-21T07:48:24Z</time>
      </trkpt>
      <trkpt lat="46.38431" lon="5.45656">
        <ele>387.8</ele>
        <time>2022-07-21T07:48:26Z</time>
      </trkpt>
      <trkpt lat="46.3844" lon="5.45658">
        <ele>387.6</ele>
        <time>2022-07-21T07:48:27Z</time>
      </trkpt>
      <trkpt lat="46.38468" lon="5.45659">
        <ele>386.4</ele>
        <time>2022-07-21T07:48:30Z</time>
      </trkpt>
      <trkpt lat="46.38497" lon="5.45661">
        <ele>384.4</ele>
        <time>2022-07-21T07:48:33Z</time>
      </trkpt>
      <trkpt lat="46.38516" lon="5.45661">
        <ele>383.2</ele>
        <time>2022-07-21T07:48:35Z</time>
      </trkpt>
      <trkpt lat="46.38547" lon="5.45657">
        <ele>382</ele>
        <time>2022-07-21T07:48:38Z</time>
      </trkpt>
      <trkpt lat="46.38557" lon="5.45655">
        <ele>381.8</ele>
        <time>2022-07-21T07:48:39Z</time>
      </trkpt>
      <trkpt lat="46.38588" lon="5.45648">
        <ele>380.8</ele>
        <time>2022-07-21T07:48:42Z</time>
      </trkpt>
      <trkpt lat="46.38608" lon="5.45644">
        <ele>380.4</ele>
        <time>2022-07-21T07:48:44Z</time>
      </trkpt>
      <trkpt lat="46.38627" lon="5.45641">
        <ele>379.8</ele>
        <time>2022-07-21T07:48:46Z</time>
      </trkpt>
      <trkpt lat="46.38671" lon="5.45635">
        <ele>379</ele>
        <time>2022-07-21T07:48:51Z</time>
      </trkpt>
      <trkpt lat="46.38713" lon="5.45639">
        <ele>379.2</ele>
        <time>2022-07-21T07:48:56Z</time>
      </trkpt>
      <trkpt lat="46.38772" lon="5.45644">
        <ele>379.2</ele>
        <time>2022-07-21T07:49:03Z</time>
      </trkpt>
      <trkpt lat="46.38779" lon="5.45646">
        <ele>379.2</ele>
        <time>2022-07-21T07:49:04Z</time>
      </trkpt>
      <trkpt lat="46.38808" lon="5.45651">
        <ele>378.6</ele>
        <time>2022-07-21T07:49:08Z</time>
      </trkpt>
      <trkpt lat="46.38815" lon="5.45652">
        <ele>378.6</ele>
        <time>2022-07-21T07:49:09Z</time>
      </trkpt>
      <trkpt lat="46.38858" lon="5.45652">
        <ele>379.2</ele>
        <time>2022-07-21T07:49:15Z</time>
      </trkpt>
      <trkpt lat="46.3888" lon="5.4565">
        <ele>379.8</ele>
        <time>2022-07-21T07:49:18Z</time>
      </trkpt>
      <trkpt lat="46.38908" lon="5.4565">
        <ele>380.2</ele>
        <time>2022-07-21T07:49:22Z</time>
      </trkpt>
      <trkpt lat="46.38968" lon="5.45658">
        <ele>380.4</ele>
        <time>2022-07-21T07:49:30Z</time>
      </trkpt>
      <trkpt lat="46.39016" lon="5.45655">
        <ele>379.2</ele>
        <time>2022-07-21T07:49:36Z</time>
      </trkpt>
      <trkpt lat="46.39063" lon="5.45646">
        <ele>378.6</ele>
        <time>2022-07-21T07:49:42Z</time>
      </trkpt>
      <trkpt lat="46.39102" lon="5.45635">
        <ele>378</ele>
        <time>2022-07-21T07:49:47Z</time>
      </trkpt>
      <trkpt lat="46.39126" lon="5.45626">
        <ele>377.6</ele>
        <time>2022-07-21T07:49:50Z</time>
      </trkpt>
      <trkpt lat="46.39177" lon="5.45609">
        <ele>376.4</ele>
        <time>2022-07-21T07:49:56Z</time>
      </trkpt>
      <trkpt lat="46.39231" lon="5.45594">
        <ele>375.4</ele>
        <time>2022-07-21T07:50:03Z</time>
      </trkpt>
      <trkpt lat="46.39246" lon="5.45586">
        <ele>375.4</ele>
        <time>2022-07-21T07:50:05Z</time>
      </trkpt>
      <trkpt lat="46.39276" lon="5.45573">
        <ele>375.6</ele>
        <time>2022-07-21T07:50:09Z</time>
      </trkpt>
      <trkpt lat="46.39312" lon="5.45558">
        <ele>375.6</ele>
        <time>2022-07-21T07:50:14Z</time>
      </trkpt>
      <trkpt lat="46.39318" lon="5.45554">
        <ele>375.6</ele>
        <time>2022-07-21T07:50:15Z</time>
      </trkpt>
      <trkpt lat="46.39329" lon="5.45544">
        <ele>375.4</ele>
        <time>2022-07-21T07:50:17Z</time>
      </trkpt>
      <trkpt lat="46.39338" lon="5.4553">
        <ele>375.4</ele>
        <time>2022-07-21T07:50:19Z</time>
      </trkpt>
      <trkpt lat="46.39355" lon="5.4549">
        <ele>376</ele>
        <time>2022-07-21T07:50:24Z</time>
      </trkpt>
      <trkpt lat="46.39363" lon="5.45478">
        <ele>376.8</ele>
        <time>2022-07-21T07:50:26Z</time>
      </trkpt>
      <trkpt lat="46.39371" lon="5.45468">
        <ele>377</ele>
        <time>2022-07-21T07:50:28Z</time>
      </trkpt>
      <trkpt lat="46.39383" lon="5.45453">
        <ele>378</ele>
        <time>2022-07-21T07:50:31Z</time>
      </trkpt>
      <trkpt lat="46.39389" lon="5.45442">
        <ele>378.6</ele>
        <time>2022-07-21T07:50:33Z</time>
      </trkpt>
      <trkpt lat="46.39391" lon="5.45436">
        <ele>378.8</ele>
        <time>2022-07-21T07:50:34Z</time>
      </trkpt>
      <trkpt lat="46.39391" lon="5.45429">
        <ele>379.2</ele>
        <time>2022-07-21T07:50:35Z</time>
      </trkpt>
      <trkpt lat="46.39392" lon="5.45414">
        <ele>379.8</ele>
        <time>2022-07-21T07:50:37Z</time>
      </trkpt>
      <trkpt lat="46.39391" lon="5.45407">
        <ele>380.4</ele>
        <time>2022-07-21T07:50:38Z</time>
      </trkpt>
      <trkpt lat="46.39389" lon="5.45393">
        <ele>380.8</ele>
        <time>2022-07-21T07:50:40Z</time>
      </trkpt>
      <trkpt lat="46.39385" lon="5.45379">
        <ele>381.4</ele>
        <time>2022-07-21T07:50:42Z</time>
      </trkpt>
      <trkpt lat="46.39382" lon="5.45373">
        <ele>381.6</ele>
        <time>2022-07-21T07:50:43Z</time>
      </trkpt>
      <trkpt lat="46.39379" lon="5.45368">
        <ele>381.8</ele>
        <time>2022-07-21T07:50:44Z</time>
      </trkpt>
      <trkpt lat="46.39363" lon="5.45357">
        <ele>382</ele>
        <time>2022-07-21T07:50:47Z</time>
      </trkpt>
      <trkpt lat="46.3933" lon="5.45334">
        <ele>381.8</ele>
        <time>2022-07-21T07:50:52Z</time>
      </trkpt>
      <trkpt lat="46.39322" lon="5.4533">
        <ele>381.4</ele>
        <time>2022-07-21T07:50:53Z</time>
      </trkpt>
      <trkpt lat="46.39316" lon="5.45325">
        <ele>380.8</ele>
        <time>2022-07-21T07:50:54Z</time>
      </trkpt>
      <trkpt lat="46.39311" lon="5.4532">
        <ele>380.6</ele>
        <time>2022-07-21T07:50:55Z</time>
      </trkpt>
      <trkpt lat="46.39308" lon="5.45315">
        <ele>380</ele>
        <time>2022-07-21T07:50:56Z</time>
      </trkpt>
      <trkpt lat="46.39307" lon="5.45311">
        <ele>379.2</ele>
        <time>2022-07-21T07:50:57Z</time>
      </trkpt>
      <trkpt lat="46.39307" lon="5.45307">
        <ele>379</ele>
        <time>2022-07-21T07:50:58Z</time>
      </trkpt>
      <trkpt lat="46.39309" lon="5.45303">
        <ele>378.6</ele>
        <time>2022-07-21T07:50:59Z</time>
      </trkpt>
      <trkpt lat="46.39319" lon="5.45297">
        <ele>378</ele>
        <time>2022-07-21T07:51:01Z</time>
      </trkpt>
      <trkpt lat="46.39325" lon="5.45295">
        <ele>378</ele>
        <time>2022-07-21T07:51:02Z</time>
      </trkpt>
      <trkpt lat="46.3934" lon="5.4529">
        <ele>377.4</ele>
        <time>2022-07-21T07:51:04Z</time>
      </trkpt>
      <trkpt lat="46.39347" lon="5.45286">
        <ele>377</ele>
        <time>2022-07-21T07:51:05Z</time>
      </trkpt>
      <trkpt lat="46.39354" lon="5.45283">
        <ele>376.4</ele>
        <time>2022-07-21T07:51:06Z</time>
      </trkpt>
      <trkpt lat="46.3937" lon="5.45275">
        <ele>375.2</ele>
        <time>2022-07-21T07:51:08Z</time>
      </trkpt>
      <trkpt lat="46.39393" lon="5.45263">
        <ele>374</ele>
        <time>2022-07-21T07:51:11Z</time>
      </trkpt>
      <trkpt lat="46.39413" lon="5.45254">
        <ele>372.8</ele>
        <time>2022-07-21T07:51:13Z</time>
      </trkpt>
      <trkpt lat="46.39441" lon="5.4524">
        <ele>371.4</ele>
        <time>2022-07-21T07:51:16Z</time>
      </trkpt>
      <trkpt lat="46.3946" lon="5.45231">
        <ele>370</ele>
        <time>2022-07-21T07:51:18Z</time>
      </trkpt>
      <trkpt lat="46.39481" lon="5.45221">
        <ele>368.4</ele>
        <time>2022-07-21T07:51:20Z</time>
      </trkpt>
      <trkpt lat="46.39513" lon="5.45207">
        <ele>366.8</ele>
        <time>2022-07-21T07:51:23Z</time>
      </trkpt>
      <trkpt lat="46.39535" lon="5.45199">
        <ele>365.4</ele>
        <time>2022-07-21T07:51:25Z</time>
      </trkpt>
      <trkpt lat="46.39545" lon="5.45196">
        <ele>364.4</ele>
        <time>2022-07-21T07:51:26Z</time>
      </trkpt>
      <trkpt lat="46.39557" lon="5.45195">
        <ele>363.6</ele>
        <time>2022-07-21T07:51:27Z</time>
      </trkpt>
      <trkpt lat="46.39568" lon="5.45196">
        <ele>363.2</ele>
        <time>2022-07-21T07:51:28Z</time>
      </trkpt>
      <trkpt lat="46.39601" lon="5.45203">
        <ele>361.6</ele>
        <time>2022-07-21T07:51:31Z</time>
      </trkpt>
      <trkpt lat="46.39611" lon="5.45207">
        <ele>361.2</ele>
        <time>2022-07-21T07:51:32Z</time>
      </trkpt>
      <trkpt lat="46.39642" lon="5.45221">
        <ele>360.2</ele>
        <time>2022-07-21T07:51:35Z</time>
      </trkpt>
      <trkpt lat="46.39652" lon="5.45226">
        <ele>359</ele>
        <time>2022-07-21T07:51:36Z</time>
      </trkpt>
      <trkpt lat="46.39673" lon="5.45236">
        <ele>357.4</ele>
        <time>2022-07-21T07:51:38Z</time>
      </trkpt>
      <trkpt lat="46.39683" lon="5.45241">
        <ele>356.8</ele>
        <time>2022-07-21T07:51:39Z</time>
      </trkpt>
      <trkpt lat="46.39693" lon="5.45247">
        <ele>356.2</ele>
        <time>2022-07-21T07:51:40Z</time>
      </trkpt>
      <trkpt lat="46.39735" lon="5.45268">
        <ele>355</ele>
        <time>2022-07-21T07:51:44Z</time>
      </trkpt>
      <trkpt lat="46.39788" lon="5.45292">
        <ele>353.2</ele>
        <time>2022-07-21T07:51:49Z</time>
      </trkpt>
      <trkpt lat="46.39799" lon="5.45295">
        <ele>352.2</ele>
        <time>2022-07-21T07:51:50Z</time>
      </trkpt>
      <trkpt lat="46.39821" lon="5.45298">
        <ele>351</ele>
        <time>2022-07-21T07:51:52Z</time>
      </trkpt>
      <trkpt lat="46.39833" lon="5.45298">
        <ele>350.8</ele>
        <time>2022-07-21T07:51:53Z</time>
      </trkpt>
      <trkpt lat="46.39866" lon="5.45294">
        <ele>349.6</ele>
        <time>2022-07-21T07:51:56Z</time>
      </trkpt>
      <trkpt lat="46.39876" lon="5.45293">
        <ele>349.2</ele>
        <time>2022-07-21T07:51:57Z</time>
      </trkpt>
      <trkpt lat="46.39897" lon="5.45291">
        <ele>348.4</ele>
        <time>2022-07-21T07:51:59Z</time>
      </trkpt>
      <trkpt lat="46.39907" lon="5.4529">
        <ele>348.2</ele>
        <time>2022-07-21T07:52:00Z</time>
      </trkpt>
      <trkpt lat="46.39963" lon="5.45282">
        <ele>347.2</ele>
        <time>2022-07-21T07:52:06Z</time>
      </trkpt>
      <trkpt lat="46.39981" lon="5.45281">
        <ele>347.2</ele>
        <time>2022-07-21T07:52:08Z</time>
      </trkpt>
      <trkpt lat="46.40006" lon="5.45279">
        <ele>347.2</ele>
        <time>2022-07-21T07:52:11Z</time>
      </trkpt>
      <trkpt lat="46.40063" lon="5.45271">
        <ele>347</ele>
        <time>2022-07-21T07:52:18Z</time>
      </trkpt>
      <trkpt lat="46.40117" lon="5.45264">
        <ele>346.8</ele>
        <time>2022-07-21T07:52:25Z</time>
      </trkpt>
      <trkpt lat="46.40124" lon="5.45262">
        <ele>347</ele>
        <time>2022-07-21T07:52:26Z</time>
      </trkpt>
      <trkpt lat="46.40131" lon="5.45259">
        <ele>347</ele>
        <time>2022-07-21T07:52:27Z</time>
      </trkpt>
      <trkpt lat="46.40138" lon="5.45256">
        <ele>347</ele>
        <time>2022-07-21T07:52:28Z</time>
      </trkpt>
      <trkpt lat="46.40159" lon="5.45243">
        <ele>347.2</ele>
        <time>2022-07-21T07:52:31Z</time>
      </trkpt>
      <trkpt lat="46.40174" lon="5.45239">
        <ele>347.2</ele>
        <time>2022-07-21T07:52:33Z</time>
      </trkpt>
      <trkpt lat="46.40181" lon="5.45239">
        <ele>347.2</ele>
        <time>2022-07-21T07:52:34Z</time>
      </trkpt>
      <trkpt lat="46.40197" lon="5.45238">
        <ele>347.4</ele>
        <time>2022-07-21T07:52:36Z</time>
      </trkpt>
      <trkpt lat="46.40218" lon="5.45231">
        <ele>347.4</ele>
        <time>2022-07-21T07:52:39Z</time>
      </trkpt>
      <trkpt lat="46.40272" lon="5.45204">
        <ele>347.6</ele>
        <time>2022-07-21T07:52:47Z</time>
      </trkpt>
      <trkpt lat="46.40277" lon="5.45201">
        <ele>348</ele>
        <time>2022-07-21T07:52:48Z</time>
      </trkpt>
      <trkpt lat="46.40332" lon="5.45172">
        <ele>348.2</ele>
        <time>2022-07-21T07:52:56Z</time>
      </trkpt>
      <trkpt lat="46.40378" lon="5.45149">
        <ele>348.2</ele>
        <time>2022-07-21T07:53:03Z</time>
      </trkpt>
      <trkpt lat="46.4041" lon="5.45132">
        <ele>348.4</ele>
        <time>2022-07-21T07:53:08Z</time>
      </trkpt>
      <trkpt lat="46.40433" lon="5.45119">
        <ele>348.8</ele>
        <time>2022-07-21T07:53:12Z</time>
      </trkpt>
      <trkpt lat="46.40455" lon="5.45108">
        <ele>349.6</ele>
        <time>2022-07-21T07:53:16Z</time>
      </trkpt>
      <trkpt lat="46.4049" lon="5.4509">
        <ele>350.6</ele>
        <time>2022-07-21T07:53:22Z</time>
      </trkpt>
      <trkpt lat="46.40537" lon="5.45065">
        <ele>350.8</ele>
        <time>2022-07-21T07:53:30Z</time>
      </trkpt>
      <trkpt lat="46.40594" lon="5.45034">
        <ele>351</ele>
        <time>2022-07-21T07:53:39Z</time>
      </trkpt>
      <trkpt lat="46.4065" lon="5.45006">
        <ele>350.6</ele>
        <time>2022-07-21T07:53:47Z</time>
      </trkpt>
      <trkpt lat="46.40693" lon="5.44997">
        <ele>350.6</ele>
        <time>2022-07-21T07:53:53Z</time>
      </trkpt>
      <trkpt lat="46.40734" lon="5.45004">
        <ele>350.8</ele>
        <time>2022-07-21T07:53:59Z</time>
      </trkpt>
      <trkpt lat="46.40789" lon="5.45024">
        <ele>351</ele>
        <time>2022-07-21T07:54:07Z</time>
      </trkpt>
      <trkpt lat="46.40802" lon="5.4503">
        <ele>351.4</ele>
        <time>2022-07-21T07:54:09Z</time>
      </trkpt>
      <trkpt lat="46.40822" lon="5.4504">
        <ele>351.6</ele>
        <time>2022-07-21T07:54:12Z</time>
      </trkpt>
      <trkpt lat="46.40853" lon="5.4506">
        <ele>352.6</ele>
        <time>2022-07-21T07:54:17Z</time>
      </trkpt>
      <trkpt lat="46.40859" lon="5.45065">
        <ele>352.6</ele>
        <time>2022-07-21T07:54:18Z</time>
      </trkpt>
      <trkpt lat="46.40865" lon="5.4507">
        <ele>353</ele>
        <time>2022-07-21T07:54:19Z</time>
      </trkpt>
      <trkpt lat="46.40887" lon="5.4509">
        <ele>353.6</ele>
        <time>2022-07-21T07:54:23Z</time>
      </trkpt>
      <trkpt lat="46.40904" lon="5.45103">
        <ele>354.4</ele>
        <time>2022-07-21T07:54:26Z</time>
      </trkpt>
      <trkpt lat="46.40909" lon="5.45107">
        <ele>354.4</ele>
        <time>2022-07-21T07:54:27Z</time>
      </trkpt>
      <trkpt lat="46.40925" lon="5.45119">
        <ele>354.8</ele>
        <time>2022-07-21T07:54:30Z</time>
      </trkpt>
      <trkpt lat="46.40937" lon="5.45128">
        <ele>355.4</ele>
        <time>2022-07-21T07:54:32Z</time>
      </trkpt>
      <trkpt lat="46.40942" lon="5.45132">
        <ele>355.6</ele>
        <time>2022-07-21T07:54:33Z</time>
      </trkpt>
      <trkpt lat="46.40959" lon="5.45145">
        <ele>356.6</ele>
        <time>2022-07-21T07:54:36Z</time>
      </trkpt>
      <trkpt lat="46.40989" lon="5.45162">
        <ele>357</ele>
        <time>2022-07-21T07:54:41Z</time>
      </trkpt>
      <trkpt lat="46.41012" lon="5.45173">
        <ele>357.6</ele>
        <time>2022-07-21T07:54:45Z</time>
      </trkpt>
      <trkpt lat="46.41048" lon="5.45185">
        <ele>358.2</ele>
        <time>2022-07-21T07:54:51Z</time>
      </trkpt>
      <trkpt lat="46.41059" lon="5.45189">
        <ele>358.6</ele>
        <time>2022-07-21T07:54:53Z</time>
      </trkpt>
      <trkpt lat="46.41094" lon="5.45198">
        <ele>359.8</ele>
        <time>2022-07-21T07:54:59Z</time>
      </trkpt>
      <trkpt lat="46.411" lon="5.45199">
        <ele>359.8</ele>
        <time>2022-07-21T07:55:00Z</time>
      </trkpt>
      <trkpt lat="46.41149" lon="5.45208">
        <ele>360.6</ele>
        <time>2022-07-21T07:55:08Z</time>
      </trkpt>
      <trkpt lat="46.41181" lon="5.45215">
        <ele>360.6</ele>
        <time>2022-07-21T07:55:13Z</time>
      </trkpt>
      <trkpt lat="46.41201" lon="5.45219">
        <ele>360.6</ele>
        <time>2022-07-21T07:55:16Z</time>
      </trkpt>
      <trkpt lat="46.41208" lon="5.4522">
        <ele>360.8</ele>
        <time>2022-07-21T07:55:17Z</time>
      </trkpt>
      <trkpt lat="46.4124" lon="5.45227">
        <ele>361.2</ele>
        <time>2022-07-21T07:55:22Z</time>
      </trkpt>
      <trkpt lat="46.41299" lon="5.45239">
        <ele>361.6</ele>
        <time>2022-07-21T07:55:31Z</time>
      </trkpt>
      <trkpt lat="46.41306" lon="5.45241">
        <ele>361.6</ele>
        <time>2022-07-21T07:55:32Z</time>
      </trkpt>
      <trkpt lat="46.41345" lon="5.45249">
        <ele>361.4</ele>
        <time>2022-07-21T07:55:38Z</time>
      </trkpt>
      <trkpt lat="46.41389" lon="5.4526">
        <ele>361.2</ele>
        <time>2022-07-21T07:55:45Z</time>
      </trkpt>
      <trkpt lat="46.41448" lon="5.45274">
        <ele>361.6</ele>
        <time>2022-07-21T07:55:54Z</time>
      </trkpt>
      <trkpt lat="46.41467" lon="5.45278">
        <ele>361.4</ele>
        <time>2022-07-21T07:55:57Z</time>
      </trkpt>
      <trkpt lat="46.41525" lon="5.45293">
        <ele>361.6</ele>
        <time>2022-07-21T07:56:06Z</time>
      </trkpt>
      <trkpt lat="46.41577" lon="5.45305">
        <ele>361.8</ele>
        <time>2022-07-21T07:56:14Z</time>
      </trkpt>
      <trkpt lat="46.41632" lon="5.45318">
        <ele>362.6</ele>
        <time>2022-07-21T07:56:23Z</time>
      </trkpt>
      <trkpt lat="46.4165" lon="5.45323">
        <ele>363</ele>
        <time>2022-07-21T07:56:26Z</time>
      </trkpt>
      <trkpt lat="46.41691" lon="5.45333">
        <ele>364.2</ele>
        <time>2022-07-21T07:56:33Z</time>
      </trkpt>
      <trkpt lat="46.41703" lon="5.45336">
        <ele>364.6</ele>
        <time>2022-07-21T07:56:35Z</time>
      </trkpt>
      <trkpt lat="46.41726" lon="5.45342">
        <ele>365</ele>
        <time>2022-07-21T07:56:39Z</time>
      </trkpt>
      <trkpt lat="46.41782" lon="5.45354">
        <ele>365.8</ele>
        <time>2022-07-21T07:56:48Z</time>
      </trkpt>
      <trkpt lat="46.41789" lon="5.45356">
        <ele>366</ele>
        <time>2022-07-21T07:56:49Z</time>
      </trkpt>
      <trkpt lat="46.41838" lon="5.45367">
        <ele>366</ele>
        <time>2022-07-21T07:56:56Z</time>
      </trkpt>
      <trkpt lat="46.41896" lon="5.45381">
        <ele>365.8</ele>
        <time>2022-07-21T07:57:04Z</time>
      </trkpt>
      <trkpt lat="46.41937" lon="5.45393">
        <ele>365.6</ele>
        <time>2022-07-21T07:57:10Z</time>
      </trkpt>
      <trkpt lat="46.41958" lon="5.45401">
        <ele>365.8</ele>
        <time>2022-07-21T07:57:13Z</time>
      </trkpt>
      <trkpt lat="46.42008" lon="5.4542">
        <ele>366.4</ele>
        <time>2022-07-21T07:57:21Z</time>
      </trkpt>
      <trkpt lat="46.42027" lon="5.45429">
        <ele>367.2</ele>
        <time>2022-07-21T07:57:24Z</time>
      </trkpt>
      <trkpt lat="46.42067" lon="5.45446">
        <ele>368.2</ele>
        <time>2022-07-21T07:57:30Z</time>
      </trkpt>
      <trkpt lat="46.42126" lon="5.4547">
        <ele>368.4</ele>
        <time>2022-07-21T07:57:38Z</time>
      </trkpt>
      <trkpt lat="46.42184" lon="5.45492">
        <ele>367.8</ele>
        <time>2022-07-21T07:57:46Z</time>
      </trkpt>
      <trkpt lat="46.42198" lon="5.45497">
        <ele>367.8</ele>
        <time>2022-07-21T07:57:48Z</time>
      </trkpt>
      <trkpt lat="46.42255" lon="5.45516">
        <ele>367.4</ele>
        <time>2022-07-21T07:57:56Z</time>
      </trkpt>
      <trkpt lat="46.42269" lon="5.45521">
        <ele>367.6</ele>
        <time>2022-07-21T07:57:58Z</time>
      </trkpt>
      <trkpt lat="46.42326" lon="5.45539">
        <ele>368</ele>
        <time>2022-07-21T07:58:06Z</time>
      </trkpt>
      <trkpt lat="46.42349" lon="5.45546">
        <ele>368</ele>
        <time>2022-07-21T07:58:09Z</time>
      </trkpt>
      <trkpt lat="46.42407" lon="5.45563">
        <ele>367.4</ele>
        <time>2022-07-21T07:58:16Z</time>
      </trkpt>
      <trkpt lat="46.42416" lon="5.45566">
        <ele>367</ele>
        <time>2022-07-21T07:58:17Z</time>
      </trkpt>
      <trkpt lat="46.42452" lon="5.45578">
        <ele>365.8</ele>
        <time>2022-07-21T07:58:21Z</time>
      </trkpt>
      <trkpt lat="46.42462" lon="5.45581">
        <ele>365.4</ele>
        <time>2022-07-21T07:58:22Z</time>
      </trkpt>
      <trkpt lat="46.4248" lon="5.45587">
        <ele>364.8</ele>
        <time>2022-07-21T07:58:24Z</time>
      </trkpt>
      <trkpt lat="46.42517" lon="5.45598">
        <ele>363.6</ele>
        <time>2022-07-21T07:58:28Z</time>
      </trkpt>
      <trkpt lat="46.42562" lon="5.45613">
        <ele>363.2</ele>
        <time>2022-07-21T07:58:33Z</time>
      </trkpt>
      <trkpt lat="46.42621" lon="5.45631">
        <ele>363</ele>
        <time>2022-07-21T07:58:40Z</time>
      </trkpt>
      <trkpt lat="46.42637" lon="5.45636">
        <ele>363</ele>
        <time>2022-07-21T07:58:42Z</time>
      </trkpt>
      <trkpt lat="46.42682" lon="5.45651">
        <ele>363.8</ele>
        <time>2022-07-21T07:58:48Z</time>
      </trkpt>
      <trkpt lat="46.42697" lon="5.45656">
        <ele>364</ele>
        <time>2022-07-21T07:58:50Z</time>
      </trkpt>
      <trkpt lat="46.42735" lon="5.45667">
        <ele>364.8</ele>
        <time>2022-07-21T07:58:55Z</time>
      </trkpt>
      <trkpt lat="46.42765" lon="5.45675">
        <ele>365.4</ele>
        <time>2022-07-21T07:58:59Z</time>
      </trkpt>
      <trkpt lat="46.42794" lon="5.45679">
        <ele>365.4</ele>
        <time>2022-07-21T07:59:03Z</time>
      </trkpt>
      <trkpt lat="46.42804" lon="5.45686">
        <ele>365.4</ele>
        <time>2022-07-21T07:59:05Z</time>
      </trkpt>
      <trkpt lat="46.42808" lon="5.45698">
        <ele>365.4</ele>
        <time>2022-07-21T07:59:07Z</time>
      </trkpt>
      <trkpt lat="46.42808" lon="5.45703">
        <ele>365.2</ele>
        <time>2022-07-21T07:59:08Z</time>
      </trkpt>
      <trkpt lat="46.42808" lon="5.4571">
        <ele>365.2</ele>
        <time>2022-07-21T07:59:11Z</time>
      </trkpt>
      <trkpt lat="46.42808" lon="5.4571">
        <ele>364.8</ele>
        <time>2022-07-21T07:59:14Z</time>
      </trkpt>
      <trkpt lat="46.42809" lon="5.45704">
        <ele>363.8</ele>
        <time>2022-07-21T08:00:42Z</time>
      </trkpt>
      <trkpt lat="46.42814" lon="5.45687">
        <ele>364</ele>
        <time>2022-07-21T08:00:46Z</time>
      </trkpt>
      <trkpt lat="46.42817" lon="5.45683">
        <ele>364</ele>
        <time>2022-07-21T08:00:47Z</time>
      </trkpt>
      <trkpt lat="46.42822" lon="5.45681">
        <ele>364.2</ele>
        <time>2022-07-21T08:00:48Z</time>
      </trkpt>
      <trkpt lat="46.42832" lon="5.4568">
        <ele>364.2</ele>
        <time>2022-07-21T08:00:50Z</time>
      </trkpt>
      <trkpt lat="46.42864" lon="5.45681">
        <ele>364.6</ele>
        <time>2022-07-21T08:00:55Z</time>
      </trkpt>
      <trkpt lat="46.42919" lon="5.45682">
        <ele>364</ele>
        <time>2022-07-21T08:01:03Z</time>
      </trkpt>
      <trkpt lat="46.42962" lon="5.45684">
        <ele>362.8</ele>
        <time>2022-07-21T08:01:09Z</time>
      </trkpt>
      <trkpt lat="46.42983" lon="5.45684">
        <ele>361.6</ele>
        <time>2022-07-21T08:01:12Z</time>
      </trkpt>
      <trkpt lat="46.4299" lon="5.45685">
        <ele>361.4</ele>
        <time>2022-07-21T08:01:13Z</time>
      </trkpt>
      <trkpt lat="46.43019" lon="5.45685">
        <ele>361.2</ele>
        <time>2022-07-21T08:01:17Z</time>
      </trkpt>
      <trkpt lat="46.43056" lon="5.45686">
        <ele>360.4</ele>
        <time>2022-07-21T08:01:22Z</time>
      </trkpt>
      <trkpt lat="46.43107" lon="5.45687">
        <ele>359.4</ele>
        <time>2022-07-21T08:01:28Z</time>
      </trkpt>
      <trkpt lat="46.43153" lon="5.45688">
        <ele>358.2</ele>
        <time>2022-07-21T08:01:33Z</time>
      </trkpt>
      <trkpt lat="46.43178" lon="5.45688">
        <ele>356.8</ele>
        <time>2022-07-21T08:01:36Z</time>
      </trkpt>
      <trkpt lat="46.43222" lon="5.45689">
        <ele>355.8</ele>
        <time>2022-07-21T08:01:41Z</time>
      </trkpt>
      <trkpt lat="46.43255" lon="5.4569">
        <ele>355.6</ele>
        <time>2022-07-21T08:01:45Z</time>
      </trkpt>
      <trkpt lat="46.43311" lon="5.45692">
        <ele>355.6</ele>
        <time>2022-07-21T08:01:52Z</time>
      </trkpt>
      <trkpt lat="46.43371" lon="5.45693">
        <ele>355.8</ele>
        <time>2022-07-21T08:02:00Z</time>
      </trkpt>
      <trkpt lat="46.43408" lon="5.45694">
        <ele>355.8</ele>
        <time>2022-07-21T08:02:05Z</time>
      </trkpt>
      <trkpt lat="46.43467" lon="5.45695">
        <ele>355.8</ele>
        <time>2022-07-21T08:02:13Z</time>
      </trkpt>
      <trkpt lat="46.43496" lon="5.45695">
        <ele>355.8</ele>
        <time>2022-07-21T08:02:17Z</time>
      </trkpt>
      <trkpt lat="46.43558" lon="5.45697">
        <ele>356</ele>
        <time>2022-07-21T08:02:25Z</time>
      </trkpt>
      <trkpt lat="46.43612" lon="5.45699">
        <ele>356</ele>
        <time>2022-07-21T08:02:32Z</time>
      </trkpt>
      <trkpt lat="46.43635" lon="5.45699">
        <ele>356.2</ele>
        <time>2022-07-21T08:02:35Z</time>
      </trkpt>
      <trkpt lat="46.43697" lon="5.45701">
        <ele>356.6</ele>
        <time>2022-07-21T08:02:43Z</time>
      </trkpt>
      <trkpt lat="46.43728" lon="5.45701">
        <ele>356.6</ele>
        <time>2022-07-21T08:02:47Z</time>
      </trkpt>
      <trkpt lat="46.43788" lon="5.45702">
        <ele>357</ele>
        <time>2022-07-21T08:02:55Z</time>
      </trkpt>
      <trkpt lat="46.43819" lon="5.45702">
        <ele>357.2</ele>
        <time>2022-07-21T08:02:59Z</time>
      </trkpt>
      <trkpt lat="46.43827" lon="5.45702">
        <ele>357.2</ele>
        <time>2022-07-21T08:03:00Z</time>
      </trkpt>
      <trkpt lat="46.43879" lon="5.45699">
        <ele>357.8</ele>
        <time>2022-07-21T08:03:07Z</time>
      </trkpt>
      <trkpt lat="46.43936" lon="5.45689">
        <ele>357.6</ele>
        <time>2022-07-21T08:03:14Z</time>
      </trkpt>
      <trkpt lat="46.43952" lon="5.45686">
        <ele>357.6</ele>
        <time>2022-07-21T08:03:16Z</time>
      </trkpt>
      <trkpt lat="46.43998" lon="5.45677">
        <ele>357.4</ele>
        <time>2022-07-21T08:03:22Z</time>
      </trkpt>
      <trkpt lat="46.44057" lon="5.45666">
        <ele>358</ele>
        <time>2022-07-21T08:03:30Z</time>
      </trkpt>
      <trkpt lat="46.44065" lon="5.45665">
        <ele>358.2</ele>
        <time>2022-07-21T08:03:31Z</time>
      </trkpt>
      <trkpt lat="46.44079" lon="5.45663">
        <ele>358.2</ele>
        <time>2022-07-21T08:03:33Z</time>
      </trkpt>
      <trkpt lat="46.44136" lon="5.45652">
        <ele>359.2</ele>
        <time>2022-07-21T08:03:41Z</time>
      </trkpt>
      <trkpt lat="46.44144" lon="5.45651">
        <ele>359.4</ele>
        <time>2022-07-21T08:03:42Z</time>
      </trkpt>
      <trkpt lat="46.44199" lon="5.4564">
        <ele>359.6</ele>
        <time>2022-07-21T08:03:50Z</time>
      </trkpt>
      <trkpt lat="46.44246" lon="5.45631">
        <ele>360.4</ele>
        <time>2022-07-21T08:03:57Z</time>
      </trkpt>
      <trkpt lat="46.44259" lon="5.4563">
        <ele>360.6</ele>
        <time>2022-07-21T08:03:59Z</time>
      </trkpt>
      <trkpt lat="46.44291" lon="5.45632">
        <ele>361.4</ele>
        <time>2022-07-21T08:04:04Z</time>
      </trkpt>
      <trkpt lat="46.44317" lon="5.45634">
        <ele>361.8</ele>
        <time>2022-07-21T08:04:08Z</time>
      </trkpt>
      <trkpt lat="46.44348" lon="5.45638">
        <ele>362.4</ele>
        <time>2022-07-21T08:04:13Z</time>
      </trkpt>
      <trkpt lat="46.44354" lon="5.45638">
        <ele>362.4</ele>
        <time>2022-07-21T08:04:14Z</time>
      </trkpt>
      <trkpt lat="46.44371" lon="5.4564">
        <ele>362.6</ele>
        <time>2022-07-21T08:04:17Z</time>
      </trkpt>
      <trkpt lat="46.44414" lon="5.45645">
        <ele>363.8</ele>
        <time>2022-07-21T08:04:24Z</time>
      </trkpt>
      <trkpt lat="46.44419" lon="5.45645">
        <ele>364</ele>
        <time>2022-07-21T08:04:25Z</time>
      </trkpt>
      <trkpt lat="46.44454" lon="5.45648">
        <ele>365</ele>
        <time>2022-07-21T08:04:31Z</time>
      </trkpt>
      <trkpt lat="46.44478" lon="5.45651">
        <ele>366</ele>
        <time>2022-07-21T08:04:35Z</time>
      </trkpt>
      <trkpt lat="46.44484" lon="5.45652">
        <ele>366.2</ele>
        <time>2022-07-21T08:04:36Z</time>
      </trkpt>
      <trkpt lat="46.44529" lon="5.45664">
        <ele>366.6</ele>
        <time>2022-07-21T08:04:43Z</time>
      </trkpt>
      <trkpt lat="46.44578" lon="5.45679">
        <ele>366.2</ele>
        <time>2022-07-21T08:04:50Z</time>
      </trkpt>
      <trkpt lat="46.44586" lon="5.45682">
        <ele>366.2</ele>
        <time>2022-07-21T08:04:51Z</time>
      </trkpt>
      <trkpt lat="46.44644" lon="5.457">
        <ele>365.8</ele>
        <time>2022-07-21T08:04:59Z</time>
      </trkpt>
      <trkpt lat="46.447" lon="5.45721">
        <ele>365.8</ele>
        <time>2022-07-21T08:05:07Z</time>
      </trkpt>
      <trkpt lat="46.44706" lon="5.45724">
        <ele>365.8</ele>
        <time>2022-07-21T08:05:08Z</time>
      </trkpt>
      <trkpt lat="46.44758" lon="5.4575">
        <ele>366</ele>
        <time>2022-07-21T08:05:16Z</time>
      </trkpt>
      <trkpt lat="46.44797" lon="5.4577">
        <ele>366.8</ele>
        <time>2022-07-21T08:05:22Z</time>
      </trkpt>
      <trkpt lat="46.44811" lon="5.45778">
        <ele>367.4</ele>
        <time>2022-07-21T08:05:24Z</time>
      </trkpt>
      <trkpt lat="46.44825" lon="5.45787">
        <ele>367.6</ele>
        <time>2022-07-21T08:05:26Z</time>
      </trkpt>
      <trkpt lat="46.44882" lon="5.4582">
        <ele>367.8</ele>
        <time>2022-07-21T08:05:34Z</time>
      </trkpt>
      <trkpt lat="46.44939" lon="5.45853">
        <ele>367.4</ele>
        <time>2022-07-21T08:05:42Z</time>
      </trkpt>
      <trkpt lat="46.44954" lon="5.45862">
        <ele>367</ele>
        <time>2022-07-21T08:05:44Z</time>
      </trkpt>
      <trkpt lat="46.44986" lon="5.45881">
        <ele>366</ele>
        <time>2022-07-21T08:05:48Z</time>
      </trkpt>
      <trkpt lat="46.45018" lon="5.459">
        <ele>365</ele>
        <time>2022-07-21T08:05:52Z</time>
      </trkpt>
      <trkpt lat="46.45026" lon="5.45905">
        <ele>364.8</ele>
        <time>2022-07-21T08:05:53Z</time>
      </trkpt>
      <trkpt lat="46.45059" lon="5.45925">
        <ele>363.6</ele>
        <time>2022-07-21T08:05:57Z</time>
      </trkpt>
      <trkpt lat="46.45083" lon="5.45937">
        <ele>363</ele>
        <time>2022-07-21T08:06:00Z</time>
      </trkpt>
      <trkpt lat="46.45099" lon="5.45945">
        <ele>362.4</ele>
        <time>2022-07-21T08:06:02Z</time>
      </trkpt>
      <trkpt lat="46.45135" lon="5.45967">
        <ele>362.4</ele>
        <time>2022-07-21T08:06:07Z</time>
      </trkpt>
      <trkpt lat="46.45173" lon="5.45998">
        <ele>363.6</ele>
        <time>2022-07-21T08:06:13Z</time>
      </trkpt>
      <trkpt lat="46.45179" lon="5.46002">
        <ele>363.6</ele>
        <time>2022-07-21T08:06:14Z</time>
      </trkpt>
      <trkpt lat="46.45205" lon="5.46021">
        <ele>364.6</ele>
        <time>2022-07-21T08:06:18Z</time>
      </trkpt>
      <trkpt lat="46.45211" lon="5.46026">
        <ele>364.8</ele>
        <time>2022-07-21T08:06:19Z</time>
      </trkpt>
      <trkpt lat="46.45227" lon="5.46039">
        <ele>365.8</ele>
        <time>2022-07-21T08:06:22Z</time>
      </trkpt>
      <trkpt lat="46.45237" lon="5.46046">
        <ele>366.4</ele>
        <time>2022-07-21T08:06:24Z</time>
      </trkpt>
      <trkpt lat="46.45248" lon="5.4605">
        <ele>366.8</ele>
        <time>2022-07-21T08:06:26Z</time>
      </trkpt>
      <trkpt lat="46.45277" lon="5.46058">
        <ele>368.2</ele>
        <time>2022-07-21T08:06:31Z</time>
      </trkpt>
      <trkpt lat="46.45305" lon="5.46062">
        <ele>368.8</ele>
        <time>2022-07-21T08:06:35Z</time>
      </trkpt>
      <trkpt lat="46.45312" lon="5.46063">
        <ele>368.8</ele>
        <time>2022-07-21T08:06:36Z</time>
      </trkpt>
      <trkpt lat="46.45371" lon="5.46073">
        <ele>369</ele>
        <time>2022-07-21T08:06:44Z</time>
      </trkpt>
      <trkpt lat="46.45393" lon="5.46076">
        <ele>368.8</ele>
        <time>2022-07-21T08:06:47Z</time>
      </trkpt>
      <trkpt lat="46.45447" lon="5.46085">
        <ele>368.2</ele>
        <time>2022-07-21T08:06:54Z</time>
      </trkpt>
      <trkpt lat="46.45464" lon="5.46088">
        <ele>368</ele>
        <time>2022-07-21T08:06:56Z</time>
      </trkpt>
      <trkpt lat="46.45489" lon="5.46092">
        <ele>367.2</ele>
        <time>2022-07-21T08:06:59Z</time>
      </trkpt>
      <trkpt lat="46.45541" lon="5.46102">
        <ele>366.2</ele>
        <time>2022-07-21T08:07:05Z</time>
      </trkpt>
      <trkpt lat="46.45551" lon="5.46104">
        <ele>366</ele>
        <time>2022-07-21T08:07:06Z</time>
      </trkpt>
      <trkpt lat="46.45587" lon="5.4611">
        <ele>364.8</ele>
        <time>2022-07-21T08:07:10Z</time>
      </trkpt>
      <trkpt lat="46.45624" lon="5.46116">
        <ele>363.8</ele>
        <time>2022-07-21T08:07:14Z</time>
      </trkpt>
      <trkpt lat="46.45633" lon="5.46118">
        <ele>363.4</ele>
        <time>2022-07-21T08:07:15Z</time>
      </trkpt>
      <trkpt lat="46.45688" lon="5.46128">
        <ele>362.6</ele>
        <time>2022-07-21T08:07:21Z</time>
      </trkpt>
      <trkpt lat="46.45698" lon="5.4613">
        <ele>362.6</ele>
        <time>2022-07-21T08:07:22Z</time>
      </trkpt>
      <trkpt lat="46.45716" lon="5.46133">
        <ele>362.4</ele>
        <time>2022-07-21T08:07:24Z</time>
      </trkpt>
      <trkpt lat="46.45777" lon="5.46144">
        <ele>361.8</ele>
        <time>2022-07-21T08:07:31Z</time>
      </trkpt>
      <trkpt lat="46.45803" lon="5.46148">
        <ele>361.8</ele>
        <time>2022-07-21T08:07:34Z</time>
      </trkpt>
      <trkpt lat="46.45862" lon="5.46159">
        <ele>361.8</ele>
        <time>2022-07-21T08:07:41Z</time>
      </trkpt>
      <trkpt lat="46.45894" lon="5.46165">
        <ele>361.4</ele>
        <time>2022-07-21T08:07:45Z</time>
      </trkpt>
      <trkpt lat="46.45902" lon="5.46166">
        <ele>361.4</ele>
        <time>2022-07-21T08:07:46Z</time>
      </trkpt>
      <trkpt lat="46.45957" lon="5.46176">
        <ele>361</ele>
        <time>2022-07-21T08:07:53Z</time>
      </trkpt>
      <trkpt lat="46.45989" lon="5.46182">
        <ele>361.4</ele>
        <time>2022-07-21T08:07:57Z</time>
      </trkpt>
      <trkpt lat="46.46043" lon="5.46191">
        <ele>361.6</ele>
        <time>2022-07-21T08:08:04Z</time>
      </trkpt>
      <trkpt lat="46.46073" lon="5.46196">
        <ele>361.4</ele>
        <time>2022-07-21T08:08:08Z</time>
      </trkpt>
      <trkpt lat="46.46134" lon="5.46207">
        <ele>361.8</ele>
        <time>2022-07-21T08:08:16Z</time>
      </trkpt>
      <trkpt lat="46.46149" lon="5.4621">
        <ele>362</ele>
        <time>2022-07-21T08:08:18Z</time>
      </trkpt>
      <trkpt lat="46.46207" lon="5.4622">
        <ele>362.2</ele>
        <time>2022-07-21T08:08:26Z</time>
      </trkpt>
      <trkpt lat="46.46221" lon="5.46223">
        <ele>362.4</ele>
        <time>2022-07-21T08:08:28Z</time>
      </trkpt>
      <trkpt lat="46.4628" lon="5.46233">
        <ele>362</ele>
        <time>2022-07-21T08:08:36Z</time>
      </trkpt>
      <trkpt lat="46.46287" lon="5.46234">
        <ele>362</ele>
        <time>2022-07-21T08:08:37Z</time>
      </trkpt>
      <trkpt lat="46.46345" lon="5.46244">
        <ele>361.4</ele>
        <time>2022-07-21T08:08:45Z</time>
      </trkpt>
      <trkpt lat="46.46359" lon="5.46247">
        <ele>361.2</ele>
        <time>2022-07-21T08:08:47Z</time>
      </trkpt>
      <trkpt lat="46.46417" lon="5.46257">
        <ele>362</ele>
        <time>2022-07-21T08:08:55Z</time>
      </trkpt>
      <trkpt lat="46.46432" lon="5.4626">
        <ele>362</ele>
        <time>2022-07-21T08:08:57Z</time>
      </trkpt>
      <trkpt lat="46.4649" lon="5.46271">
        <ele>362</ele>
        <time>2022-07-21T08:09:05Z</time>
      </trkpt>
      <trkpt lat="46.46505" lon="5.46273">
        <ele>362</ele>
        <time>2022-07-21T08:09:07Z</time>
      </trkpt>
      <trkpt lat="46.46563" lon="5.46284">
        <ele>362</ele>
        <time>2022-07-21T08:09:15Z</time>
      </trkpt>
      <trkpt lat="46.46585" lon="5.46287">
        <ele>362</ele>
        <time>2022-07-21T08:09:18Z</time>
      </trkpt>
      <trkpt lat="46.46641" lon="5.46297">
        <ele>361.6</ele>
        <time>2022-07-21T08:09:26Z</time>
      </trkpt>
      <trkpt lat="46.46662" lon="5.46301">
        <ele>361.8</ele>
        <time>2022-07-21T08:09:29Z</time>
      </trkpt>
      <trkpt lat="46.46716" lon="5.4631">
        <ele>361.6</ele>
        <time>2022-07-21T08:09:37Z</time>
      </trkpt>
      <trkpt lat="46.46736" lon="5.46314">
        <ele>361.6</ele>
        <time>2022-07-21T08:09:40Z</time>
      </trkpt>
      <trkpt lat="46.46776" lon="5.46321">
        <ele>361.8</ele>
        <time>2022-07-21T08:09:46Z</time>
      </trkpt>
      <trkpt lat="46.46834" lon="5.46332">
        <ele>362</ele>
        <time>2022-07-21T08:09:55Z</time>
      </trkpt>
      <trkpt lat="46.4684" lon="5.46333">
        <ele>362</ele>
        <time>2022-07-21T08:09:56Z</time>
      </trkpt>
      <trkpt lat="46.46898" lon="5.46343">
        <ele>362.2</ele>
        <time>2022-07-21T08:10:05Z</time>
      </trkpt>
      <trkpt lat="46.46956" lon="5.46353">
        <ele>362.6</ele>
        <time>2022-07-21T08:10:14Z</time>
      </trkpt>
      <trkpt lat="46.46995" lon="5.4636">
        <ele>362.8</ele>
        <time>2022-07-21T08:10:20Z</time>
      </trkpt>
      <trkpt lat="46.47021" lon="5.46365">
        <ele>362.8</ele>
        <time>2022-07-21T08:10:24Z</time>
      </trkpt>
      <trkpt lat="46.47078" lon="5.46375">
        <ele>363.4</ele>
        <time>2022-07-21T08:10:33Z</time>
      </trkpt>
      <trkpt lat="46.47085" lon="5.46376">
        <ele>363.4</ele>
        <time>2022-07-21T08:10:34Z</time>
      </trkpt>
      <trkpt lat="46.47141" lon="5.46387">
        <ele>363.6</ele>
        <time>2022-07-21T08:10:43Z</time>
      </trkpt>
      <trkpt lat="46.47146" lon="5.46388">
        <ele>363.6</ele>
        <time>2022-07-21T08:10:44Z</time>
      </trkpt>
      <trkpt lat="46.47203" lon="5.46398">
        <ele>363.8</ele>
        <time>2022-07-21T08:10:53Z</time>
      </trkpt>
      <trkpt lat="46.47208" lon="5.46399">
        <ele>363.8</ele>
        <time>2022-07-21T08:10:54Z</time>
      </trkpt>
      <trkpt lat="46.47258" lon="5.46408">
        <ele>364</ele>
        <time>2022-07-21T08:11:02Z</time>
      </trkpt>
      <trkpt lat="46.47312" lon="5.46417">
        <ele>364.6</ele>
        <time>2022-07-21T08:11:11Z</time>
      </trkpt>
      <trkpt lat="46.47352" lon="5.46424">
        <ele>365</ele>
        <time>2022-07-21T08:11:17Z</time>
      </trkpt>
      <trkpt lat="46.47366" lon="5.46427">
        <ele>365.2</ele>
        <time>2022-07-21T08:11:19Z</time>
      </trkpt>
      <trkpt lat="46.47405" lon="5.46434">
        <ele>366</ele>
        <time>2022-07-21T08:11:25Z</time>
      </trkpt>
      <trkpt lat="46.47426" lon="5.46438">
        <ele>366.4</ele>
        <time>2022-07-21T08:11:28Z</time>
      </trkpt>
      <trkpt lat="46.47482" lon="5.46448">
        <ele>367</ele>
        <time>2022-07-21T08:11:36Z</time>
      </trkpt>
      <trkpt lat="46.47489" lon="5.4645">
        <ele>367.4</ele>
        <time>2022-07-21T08:11:37Z</time>
      </trkpt>
      <trkpt lat="46.47517" lon="5.46454">
        <ele>368.2</ele>
        <time>2022-07-21T08:11:41Z</time>
      </trkpt>
      <trkpt lat="46.47544" lon="5.46459">
        <ele>368.6</ele>
        <time>2022-07-21T08:11:45Z</time>
      </trkpt>
      <trkpt lat="46.47577" lon="5.46465">
        <ele>369.2</ele>
        <time>2022-07-21T08:11:50Z</time>
      </trkpt>
      <trkpt lat="46.47584" lon="5.46466">
        <ele>369.4</ele>
        <time>2022-07-21T08:11:51Z</time>
      </trkpt>
      <trkpt lat="46.47598" lon="5.46469">
        <ele>369.6</ele>
        <time>2022-07-21T08:11:53Z</time>
      </trkpt>
      <trkpt lat="46.47646" lon="5.46477">
        <ele>370.2</ele>
        <time>2022-07-21T08:12:00Z</time>
      </trkpt>
      <trkpt lat="46.47659" lon="5.4648">
        <ele>370.4</ele>
        <time>2022-07-21T08:12:02Z</time>
      </trkpt>
      <trkpt lat="46.47715" lon="5.4649">
        <ele>370.6</ele>
        <time>2022-07-21T08:12:10Z</time>
      </trkpt>
      <trkpt lat="46.47737" lon="5.46494">
        <ele>370.6</ele>
        <time>2022-07-21T08:12:13Z</time>
      </trkpt>
      <trkpt lat="46.47795" lon="5.46504">
        <ele>371</ele>
        <time>2022-07-21T08:12:21Z</time>
      </trkpt>
      <trkpt lat="46.47809" lon="5.46506">
        <ele>371.2</ele>
        <time>2022-07-21T08:12:23Z</time>
      </trkpt>
      <trkpt lat="46.47868" lon="5.46517">
        <ele>371.2</ele>
        <time>2022-07-21T08:12:31Z</time>
      </trkpt>
      <trkpt lat="46.4789" lon="5.46521">
        <ele>371.4</ele>
        <time>2022-07-21T08:12:34Z</time>
      </trkpt>
      <trkpt lat="46.47912" lon="5.46525">
        <ele>371.6</ele>
        <time>2022-07-21T08:12:37Z</time>
      </trkpt>
      <trkpt lat="46.47941" lon="5.46531">
        <ele>371.8</ele>
        <time>2022-07-21T08:12:41Z</time>
      </trkpt>
      <trkpt lat="46.47948" lon="5.46532">
        <ele>371.8</ele>
        <time>2022-07-21T08:12:42Z</time>
      </trkpt>
      <trkpt lat="46.48007" lon="5.46542">
        <ele>372</ele>
        <time>2022-07-21T08:12:50Z</time>
      </trkpt>
      <trkpt lat="46.48021" lon="5.46545">
        <ele>372</ele>
        <time>2022-07-21T08:12:52Z</time>
      </trkpt>
      <trkpt lat="46.4808" lon="5.46556">
        <ele>371.6</ele>
        <time>2022-07-21T08:13:00Z</time>
      </trkpt>
      <trkpt lat="46.48094" lon="5.46559">
        <ele>371.4</ele>
        <time>2022-07-21T08:13:02Z</time>
      </trkpt>
      <trkpt lat="46.48152" lon="5.46569">
        <ele>371</ele>
        <time>2022-07-21T08:13:10Z</time>
      </trkpt>
      <trkpt lat="46.48174" lon="5.46572">
        <ele>371</ele>
        <time>2022-07-21T08:13:13Z</time>
      </trkpt>
      <trkpt lat="46.48225" lon="5.4658">
        <ele>371</ele>
        <time>2022-07-21T08:13:20Z</time>
      </trkpt>
      <trkpt lat="46.48277" lon="5.46588">
        <ele>371</ele>
        <time>2022-07-21T08:13:27Z</time>
      </trkpt>
      <trkpt lat="46.48328" lon="5.46599">
        <ele>371.2</ele>
        <time>2022-07-21T08:13:34Z</time>
      </trkpt>
      <trkpt lat="46.48341" lon="5.46603">
        <ele>371.2</ele>
        <time>2022-07-21T08:13:36Z</time>
      </trkpt>
      <trkpt lat="46.48347" lon="5.46601">
        <ele>371.2</ele>
        <time>2022-07-21T08:13:37Z</time>
      </trkpt>
      <trkpt lat="46.48353" lon="5.46596">
        <ele>371.2</ele>
        <time>2022-07-21T08:13:38Z</time>
      </trkpt>
      <trkpt lat="46.48361" lon="5.4658">
        <ele>371.2</ele>
        <time>2022-07-21T08:13:40Z</time>
      </trkpt>
      <trkpt lat="46.48381" lon="5.46521">
        <ele>371</ele>
        <time>2022-07-21T08:13:46Z</time>
      </trkpt>
      <trkpt lat="46.4839" lon="5.46492">
        <ele>371</ele>
        <time>2022-07-21T08:13:49Z</time>
      </trkpt>
      <trkpt lat="46.48392" lon="5.4648">
        <ele>371</ele>
        <time>2022-07-21T08:13:50Z</time>
      </trkpt>
      <trkpt lat="46.48394" lon="5.46424">
        <ele>371</ele>
        <time>2022-07-21T08:13:55Z</time>
      </trkpt>
      <trkpt lat="46.48398" lon="5.46403">
        <ele>371</ele>
        <time>2022-07-21T08:13:57Z</time>
      </trkpt>
      <trkpt lat="46.48404" lon="5.46383">
        <ele>371.2</ele>
        <time>2022-07-21T08:13:59Z</time>
      </trkpt>
      <trkpt lat="46.48432" lon="5.46321">
        <ele>371.6</ele>
        <time>2022-07-21T08:14:06Z</time>
      </trkpt>
      <trkpt lat="46.48443" lon="5.46296">
        <ele>372.2</ele>
        <time>2022-07-21T08:14:09Z</time>
      </trkpt>
      <trkpt lat="46.48447" lon="5.4628">
        <ele>372.4</ele>
        <time>2022-07-21T08:14:11Z</time>
      </trkpt>
      <trkpt lat="46.48445" lon="5.46263">
        <ele>372.6</ele>
        <time>2022-07-21T08:14:13Z</time>
      </trkpt>
      <trkpt lat="46.48437" lon="5.46243">
        <ele>373.6</ele>
        <time>2022-07-21T08:14:16Z</time>
      </trkpt>
      <trkpt lat="46.48436" lon="5.46235">
        <ele>373.8</ele>
        <time>2022-07-21T08:14:17Z</time>
      </trkpt>
      <trkpt lat="46.48423" lon="5.46182">
        <ele>374.8</ele>
        <time>2022-07-21T08:14:24Z</time>
      </trkpt>
      <trkpt lat="46.48415" lon="5.46161">
        <ele>376</ele>
        <time>2022-07-21T08:14:27Z</time>
      </trkpt>
      <trkpt lat="46.48406" lon="5.46142">
        <ele>377.2</ele>
        <time>2022-07-21T08:14:30Z</time>
      </trkpt>
      <trkpt lat="46.48399" lon="5.46129">
        <ele>377.6</ele>
        <time>2022-07-21T08:14:32Z</time>
      </trkpt>
      <trkpt lat="46.48382" lon="5.46094">
        <ele>378.2</ele>
        <time>2022-07-21T08:14:37Z</time>
      </trkpt>
      <trkpt lat="46.48378" lon="5.46087">
        <ele>378.2</ele>
        <time>2022-07-21T08:14:38Z</time>
      </trkpt>
      <trkpt lat="46.48343" lon="5.46021">
        <ele>378.8</ele>
        <time>2022-07-21T08:14:47Z</time>
      </trkpt>
      <trkpt lat="46.48304" lon="5.45957">
        <ele>378.2</ele>
        <time>2022-07-21T08:14:56Z</time>
      </trkpt>
      <trkpt lat="46.48274" lon="5.45911">
        <ele>377.6</ele>
        <time>2022-07-21T08:15:02Z</time>
      </trkpt>
      <trkpt lat="46.48256" lon="5.45887">
        <ele>377</ele>
        <time>2022-07-21T08:15:05Z</time>
      </trkpt>
      <trkpt lat="46.48231" lon="5.45854">
        <ele>376.4</ele>
        <time>2022-07-21T08:15:09Z</time>
      </trkpt>
      <trkpt lat="46.48219" lon="5.45838">
        <ele>375.6</ele>
        <time>2022-07-21T08:15:11Z</time>
      </trkpt>
      <trkpt lat="46.48199" lon="5.45813">
        <ele>374.2</ele>
        <time>2022-07-21T08:15:14Z</time>
      </trkpt>
      <trkpt lat="46.4818" lon="5.4579">
        <ele>373</ele>
        <time>2022-07-21T08:15:17Z</time>
      </trkpt>
      <trkpt lat="46.4816" lon="5.45765">
        <ele>372.2</ele>
        <time>2022-07-21T08:15:20Z</time>
      </trkpt>
      <trkpt lat="46.48154" lon="5.45756">
        <ele>372</ele>
        <time>2022-07-21T08:15:21Z</time>
      </trkpt>
      <trkpt lat="46.48126" lon="5.45722">
        <ele>371</ele>
        <time>2022-07-21T08:15:25Z</time>
      </trkpt>
      <trkpt lat="46.48105" lon="5.45698">
        <ele>370.2</ele>
        <time>2022-07-21T08:15:28Z</time>
      </trkpt>
      <trkpt lat="46.4809" lon="5.45682">
        <ele>369.8</ele>
        <time>2022-07-21T08:15:30Z</time>
      </trkpt>
      <trkpt lat="46.4806" lon="5.45658">
        <ele>369.4</ele>
        <time>2022-07-21T08:15:34Z</time>
      </trkpt>
      <trkpt lat="46.48022" lon="5.45637">
        <ele>369</ele>
        <time>2022-07-21T08:15:39Z</time>
      </trkpt>
      <trkpt lat="46.48008" lon="5.45631">
        <ele>368.8</ele>
        <time>2022-07-21T08:15:41Z</time>
      </trkpt>
      <trkpt lat="46.47981" lon="5.45621">
        <ele>369.2</ele>
        <time>2022-07-21T08:15:45Z</time>
      </trkpt>
      <trkpt lat="46.47956" lon="5.45611">
        <ele>370.2</ele>
        <time>2022-07-21T08:15:49Z</time>
      </trkpt>
      <trkpt lat="46.47945" lon="5.45607">
        <ele>370.6</ele>
        <time>2022-07-21T08:15:51Z</time>
      </trkpt>
      <trkpt lat="46.47939" lon="5.45605">
        <ele>370.6</ele>
        <time>2022-07-21T08:15:52Z</time>
      </trkpt>
      <trkpt lat="46.47926" lon="5.456">
        <ele>371.4</ele>
        <time>2022-07-21T08:15:54Z</time>
      </trkpt>
      <trkpt lat="46.47914" lon="5.45594">
        <ele>372.2</ele>
        <time>2022-07-21T08:15:56Z</time>
      </trkpt>
      <trkpt lat="46.47908" lon="5.45592">
        <ele>372.4</ele>
        <time>2022-07-21T08:15:57Z</time>
      </trkpt>
      <trkpt lat="46.4787" lon="5.45575">
        <ele>373.6</ele>
        <time>2022-07-21T08:16:04Z</time>
      </trkpt>
      <trkpt lat="46.47859" lon="5.45572">
        <ele>374</ele>
        <time>2022-07-21T08:16:06Z</time>
      </trkpt>
      <trkpt lat="46.47844" lon="5.45568">
        <ele>375</ele>
        <time>2022-07-21T08:16:09Z</time>
      </trkpt>
      <trkpt lat="46.4782" lon="5.4556">
        <ele>375.6</ele>
        <time>2022-07-21T08:16:14Z</time>
      </trkpt>
      <trkpt lat="46.47809" lon="5.45557">
        <ele>376</ele>
        <time>2022-07-21T08:16:16Z</time>
      </trkpt>
      <trkpt lat="46.47777" lon="5.4555">
        <ele>376.6</ele>
        <time>2022-07-21T08:16:22Z</time>
      </trkpt>
      <trkpt lat="46.47755" lon="5.45541">
        <ele>376.6</ele>
        <time>2022-07-21T08:16:26Z</time>
      </trkpt>
      <trkpt lat="46.47745" lon="5.45533">
        <ele>376.4</ele>
        <time>2022-07-21T08:16:28Z</time>
      </trkpt>
      <trkpt lat="46.47712" lon="5.455">
        <ele>376.2</ele>
        <time>2022-07-21T08:16:35Z</time>
      </trkpt>
      <trkpt lat="46.47712" lon="5.45488">
        <ele>376.2</ele>
        <time>2022-07-21T08:16:37Z</time>
      </trkpt>
      <trkpt lat="46.47713" lon="5.45481">
        <ele>376.2</ele>
        <time>2022-07-21T08:16:38Z</time>
      </trkpt>
      <trkpt lat="46.47716" lon="5.45463">
        <ele>376.2</ele>
        <time>2022-07-21T08:16:40Z</time>
      </trkpt>
      <trkpt lat="46.47717" lon="5.45454">
        <ele>376.2</ele>
        <time>2022-07-21T08:16:41Z</time>
      </trkpt>
      <trkpt lat="46.47722" lon="5.4544">
        <ele>376.4</ele>
        <time>2022-07-21T08:16:43Z</time>
      </trkpt>
      <trkpt lat="46.47727" lon="5.45437">
        <ele>376.4</ele>
        <time>2022-07-21T08:16:44Z</time>
      </trkpt>
      <trkpt lat="46.47732" lon="5.45434">
        <ele>376.6</ele>
        <time>2022-07-21T08:16:45Z</time>
      </trkpt>
      <trkpt lat="46.47742" lon="5.45429">
        <ele>376.6</ele>
        <time>2022-07-21T08:16:47Z</time>
      </trkpt>
      <trkpt lat="46.47752" lon="5.45423">
        <ele>377</ele>
        <time>2022-07-21T08:16:49Z</time>
      </trkpt>
      <trkpt lat="46.47765" lon="5.45414">
        <ele>378</ele>
        <time>2022-07-21T08:16:52Z</time>
      </trkpt>
      <trkpt lat="46.47777" lon="5.45407">
        <ele>379.2</ele>
        <time>2022-07-21T08:16:55Z</time>
      </trkpt>
      <trkpt lat="46.47782" lon="5.45405">
        <ele>379.6</ele>
        <time>2022-07-21T08:16:56Z</time>
      </trkpt>
      <trkpt lat="46.4779" lon="5.45402">
        <ele>380.2</ele>
        <time>2022-07-21T08:16:58Z</time>
      </trkpt>
      <trkpt lat="46.47795" lon="5.45399">
        <ele>380.2</ele>
        <time>2022-07-21T08:16:59Z</time>
      </trkpt>
      <trkpt lat="46.4781" lon="5.45387">
        <ele>380.8</ele>
        <time>2022-07-21T08:17:02Z</time>
      </trkpt>
      <trkpt lat="46.47819" lon="5.45375">
        <ele>381.2</ele>
        <time>2022-07-21T08:17:04Z</time>
      </trkpt>
      <trkpt lat="46.47842" lon="5.45343">
        <ele>381.4</ele>
        <time>2022-07-21T08:17:09Z</time>
      </trkpt>
      <trkpt lat="46.47881" lon="5.45296">
        <ele>381.8</ele>
        <time>2022-07-21T08:17:17Z</time>
      </trkpt>
      <trkpt lat="46.47908" lon="5.45263">
        <ele>382.4</ele>
        <time>2022-07-21T08:17:23Z</time>
      </trkpt>
      <trkpt lat="46.47916" lon="5.45252">
        <ele>382.6</ele>
        <time>2022-07-21T08:17:25Z</time>
      </trkpt>
      <trkpt lat="46.4792" lon="5.45247">
        <ele>382.8</ele>
        <time>2022-07-21T08:17:26Z</time>
      </trkpt>
      <trkpt lat="46.47932" lon="5.45233">
        <ele>383.4</ele>
        <time>2022-07-21T08:17:29Z</time>
      </trkpt>
      <trkpt lat="46.4794" lon="5.45222">
        <ele>383.6</ele>
        <time>2022-07-21T08:17:31Z</time>
      </trkpt>
      <trkpt lat="46.47962" lon="5.45193">
        <ele>384.8</ele>
        <time>2022-07-21T08:17:37Z</time>
      </trkpt>
      <trkpt lat="46.47975" lon="5.45178">
        <ele>385.8</ele>
        <time>2022-07-21T08:17:41Z</time>
      </trkpt>
      <trkpt lat="46.47983" lon="5.45167">
        <ele>386.6</ele>
        <time>2022-07-21T08:17:44Z</time>
      </trkpt>
      <trkpt lat="46.47989" lon="5.45161">
        <ele>387</ele>
        <time>2022-07-21T08:17:46Z</time>
      </trkpt>
      <trkpt lat="46.48" lon="5.45148">
        <ele>388.2</ele>
        <time>2022-07-21T08:17:50Z</time>
      </trkpt>
      <trkpt lat="46.48011" lon="5.4513">
        <ele>389.6</ele>
        <time>2022-07-21T08:17:55Z</time>
      </trkpt>
      <trkpt lat="46.48017" lon="5.45117">
        <ele>390.4</ele>
        <time>2022-07-21T08:17:58Z</time>
      </trkpt>
      <trkpt lat="46.48019" lon="5.45113">
        <ele>390.6</ele>
        <time>2022-07-21T08:17:59Z</time>
      </trkpt>
      <trkpt lat="46.48023" lon="5.45096">
        <ele>391.8</ele>
        <time>2022-07-21T08:18:03Z</time>
      </trkpt>
      <trkpt lat="46.48025" lon="5.45082">
        <ele>392.6</ele>
        <time>2022-07-21T08:18:06Z</time>
      </trkpt>
      <trkpt lat="46.48025" lon="5.45078">
        <ele>393</ele>
        <time>2022-07-21T08:18:07Z</time>
      </trkpt>
      <trkpt lat="46.48025" lon="5.45059">
        <ele>394.2</ele>
        <time>2022-07-21T08:18:11Z</time>
      </trkpt>
      <trkpt lat="46.48024" lon="5.45045">
        <ele>394.8</ele>
        <time>2022-07-21T08:18:14Z</time>
      </trkpt>
      <trkpt lat="46.48023" lon="5.45036">
        <ele>395.6</ele>
        <time>2022-07-21T08:18:16Z</time>
      </trkpt>
      <trkpt lat="46.48018" lon="5.45008">
        <ele>396.6</ele>
        <time>2022-07-21T08:18:22Z</time>
      </trkpt>
      <trkpt lat="46.48012" lon="5.44982">
        <ele>397.8</ele>
        <time>2022-07-21T08:18:28Z</time>
      </trkpt>
      <trkpt lat="46.48005" lon="5.44962">
        <ele>398.4</ele>
        <time>2022-07-21T08:18:33Z</time>
      </trkpt>
      <trkpt lat="46.48003" lon="5.44958">
        <ele>399</ele>
        <time>2022-07-21T08:18:34Z</time>
      </trkpt>
      <trkpt lat="46.47993" lon="5.44938">
        <ele>399.8</ele>
        <time>2022-07-21T08:18:39Z</time>
      </trkpt>
      <trkpt lat="46.47991" lon="5.44934">
        <ele>400</ele>
        <time>2022-07-21T08:18:40Z</time>
      </trkpt>
      <trkpt lat="46.47979" lon="5.44918">
        <ele>401.2</ele>
        <time>2022-07-21T08:18:45Z</time>
      </trkpt>
      <trkpt lat="46.47974" lon="5.44912">
        <ele>401.4</ele>
        <time>2022-07-21T08:18:47Z</time>
      </trkpt>
      <trkpt lat="46.47967" lon="5.44905">
        <ele>402</ele>
        <time>2022-07-21T08:18:50Z</time>
      </trkpt>
      <trkpt lat="46.47953" lon="5.44893">
        <ele>403.2</ele>
        <time>2022-07-21T08:18:55Z</time>
      </trkpt>
      <trkpt lat="46.47947" lon="5.44888">
        <ele>403.4</ele>
        <time>2022-07-21T08:18:57Z</time>
      </trkpt>
      <trkpt lat="46.47927" lon="5.44873">
        <ele>404.4</ele>
        <time>2022-07-21T08:19:04Z</time>
      </trkpt>
      <trkpt lat="46.47912" lon="5.44862">
        <ele>405.4</ele>
        <time>2022-07-21T08:19:09Z</time>
      </trkpt>
      <trkpt lat="46.47901" lon="5.44852">
        <ele>406.4</ele>
        <time>2022-07-21T08:19:13Z</time>
      </trkpt>
      <trkpt lat="46.47898" lon="5.4485">
        <ele>406.6</ele>
        <time>2022-07-21T08:19:14Z</time>
      </trkpt>
      <trkpt lat="46.47886" lon="5.4484">
        <ele>407.4</ele>
        <time>2022-07-21T08:19:18Z</time>
      </trkpt>
      <trkpt lat="46.47872" lon="5.44828">
        <ele>408.4</ele>
        <time>2022-07-21T08:19:23Z</time>
      </trkpt>
      <trkpt lat="46.47861" lon="5.44818">
        <ele>409.6</ele>
        <time>2022-07-21T08:19:27Z</time>
      </trkpt>
      <trkpt lat="46.47853" lon="5.4481">
        <ele>410</ele>
        <time>2022-07-21T08:19:30Z</time>
      </trkpt>
      <trkpt lat="46.47841" lon="5.448">
        <ele>411</ele>
        <time>2022-07-21T08:19:34Z</time>
      </trkpt>
      <trkpt lat="46.47829" lon="5.44788">
        <ele>411.8</ele>
        <time>2022-07-21T08:19:38Z</time>
      </trkpt>
      <trkpt lat="46.47816" lon="5.44778">
        <ele>413</ele>
        <time>2022-07-21T08:19:42Z</time>
      </trkpt>
      <trkpt lat="46.47811" lon="5.44773">
        <ele>413.4</ele>
        <time>2022-07-21T08:19:44Z</time>
      </trkpt>
      <trkpt lat="46.478" lon="5.44762">
        <ele>414.2</ele>
        <time>2022-07-21T08:19:48Z</time>
      </trkpt>
      <trkpt lat="46.47793" lon="5.44755">
        <ele>414.6</ele>
        <time>2022-07-21T08:19:50Z</time>
      </trkpt>
      <trkpt lat="46.47783" lon="5.44745">
        <ele>415.4</ele>
        <time>2022-07-21T08:19:53Z</time>
      </trkpt>
      <trkpt lat="46.47772" lon="5.44734">
        <ele>416.4</ele>
        <time>2022-07-21T08:19:56Z</time>
      </trkpt>
      <trkpt lat="46.4777" lon="5.44732">
        <ele>416.6</ele>
        <time>2022-07-21T08:19:57Z</time>
      </trkpt>
      <trkpt lat="46.47757" lon="5.44719">
        <ele>417.6</ele>
        <time>2022-07-21T08:20:01Z</time>
      </trkpt>
      <trkpt lat="46.47754" lon="5.44715">
        <ele>417.8</ele>
        <time>2022-07-21T08:20:02Z</time>
      </trkpt>
      <trkpt lat="46.47742" lon="5.44703">
        <ele>418.8</ele>
        <time>2022-07-21T08:20:06Z</time>
      </trkpt>
      <trkpt lat="46.47739" lon="5.447">
        <ele>419.2</ele>
        <time>2022-07-21T08:20:07Z</time>
      </trkpt>
      <trkpt lat="46.47728" lon="5.44687">
        <ele>420.2</ele>
        <time>2022-07-21T08:20:11Z</time>
      </trkpt>
      <trkpt lat="46.4772" lon="5.44677">
        <ele>420.8</ele>
        <time>2022-07-21T08:20:14Z</time>
      </trkpt>
      <trkpt lat="46.47715" lon="5.44671">
        <ele>421.2</ele>
        <time>2022-07-21T08:20:16Z</time>
      </trkpt>
      <trkpt lat="46.47712" lon="5.44667">
        <ele>421.4</ele>
        <time>2022-07-21T08:20:17Z</time>
      </trkpt>
      <trkpt lat="46.47704" lon="5.44658">
        <ele>422</ele>
        <time>2022-07-21T08:20:20Z</time>
      </trkpt>
      <trkpt lat="46.47698" lon="5.44651">
        <ele>422.4</ele>
        <time>2022-07-21T08:20:22Z</time>
      </trkpt>
      <trkpt lat="46.47684" lon="5.44636">
        <ele>423.4</ele>
        <time>2022-07-21T08:20:27Z</time>
      </trkpt>
      <trkpt lat="46.47679" lon="5.4463">
        <ele>423.8</ele>
        <time>2022-07-21T08:20:29Z</time>
      </trkpt>
      <trkpt lat="46.47674" lon="5.44624">
        <ele>424.2</ele>
        <time>2022-07-21T08:20:31Z</time>
      </trkpt>
      <trkpt lat="46.47661" lon="5.44609">
        <ele>425.4</ele>
        <time>2022-07-21T08:20:36Z</time>
      </trkpt>
      <trkpt lat="46.47656" lon="5.44604">
        <ele>425.6</ele>
        <time>2022-07-21T08:20:38Z</time>
      </trkpt>
      <trkpt lat="46.47647" lon="5.44595">
        <ele>426.4</ele>
        <time>2022-07-21T08:20:41Z</time>
      </trkpt>
      <trkpt lat="46.47634" lon="5.4458">
        <ele>427.2</ele>
        <time>2022-07-21T08:20:46Z</time>
      </trkpt>
      <trkpt lat="46.47631" lon="5.44577">
        <ele>427.4</ele>
        <time>2022-07-21T08:20:47Z</time>
      </trkpt>
      <trkpt lat="46.47619" lon="5.44561">
        <ele>428.2</ele>
        <time>2022-07-21T08:20:52Z</time>
      </trkpt>
      <trkpt lat="46.47613" lon="5.44555">
        <ele>428.6</ele>
        <time>2022-07-21T08:20:54Z</time>
      </trkpt>
      <trkpt lat="46.47603" lon="5.44543">
        <ele>429.6</ele>
        <time>2022-07-21T08:20:58Z</time>
      </trkpt>
      <trkpt lat="46.476" lon="5.44539">
        <ele>429.6</ele>
        <time>2022-07-21T08:20:59Z</time>
      </trkpt>
      <trkpt lat="46.4759" lon="5.44527">
        <ele>430.6</ele>
        <time>2022-07-21T08:21:03Z</time>
      </trkpt>
      <trkpt lat="46.47579" lon="5.44515">
        <ele>431.6</ele>
        <time>2022-07-21T08:21:07Z</time>
      </trkpt>
      <trkpt lat="46.47568" lon="5.44503">
        <ele>432.6</ele>
        <time>2022-07-21T08:21:11Z</time>
      </trkpt>
      <trkpt lat="46.47566" lon="5.445">
        <ele>433</ele>
        <time>2022-07-21T08:21:12Z</time>
      </trkpt>
      <trkpt lat="46.47553" lon="5.44486">
        <ele>434</ele>
        <time>2022-07-21T08:21:17Z</time>
      </trkpt>
      <trkpt lat="46.4754" lon="5.4447">
        <ele>434.8</ele>
        <time>2022-07-21T08:21:22Z</time>
      </trkpt>
      <trkpt lat="46.47538" lon="5.44466">
        <ele>435.2</ele>
        <time>2022-07-21T08:21:23Z</time>
      </trkpt>
      <trkpt lat="46.47524" lon="5.44451">
        <ele>436.2</ele>
        <time>2022-07-21T08:21:28Z</time>
      </trkpt>
      <trkpt lat="46.47511" lon="5.44438">
        <ele>437.4</ele>
        <time>2022-07-21T08:21:33Z</time>
      </trkpt>
      <trkpt lat="46.47505" lon="5.44433">
        <ele>437.8</ele>
        <time>2022-07-21T08:21:35Z</time>
      </trkpt>
      <trkpt lat="46.47493" lon="5.44424">
        <ele>438.4</ele>
        <time>2022-07-21T08:21:39Z</time>
      </trkpt>
      <trkpt lat="46.4748" lon="5.44416">
        <ele>439.6</ele>
        <time>2022-07-21T08:21:43Z</time>
      </trkpt>
      <trkpt lat="46.47476" lon="5.44413">
        <ele>439.8</ele>
        <time>2022-07-21T08:21:44Z</time>
      </trkpt>
      <trkpt lat="46.47472" lon="5.44404">
        <ele>440.2</ele>
        <time>2022-07-21T08:21:47Z</time>
      </trkpt>
      <trkpt lat="46.47482" lon="5.44401">
        <ele>440.6</ele>
        <time>2022-07-21T08:21:50Z</time>
      </trkpt>
      <trkpt lat="46.47485" lon="5.44403">
        <ele>441</ele>
        <time>2022-07-21T08:21:51Z</time>
      </trkpt>
      <trkpt lat="46.47494" lon="5.44412">
        <ele>441.6</ele>
        <time>2022-07-21T08:21:54Z</time>
      </trkpt>
      <trkpt lat="46.47497" lon="5.44415">
        <ele>441.8</ele>
        <time>2022-07-21T08:21:55Z</time>
      </trkpt>
      <trkpt lat="46.4751" lon="5.44426">
        <ele>443</ele>
        <time>2022-07-21T08:21:59Z</time>
      </trkpt>
      <trkpt lat="46.47517" lon="5.44431">
        <ele>443.4</ele>
        <time>2022-07-21T08:22:01Z</time>
      </trkpt>
      <trkpt lat="46.47547" lon="5.44451">
        <ele>444.2</ele>
        <time>2022-07-21T08:22:09Z</time>
      </trkpt>
      <trkpt lat="46.47561" lon="5.4446">
        <ele>445</ele>
        <time>2022-07-21T08:22:13Z</time>
      </trkpt>
      <trkpt lat="46.47567" lon="5.44464">
        <ele>445.2</ele>
        <time>2022-07-21T08:22:15Z</time>
      </trkpt>
      <trkpt lat="46.47571" lon="5.44466">
        <ele>445.4</ele>
        <time>2022-07-21T08:22:16Z</time>
      </trkpt>
      <trkpt lat="46.47581" lon="5.44473">
        <ele>446.2</ele>
        <time>2022-07-21T08:22:19Z</time>
      </trkpt>
      <trkpt lat="46.47593" lon="5.44481">
        <ele>447.4</ele>
        <time>2022-07-21T08:22:23Z</time>
      </trkpt>
      <trkpt lat="46.47596" lon="5.44483">
        <ele>447.4</ele>
        <time>2022-07-21T08:22:24Z</time>
      </trkpt>
      <trkpt lat="46.47609" lon="5.44491">
        <ele>448.2</ele>
        <time>2022-07-21T08:22:28Z</time>
      </trkpt>
      <trkpt lat="46.47621" lon="5.445">
        <ele>448.8</ele>
        <time>2022-07-21T08:22:32Z</time>
      </trkpt>
      <trkpt lat="46.47633" lon="5.44509">
        <ele>449.4</ele>
        <time>2022-07-21T08:22:36Z</time>
      </trkpt>
      <trkpt lat="46.47652" lon="5.44522">
        <ele>450.6</ele>
        <time>2022-07-21T08:22:42Z</time>
      </trkpt>
      <trkpt lat="46.47667" lon="5.44534">
        <ele>451.6</ele>
        <time>2022-07-21T08:22:47Z</time>
      </trkpt>
      <trkpt lat="46.4768" lon="5.44543">
        <ele>452.6</ele>
        <time>2022-07-21T08:22:51Z</time>
      </trkpt>
      <trkpt lat="46.47687" lon="5.44547">
        <ele>452.8</ele>
        <time>2022-07-21T08:22:53Z</time>
      </trkpt>
      <trkpt lat="46.47708" lon="5.44561">
        <ele>453.8</ele>
        <time>2022-07-21T08:23:00Z</time>
      </trkpt>
      <trkpt lat="46.47715" lon="5.44566">
        <ele>454.6</ele>
        <time>2022-07-21T08:23:02Z</time>
      </trkpt>
      <trkpt lat="46.47718" lon="5.44568">
        <ele>454.6</ele>
        <time>2022-07-21T08:23:03Z</time>
      </trkpt>
      <trkpt lat="46.47733" lon="5.44578">
        <ele>455.8</ele>
        <time>2022-07-21T08:23:08Z</time>
      </trkpt>
      <trkpt lat="46.47739" lon="5.44583">
        <ele>456.4</ele>
        <time>2022-07-21T08:23:10Z</time>
      </trkpt>
      <trkpt lat="46.47746" lon="5.44587">
        <ele>457</ele>
        <time>2022-07-21T08:23:12Z</time>
      </trkpt>
      <trkpt lat="46.47758" lon="5.44595">
        <ele>458</ele>
        <time>2022-07-21T08:23:16Z</time>
      </trkpt>
      <trkpt lat="46.47767" lon="5.44602">
        <ele>458.2</ele>
        <time>2022-07-21T08:23:19Z</time>
      </trkpt>
      <trkpt lat="46.47782" lon="5.44613">
        <ele>459.2</ele>
        <time>2022-07-21T08:23:24Z</time>
      </trkpt>
      <trkpt lat="46.47788" lon="5.44618">
        <ele>459.4</ele>
        <time>2022-07-21T08:23:26Z</time>
      </trkpt>
      <trkpt lat="46.47799" lon="5.44626">
        <ele>460.4</ele>
        <time>2022-07-21T08:23:30Z</time>
      </trkpt>
      <trkpt lat="46.47808" lon="5.44632">
        <ele>461.2</ele>
        <time>2022-07-21T08:23:33Z</time>
      </trkpt>
      <trkpt lat="46.47811" lon="5.44633">
        <ele>461.4</ele>
        <time>2022-07-21T08:23:34Z</time>
      </trkpt>
      <trkpt lat="46.47826" lon="5.44642">
        <ele>462.6</ele>
        <time>2022-07-21T08:23:39Z</time>
      </trkpt>
      <trkpt lat="46.47835" lon="5.44646">
        <ele>463.2</ele>
        <time>2022-07-21T08:23:42Z</time>
      </trkpt>
      <trkpt lat="46.47842" lon="5.4465">
        <ele>463.6</ele>
        <time>2022-07-21T08:23:44Z</time>
      </trkpt>
      <trkpt lat="46.4785" lon="5.44655">
        <ele>464.8</ele>
        <time>2022-07-21T08:23:47Z</time>
      </trkpt>
      <trkpt lat="46.47866" lon="5.44663">
        <ele>465.6</ele>
        <time>2022-07-21T08:23:51Z</time>
      </trkpt>
      <trkpt lat="46.4787" lon="5.44664">
        <ele>465.8</ele>
        <time>2022-07-21T08:23:52Z</time>
      </trkpt>
      <trkpt lat="46.47883" lon="5.4467">
        <ele>466.8</ele>
        <time>2022-07-21T08:23:57Z</time>
      </trkpt>
      <trkpt lat="46.47895" lon="5.44676">
        <ele>467.4</ele>
        <time>2022-07-21T08:24:00Z</time>
      </trkpt>
      <trkpt lat="46.47904" lon="5.44679">
        <ele>468</ele>
        <time>2022-07-21T08:24:03Z</time>
      </trkpt>
      <trkpt lat="46.4791" lon="5.4468">
        <ele>468.4</ele>
        <time>2022-07-21T08:24:05Z</time>
      </trkpt>
      <trkpt lat="46.47915" lon="5.44681">
        <ele>468.6</ele>
        <time>2022-07-21T08:24:07Z</time>
      </trkpt>
      <trkpt lat="46.47919" lon="5.44683">
        <ele>469</ele>
        <time>2022-07-21T08:24:09Z</time>
      </trkpt>
      <trkpt lat="46.47921" lon="5.44685">
        <ele>469</ele>
        <time>2022-07-21T08:24:10Z</time>
      </trkpt>
      <trkpt lat="46.47924" lon="5.44686">
        <ele>469.2</ele>
        <time>2022-07-21T08:24:11Z</time>
      </trkpt>
      <trkpt lat="46.4793" lon="5.44689">
        <ele>469.4</ele>
        <time>2022-07-21T08:24:13Z</time>
      </trkpt>
      <trkpt lat="46.47937" lon="5.44692">
        <ele>470.4</ele>
        <time>2022-07-21T08:24:15Z</time>
      </trkpt>
      <trkpt lat="46.47953" lon="5.44697">
        <ele>471.4</ele>
        <time>2022-07-21T08:24:19Z</time>
      </trkpt>
      <trkpt lat="46.47956" lon="5.44698">
        <ele>471.6</ele>
        <time>2022-07-21T08:24:20Z</time>
      </trkpt>
      <trkpt lat="46.47973" lon="5.44704">
        <ele>472.6</ele>
        <time>2022-07-21T08:24:25Z</time>
      </trkpt>
      <trkpt lat="46.47977" lon="5.44705">
        <ele>472.8</ele>
        <time>2022-07-21T08:24:26Z</time>
      </trkpt>
      <trkpt lat="46.47986" lon="5.44708">
        <ele>473.6</ele>
        <time>2022-07-21T08:24:29Z</time>
      </trkpt>
      <trkpt lat="46.47997" lon="5.44709">
        <ele>474.6</ele>
        <time>2022-07-21T08:24:32Z</time>
      </trkpt>
      <trkpt lat="46.48001" lon="5.44709">
        <ele>474.8</ele>
        <time>2022-07-21T08:24:33Z</time>
      </trkpt>
      <trkpt lat="46.48017" lon="5.44704">
        <ele>476</ele>
        <time>2022-07-21T08:24:38Z</time>
      </trkpt>
      <trkpt lat="46.48033" lon="5.44686">
        <ele>477.2</ele>
        <time>2022-07-21T08:24:43Z</time>
      </trkpt>
      <trkpt lat="46.48035" lon="5.44684">
        <ele>477.4</ele>
        <time>2022-07-21T08:24:44Z</time>
      </trkpt>
      <trkpt lat="46.4804" lon="5.44673">
        <ele>478.2</ele>
        <time>2022-07-21T08:24:47Z</time>
      </trkpt>
      <trkpt lat="46.48042" lon="5.44663">
        <ele>479</ele>
        <time>2022-07-21T08:24:50Z</time>
      </trkpt>
      <trkpt lat="46.48043" lon="5.4466">
        <ele>479.2</ele>
        <time>2022-07-21T08:24:51Z</time>
      </trkpt>
      <trkpt lat="46.48047" lon="5.44643">
        <ele>480.2</ele>
        <time>2022-07-21T08:24:56Z</time>
      </trkpt>
      <trkpt lat="46.48048" lon="5.44639">
        <ele>480.4</ele>
        <time>2022-07-21T08:24:57Z</time>
      </trkpt>
      <trkpt lat="46.4805" lon="5.44622">
        <ele>481.6</ele>
        <time>2022-07-21T08:25:01Z</time>
      </trkpt>
      <trkpt lat="46.48057" lon="5.44595">
        <ele>482.6</ele>
        <time>2022-07-21T08:25:07Z</time>
      </trkpt>
      <trkpt lat="46.48057" lon="5.44585">
        <ele>483.4</ele>
        <time>2022-07-21T08:25:09Z</time>
      </trkpt>
      <trkpt lat="46.48057" lon="5.44581">
        <ele>483.6</ele>
        <time>2022-07-21T08:25:10Z</time>
      </trkpt>
      <trkpt lat="46.48052" lon="5.44563">
        <ele>484</ele>
        <time>2022-07-21T08:25:15Z</time>
      </trkpt>
      <trkpt lat="46.48039" lon="5.44522">
        <ele>483.2</ele>
        <time>2022-07-21T08:25:22Z</time>
      </trkpt>
      <trkpt lat="46.48035" lon="5.44497">
        <ele>482.8</ele>
        <time>2022-07-21T08:25:25Z</time>
      </trkpt>
      <trkpt lat="46.48033" lon="5.44487">
        <ele>482.4</ele>
        <time>2022-07-21T08:25:26Z</time>
      </trkpt>
      <trkpt lat="46.48021" lon="5.44435">
        <ele>481.4</ele>
        <time>2022-07-21T08:25:31Z</time>
      </trkpt>
      <trkpt lat="46.48019" lon="5.44426">
        <ele>481.4</ele>
        <time>2022-07-21T08:25:32Z</time>
      </trkpt>
      <trkpt lat="46.48013" lon="5.44404">
        <ele>481.2</ele>
        <time>2022-07-21T08:25:35Z</time>
      </trkpt>
      <trkpt lat="46.48001" lon="5.44363">
        <ele>481.2</ele>
        <time>2022-07-21T08:25:40Z</time>
      </trkpt>
      <trkpt lat="46.47988" lon="5.44327">
        <ele>481.8</ele>
        <time>2022-07-21T08:25:44Z</time>
      </trkpt>
      <trkpt lat="46.47971" lon="5.4428">
        <ele>481.6</ele>
        <time>2022-07-21T08:25:49Z</time>
      </trkpt>
      <trkpt lat="46.4796" lon="5.44237">
        <ele>480.2</ele>
        <time>2022-07-21T08:25:53Z</time>
      </trkpt>
      <trkpt lat="46.47953" lon="5.44214">
        <ele>479</ele>
        <time>2022-07-21T08:25:55Z</time>
      </trkpt>
      <trkpt lat="46.47948" lon="5.4419">
        <ele>477.6</ele>
        <time>2022-07-21T08:25:57Z</time>
      </trkpt>
      <trkpt lat="46.47945" lon="5.44176">
        <ele>476.8</ele>
        <time>2022-07-21T08:25:58Z</time>
      </trkpt>
      <trkpt lat="46.47944" lon="5.44161">
        <ele>476.2</ele>
        <time>2022-07-21T08:25:59Z</time>
      </trkpt>
      <trkpt lat="46.47941" lon="5.4413">
        <ele>474.6</ele>
        <time>2022-07-21T08:26:01Z</time>
      </trkpt>
      <trkpt lat="46.47942" lon="5.4405">
        <ele>473.6</ele>
        <time>2022-07-21T08:26:08Z</time>
      </trkpt>
      <trkpt lat="46.47943" lon="5.44002">
        <ele>474.2</ele>
        <time>2022-07-21T08:26:13Z</time>
      </trkpt>
      <trkpt lat="46.47945" lon="5.43939">
        <ele>475.6</ele>
        <time>2022-07-21T08:26:20Z</time>
      </trkpt>
      <trkpt lat="46.47946" lon="5.43873">
        <ele>476.4</ele>
        <time>2022-07-21T08:26:28Z</time>
      </trkpt>
      <trkpt lat="46.47946" lon="5.43866">
        <ele>476.6</ele>
        <time>2022-07-21T08:26:29Z</time>
      </trkpt>
      <trkpt lat="46.47945" lon="5.43848">
        <ele>476.6</ele>
        <time>2022-07-21T08:26:31Z</time>
      </trkpt>
      <trkpt lat="46.47945" lon="5.43804">
        <ele>477.2</ele>
        <time>2022-07-21T08:26:36Z</time>
      </trkpt>
      <trkpt lat="46.47945" lon="5.43745">
        <ele>477.6</ele>
        <time>2022-07-21T08:26:43Z</time>
      </trkpt>
      <trkpt lat="46.47944" lon="5.43728">
        <ele>478</ele>
        <time>2022-07-21T08:26:45Z</time>
      </trkpt>
      <trkpt lat="46.47942" lon="5.43683">
        <ele>478.6</ele>
        <time>2022-07-21T08:26:51Z</time>
      </trkpt>
      <trkpt lat="46.4794" lon="5.4367">
        <ele>479.4</ele>
        <time>2022-07-21T08:26:53Z</time>
      </trkpt>
      <trkpt lat="46.47938" lon="5.43657">
        <ele>479.8</ele>
        <time>2022-07-21T08:26:55Z</time>
      </trkpt>
      <trkpt lat="46.47936" lon="5.4364">
        <ele>480.8</ele>
        <time>2022-07-21T08:26:58Z</time>
      </trkpt>
      <trkpt lat="46.47935" lon="5.43634">
        <ele>481</ele>
        <time>2022-07-21T08:26:59Z</time>
      </trkpt>
      <trkpt lat="46.47933" lon="5.43619">
        <ele>481.8</ele>
        <time>2022-07-21T08:27:02Z</time>
      </trkpt>
      <trkpt lat="46.47932" lon="5.43603">
        <ele>483</ele>
        <time>2022-07-21T08:27:05Z</time>
      </trkpt>
      <trkpt lat="46.47932" lon="5.43598">
        <ele>483.4</ele>
        <time>2022-07-21T08:27:06Z</time>
      </trkpt>
      <trkpt lat="46.47932" lon="5.43589">
        <ele>484</ele>
        <time>2022-07-21T08:27:08Z</time>
      </trkpt>
      <trkpt lat="46.47934" lon="5.43575">
        <ele>484.8</ele>
        <time>2022-07-21T08:27:11Z</time>
      </trkpt>
      <trkpt lat="46.47935" lon="5.43569">
        <ele>485.2</ele>
        <time>2022-07-21T08:27:12Z</time>
      </trkpt>
      <trkpt lat="46.47933" lon="5.43547">
        <ele>486.2</ele>
        <time>2022-07-21T08:27:16Z</time>
      </trkpt>
      <trkpt lat="46.47933" lon="5.43541">
        <ele>486.6</ele>
        <time>2022-07-21T08:27:17Z</time>
      </trkpt>
      <trkpt lat="46.4793" lon="5.43515">
        <ele>487.4</ele>
        <time>2022-07-21T08:27:21Z</time>
      </trkpt>
      <trkpt lat="46.4793" lon="5.43508">
        <ele>487.6</ele>
        <time>2022-07-21T08:27:22Z</time>
      </trkpt>
      <trkpt lat="46.4793" lon="5.43497">
        <ele>487.8</ele>
        <time>2022-07-21T08:27:24Z</time>
      </trkpt>
      <trkpt lat="46.47927" lon="5.43458">
        <ele>488.4</ele>
        <time>2022-07-21T08:27:29Z</time>
      </trkpt>
      <trkpt lat="46.47928" lon="5.43453">
        <ele>488.6</ele>
        <time>2022-07-21T08:27:30Z</time>
      </trkpt>
      <trkpt lat="46.47932" lon="5.43427">
        <ele>488.8</ele>
        <time>2022-07-21T08:27:34Z</time>
      </trkpt>
      <trkpt lat="46.47932" lon="5.43418">
        <ele>488.8</ele>
        <time>2022-07-21T08:27:35Z</time>
      </trkpt>
      <trkpt lat="46.47933" lon="5.43392">
        <ele>488.8</ele>
        <time>2022-07-21T08:27:38Z</time>
      </trkpt>
      <trkpt lat="46.47933" lon="5.43384">
        <ele>488.8</ele>
        <time>2022-07-21T08:27:39Z</time>
      </trkpt>
      <trkpt lat="46.4793" lon="5.43367">
        <ele>488.8</ele>
        <time>2022-07-21T08:27:41Z</time>
      </trkpt>
      <trkpt lat="46.47928" lon="5.43359">
        <ele>488.6</ele>
        <time>2022-07-21T08:27:42Z</time>
      </trkpt>
      <trkpt lat="46.47925" lon="5.43351">
        <ele>488.6</ele>
        <time>2022-07-21T08:27:43Z</time>
      </trkpt>
      <trkpt lat="46.47919" lon="5.43338">
        <ele>488.6</ele>
        <time>2022-07-21T08:27:45Z</time>
      </trkpt>
      <trkpt lat="46.47911" lon="5.43327">
        <ele>488.6</ele>
        <time>2022-07-21T08:27:47Z</time>
      </trkpt>
      <trkpt lat="46.47888" lon="5.43297">
        <ele>489</ele>
        <time>2022-07-21T08:27:53Z</time>
      </trkpt>
      <trkpt lat="46.47886" lon="5.43292">
        <ele>489.4</ele>
        <time>2022-07-21T08:27:54Z</time>
      </trkpt>
      <trkpt lat="46.47883" lon="5.43287">
        <ele>489.6</ele>
        <time>2022-07-21T08:27:55Z</time>
      </trkpt>
      <trkpt lat="46.47876" lon="5.43266">
        <ele>490.8</ele>
        <time>2022-07-21T08:27:59Z</time>
      </trkpt>
      <trkpt lat="46.47875" lon="5.43261">
        <ele>491</ele>
        <time>2022-07-21T08:28:00Z</time>
      </trkpt>
      <trkpt lat="46.47869" lon="5.43234">
        <ele>492.4</ele>
        <time>2022-07-21T08:28:05Z</time>
      </trkpt>
      <trkpt lat="46.47864" lon="5.43212">
        <ele>493.4</ele>
        <time>2022-07-21T08:28:09Z</time>
      </trkpt>
      <trkpt lat="46.47863" lon="5.43207">
        <ele>493.6</ele>
        <time>2022-07-21T08:28:10Z</time>
      </trkpt>
      <trkpt lat="46.47859" lon="5.43197">
        <ele>494.4</ele>
        <time>2022-07-21T08:28:12Z</time>
      </trkpt>
      <trkpt lat="46.47847" lon="5.43169">
        <ele>495.6</ele>
        <time>2022-07-21T08:28:18Z</time>
      </trkpt>
      <trkpt lat="46.47845" lon="5.43165">
        <ele>496.2</ele>
        <time>2022-07-21T08:28:19Z</time>
      </trkpt>
      <trkpt lat="46.47837" lon="5.43152">
        <ele>496.8</ele>
        <time>2022-07-21T08:28:22Z</time>
      </trkpt>
      <trkpt lat="46.47818" lon="5.43125">
        <ele>498</ele>
        <time>2022-07-21T08:28:29Z</time>
      </trkpt>
      <trkpt lat="46.47815" lon="5.43122">
        <ele>498.2</ele>
        <time>2022-07-21T08:28:30Z</time>
      </trkpt>
      <trkpt lat="46.47804" lon="5.43109">
        <ele>499</ele>
        <time>2022-07-21T08:28:34Z</time>
      </trkpt>
      <trkpt lat="46.47792" lon="5.43098">
        <ele>500.2</ele>
        <time>2022-07-21T08:28:38Z</time>
      </trkpt>
      <trkpt lat="46.47789" lon="5.43095">
        <ele>500.4</ele>
        <time>2022-07-21T08:28:39Z</time>
      </trkpt>
      <trkpt lat="46.47776" lon="5.43083">
        <ele>501.4</ele>
        <time>2022-07-21T08:28:43Z</time>
      </trkpt>
      <trkpt lat="46.47769" lon="5.43069">
        <ele>502.2</ele>
        <time>2022-07-21T08:28:46Z</time>
      </trkpt>
      <trkpt lat="46.47767" lon="5.43064">
        <ele>502.4</ele>
        <time>2022-07-21T08:28:47Z</time>
      </trkpt>
      <trkpt lat="46.47767" lon="5.43043">
        <ele>503.2</ele>
        <time>2022-07-21T08:28:51Z</time>
      </trkpt>
      <trkpt lat="46.47768" lon="5.43032">
        <ele>503.6</ele>
        <time>2022-07-21T08:28:53Z</time>
      </trkpt>
      <trkpt lat="46.47771" lon="5.43007">
        <ele>504.8</ele>
        <time>2022-07-21T08:28:58Z</time>
      </trkpt>
      <trkpt lat="46.4777" lon="5.43002">
        <ele>505.4</ele>
        <time>2022-07-21T08:28:59Z</time>
      </trkpt>
      <trkpt lat="46.47769" lon="5.42986">
        <ele>505.8</ele>
        <time>2022-07-21T08:29:02Z</time>
      </trkpt>
      <trkpt lat="46.47763" lon="5.42967">
        <ele>506.8</ele>
        <time>2022-07-21T08:29:06Z</time>
      </trkpt>
      <trkpt lat="46.47761" lon="5.42963">
        <ele>506.8</ele>
        <time>2022-07-21T08:29:07Z</time>
      </trkpt>
      <trkpt lat="46.4775" lon="5.42942">
        <ele>508</ele>
        <time>2022-07-21T08:29:12Z</time>
      </trkpt>
      <trkpt lat="46.47748" lon="5.42938">
        <ele>508.4</ele>
        <time>2022-07-21T08:29:13Z</time>
      </trkpt>
      <trkpt lat="46.47736" lon="5.42925">
        <ele>509.2</ele>
        <time>2022-07-21T08:29:17Z</time>
      </trkpt>
      <trkpt lat="46.47726" lon="5.42918">
        <ele>509.6</ele>
        <time>2022-07-21T08:29:20Z</time>
      </trkpt>
      <trkpt lat="46.47714" lon="5.42916">
        <ele>510.2</ele>
        <time>2022-07-21T08:29:23Z</time>
      </trkpt>
      <trkpt lat="46.47699" lon="5.42916">
        <ele>511</ele>
        <time>2022-07-21T08:29:27Z</time>
      </trkpt>
      <trkpt lat="46.47691" lon="5.42917">
        <ele>511.6</ele>
        <time>2022-07-21T08:29:29Z</time>
      </trkpt>
      <trkpt lat="46.47676" lon="5.42917">
        <ele>512.8</ele>
        <time>2022-07-21T08:29:33Z</time>
      </trkpt>
      <trkpt lat="46.47669" lon="5.42916">
        <ele>513.4</ele>
        <time>2022-07-21T08:29:35Z</time>
      </trkpt>
      <trkpt lat="46.47658" lon="5.42916">
        <ele>514</ele>
        <time>2022-07-21T08:29:38Z</time>
      </trkpt>
      <trkpt lat="46.47648" lon="5.42917">
        <ele>514.6</ele>
        <time>2022-07-21T08:29:41Z</time>
      </trkpt>
      <trkpt lat="46.47644" lon="5.42917">
        <ele>515</ele>
        <time>2022-07-21T08:29:42Z</time>
      </trkpt>
      <trkpt lat="46.47633" lon="5.42916">
        <ele>516</ele>
        <time>2022-07-21T08:29:45Z</time>
      </trkpt>
      <trkpt lat="46.47626" lon="5.42913">
        <ele>516.4</ele>
        <time>2022-07-21T08:29:47Z</time>
      </trkpt>
      <trkpt lat="46.47617" lon="5.42899">
        <ele>517.2</ele>
        <time>2022-07-21T08:29:51Z</time>
      </trkpt>
      <trkpt lat="46.47621" lon="5.4287">
        <ele>518.2</ele>
        <time>2022-07-21T08:29:56Z</time>
      </trkpt>
      <trkpt lat="46.47624" lon="5.42866">
        <ele>518.4</ele>
        <time>2022-07-21T08:29:57Z</time>
      </trkpt>
      <trkpt lat="46.47634" lon="5.42849">
        <ele>519.6</ele>
        <time>2022-07-21T08:30:01Z</time>
      </trkpt>
      <trkpt lat="46.47637" lon="5.42845">
        <ele>519.6</ele>
        <time>2022-07-21T08:30:02Z</time>
      </trkpt>
      <trkpt lat="46.47648" lon="5.4283">
        <ele>520.4</ele>
        <time>2022-07-21T08:30:06Z</time>
      </trkpt>
      <trkpt lat="46.47666" lon="5.42809">
        <ele>521.4</ele>
        <time>2022-07-21T08:30:12Z</time>
      </trkpt>
      <trkpt lat="46.47668" lon="5.42807">
        <ele>521.8</ele>
        <time>2022-07-21T08:30:13Z</time>
      </trkpt>
      <trkpt lat="46.47678" lon="5.42796">
        <ele>522.4</ele>
        <time>2022-07-21T08:30:17Z</time>
      </trkpt>
      <trkpt lat="46.4769" lon="5.42788">
        <ele>522.8</ele>
        <time>2022-07-21T08:30:20Z</time>
      </trkpt>
      <trkpt lat="46.47697" lon="5.42786">
        <ele>523.4</ele>
        <time>2022-07-21T08:30:22Z</time>
      </trkpt>
      <trkpt lat="46.47704" lon="5.42786">
        <ele>523.8</ele>
        <time>2022-07-21T08:30:24Z</time>
      </trkpt>
      <trkpt lat="46.47707" lon="5.42786">
        <ele>524.2</ele>
        <time>2022-07-21T08:30:25Z</time>
      </trkpt>
      <trkpt lat="46.47719" lon="5.42785">
        <ele>525</ele>
        <time>2022-07-21T08:30:28Z</time>
      </trkpt>
      <trkpt lat="46.47734" lon="5.42785">
        <ele>526.2</ele>
        <time>2022-07-21T08:30:32Z</time>
      </trkpt>
      <trkpt lat="46.47738" lon="5.42785">
        <ele>526.4</ele>
        <time>2022-07-21T08:30:33Z</time>
      </trkpt>
      <trkpt lat="46.47755" lon="5.42781">
        <ele>527.4</ele>
        <time>2022-07-21T08:30:37Z</time>
      </trkpt>
      <trkpt lat="46.47763" lon="5.42778">
        <ele>527.8</ele>
        <time>2022-07-21T08:30:39Z</time>
      </trkpt>
      <trkpt lat="46.47774" lon="5.42772">
        <ele>528</ele>
        <time>2022-07-21T08:30:41Z</time>
      </trkpt>
      <trkpt lat="46.47784" lon="5.42762">
        <ele>528</ele>
        <time>2022-07-21T08:30:43Z</time>
      </trkpt>
      <trkpt lat="46.47798" lon="5.42732">
        <ele>528</ele>
        <time>2022-07-21T08:30:47Z</time>
      </trkpt>
      <trkpt lat="46.478" lon="5.42723">
        <ele>528</ele>
        <time>2022-07-21T08:30:48Z</time>
      </trkpt>
      <trkpt lat="46.47809" lon="5.42682">
        <ele>526.8</ele>
        <time>2022-07-21T08:30:52Z</time>
      </trkpt>
      <trkpt lat="46.4781" lon="5.42646">
        <ele>526.2</ele>
        <time>2022-07-21T08:30:55Z</time>
      </trkpt>
      <trkpt lat="46.4781" lon="5.42633">
        <ele>525.6</ele>
        <time>2022-07-21T08:30:56Z</time>
      </trkpt>
      <trkpt lat="46.47809" lon="5.42606">
        <ele>524.8</ele>
        <time>2022-07-21T08:30:58Z</time>
      </trkpt>
      <trkpt lat="46.47808" lon="5.42577">
        <ele>523.4</ele>
        <time>2022-07-21T08:31:00Z</time>
      </trkpt>
      <trkpt lat="46.47808" lon="5.42561">
        <ele>522.8</ele>
        <time>2022-07-21T08:31:01Z</time>
      </trkpt>
      <trkpt lat="46.47807" lon="5.42545">
        <ele>522.4</ele>
        <time>2022-07-21T08:31:02Z</time>
      </trkpt>
      <trkpt lat="46.47806" lon="5.42529">
        <ele>521.2</ele>
        <time>2022-07-21T08:31:03Z</time>
      </trkpt>
      <trkpt lat="46.47802" lon="5.42495">
        <ele>519.2</ele>
        <time>2022-07-21T08:31:05Z</time>
      </trkpt>
      <trkpt lat="46.47797" lon="5.42458">
        <ele>517.4</ele>
        <time>2022-07-21T08:31:07Z</time>
      </trkpt>
      <trkpt lat="46.47789" lon="5.42419">
        <ele>515.8</ele>
        <time>2022-07-21T08:31:09Z</time>
      </trkpt>
      <trkpt lat="46.47785" lon="5.42399">
        <ele>514</ele>
        <time>2022-07-21T08:31:10Z</time>
      </trkpt>
      <trkpt lat="46.47776" lon="5.42359">
        <ele>511.6</ele>
        <time>2022-07-21T08:31:12Z</time>
      </trkpt>
      <trkpt lat="46.4777" lon="5.42339">
        <ele>510.2</ele>
        <time>2022-07-21T08:31:13Z</time>
      </trkpt>
      <trkpt lat="46.47765" lon="5.42319">
        <ele>507.6</ele>
        <time>2022-07-21T08:31:14Z</time>
      </trkpt>
      <trkpt lat="46.47759" lon="5.423">
        <ele>506</ele>
        <time>2022-07-21T08:31:15Z</time>
      </trkpt>
      <trkpt lat="46.47748" lon="5.42261">
        <ele>503.4</ele>
        <time>2022-07-21T08:31:17Z</time>
      </trkpt>
      <trkpt lat="46.47735" lon="5.42225">
        <ele>501.6</ele>
        <time>2022-07-21T08:31:19Z</time>
      </trkpt>
      <trkpt lat="46.47729" lon="5.42208">
        <ele>500.6</ele>
        <time>2022-07-21T08:31:20Z</time>
      </trkpt>
      <trkpt lat="46.47723" lon="5.42191">
        <ele>499.2</ele>
        <time>2022-07-21T08:31:21Z</time>
      </trkpt>
      <trkpt lat="46.47706" lon="5.42143">
        <ele>497.8</ele>
        <time>2022-07-21T08:31:24Z</time>
      </trkpt>
      <trkpt lat="46.477" lon="5.42129">
        <ele>497.6</ele>
        <time>2022-07-21T08:31:25Z</time>
      </trkpt>
      <trkpt lat="46.47696" lon="5.42115">
        <ele>496.6</ele>
        <time>2022-07-21T08:31:26Z</time>
      </trkpt>
      <trkpt lat="46.47679" lon="5.4206">
        <ele>496</ele>
        <time>2022-07-21T08:31:30Z</time>
      </trkpt>
      <trkpt lat="46.47669" lon="5.41997">
        <ele>496</ele>
        <time>2022-07-21T08:31:35Z</time>
      </trkpt>
      <trkpt lat="46.4766" lon="5.41936">
        <ele>496.6</ele>
        <time>2022-07-21T08:31:41Z</time>
      </trkpt>
      <trkpt lat="46.47645" lon="5.41887">
        <ele>496.8</ele>
        <time>2022-07-21T08:31:46Z</time>
      </trkpt>
      <trkpt lat="46.47617" lon="5.41812">
        <ele>495.4</ele>
        <time>2022-07-21T08:31:53Z</time>
      </trkpt>
      <trkpt lat="46.47609" lon="5.41792">
        <ele>494.4</ele>
        <time>2022-07-21T08:31:55Z</time>
      </trkpt>
      <trkpt lat="46.47589" lon="5.41746">
        <ele>493.8</ele>
        <time>2022-07-21T08:32:00Z</time>
      </trkpt>
      <trkpt lat="46.47573" lon="5.41725">
        <ele>494.2</ele>
        <time>2022-07-21T08:32:03Z</time>
      </trkpt>
      <trkpt lat="46.47568" lon="5.41719">
        <ele>494.2</ele>
        <time>2022-07-21T08:32:04Z</time>
      </trkpt>
      <trkpt lat="46.47555" lon="5.4171">
        <ele>494.6</ele>
        <time>2022-07-21T08:32:06Z</time>
      </trkpt>
      <trkpt lat="46.47533" lon="5.41695">
        <ele>495.4</ele>
        <time>2022-07-21T08:32:10Z</time>
      </trkpt>
      <trkpt lat="46.47509" lon="5.41678">
        <ele>496.6</ele>
        <time>2022-07-21T08:32:15Z</time>
      </trkpt>
      <trkpt lat="46.47499" lon="5.41671">
        <ele>497.6</ele>
        <time>2022-07-21T08:32:17Z</time>
      </trkpt>
      <trkpt lat="46.47481" lon="5.41654">
        <ele>498.8</ele>
        <time>2022-07-21T08:32:21Z</time>
      </trkpt>
      <trkpt lat="46.47462" lon="5.41638">
        <ele>499.2</ele>
        <time>2022-07-21T08:32:25Z</time>
      </trkpt>
      <trkpt lat="46.47435" lon="5.4162">
        <ele>499.8</ele>
        <time>2022-07-21T08:32:31Z</time>
      </trkpt>
      <trkpt lat="46.47421" lon="5.41611">
        <ele>500.4</ele>
        <time>2022-07-21T08:32:34Z</time>
      </trkpt>
      <trkpt lat="46.47407" lon="5.41603">
        <ele>501</ele>
        <time>2022-07-21T08:32:37Z</time>
      </trkpt>
      <trkpt lat="46.47381" lon="5.4159">
        <ele>501.4</ele>
        <time>2022-07-21T08:32:42Z</time>
      </trkpt>
      <trkpt lat="46.47354" lon="5.41575">
        <ele>502.2</ele>
        <time>2022-07-21T08:32:48Z</time>
      </trkpt>
      <trkpt lat="46.47349" lon="5.41572">
        <ele>502.4</ele>
        <time>2022-07-21T08:32:49Z</time>
      </trkpt>
      <trkpt lat="46.4733" lon="5.41556">
        <ele>503.6</ele>
        <time>2022-07-21T08:32:54Z</time>
      </trkpt>
      <trkpt lat="46.47323" lon="5.4155">
        <ele>504.2</ele>
        <time>2022-07-21T08:32:56Z</time>
      </trkpt>
      <trkpt lat="46.47313" lon="5.41539">
        <ele>504.8</ele>
        <time>2022-07-21T08:32:59Z</time>
      </trkpt>
      <trkpt lat="46.47304" lon="5.41527">
        <ele>505.6</ele>
        <time>2022-07-21T08:33:02Z</time>
      </trkpt>
      <trkpt lat="46.47302" lon="5.41524">
        <ele>506</ele>
        <time>2022-07-21T08:33:03Z</time>
      </trkpt>
      <trkpt lat="46.47296" lon="5.41516">
        <ele>507</ele>
        <time>2022-07-21T08:33:05Z</time>
      </trkpt>
      <trkpt lat="46.47284" lon="5.41498">
        <ele>508.2</ele>
        <time>2022-07-21T08:33:10Z</time>
      </trkpt>
      <trkpt lat="46.47276" lon="5.41485">
        <ele>509.2</ele>
        <time>2022-07-21T08:33:13Z</time>
      </trkpt>
      <trkpt lat="46.47261" lon="5.41459">
        <ele>510.2</ele>
        <time>2022-07-21T08:33:19Z</time>
      </trkpt>
      <trkpt lat="46.47259" lon="5.41455">
        <ele>510.4</ele>
        <time>2022-07-21T08:33:20Z</time>
      </trkpt>
      <trkpt lat="46.47252" lon="5.41444">
        <ele>511</ele>
        <time>2022-07-21T08:33:23Z</time>
      </trkpt>
      <trkpt lat="46.4725" lon="5.41439">
        <ele>511.4</ele>
        <time>2022-07-21T08:33:24Z</time>
      </trkpt>
      <trkpt lat="46.47235" lon="5.41412">
        <ele>512.8</ele>
        <time>2022-07-21T08:33:31Z</time>
      </trkpt>
      <trkpt lat="46.47233" lon="5.41409">
        <ele>513</ele>
        <time>2022-07-21T08:33:32Z</time>
      </trkpt>
      <trkpt lat="46.47229" lon="5.41404">
        <ele>513.8</ele>
        <time>2022-07-21T08:33:34Z</time>
      </trkpt>
      <trkpt lat="46.47222" lon="5.41393">
        <ele>514.6</ele>
        <time>2022-07-21T08:33:37Z</time>
      </trkpt>
      <trkpt lat="46.47217" lon="5.41385">
        <ele>515</ele>
        <time>2022-07-21T08:33:39Z</time>
      </trkpt>
      <trkpt lat="46.4721" lon="5.41374">
        <ele>516.2</ele>
        <time>2022-07-21T08:33:42Z</time>
      </trkpt>
      <trkpt lat="46.47201" lon="5.41359">
        <ele>517</ele>
        <time>2022-07-21T08:33:45Z</time>
      </trkpt>
      <trkpt lat="46.47198" lon="5.41354">
        <ele>517.2</ele>
        <time>2022-07-21T08:33:46Z</time>
      </trkpt>
      <trkpt lat="46.47186" lon="5.41325">
        <ele>517.6</ele>
        <time>2022-07-21T08:33:51Z</time>
      </trkpt>
      <trkpt lat="46.4717" lon="5.41262">
        <ele>518</ele>
        <time>2022-07-21T08:34:01Z</time>
      </trkpt>
      <trkpt lat="46.47166" lon="5.41234">
        <ele>518.4</ele>
        <time>2022-07-21T08:34:05Z</time>
      </trkpt>
      <trkpt lat="46.4716" lon="5.41203">
        <ele>518.6</ele>
        <time>2022-07-21T08:34:09Z</time>
      </trkpt>
      <trkpt lat="46.47152" lon="5.4117">
        <ele>518.6</ele>
        <time>2022-07-21T08:34:13Z</time>
      </trkpt>
      <trkpt lat="46.47149" lon="5.41162">
        <ele>518.6</ele>
        <time>2022-07-21T08:34:14Z</time>
      </trkpt>
      <trkpt lat="46.47146" lon="5.41153">
        <ele>518.6</ele>
        <time>2022-07-21T08:34:15Z</time>
      </trkpt>
      <trkpt lat="46.47142" lon="5.41145">
        <ele>518.6</ele>
        <time>2022-07-21T08:34:16Z</time>
      </trkpt>
      <trkpt lat="46.47135" lon="5.41129">
        <ele>518.4</ele>
        <time>2022-07-21T08:34:18Z</time>
      </trkpt>
      <trkpt lat="46.47104" lon="5.41073">
        <ele>517.4</ele>
        <time>2022-07-21T08:34:25Z</time>
      </trkpt>
      <trkpt lat="46.47083" lon="5.4105">
        <ele>516.8</ele>
        <time>2022-07-21T08:34:29Z</time>
      </trkpt>
      <trkpt lat="46.47078" lon="5.41045">
        <ele>516.8</ele>
        <time>2022-07-21T08:34:30Z</time>
      </trkpt>
      <trkpt lat="46.47046" lon="5.41015">
        <ele>519</ele>
        <time>2022-07-21T08:34:37Z</time>
      </trkpt>
      <trkpt lat="46.47041" lon="5.41011">
        <ele>519.4</ele>
        <time>2022-07-21T08:34:38Z</time>
      </trkpt>
      <trkpt lat="46.47031" lon="5.41">
        <ele>520.2</ele>
        <time>2022-07-21T08:34:40Z</time>
      </trkpt>
      <trkpt lat="46.47026" lon="5.40994">
        <ele>520.2</ele>
        <time>2022-07-21T08:34:41Z</time>
      </trkpt>
      <trkpt lat="46.47003" lon="5.40961">
        <ele>520.8</ele>
        <time>2022-07-21T08:34:46Z</time>
      </trkpt>
      <trkpt lat="46.47001" lon="5.40955">
        <ele>520.8</ele>
        <time>2022-07-21T08:34:47Z</time>
      </trkpt>
      <trkpt lat="46.46989" lon="5.40925">
        <ele>521.4</ele>
        <time>2022-07-21T08:34:51Z</time>
      </trkpt>
      <trkpt lat="46.46988" lon="5.40918">
        <ele>521.8</ele>
        <time>2022-07-21T08:34:52Z</time>
      </trkpt>
      <trkpt lat="46.46984" lon="5.40896">
        <ele>522.6</ele>
        <time>2022-07-21T08:34:55Z</time>
      </trkpt>
      <trkpt lat="46.46982" lon="5.40875">
        <ele>523.4</ele>
        <time>2022-07-21T08:34:58Z</time>
      </trkpt>
      <trkpt lat="46.4698" lon="5.40859">
        <ele>524</ele>
        <time>2022-07-21T08:35:00Z</time>
      </trkpt>
      <trkpt lat="46.46974" lon="5.40818">
        <ele>524.4</ele>
        <time>2022-07-21T08:35:05Z</time>
      </trkpt>
      <trkpt lat="46.46971" lon="5.40802">
        <ele>524.6</ele>
        <time>2022-07-21T08:35:07Z</time>
      </trkpt>
      <trkpt lat="46.46964" lon="5.40749">
        <ele>524.6</ele>
        <time>2022-07-21T08:35:13Z</time>
      </trkpt>
      <trkpt lat="46.46955" lon="5.40685">
        <ele>523.8</ele>
        <time>2022-07-21T08:35:18Z</time>
      </trkpt>
      <trkpt lat="46.46952" lon="5.40658">
        <ele>522.6</ele>
        <time>2022-07-21T08:35:20Z</time>
      </trkpt>
      <trkpt lat="46.46948" lon="5.40632">
        <ele>521.4</ele>
        <time>2022-07-21T08:35:22Z</time>
      </trkpt>
      <trkpt lat="46.46944" lon="5.40592">
        <ele>520.2</ele>
        <time>2022-07-21T08:35:25Z</time>
      </trkpt>
      <trkpt lat="46.46937" lon="5.40514">
        <ele>519.6</ele>
        <time>2022-07-21T08:35:31Z</time>
      </trkpt>
      <trkpt lat="46.46934" lon="5.4049">
        <ele>519.2</ele>
        <time>2022-07-21T08:35:33Z</time>
      </trkpt>
      <trkpt lat="46.46931" lon="5.40467">
        <ele>518.2</ele>
        <time>2022-07-21T08:35:35Z</time>
      </trkpt>
      <trkpt lat="46.46926" lon="5.40432">
        <ele>517.6</ele>
        <time>2022-07-21T08:35:38Z</time>
      </trkpt>
      <trkpt lat="46.46921" lon="5.40386">
        <ele>517</ele>
        <time>2022-07-21T08:35:42Z</time>
      </trkpt>
      <trkpt lat="46.46917" lon="5.40335">
        <ele>516</ele>
        <time>2022-07-21T08:35:46Z</time>
      </trkpt>
      <trkpt lat="46.46916" lon="5.40323">
        <ele>515.8</ele>
        <time>2022-07-21T08:35:47Z</time>
      </trkpt>
      <trkpt lat="46.46915" lon="5.40291">
        <ele>515</ele>
        <time>2022-07-21T08:35:50Z</time>
      </trkpt>
      <trkpt lat="46.46917" lon="5.40284">
        <ele>515</ele>
        <time>2022-07-21T08:35:51Z</time>
      </trkpt>
      <trkpt lat="46.4692" lon="5.4028">
        <ele>515</ele>
        <time>2022-07-21T08:35:52Z</time>
      </trkpt>
      <trkpt lat="46.46926" lon="5.40278">
        <ele>514.8</ele>
        <time>2022-07-21T08:35:53Z</time>
      </trkpt>
      <trkpt lat="46.46931" lon="5.40282">
        <ele>514.8</ele>
        <time>2022-07-21T08:35:54Z</time>
      </trkpt>
      <trkpt lat="46.4694" lon="5.40289">
        <ele>514.8</ele>
        <time>2022-07-21T08:35:56Z</time>
      </trkpt>
      <trkpt lat="46.46976" lon="5.40307">
        <ele>515.6</ele>
        <time>2022-07-21T08:36:02Z</time>
      </trkpt>
      <trkpt lat="46.46983" lon="5.4031">
        <ele>515.6</ele>
        <time>2022-07-21T08:36:03Z</time>
      </trkpt>
      <trkpt lat="46.46997" lon="5.40314">
        <ele>516.2</ele>
        <time>2022-07-21T08:36:05Z</time>
      </trkpt>
      <trkpt lat="46.47004" lon="5.40317">
        <ele>516.4</ele>
        <time>2022-07-21T08:36:06Z</time>
      </trkpt>
      <trkpt lat="46.47011" lon="5.40318">
        <ele>516.8</ele>
        <time>2022-07-21T08:36:07Z</time>
      </trkpt>
      <trkpt lat="46.47034" lon="5.40321">
        <ele>517.2</ele>
        <time>2022-07-21T08:36:10Z</time>
      </trkpt>
      <trkpt lat="46.47043" lon="5.40323">
        <ele>517.4</ele>
        <time>2022-07-21T08:36:11Z</time>
      </trkpt>
      <trkpt lat="46.47086" lon="5.40328">
        <ele>517.4</ele>
        <time>2022-07-21T08:36:16Z</time>
      </trkpt>
      <trkpt lat="46.4714" lon="5.40336">
        <ele>516</ele>
        <time>2022-07-21T08:36:22Z</time>
      </trkpt>
      <trkpt lat="46.47159" lon="5.40341">
        <ele>514.8</ele>
        <time>2022-07-21T08:36:24Z</time>
      </trkpt>
      <trkpt lat="46.47189" lon="5.40353">
        <ele>513.4</ele>
        <time>2022-07-21T08:36:27Z</time>
      </trkpt>
      <trkpt lat="46.47205" lon="5.40366">
        <ele>512.4</ele>
        <time>2022-07-21T08:36:29Z</time>
      </trkpt>
      <trkpt lat="46.47214" lon="5.40377">
        <ele>512</ele>
        <time>2022-07-21T08:36:30Z</time>
      </trkpt>
      <trkpt lat="46.4722" lon="5.40385">
        <ele>511.6</ele>
        <time>2022-07-21T08:36:31Z</time>
      </trkpt>
      <trkpt lat="46.47235" lon="5.40405">
        <ele>510.2</ele>
        <time>2022-07-21T08:36:33Z</time>
      </trkpt>
      <trkpt lat="46.47244" lon="5.40413">
        <ele>509.8</ele>
        <time>2022-07-21T08:36:34Z</time>
      </trkpt>
      <trkpt lat="46.47253" lon="5.4042">
        <ele>509.4</ele>
        <time>2022-07-21T08:36:35Z</time>
      </trkpt>
      <trkpt lat="46.47265" lon="5.40427">
        <ele>509.2</ele>
        <time>2022-07-21T08:36:36Z</time>
      </trkpt>
      <trkpt lat="46.47273" lon="5.40431">
        <ele>508.4</ele>
        <time>2022-07-21T08:36:37Z</time>
      </trkpt>
      <trkpt lat="46.47293" lon="5.40438">
        <ele>507.6</ele>
        <time>2022-07-21T08:36:39Z</time>
      </trkpt>
      <trkpt lat="46.47304" lon="5.40441">
        <ele>506.6</ele>
        <time>2022-07-21T08:36:40Z</time>
      </trkpt>
      <trkpt lat="46.47325" lon="5.40446">
        <ele>505.4</ele>
        <time>2022-07-21T08:36:42Z</time>
      </trkpt>
      <trkpt lat="46.47358" lon="5.4045">
        <ele>504.4</ele>
        <time>2022-07-21T08:36:45Z</time>
      </trkpt>
      <trkpt lat="46.47366" lon="5.40451">
        <ele>503.6</ele>
        <time>2022-07-21T08:36:46Z</time>
      </trkpt>
      <trkpt lat="46.47399" lon="5.4045">
        <ele>502.4</ele>
        <time>2022-07-21T08:36:49Z</time>
      </trkpt>
      <trkpt lat="46.4741" lon="5.40448">
        <ele>502.2</ele>
        <time>2022-07-21T08:36:50Z</time>
      </trkpt>
      <trkpt lat="46.47443" lon="5.40445">
        <ele>500.8</ele>
        <time>2022-07-21T08:36:53Z</time>
      </trkpt>
      <trkpt lat="46.47464" lon="5.40449">
        <ele>500.4</ele>
        <time>2022-07-21T08:36:55Z</time>
      </trkpt>
      <trkpt lat="46.47476" lon="5.40451">
        <ele>499.4</ele>
        <time>2022-07-21T08:36:56Z</time>
      </trkpt>
      <trkpt lat="46.47497" lon="5.40459">
        <ele>498.4</ele>
        <time>2022-07-21T08:36:58Z</time>
      </trkpt>
      <trkpt lat="46.47504" lon="5.40464">
        <ele>497.8</ele>
        <time>2022-07-21T08:36:59Z</time>
      </trkpt>
      <trkpt lat="46.47512" lon="5.40472">
        <ele>497</ele>
        <time>2022-07-21T08:37:00Z</time>
      </trkpt>
      <trkpt lat="46.47525" lon="5.40483">
        <ele>495.8</ele>
        <time>2022-07-21T08:37:02Z</time>
      </trkpt>
      <trkpt lat="46.47538" lon="5.4047">
        <ele>495</ele>
        <time>2022-07-21T08:37:04Z</time>
      </trkpt>
      <trkpt lat="46.47541" lon="5.40458">
        <ele>494</ele>
        <time>2022-07-21T08:37:05Z</time>
      </trkpt>
      <trkpt lat="46.47543" lon="5.40441">
        <ele>493.6</ele>
        <time>2022-07-21T08:37:06Z</time>
      </trkpt>
      <trkpt lat="46.47543" lon="5.40426">
        <ele>493.2</ele>
        <time>2022-07-21T08:37:07Z</time>
      </trkpt>
      <trkpt lat="46.47541" lon="5.40414">
        <ele>492.6</ele>
        <time>2022-07-21T08:37:08Z</time>
      </trkpt>
      <trkpt lat="46.47537" lon="5.404">
        <ele>491.6</ele>
        <time>2022-07-21T08:37:09Z</time>
      </trkpt>
      <trkpt lat="46.47524" lon="5.40358">
        <ele>490.2</ele>
        <time>2022-07-21T08:37:12Z</time>
      </trkpt>
      <trkpt lat="46.47524" lon="5.40347">
        <ele>489.8</ele>
        <time>2022-07-21T08:37:13Z</time>
      </trkpt>
      <trkpt lat="46.47526" lon="5.40333">
        <ele>489.4</ele>
        <time>2022-07-21T08:37:14Z</time>
      </trkpt>
      <trkpt lat="46.47532" lon="5.40317">
        <ele>489.2</ele>
        <time>2022-07-21T08:37:15Z</time>
      </trkpt>
      <trkpt lat="46.47537" lon="5.40308">
        <ele>488.4</ele>
        <time>2022-07-21T08:37:16Z</time>
      </trkpt>
      <trkpt lat="46.47545" lon="5.40295">
        <ele>487.2</ele>
        <time>2022-07-21T08:37:17Z</time>
      </trkpt>
      <trkpt lat="46.47564" lon="5.40275">
        <ele>485.2</ele>
        <time>2022-07-21T08:37:19Z</time>
      </trkpt>
      <trkpt lat="46.47584" lon="5.40264">
        <ele>483.6</ele>
        <time>2022-07-21T08:37:21Z</time>
      </trkpt>
      <trkpt lat="46.47595" lon="5.40261">
        <ele>483.2</ele>
        <time>2022-07-21T08:37:22Z</time>
      </trkpt>
      <trkpt lat="46.47617" lon="5.40255">
        <ele>482</ele>
        <time>2022-07-21T08:37:24Z</time>
      </trkpt>
      <trkpt lat="46.47639" lon="5.40249">
        <ele>480.6</ele>
        <time>2022-07-21T08:37:26Z</time>
      </trkpt>
      <trkpt lat="46.4765" lon="5.40248">
        <ele>480.2</ele>
        <time>2022-07-21T08:37:27Z</time>
      </trkpt>
      <trkpt lat="46.47661" lon="5.40248">
        <ele>479.6</ele>
        <time>2022-07-21T08:37:28Z</time>
      </trkpt>
      <trkpt lat="46.47671" lon="5.40248">
        <ele>479.2</ele>
        <time>2022-07-21T08:37:29Z</time>
      </trkpt>
      <trkpt lat="46.47691" lon="5.40244">
        <ele>478.8</ele>
        <time>2022-07-21T08:37:31Z</time>
      </trkpt>
      <trkpt lat="46.47701" lon="5.40239">
        <ele>478</ele>
        <time>2022-07-21T08:37:32Z</time>
      </trkpt>
      <trkpt lat="46.47709" lon="5.40231">
        <ele>477.4</ele>
        <time>2022-07-21T08:37:33Z</time>
      </trkpt>
      <trkpt lat="46.47715" lon="5.40221">
        <ele>477</ele>
        <time>2022-07-21T08:37:34Z</time>
      </trkpt>
      <trkpt lat="46.47721" lon="5.40209">
        <ele>476.6</ele>
        <time>2022-07-21T08:37:35Z</time>
      </trkpt>
      <trkpt lat="46.47732" lon="5.40183">
        <ele>476</ele>
        <time>2022-07-21T08:37:37Z</time>
      </trkpt>
      <trkpt lat="46.47739" lon="5.40172">
        <ele>475.8</ele>
        <time>2022-07-21T08:37:38Z</time>
      </trkpt>
      <trkpt lat="46.47747" lon="5.40162">
        <ele>475.4</ele>
        <time>2022-07-21T08:37:39Z</time>
      </trkpt>
      <trkpt lat="46.4776" lon="5.40135">
        <ele>474.4</ele>
        <time>2022-07-21T08:37:41Z</time>
      </trkpt>
      <trkpt lat="46.47767" lon="5.40105">
        <ele>473.6</ele>
        <time>2022-07-21T08:37:43Z</time>
      </trkpt>
      <trkpt lat="46.47769" lon="5.40089">
        <ele>472.8</ele>
        <time>2022-07-21T08:37:44Z</time>
      </trkpt>
      <trkpt lat="46.47768" lon="5.40073">
        <ele>472.2</ele>
        <time>2022-07-21T08:37:45Z</time>
      </trkpt>
      <trkpt lat="46.47767" lon="5.40058">
        <ele>471.4</ele>
        <time>2022-07-21T08:37:46Z</time>
      </trkpt>
      <trkpt lat="46.47767" lon="5.40044">
        <ele>470.8</ele>
        <time>2022-07-21T08:37:47Z</time>
      </trkpt>
      <trkpt lat="46.47773" lon="5.40016">
        <ele>469.6</ele>
        <time>2022-07-21T08:37:49Z</time>
      </trkpt>
      <trkpt lat="46.47788" lon="5.39997">
        <ele>468.6</ele>
        <time>2022-07-21T08:37:51Z</time>
      </trkpt>
      <trkpt lat="46.47806" lon="5.39987">
        <ele>467.2</ele>
        <time>2022-07-21T08:37:53Z</time>
      </trkpt>
      <trkpt lat="46.47827" lon="5.39977">
        <ele>466</ele>
        <time>2022-07-21T08:37:55Z</time>
      </trkpt>
      <trkpt lat="46.47848" lon="5.39965">
        <ele>465</ele>
        <time>2022-07-21T08:37:57Z</time>
      </trkpt>
      <trkpt lat="46.47859" lon="5.39959">
        <ele>464.4</ele>
        <time>2022-07-21T08:37:58Z</time>
      </trkpt>
      <trkpt lat="46.47879" lon="5.39947">
        <ele>463.4</ele>
        <time>2022-07-21T08:38:00Z</time>
      </trkpt>
      <trkpt lat="46.479" lon="5.39935">
        <ele>462.2</ele>
        <time>2022-07-21T08:38:02Z</time>
      </trkpt>
      <trkpt lat="46.4791" lon="5.39929">
        <ele>461</ele>
        <time>2022-07-21T08:38:03Z</time>
      </trkpt>
      <trkpt lat="46.47931" lon="5.39917">
        <ele>459.8</ele>
        <time>2022-07-21T08:38:05Z</time>
      </trkpt>
      <trkpt lat="46.47963" lon="5.39901">
        <ele>458.6</ele>
        <time>2022-07-21T08:38:08Z</time>
      </trkpt>
      <trkpt lat="46.47983" lon="5.39892">
        <ele>457.2</ele>
        <time>2022-07-21T08:38:10Z</time>
      </trkpt>
      <trkpt lat="46.48011" lon="5.39882">
        <ele>456</ele>
        <time>2022-07-21T08:38:13Z</time>
      </trkpt>
      <trkpt lat="46.48021" lon="5.39883">
        <ele>455.6</ele>
        <time>2022-07-21T08:38:14Z</time>
      </trkpt>
      <trkpt lat="46.48033" lon="5.39886">
        <ele>455.4</ele>
        <time>2022-07-21T08:38:15Z</time>
      </trkpt>
      <trkpt lat="46.48049" lon="5.39896">
        <ele>455</ele>
        <time>2022-07-21T08:38:17Z</time>
      </trkpt>
      <trkpt lat="46.48067" lon="5.39906">
        <ele>454.8</ele>
        <time>2022-07-21T08:38:19Z</time>
      </trkpt>
      <trkpt lat="46.48088" lon="5.3991">
        <ele>454.6</ele>
        <time>2022-07-21T08:38:21Z</time>
      </trkpt>
      <trkpt lat="46.48134" lon="5.39903">
        <ele>454.8</ele>
        <time>2022-07-21T08:38:26Z</time>
      </trkpt>
      <trkpt lat="46.48144" lon="5.39899">
        <ele>454.8</ele>
        <time>2022-07-21T08:38:27Z</time>
      </trkpt>
      <trkpt lat="46.48172" lon="5.39883">
        <ele>455</ele>
        <time>2022-07-21T08:38:30Z</time>
      </trkpt>
      <trkpt lat="46.48186" lon="5.39871">
        <ele>455.2</ele>
        <time>2022-07-21T08:38:32Z</time>
      </trkpt>
      <trkpt lat="46.48197" lon="5.39851">
        <ele>455.2</ele>
        <time>2022-07-21T08:38:34Z</time>
      </trkpt>
      <trkpt lat="46.48197" lon="5.39824">
        <ele>455.2</ele>
        <time>2022-07-21T08:38:36Z</time>
      </trkpt>
      <trkpt lat="46.48183" lon="5.39739">
        <ele>454.4</ele>
        <time>2022-07-21T08:38:43Z</time>
      </trkpt>
      <trkpt lat="46.48178" lon="5.39692">
        <ele>454</ele>
        <time>2022-07-21T08:38:47Z</time>
      </trkpt>
      <trkpt lat="46.4818" lon="5.39664">
        <ele>453.8</ele>
        <time>2022-07-21T08:38:49Z</time>
      </trkpt>
      <trkpt lat="46.48185" lon="5.39638">
        <ele>453.4</ele>
        <time>2022-07-21T08:38:51Z</time>
      </trkpt>
      <trkpt lat="46.4819" lon="5.39625">
        <ele>453.2</ele>
        <time>2022-07-21T08:38:52Z</time>
      </trkpt>
      <trkpt lat="46.48195" lon="5.39612">
        <ele>452.6</ele>
        <time>2022-07-21T08:38:53Z</time>
      </trkpt>
      <trkpt lat="46.48206" lon="5.39583">
        <ele>452</ele>
        <time>2022-07-21T08:38:55Z</time>
      </trkpt>
      <trkpt lat="46.48211" lon="5.39568">
        <ele>450.8</ele>
        <time>2022-07-21T08:38:56Z</time>
      </trkpt>
      <trkpt lat="46.48217" lon="5.39538">
        <ele>449.4</ele>
        <time>2022-07-21T08:38:58Z</time>
      </trkpt>
      <trkpt lat="46.48224" lon="5.3951">
        <ele>447.6</ele>
        <time>2022-07-21T08:39:00Z</time>
      </trkpt>
      <trkpt lat="46.48232" lon="5.3949">
        <ele>445</ele>
        <time>2022-07-21T08:39:02Z</time>
      </trkpt>
      <trkpt lat="46.4824" lon="5.39478">
        <ele>443.8</ele>
        <time>2022-07-21T08:39:03Z</time>
      </trkpt>
      <trkpt lat="46.48246" lon="5.39471">
        <ele>443.4</ele>
        <time>2022-07-21T08:39:04Z</time>
      </trkpt>
      <trkpt lat="46.48253" lon="5.39467">
        <ele>442.6</ele>
        <time>2022-07-21T08:39:05Z</time>
      </trkpt>
      <trkpt lat="46.48261" lon="5.39465">
        <ele>442.2</ele>
        <time>2022-07-21T08:39:06Z</time>
      </trkpt>
      <trkpt lat="46.48269" lon="5.39466">
        <ele>441.6</ele>
        <time>2022-07-21T08:39:07Z</time>
      </trkpt>
      <trkpt lat="46.48287" lon="5.39466">
        <ele>439.6</ele>
        <time>2022-07-21T08:39:09Z</time>
      </trkpt>
      <trkpt lat="46.48295" lon="5.39464">
        <ele>438.6</ele>
        <time>2022-07-21T08:39:10Z</time>
      </trkpt>
      <trkpt lat="46.48303" lon="5.39459">
        <ele>438.2</ele>
        <time>2022-07-21T08:39:11Z</time>
      </trkpt>
      <trkpt lat="46.48314" lon="5.39446">
        <ele>437.4</ele>
        <time>2022-07-21T08:39:13Z</time>
      </trkpt>
      <trkpt lat="46.48318" lon="5.39439">
        <ele>437</ele>
        <time>2022-07-21T08:39:14Z</time>
      </trkpt>
      <trkpt lat="46.48323" lon="5.39429">
        <ele>437</ele>
        <time>2022-07-21T08:39:15Z</time>
      </trkpt>
      <trkpt lat="46.48326" lon="5.39417">
        <ele>436.6</ele>
        <time>2022-07-21T08:39:16Z</time>
      </trkpt>
      <trkpt lat="46.48331" lon="5.39401">
        <ele>436.4</ele>
        <time>2022-07-21T08:39:17Z</time>
      </trkpt>
      <trkpt lat="46.48339" lon="5.39386">
        <ele>435.2</ele>
        <time>2022-07-21T08:39:18Z</time>
      </trkpt>
      <trkpt lat="46.48346" lon="5.39373">
        <ele>434.2</ele>
        <time>2022-07-21T08:39:19Z</time>
      </trkpt>
      <trkpt lat="46.48353" lon="5.3936">
        <ele>434</ele>
        <time>2022-07-21T08:39:20Z</time>
      </trkpt>
      <trkpt lat="46.48367" lon="5.39345">
        <ele>432.6</ele>
        <time>2022-07-21T08:39:22Z</time>
      </trkpt>
      <trkpt lat="46.48377" lon="5.39339">
        <ele>431.2</ele>
        <time>2022-07-21T08:39:23Z</time>
      </trkpt>
      <trkpt lat="46.48389" lon="5.39336">
        <ele>430.4</ele>
        <time>2022-07-21T08:39:24Z</time>
      </trkpt>
      <trkpt lat="46.48397" lon="5.39336">
        <ele>429</ele>
        <time>2022-07-21T08:39:25Z</time>
      </trkpt>
      <trkpt lat="46.48408" lon="5.39337">
        <ele>427.8</ele>
        <time>2022-07-21T08:39:26Z</time>
      </trkpt>
      <trkpt lat="46.48421" lon="5.39339">
        <ele>427.4</ele>
        <time>2022-07-21T08:39:27Z</time>
      </trkpt>
      <trkpt lat="46.48431" lon="5.39337">
        <ele>426</ele>
        <time>2022-07-21T08:39:28Z</time>
      </trkpt>
      <trkpt lat="46.4844" lon="5.39335">
        <ele>425.6</ele>
        <time>2022-07-21T08:39:29Z</time>
      </trkpt>
      <trkpt lat="46.48451" lon="5.3933">
        <ele>424.2</ele>
        <time>2022-07-21T08:39:30Z</time>
      </trkpt>
      <trkpt lat="46.48476" lon="5.39321">
        <ele>422</ele>
        <time>2022-07-21T08:39:32Z</time>
      </trkpt>
      <trkpt lat="46.48488" lon="5.39318">
        <ele>420.4</ele>
        <time>2022-07-21T08:39:33Z</time>
      </trkpt>
      <trkpt lat="46.48497" lon="5.39315">
        <ele>419.8</ele>
        <time>2022-07-21T08:39:34Z</time>
      </trkpt>
      <trkpt lat="46.48509" lon="5.39311">
        <ele>418.6</ele>
        <time>2022-07-21T08:39:35Z</time>
      </trkpt>
      <trkpt lat="46.48537" lon="5.39301">
        <ele>416.8</ele>
        <time>2022-07-21T08:39:37Z</time>
      </trkpt>
      <trkpt lat="46.4855" lon="5.39298">
        <ele>416.2</ele>
        <time>2022-07-21T08:39:38Z</time>
      </trkpt>
      <trkpt lat="46.48561" lon="5.39295">
        <ele>415.2</ele>
        <time>2022-07-21T08:39:39Z</time>
      </trkpt>
      <trkpt lat="46.4859" lon="5.3929">
        <ele>413.6</ele>
        <time>2022-07-21T08:39:41Z</time>
      </trkpt>
      <trkpt lat="46.48602" lon="5.39287">
        <ele>412</ele>
        <time>2022-07-21T08:39:42Z</time>
      </trkpt>
      <trkpt lat="46.48627" lon="5.3928">
        <ele>409.6</ele>
        <time>2022-07-21T08:39:44Z</time>
      </trkpt>
      <trkpt lat="46.48652" lon="5.39279">
        <ele>407.2</ele>
        <time>2022-07-21T08:39:46Z</time>
      </trkpt>
      <trkpt lat="46.48673" lon="5.39282">
        <ele>405.4</ele>
        <time>2022-07-21T08:39:48Z</time>
      </trkpt>
      <trkpt lat="46.48686" lon="5.39286">
        <ele>404.4</ele>
        <time>2022-07-21T08:39:49Z</time>
      </trkpt>
      <trkpt lat="46.48703" lon="5.39296">
        <ele>403</ele>
        <time>2022-07-21T08:39:51Z</time>
      </trkpt>
      <trkpt lat="46.48718" lon="5.39308">
        <ele>401.6</ele>
        <time>2022-07-21T08:39:53Z</time>
      </trkpt>
      <trkpt lat="46.48724" lon="5.3931">
        <ele>401</ele>
        <time>2022-07-21T08:39:54Z</time>
      </trkpt>
      <trkpt lat="46.48731" lon="5.39309">
        <ele>399.6</ele>
        <time>2022-07-21T08:39:55Z</time>
      </trkpt>
      <trkpt lat="46.48737" lon="5.39304">
        <ele>399</ele>
        <time>2022-07-21T08:39:56Z</time>
      </trkpt>
      <trkpt lat="46.48739" lon="5.39297">
        <ele>398.6</ele>
        <time>2022-07-21T08:39:57Z</time>
      </trkpt>
      <trkpt lat="46.48737" lon="5.39285">
        <ele>398.2</ele>
        <time>2022-07-21T08:39:58Z</time>
      </trkpt>
      <trkpt lat="46.48723" lon="5.39264">
        <ele>397.6</ele>
        <time>2022-07-21T08:40:00Z</time>
      </trkpt>
      <trkpt lat="46.48699" lon="5.39231">
        <ele>395.6</ele>
        <time>2022-07-21T08:40:03Z</time>
      </trkpt>
      <trkpt lat="46.48679" lon="5.39203">
        <ele>393</ele>
        <time>2022-07-21T08:40:05Z</time>
      </trkpt>
      <trkpt lat="46.48661" lon="5.39177">
        <ele>390.2</ele>
        <time>2022-07-21T08:40:07Z</time>
      </trkpt>
      <trkpt lat="46.48651" lon="5.39164">
        <ele>389.6</ele>
        <time>2022-07-21T08:40:08Z</time>
      </trkpt>
      <trkpt lat="46.4864" lon="5.39153">
        <ele>388.4</ele>
        <time>2022-07-21T08:40:09Z</time>
      </trkpt>
      <trkpt lat="46.4863" lon="5.39144">
        <ele>387.8</ele>
        <time>2022-07-21T08:40:10Z</time>
      </trkpt>
      <trkpt lat="46.48616" lon="5.39132">
        <ele>386.4</ele>
        <time>2022-07-21T08:40:11Z</time>
      </trkpt>
      <trkpt lat="46.48606" lon="5.39125">
        <ele>385</ele>
        <time>2022-07-21T08:40:12Z</time>
      </trkpt>
      <trkpt lat="46.48581" lon="5.39106">
        <ele>382.8</ele>
        <time>2022-07-21T08:40:14Z</time>
      </trkpt>
      <trkpt lat="46.48567" lon="5.39096">
        <ele>381.8</ele>
        <time>2022-07-21T08:40:15Z</time>
      </trkpt>
      <trkpt lat="46.48554" lon="5.39088">
        <ele>380.6</ele>
        <time>2022-07-21T08:40:16Z</time>
      </trkpt>
      <trkpt lat="46.48527" lon="5.39069">
        <ele>379.6</ele>
        <time>2022-07-21T08:40:18Z</time>
      </trkpt>
      <trkpt lat="46.48516" lon="5.39058">
        <ele>377.8</ele>
        <time>2022-07-21T08:40:19Z</time>
      </trkpt>
      <trkpt lat="46.48506" lon="5.39039">
        <ele>377.2</ele>
        <time>2022-07-21T08:40:20Z</time>
      </trkpt>
      <trkpt lat="46.48501" lon="5.39024">
        <ele>376</ele>
        <time>2022-07-21T08:40:21Z</time>
      </trkpt>
      <trkpt lat="46.48488" lon="5.38978">
        <ele>372.6</ele>
        <time>2022-07-21T08:40:23Z</time>
      </trkpt>
      <trkpt lat="46.4848" lon="5.3896">
        <ele>371.4</ele>
        <time>2022-07-21T08:40:24Z</time>
      </trkpt>
      <trkpt lat="46.48471" lon="5.38945">
        <ele>370.2</ele>
        <time>2022-07-21T08:40:25Z</time>
      </trkpt>
      <trkpt lat="46.48463" lon="5.3893">
        <ele>369</ele>
        <time>2022-07-21T08:40:26Z</time>
      </trkpt>
      <trkpt lat="46.48458" lon="5.38916">
        <ele>368.4</ele>
        <time>2022-07-21T08:40:27Z</time>
      </trkpt>
      <trkpt lat="46.48455" lon="5.38903">
        <ele>367</ele>
        <time>2022-07-21T08:40:28Z</time>
      </trkpt>
      <trkpt lat="46.48456" lon="5.38891">
        <ele>366.6</ele>
        <time>2022-07-21T08:40:29Z</time>
      </trkpt>
      <trkpt lat="46.48458" lon="5.38878">
        <ele>365.2</ele>
        <time>2022-07-21T08:40:30Z</time>
      </trkpt>
      <trkpt lat="46.48462" lon="5.38869">
        <ele>364.8</ele>
        <time>2022-07-21T08:40:31Z</time>
      </trkpt>
      <trkpt lat="46.48468" lon="5.3886">
        <ele>363.8</ele>
        <time>2022-07-21T08:40:32Z</time>
      </trkpt>
      <trkpt lat="46.48474" lon="5.38853">
        <ele>363</ele>
        <time>2022-07-21T08:40:33Z</time>
      </trkpt>
      <trkpt lat="46.4848" lon="5.38846">
        <ele>362.8</ele>
        <time>2022-07-21T08:40:34Z</time>
      </trkpt>
      <trkpt lat="46.48496" lon="5.38834">
        <ele>361.8</ele>
        <time>2022-07-21T08:40:36Z</time>
      </trkpt>
      <trkpt lat="46.48504" lon="5.38829">
        <ele>361.2</ele>
        <time>2022-07-21T08:40:37Z</time>
      </trkpt>
      <trkpt lat="46.48539" lon="5.38806">
        <ele>360</ele>
        <time>2022-07-21T08:40:41Z</time>
      </trkpt>
      <trkpt lat="46.48567" lon="5.38786">
        <ele>358.6</ele>
        <time>2022-07-21T08:40:44Z</time>
      </trkpt>
      <trkpt lat="46.48576" lon="5.38781">
        <ele>357.4</ele>
        <time>2022-07-21T08:40:45Z</time>
      </trkpt>
      <trkpt lat="46.48582" lon="5.38778">
        <ele>356.2</ele>
        <time>2022-07-21T08:40:46Z</time>
      </trkpt>
      <trkpt lat="46.48599" lon="5.38777">
        <ele>355.4</ele>
        <time>2022-07-21T08:40:48Z</time>
      </trkpt>
      <trkpt lat="46.48605" lon="5.38779">
        <ele>354</ele>
        <time>2022-07-21T08:40:49Z</time>
      </trkpt>
      <trkpt lat="46.48611" lon="5.38777">
        <ele>353.4</ele>
        <time>2022-07-21T08:40:50Z</time>
      </trkpt>
      <trkpt lat="46.4862" lon="5.38773">
        <ele>352.8</ele>
        <time>2022-07-21T08:40:51Z</time>
      </trkpt>
      <trkpt lat="46.48626" lon="5.38765">
        <ele>352.2</ele>
        <time>2022-07-21T08:40:52Z</time>
      </trkpt>
      <trkpt lat="46.4863" lon="5.38756">
        <ele>351.6</ele>
        <time>2022-07-21T08:40:53Z</time>
      </trkpt>
      <trkpt lat="46.48638" lon="5.38731">
        <ele>350.4</ele>
        <time>2022-07-21T08:40:55Z</time>
      </trkpt>
      <trkpt lat="46.48641" lon="5.38717">
        <ele>349.6</ele>
        <time>2022-07-21T08:40:56Z</time>
      </trkpt>
      <trkpt lat="46.48643" lon="5.38702">
        <ele>349</ele>
        <time>2022-07-21T08:40:57Z</time>
      </trkpt>
      <trkpt lat="46.48643" lon="5.38686">
        <ele>347.8</ele>
        <time>2022-07-21T08:40:58Z</time>
      </trkpt>
      <trkpt lat="46.4864" lon="5.38655">
        <ele>346.2</ele>
        <time>2022-07-21T08:41:00Z</time>
      </trkpt>
      <trkpt lat="46.48637" lon="5.3864">
        <ele>346</ele>
        <time>2022-07-21T08:41:01Z</time>
      </trkpt>
      <trkpt lat="46.48629" lon="5.38609">
        <ele>344.8</ele>
        <time>2022-07-21T08:41:03Z</time>
      </trkpt>
      <trkpt lat="46.48621" lon="5.38578">
        <ele>343.2</ele>
        <time>2022-07-21T08:41:05Z</time>
      </trkpt>
      <trkpt lat="46.48612" lon="5.38545">
        <ele>341.8</ele>
        <time>2022-07-21T08:41:07Z</time>
      </trkpt>
      <trkpt lat="46.48603" lon="5.38513">
        <ele>340.6</ele>
        <time>2022-07-21T08:41:09Z</time>
      </trkpt>
      <trkpt lat="46.48597" lon="5.38498">
        <ele>340</ele>
        <time>2022-07-21T08:41:10Z</time>
      </trkpt>
    </trkseg>
  </trk>
</gpx>